<?xml version="1.0" encoding="UTF-8" standalone="no" ?>
<gpx xmlns="http://www.topografix.com/GPX/1/1" xmlns:xsi="http://www.w3.org/2001/XMLSchema-instance" xsi:schemaLocation="http://www.topografix.com/GPX/1/1 http://www.topografix.com/GPX/1/1/gpx.xsd" version="1.1" creator="VisuGPX - https://www.visugpx.com">
  <metadata>
    <name>Montcalm en boucle</name>
    <desc><![CDATA[Montcalm en boucle]]></desc>
  </metadata>
  <trk>
    <name><![CDATA[Rando-course]]></name>
    <cmt><![CDATA[montcalm en boucle]]></cmt>
    <trkseg>
      <trkpt lat="42.71019" lon="1.42567">
        <ele>1181.1171875</ele>
        <time>2012-06-23T07:27:01Z</time>
      </trkpt>
      <trkpt lat="42.71019" lon="1.42565">
        <ele>1181.59765625</ele>
        <time>2012-06-23T07:27:06Z</time>
      </trkpt>
      <trkpt lat="42.71022" lon="1.42558">
        <ele>1178.2329101562</ele>
        <time>2012-06-23T07:27:13Z</time>
      </trkpt>
      <trkpt lat="42.71025" lon="1.42554">
        <ele>1177.2717285156</ele>
        <time>2012-06-23T07:27:19Z</time>
      </trkpt>
      <trkpt lat="42.71027" lon="1.42553">
        <ele>1177.2717285156</ele>
        <time>2012-06-23T07:27:29Z</time>
      </trkpt>
      <trkpt lat="42.7103" lon="1.42551">
        <ele>1179.1940917969</ele>
        <time>2012-06-23T07:27:35Z</time>
      </trkpt>
      <trkpt lat="42.71034" lon="1.42552">
        <ele>1180.6364746094</ele>
        <time>2012-06-23T07:27:42Z</time>
      </trkpt>
      <trkpt lat="42.71034" lon="1.42547">
        <ele>1182.5590820312</ele>
        <time>2012-06-23T07:27:48Z</time>
      </trkpt>
      <trkpt lat="42.71033" lon="1.42544">
        <ele>1184.9624023438</ele>
        <time>2012-06-23T07:27:52Z</time>
      </trkpt>
      <trkpt lat="42.71032" lon="1.4254">
        <ele>1187.8461914062</ele>
        <time>2012-06-23T07:28:00Z</time>
      </trkpt>
      <trkpt lat="42.71033" lon="1.42535">
        <ele>1187.8461914062</ele>
        <time>2012-06-23T07:28:05Z</time>
      </trkpt>
      <trkpt lat="42.71037" lon="1.42531">
        <ele>1189.7687988281</ele>
        <time>2012-06-23T07:28:11Z</time>
      </trkpt>
      <trkpt lat="42.71037" lon="1.42526">
        <ele>1190.2495117188</ele>
        <time>2012-06-23T07:28:17Z</time>
      </trkpt>
      <trkpt lat="42.71035" lon="1.42522">
        <ele>1189.2880859375</ele>
        <time>2012-06-23T07:28:21Z</time>
      </trkpt>
      <trkpt lat="42.71032" lon="1.42514">
        <ele>1188.8076171875</ele>
        <time>2012-06-23T07:28:27Z</time>
      </trkpt>
      <trkpt lat="42.71026" lon="1.42502">
        <ele>1189.2880859375</ele>
        <time>2012-06-23T07:28:35Z</time>
      </trkpt>
      <trkpt lat="42.71021" lon="1.4249">
        <ele>1191.2106933594</ele>
        <time>2012-06-23T07:28:42Z</time>
      </trkpt>
      <trkpt lat="42.7102" lon="1.42481">
        <ele>1192.6528320312</ele>
        <time>2012-06-23T07:28:51Z</time>
      </trkpt>
      <trkpt lat="42.71028" lon="1.42491">
        <ele>1205.6306152344</ele>
        <time>2012-06-23T07:29:09Z</time>
      </trkpt>
      <trkpt lat="42.71022" lon="1.42472">
        <ele>1198.4206542969</ele>
        <time>2012-06-23T07:29:18Z</time>
      </trkpt>
      <trkpt lat="42.7102" lon="1.42471">
        <ele>1199.3820800781</ele>
        <time>2012-06-23T07:29:22Z</time>
      </trkpt>
      <trkpt lat="42.71014" lon="1.42476">
        <ele>1184.0009765625</ele>
        <time>2012-06-23T07:31:26Z</time>
      </trkpt>
      <trkpt lat="42.71014" lon="1.42476">
        <ele>1184.0009765625</ele>
        <time>2012-06-23T07:31:27Z</time>
      </trkpt>
      <trkpt lat="42.71011" lon="1.42471">
        <ele>1183.5202636719</ele>
        <time>2012-06-23T07:31:33Z</time>
      </trkpt>
      <trkpt lat="42.71008" lon="1.42459">
        <ele>1184.9624023438</ele>
        <time>2012-06-23T07:31:40Z</time>
      </trkpt>
      <trkpt lat="42.71007" lon="1.42451">
        <ele>1187.3654785156</ele>
        <time>2012-06-23T07:31:45Z</time>
      </trkpt>
      <trkpt lat="42.71001" lon="1.42434">
        <ele>1189.7687988281</ele>
        <time>2012-06-23T07:31:53Z</time>
      </trkpt>
      <trkpt lat="42.70995" lon="1.42422">
        <ele>1194.0947265625</ele>
        <time>2012-06-23T07:31:59Z</time>
      </trkpt>
      <trkpt lat="42.70992" lon="1.4241">
        <ele>1194.0947265625</ele>
        <time>2012-06-23T07:32:06Z</time>
      </trkpt>
      <trkpt lat="42.70989" lon="1.42399">
        <ele>1192.1721191406</ele>
        <time>2012-06-23T07:32:12Z</time>
      </trkpt>
      <trkpt lat="42.70985" lon="1.42387">
        <ele>1191.2106933594</ele>
        <time>2012-06-23T07:32:18Z</time>
      </trkpt>
      <trkpt lat="42.70984" lon="1.42381">
        <ele>1190.7299804688</ele>
        <time>2012-06-23T07:32:21Z</time>
      </trkpt>
      <trkpt lat="42.70984" lon="1.42373">
        <ele>1190.7299804688</ele>
        <time>2012-06-23T07:32:25Z</time>
      </trkpt>
      <trkpt lat="42.70981" lon="1.4236">
        <ele>1189.7687988281</ele>
        <time>2012-06-23T07:32:32Z</time>
      </trkpt>
      <trkpt lat="42.7098" lon="1.42359">
        <ele>1190.2495117188</ele>
        <time>2012-06-23T07:32:33Z</time>
      </trkpt>
      <trkpt lat="42.70977" lon="1.42354">
        <ele>1194.5751953125</ele>
        <time>2012-06-23T07:32:39Z</time>
      </trkpt>
      <trkpt lat="42.70972" lon="1.42345">
        <ele>1197.4594726562</ele>
        <time>2012-06-23T07:32:45Z</time>
      </trkpt>
      <trkpt lat="42.70971" lon="1.42342">
        <ele>1197.9401855469</ele>
        <time>2012-06-23T07:32:47Z</time>
      </trkpt>
      <trkpt lat="42.70966" lon="1.42325">
        <ele>1197.4594726562</ele>
        <time>2012-06-23T07:32:55Z</time>
      </trkpt>
      <trkpt lat="42.70965" lon="1.42312">
        <ele>1195.5366210938</ele>
        <time>2012-06-23T07:33:02Z</time>
      </trkpt>
      <trkpt lat="42.70962" lon="1.42294">
        <ele>1196.4982910156</ele>
        <time>2012-06-23T07:33:10Z</time>
      </trkpt>
      <trkpt lat="42.70961" lon="1.42281">
        <ele>1196.017578125</ele>
        <time>2012-06-23T07:33:17Z</time>
      </trkpt>
      <trkpt lat="42.70962" lon="1.4227">
        <ele>1195.5366210938</ele>
        <time>2012-06-23T07:33:25Z</time>
      </trkpt>
      <trkpt lat="42.70961" lon="1.42258">
        <ele>1196.017578125</ele>
        <time>2012-06-23T07:33:31Z</time>
      </trkpt>
      <trkpt lat="42.70958" lon="1.42241">
        <ele>1192.1721191406</ele>
        <time>2012-06-23T07:33:40Z</time>
      </trkpt>
      <trkpt lat="42.70954" lon="1.42223">
        <ele>1192.6528320312</ele>
        <time>2012-06-23T07:33:49Z</time>
      </trkpt>
      <trkpt lat="42.70953" lon="1.4221">
        <ele>1193.1333007812</ele>
        <time>2012-06-23T07:33:55Z</time>
      </trkpt>
      <trkpt lat="42.70953" lon="1.42198">
        <ele>1193.1333007812</ele>
        <time>2012-06-23T07:34:02Z</time>
      </trkpt>
      <trkpt lat="42.70953" lon="1.42191">
        <ele>1190.7299804688</ele>
        <time>2012-06-23T07:34:07Z</time>
      </trkpt>
      <trkpt lat="42.7095" lon="1.42179">
        <ele>1192.6528320312</ele>
        <time>2012-06-23T07:34:15Z</time>
      </trkpt>
      <trkpt lat="42.70947" lon="1.42175">
        <ele>1199.3820800781</ele>
        <time>2012-06-23T07:34:20Z</time>
      </trkpt>
      <trkpt lat="42.70945" lon="1.42172">
        <ele>1205.6306152344</ele>
        <time>2012-06-23T07:34:25Z</time>
      </trkpt>
      <trkpt lat="42.70942" lon="1.42171">
        <ele>1215.724609375</ele>
        <time>2012-06-23T07:34:30Z</time>
      </trkpt>
      <trkpt lat="42.70937" lon="1.42163">
        <ele>1238.3154296875</ele>
        <time>2012-06-23T07:34:44Z</time>
      </trkpt>
      <trkpt lat="42.70936" lon="1.42159">
        <ele>1243.6025390625</ele>
        <time>2012-06-23T07:34:50Z</time>
      </trkpt>
      <trkpt lat="42.70934" lon="1.42141">
        <ele>1237.3540039062</ele>
        <time>2012-06-23T07:35:02Z</time>
      </trkpt>
      <trkpt lat="42.70932" lon="1.4213">
        <ele>1230.1442871094</ele>
        <time>2012-06-23T07:35:07Z</time>
      </trkpt>
      <trkpt lat="42.70932" lon="1.42128">
        <ele>1228.7023925781</ele>
        <time>2012-06-23T07:35:08Z</time>
      </trkpt>
      <trkpt lat="42.70931" lon="1.42119">
        <ele>1226.298828125</ele>
        <time>2012-06-23T07:35:13Z</time>
      </trkpt>
      <trkpt lat="42.70931" lon="1.42108">
        <ele>1220.0502929688</ele>
        <time>2012-06-23T07:35:18Z</time>
      </trkpt>
      <trkpt lat="42.70931" lon="1.42101">
        <ele>1217.6469726562</ele>
        <time>2012-06-23T07:35:22Z</time>
      </trkpt>
      <trkpt lat="42.70931" lon="1.42095">
        <ele>1216.6857910156</ele>
        <time>2012-06-23T07:35:27Z</time>
      </trkpt>
      <trkpt lat="42.70928" lon="1.42088">
        <ele>1218.1276855469</ele>
        <time>2012-06-23T07:35:31Z</time>
      </trkpt>
      <trkpt lat="42.70924" lon="1.4208">
        <ele>1217.6469726562</ele>
        <time>2012-06-23T07:35:36Z</time>
      </trkpt>
      <trkpt lat="42.70919" lon="1.42071">
        <ele>1216.6857910156</ele>
        <time>2012-06-23T07:35:43Z</time>
      </trkpt>
      <trkpt lat="42.70918" lon="1.42065">
        <ele>1215.2438964844</ele>
        <time>2012-06-23T07:35:45Z</time>
      </trkpt>
      <trkpt lat="42.70919" lon="1.42054">
        <ele>1210.9177246094</ele>
        <time>2012-06-23T07:35:50Z</time>
      </trkpt>
      <trkpt lat="42.70924" lon="1.42044">
        <ele>1207.0725097656</ele>
        <time>2012-06-23T07:35:56Z</time>
      </trkpt>
      <trkpt lat="42.70927" lon="1.42032">
        <ele>1207.5532226562</ele>
        <time>2012-06-23T07:36:02Z</time>
      </trkpt>
      <trkpt lat="42.70928" lon="1.42025">
        <ele>1207.5532226562</ele>
        <time>2012-06-23T07:36:05Z</time>
      </trkpt>
      <trkpt lat="42.70928" lon="1.42009">
        <ele>1209.4758300781</ele>
        <time>2012-06-23T07:36:13Z</time>
      </trkpt>
      <trkpt lat="42.70929" lon="1.42005">
        <ele>1210.4370117188</ele>
        <time>2012-06-23T07:36:15Z</time>
      </trkpt>
      <trkpt lat="42.70933" lon="1.41998">
        <ele>1209.9562988281</ele>
        <time>2012-06-23T07:36:20Z</time>
      </trkpt>
      <trkpt lat="42.70929" lon="1.41979">
        <ele>1216.205078125</ele>
        <time>2012-06-23T07:36:28Z</time>
      </trkpt>
      <trkpt lat="42.70929" lon="1.41976">
        <ele>1217.6469726562</ele>
        <time>2012-06-23T07:36:29Z</time>
      </trkpt>
      <trkpt lat="42.70927" lon="1.41971">
        <ele>1219.0891113281</ele>
        <time>2012-06-23T07:36:31Z</time>
      </trkpt>
      <trkpt lat="42.70926" lon="1.41957">
        <ele>1223.8955078125</ele>
        <time>2012-06-23T07:36:38Z</time>
      </trkpt>
      <trkpt lat="42.70925" lon="1.41946">
        <ele>1230.1442871094</ele>
        <time>2012-06-23T07:36:44Z</time>
      </trkpt>
      <trkpt lat="42.70926" lon="1.41938">
        <ele>1233.5087890625</ele>
        <time>2012-06-23T07:36:48Z</time>
      </trkpt>
      <trkpt lat="42.70927" lon="1.41931">
        <ele>1234.4702148438</ele>
        <time>2012-06-23T07:36:52Z</time>
      </trkpt>
      <trkpt lat="42.70932" lon="1.41922">
        <ele>1231.5861816406</ele>
        <time>2012-06-23T07:36:59Z</time>
      </trkpt>
      <trkpt lat="42.70935" lon="1.41915">
        <ele>1230.625</ele>
        <time>2012-06-23T07:37:04Z</time>
      </trkpt>
      <trkpt lat="42.70935" lon="1.41906">
        <ele>1230.625</ele>
        <time>2012-06-23T07:37:09Z</time>
      </trkpt>
      <trkpt lat="42.70937" lon="1.41896">
        <ele>1228.2216796875</ele>
        <time>2012-06-23T07:37:14Z</time>
      </trkpt>
      <trkpt lat="42.70937" lon="1.41892">
        <ele>1226.7795410156</ele>
        <time>2012-06-23T07:37:17Z</time>
      </trkpt>
      <trkpt lat="42.7093" lon="1.4188">
        <ele>1227.2602539062</ele>
        <time>2012-06-23T07:37:22Z</time>
      </trkpt>
      <trkpt lat="42.70927" lon="1.41875">
        <ele>1228.2216796875</ele>
        <time>2012-06-23T07:37:24Z</time>
      </trkpt>
      <trkpt lat="42.70924" lon="1.41863">
        <ele>1225.3374023438</ele>
        <time>2012-06-23T07:37:31Z</time>
      </trkpt>
      <trkpt lat="42.70926" lon="1.41849">
        <ele>1225.8181152344</ele>
        <time>2012-06-23T07:37:39Z</time>
      </trkpt>
      <trkpt lat="42.70927" lon="1.41841">
        <ele>1226.7795410156</ele>
        <time>2012-06-23T07:37:45Z</time>
      </trkpt>
      <trkpt lat="42.70927" lon="1.41837">
        <ele>1227.7407226562</ele>
        <time>2012-06-23T07:37:47Z</time>
      </trkpt>
      <trkpt lat="42.70926" lon="1.41831">
        <ele>1226.7795410156</ele>
        <time>2012-06-23T07:37:52Z</time>
      </trkpt>
      <trkpt lat="42.70926" lon="1.4182">
        <ele>1225.3374023438</ele>
        <time>2012-06-23T07:37:59Z</time>
      </trkpt>
      <trkpt lat="42.70926" lon="1.41808">
        <ele>1223.4150390625</ele>
        <time>2012-06-23T07:38:07Z</time>
      </trkpt>
      <trkpt lat="42.70926" lon="1.41806">
        <ele>1223.4150390625</ele>
        <time>2012-06-23T07:38:08Z</time>
      </trkpt>
      <trkpt lat="42.70927" lon="1.41801">
        <ele>1221.9729003906</ele>
        <time>2012-06-23T07:38:12Z</time>
      </trkpt>
      <trkpt lat="42.70928" lon="1.41792">
        <ele>1221.01171875</ele>
        <time>2012-06-23T07:38:18Z</time>
      </trkpt>
      <trkpt lat="42.70928" lon="1.41791">
        <ele>1221.01171875</ele>
        <time>2012-06-23T07:38:19Z</time>
      </trkpt>
      <trkpt lat="42.70926" lon="1.41783">
        <ele>1219.5698242188</ele>
        <time>2012-06-23T07:38:25Z</time>
      </trkpt>
      <trkpt lat="42.70922" lon="1.41774">
        <ele>1219.5698242188</ele>
        <time>2012-06-23T07:38:31Z</time>
      </trkpt>
      <trkpt lat="42.70921" lon="1.41771">
        <ele>1221.9729003906</ele>
        <time>2012-06-23T07:38:35Z</time>
      </trkpt>
      <trkpt lat="42.70918" lon="1.41764">
        <ele>1223.8955078125</ele>
        <time>2012-06-23T07:38:41Z</time>
      </trkpt>
      <trkpt lat="42.70918" lon="1.4176">
        <ele>1224.3762207031</ele>
        <time>2012-06-23T07:38:43Z</time>
      </trkpt>
      <trkpt lat="42.70916" lon="1.41753">
        <ele>1223.8955078125</ele>
        <time>2012-06-23T07:38:47Z</time>
      </trkpt>
      <trkpt lat="42.70912" lon="1.41741">
        <ele>1226.7795410156</ele>
        <time>2012-06-23T07:38:54Z</time>
      </trkpt>
      <trkpt lat="42.70907" lon="1.41733">
        <ele>1227.7407226562</ele>
        <time>2012-06-23T07:39:00Z</time>
      </trkpt>
      <trkpt lat="42.70903" lon="1.41723">
        <ele>1230.625</ele>
        <time>2012-06-23T07:39:07Z</time>
      </trkpt>
      <trkpt lat="42.70903" lon="1.41719">
        <ele>1230.625</ele>
        <time>2012-06-23T07:39:10Z</time>
      </trkpt>
      <trkpt lat="42.709" lon="1.41711">
        <ele>1233.0280761719</ele>
        <time>2012-06-23T07:39:15Z</time>
      </trkpt>
      <trkpt lat="42.709" lon="1.41703">
        <ele>1232.0668945312</ele>
        <time>2012-06-23T07:39:21Z</time>
      </trkpt>
      <trkpt lat="42.709" lon="1.41701">
        <ele>1232.0668945312</ele>
        <time>2012-06-23T07:39:22Z</time>
      </trkpt>
      <trkpt lat="42.70901" lon="1.41697">
        <ele>1232.0668945312</ele>
        <time>2012-06-23T07:39:25Z</time>
      </trkpt>
      <trkpt lat="42.70899" lon="1.41686">
        <ele>1232.5476074219</ele>
        <time>2012-06-23T07:39:33Z</time>
      </trkpt>
      <trkpt lat="42.70899" lon="1.41676">
        <ele>1234.9509277344</ele>
        <time>2012-06-23T07:39:40Z</time>
      </trkpt>
      <trkpt lat="42.70899" lon="1.41675">
        <ele>1234.9509277344</ele>
        <time>2012-06-23T07:39:41Z</time>
      </trkpt>
      <trkpt lat="42.70897" lon="1.41666">
        <ele>1235.912109375</ele>
        <time>2012-06-23T07:39:46Z</time>
      </trkpt>
      <trkpt lat="42.70897" lon="1.41662">
        <ele>1236.3928222656</ele>
        <time>2012-06-23T07:39:48Z</time>
      </trkpt>
      <trkpt lat="42.70893" lon="1.41656">
        <ele>1236.8732910156</ele>
        <time>2012-06-23T07:39:53Z</time>
      </trkpt>
      <trkpt lat="42.70893" lon="1.41652">
        <ele>1237.8347167969</ele>
        <time>2012-06-23T07:39:56Z</time>
      </trkpt>
      <trkpt lat="42.70894" lon="1.41643">
        <ele>1237.3540039062</ele>
        <time>2012-06-23T07:40:02Z</time>
      </trkpt>
      <trkpt lat="42.70893" lon="1.41635">
        <ele>1238.3154296875</ele>
        <time>2012-06-23T07:40:08Z</time>
      </trkpt>
      <trkpt lat="42.70891" lon="1.41625">
        <ele>1239.2766113281</ele>
        <time>2012-06-23T07:40:14Z</time>
      </trkpt>
      <trkpt lat="42.70892" lon="1.41624">
        <ele>1239.7573242188</ele>
        <time>2012-06-23T07:40:15Z</time>
      </trkpt>
      <trkpt lat="42.70891" lon="1.41615">
        <ele>1240.2380371094</ele>
        <time>2012-06-23T07:40:21Z</time>
      </trkpt>
      <trkpt lat="42.70889" lon="1.41611">
        <ele>1240.7185058594</ele>
        <time>2012-06-23T07:40:24Z</time>
      </trkpt>
      <trkpt lat="42.7089" lon="1.41599">
        <ele>1242.6413574219</ele>
        <time>2012-06-23T07:40:32Z</time>
      </trkpt>
      <trkpt lat="42.70887" lon="1.41594">
        <ele>1242.6413574219</ele>
        <time>2012-06-23T07:40:37Z</time>
      </trkpt>
      <trkpt lat="42.70886" lon="1.41591">
        <ele>1242.6413574219</ele>
        <time>2012-06-23T07:40:39Z</time>
      </trkpt>
      <trkpt lat="42.70886" lon="1.4158">
        <ele>1243.6025390625</ele>
        <time>2012-06-23T07:40:46Z</time>
      </trkpt>
      <trkpt lat="42.70888" lon="1.41575">
        <ele>1243.6025390625</ele>
        <time>2012-06-23T07:40:50Z</time>
      </trkpt>
      <trkpt lat="42.70889" lon="1.41574">
        <ele>1243.1218261719</ele>
        <time>2012-06-23T07:40:51Z</time>
      </trkpt>
      <trkpt lat="42.7089" lon="1.41569">
        <ele>1242.1606445312</ele>
        <time>2012-06-23T07:40:55Z</time>
      </trkpt>
      <trkpt lat="42.70891" lon="1.4156">
        <ele>1243.1218261719</ele>
        <time>2012-06-23T07:41:02Z</time>
      </trkpt>
      <trkpt lat="42.70892" lon="1.41554">
        <ele>1244.5639648438</ele>
        <time>2012-06-23T07:41:07Z</time>
      </trkpt>
      <trkpt lat="42.70893" lon="1.41547">
        <ele>1246.9672851562</ele>
        <time>2012-06-23T07:41:13Z</time>
      </trkpt>
      <trkpt lat="42.70893" lon="1.41542">
        <ele>1246.9672851562</ele>
        <time>2012-06-23T07:41:18Z</time>
      </trkpt>
      <trkpt lat="42.70894" lon="1.41537">
        <ele>1248.8898925781</ele>
        <time>2012-06-23T07:41:24Z</time>
      </trkpt>
      <trkpt lat="42.70889" lon="1.41535">
        <ele>1253.2158203125</ele>
        <time>2012-06-23T07:41:29Z</time>
      </trkpt>
      <trkpt lat="42.70885" lon="1.41534">
        <ele>1257.5417480469</ele>
        <time>2012-06-23T07:41:35Z</time>
      </trkpt>
      <trkpt lat="42.70883" lon="1.41536">
        <ele>1258.5029296875</ele>
        <time>2012-06-23T07:41:40Z</time>
      </trkpt>
      <trkpt lat="42.7088" lon="1.41536">
        <ele>1259.4643554688</ele>
        <time>2012-06-23T07:41:46Z</time>
      </trkpt>
      <trkpt lat="42.70876" lon="1.41532">
        <ele>1259.9448242188</ele>
        <time>2012-06-23T07:41:51Z</time>
      </trkpt>
      <trkpt lat="42.70873" lon="1.41534">
        <ele>1260.9064941406</ele>
        <time>2012-06-23T07:41:55Z</time>
      </trkpt>
      <trkpt lat="42.70869" lon="1.41533">
        <ele>1261.3872070312</ele>
        <time>2012-06-23T07:42:00Z</time>
      </trkpt>
      <trkpt lat="42.70867" lon="1.41534">
        <ele>1262.8291015625</ele>
        <time>2012-06-23T07:42:04Z</time>
      </trkpt>
      <trkpt lat="42.70866" lon="1.41537">
        <ele>1264.7517089844</ele>
        <time>2012-06-23T07:42:09Z</time>
      </trkpt>
      <trkpt lat="42.70861" lon="1.4154">
        <ele>1265.232421875</ele>
        <time>2012-06-23T07:42:14Z</time>
      </trkpt>
      <trkpt lat="42.70856" lon="1.41541">
        <ele>1265.232421875</ele>
        <time>2012-06-23T07:42:21Z</time>
      </trkpt>
      <trkpt lat="42.7085" lon="1.4154">
        <ele>1266.6743164062</ele>
        <time>2012-06-23T07:42:28Z</time>
      </trkpt>
      <trkpt lat="42.70844" lon="1.4154">
        <ele>1268.1162109375</ele>
        <time>2012-06-23T07:42:33Z</time>
      </trkpt>
      <trkpt lat="42.7084" lon="1.41538">
        <ele>1271.0002441406</ele>
        <time>2012-06-23T07:42:37Z</time>
      </trkpt>
      <trkpt lat="42.70837" lon="1.41538">
        <ele>1272.9228515625</ele>
        <time>2012-06-23T07:42:41Z</time>
      </trkpt>
      <trkpt lat="42.70834" lon="1.41541">
        <ele>1272.4421386719</ele>
        <time>2012-06-23T07:42:48Z</time>
      </trkpt>
      <trkpt lat="42.70833" lon="1.41549">
        <ele>1272.9228515625</ele>
        <time>2012-06-23T07:42:54Z</time>
      </trkpt>
      <trkpt lat="42.70834" lon="1.41556">
        <ele>1274.3647460938</ele>
        <time>2012-06-23T07:42:59Z</time>
      </trkpt>
      <trkpt lat="42.70832" lon="1.41563">
        <ele>1274.3647460938</ele>
        <time>2012-06-23T07:43:06Z</time>
      </trkpt>
      <trkpt lat="42.70828" lon="1.41566">
        <ele>1275.806640625</ele>
        <time>2012-06-23T07:43:13Z</time>
      </trkpt>
      <trkpt lat="42.70829" lon="1.41571">
        <ele>1278.2102050781</ele>
        <time>2012-06-23T07:43:18Z</time>
      </trkpt>
      <trkpt lat="42.70824" lon="1.41572">
        <ele>1280.1328125</ele>
        <time>2012-06-23T07:43:24Z</time>
      </trkpt>
      <trkpt lat="42.70823" lon="1.41578">
        <ele>1282.0554199219</ele>
        <time>2012-06-23T07:43:31Z</time>
      </trkpt>
      <trkpt lat="42.70821" lon="1.41582">
        <ele>1283.4973144531</ele>
        <time>2012-06-23T07:43:36Z</time>
      </trkpt>
      <trkpt lat="42.70818" lon="1.41582">
        <ele>1284.4587402344</ele>
        <time>2012-06-23T07:43:41Z</time>
      </trkpt>
      <trkpt lat="42.70818" lon="1.41585">
        <ele>1285.9006347656</ele>
        <time>2012-06-23T07:43:46Z</time>
      </trkpt>
      <trkpt lat="42.70816" lon="1.41587">
        <ele>1287.3425292969</ele>
        <time>2012-06-23T07:43:50Z</time>
      </trkpt>
      <trkpt lat="42.70811" lon="1.41585">
        <ele>1288.7846679688</ele>
        <time>2012-06-23T07:43:57Z</time>
      </trkpt>
      <trkpt lat="42.70811" lon="1.41591">
        <ele>1290.2265625</ele>
        <time>2012-06-23T07:44:03Z</time>
      </trkpt>
      <trkpt lat="42.70809" lon="1.41595">
        <ele>1290.2265625</ele>
        <time>2012-06-23T07:44:09Z</time>
      </trkpt>
      <trkpt lat="42.70808" lon="1.41598">
        <ele>1290.2265625</ele>
        <time>2012-06-23T07:44:13Z</time>
      </trkpt>
      <trkpt lat="42.70807" lon="1.41602">
        <ele>1291.6684570312</ele>
        <time>2012-06-23T07:44:18Z</time>
      </trkpt>
      <trkpt lat="42.70804" lon="1.41603">
        <ele>1293.5913085938</ele>
        <time>2012-06-23T07:44:23Z</time>
      </trkpt>
      <trkpt lat="42.70802" lon="1.41605">
        <ele>1294.0720214844</ele>
        <time>2012-06-23T07:44:27Z</time>
      </trkpt>
      <trkpt lat="42.708" lon="1.41609">
        <ele>1295.9946289062</ele>
        <time>2012-06-23T07:44:33Z</time>
      </trkpt>
      <trkpt lat="42.70797" lon="1.41608">
        <ele>1296.9558105469</ele>
        <time>2012-06-23T07:44:38Z</time>
      </trkpt>
      <trkpt lat="42.70794" lon="1.41608">
        <ele>1299.83984375</ele>
        <time>2012-06-23T07:44:44Z</time>
      </trkpt>
      <trkpt lat="42.70792" lon="1.41612">
        <ele>1300.8010253906</ele>
        <time>2012-06-23T07:44:50Z</time>
      </trkpt>
      <trkpt lat="42.70789" lon="1.41612">
        <ele>1302.2429199219</ele>
        <time>2012-06-23T07:44:56Z</time>
      </trkpt>
      <trkpt lat="42.70787" lon="1.41611">
        <ele>1302.2429199219</ele>
        <time>2012-06-23T07:45:02Z</time>
      </trkpt>
      <trkpt lat="42.70784" lon="1.41614">
        <ele>1303.6850585938</ele>
        <time>2012-06-23T07:45:07Z</time>
      </trkpt>
      <trkpt lat="42.70781" lon="1.41613">
        <ele>1305.126953125</ele>
        <time>2012-06-23T07:45:12Z</time>
      </trkpt>
      <trkpt lat="42.70779" lon="1.41616">
        <ele>1306.0881347656</ele>
        <time>2012-06-23T07:45:17Z</time>
      </trkpt>
      <trkpt lat="42.70777" lon="1.41618">
        <ele>1307.0495605469</ele>
        <time>2012-06-23T07:45:22Z</time>
      </trkpt>
      <trkpt lat="42.70774" lon="1.41624">
        <ele>1309.453125</ele>
        <time>2012-06-23T07:45:28Z</time>
      </trkpt>
      <trkpt lat="42.7077" lon="1.41625">
        <ele>1310.4143066406</ele>
        <time>2012-06-23T07:45:34Z</time>
      </trkpt>
      <trkpt lat="42.70768" lon="1.41629">
        <ele>1311.3757324219</ele>
        <time>2012-06-23T07:45:39Z</time>
      </trkpt>
      <trkpt lat="42.70766" lon="1.41632">
        <ele>1313.7788085938</ele>
        <time>2012-06-23T07:45:45Z</time>
      </trkpt>
      <trkpt lat="42.70765" lon="1.41634">
        <ele>1316.1821289062</ele>
        <time>2012-06-23T07:45:49Z</time>
      </trkpt>
      <trkpt lat="42.70765" lon="1.41634">
        <ele>1320.02734375</ele>
        <time>2012-06-23T07:45:53Z</time>
      </trkpt>
      <trkpt lat="42.70763" lon="1.41638">
        <ele>1321.4692382812</ele>
        <time>2012-06-23T07:45:58Z</time>
      </trkpt>
      <trkpt lat="42.70762" lon="1.41638">
        <ele>1324.353515625</ele>
        <time>2012-06-23T07:46:02Z</time>
      </trkpt>
      <trkpt lat="42.7076" lon="1.4164">
        <ele>1326.2761230469</ele>
        <time>2012-06-23T07:46:06Z</time>
      </trkpt>
      <trkpt lat="42.70758" lon="1.41643">
        <ele>1329.640625</ele>
        <time>2012-06-23T07:46:13Z</time>
      </trkpt>
      <trkpt lat="42.70753" lon="1.41649">
        <ele>1331.0827636719</ele>
        <time>2012-06-23T07:46:22Z</time>
      </trkpt>
      <trkpt lat="42.70747" lon="1.41655">
        <ele>1329.1599121094</ele>
        <time>2012-06-23T07:46:30Z</time>
      </trkpt>
      <trkpt lat="42.70744" lon="1.41661">
        <ele>1330.6020507812</ele>
        <time>2012-06-23T07:46:37Z</time>
      </trkpt>
      <trkpt lat="42.70738" lon="1.41663">
        <ele>1334.9279785156</ele>
        <time>2012-06-23T07:46:47Z</time>
      </trkpt>
      <trkpt lat="42.70738" lon="1.41663">
        <ele>1337.8117675781</ele>
        <time>2012-06-23T07:46:54Z</time>
      </trkpt>
      <trkpt lat="42.70734" lon="1.41668">
        <ele>1338.2924804688</ele>
        <time>2012-06-23T07:46:59Z</time>
      </trkpt>
      <trkpt lat="42.70732" lon="1.41671">
        <ele>1341.1765136719</ele>
        <time>2012-06-23T07:47:05Z</time>
      </trkpt>
      <trkpt lat="42.70731" lon="1.41674">
        <ele>1342.1379394531</ele>
        <time>2012-06-23T07:47:10Z</time>
      </trkpt>
      <trkpt lat="42.70729" lon="1.41675">
        <ele>1341.6572265625</ele>
        <time>2012-06-23T07:47:11Z</time>
      </trkpt>
      <trkpt lat="42.70728" lon="1.41679">
        <ele>1343.0991210938</ele>
        <time>2012-06-23T07:47:16Z</time>
      </trkpt>
      <trkpt lat="42.70725" lon="1.41683">
        <ele>1342.6186523438</ele>
        <time>2012-06-23T07:47:19Z</time>
      </trkpt>
      <trkpt lat="42.70724" lon="1.41689">
        <ele>1345.0217285156</ele>
        <time>2012-06-23T07:47:24Z</time>
      </trkpt>
      <trkpt lat="42.70723" lon="1.41692">
        <ele>1347.9057617188</ele>
        <time>2012-06-23T07:47:28Z</time>
      </trkpt>
      <trkpt lat="42.70719" lon="1.41697">
        <ele>1349.34765625</ele>
        <time>2012-06-23T07:47:36Z</time>
      </trkpt>
      <trkpt lat="42.70718" lon="1.41702">
        <ele>1354.154296875</ele>
        <time>2012-06-23T07:47:42Z</time>
      </trkpt>
      <trkpt lat="42.70719" lon="1.41706">
        <ele>1357.9997558594</ele>
        <time>2012-06-23T07:47:47Z</time>
      </trkpt>
      <trkpt lat="42.70716" lon="1.4171">
        <ele>1360.4028320312</ele>
        <time>2012-06-23T07:47:52Z</time>
      </trkpt>
      <trkpt lat="42.70712" lon="1.41715">
        <ele>1360.8835449219</ele>
        <time>2012-06-23T07:47:57Z</time>
      </trkpt>
      <trkpt lat="42.70709" lon="1.41715">
        <ele>1364.7287597656</ele>
        <time>2012-06-23T07:48:02Z</time>
      </trkpt>
      <trkpt lat="42.70708" lon="1.41714">
        <ele>1364.7287597656</ele>
        <time>2012-06-23T07:48:05Z</time>
      </trkpt>
      <trkpt lat="42.70705" lon="1.41712">
        <ele>1365.6901855469</ele>
        <time>2012-06-23T07:48:11Z</time>
      </trkpt>
      <trkpt lat="42.70706" lon="1.4171">
        <ele>1367.6125488281</ele>
        <time>2012-06-23T07:48:14Z</time>
      </trkpt>
      <trkpt lat="42.70707" lon="1.41702">
        <ele>1365.6901855469</ele>
        <time>2012-06-23T07:48:19Z</time>
      </trkpt>
      <trkpt lat="42.70703" lon="1.41697">
        <ele>1364.248046875</ele>
        <time>2012-06-23T07:48:22Z</time>
      </trkpt>
      <trkpt lat="42.70703" lon="1.41694">
        <ele>1364.248046875</ele>
        <time>2012-06-23T07:48:24Z</time>
      </trkpt>
      <trkpt lat="42.70703" lon="1.4169">
        <ele>1365.2094726562</ele>
        <time>2012-06-23T07:48:27Z</time>
      </trkpt>
      <trkpt lat="42.70704" lon="1.41688">
        <ele>1366.6513671875</ele>
        <time>2012-06-23T07:48:29Z</time>
      </trkpt>
      <trkpt lat="42.70702" lon="1.4168">
        <ele>1367.1320800781</ele>
        <time>2012-06-23T07:48:34Z</time>
      </trkpt>
      <trkpt lat="42.70699" lon="1.41675">
        <ele>1368.0932617188</ele>
        <time>2012-06-23T07:48:40Z</time>
      </trkpt>
      <trkpt lat="42.70696" lon="1.41671">
        <ele>1366.6513671875</ele>
        <time>2012-06-23T07:48:46Z</time>
      </trkpt>
      <trkpt lat="42.70696" lon="1.41667">
        <ele>1371.4577636719</ele>
        <time>2012-06-23T07:48:51Z</time>
      </trkpt>
      <trkpt lat="42.70692" lon="1.41665">
        <ele>1376.2646484375</ele>
        <time>2012-06-23T07:48:59Z</time>
      </trkpt>
      <trkpt lat="42.70692" lon="1.4166">
        <ele>1378.66796875</ele>
        <time>2012-06-23T07:49:02Z</time>
      </trkpt>
      <trkpt lat="42.70693" lon="1.41652">
        <ele>1382.5131835938</ele>
        <time>2012-06-23T07:49:08Z</time>
      </trkpt>
      <trkpt lat="42.70692" lon="1.41646">
        <ele>1383.4743652344</ele>
        <time>2012-06-23T07:49:12Z</time>
      </trkpt>
      <trkpt lat="42.70688" lon="1.4164">
        <ele>1381.0712890625</ele>
        <time>2012-06-23T07:49:17Z</time>
      </trkpt>
      <trkpt lat="42.70686" lon="1.41637">
        <ele>1379.1484375</ele>
        <time>2012-06-23T07:49:21Z</time>
      </trkpt>
      <trkpt lat="42.70687" lon="1.41632">
        <ele>1379.1484375</ele>
        <time>2012-06-23T07:49:24Z</time>
      </trkpt>
      <trkpt lat="42.70687" lon="1.41626">
        <ele>1378.66796875</ele>
        <time>2012-06-23T07:49:29Z</time>
      </trkpt>
      <trkpt lat="42.70688" lon="1.4162">
        <ele>1379.6291503906</ele>
        <time>2012-06-23T07:49:34Z</time>
      </trkpt>
      <trkpt lat="42.70685" lon="1.41617">
        <ele>1379.1484375</ele>
        <time>2012-06-23T07:49:38Z</time>
      </trkpt>
      <trkpt lat="42.70684" lon="1.41613">
        <ele>1379.6291503906</ele>
        <time>2012-06-23T07:49:41Z</time>
      </trkpt>
      <trkpt lat="42.70685" lon="1.41603">
        <ele>1383.955078125</ele>
        <time>2012-06-23T07:49:48Z</time>
      </trkpt>
      <trkpt lat="42.70681" lon="1.41598">
        <ele>1385.3969726562</ele>
        <time>2012-06-23T07:49:59Z</time>
      </trkpt>
      <trkpt lat="42.70677" lon="1.41592">
        <ele>1382.9936523438</ele>
        <time>2012-06-23T07:50:08Z</time>
      </trkpt>
      <trkpt lat="42.70675" lon="1.41592">
        <ele>1387.3195800781</ele>
        <time>2012-06-23T07:50:15Z</time>
      </trkpt>
      <trkpt lat="42.70674" lon="1.41589">
        <ele>1392.1264648438</ele>
        <time>2012-06-23T07:50:21Z</time>
      </trkpt>
      <trkpt lat="42.7067" lon="1.41585">
        <ele>1395.0102539062</ele>
        <time>2012-06-23T07:50:31Z</time>
      </trkpt>
      <trkpt lat="42.7067" lon="1.41579">
        <ele>1394.5295410156</ele>
        <time>2012-06-23T07:50:36Z</time>
      </trkpt>
      <trkpt lat="42.7067" lon="1.41576">
        <ele>1394.5295410156</ele>
        <time>2012-06-23T07:50:38Z</time>
      </trkpt>
      <trkpt lat="42.70671" lon="1.41571">
        <ele>1396.4523925781</ele>
        <time>2012-06-23T07:50:41Z</time>
      </trkpt>
      <trkpt lat="42.70669" lon="1.41567">
        <ele>1396.4523925781</ele>
        <time>2012-06-23T07:50:46Z</time>
      </trkpt>
      <trkpt lat="42.70673" lon="1.41564">
        <ele>1402.7006835938</ele>
        <time>2012-06-23T07:50:51Z</time>
      </trkpt>
      <trkpt lat="42.70674" lon="1.41562">
        <ele>1405.1042480469</ele>
        <time>2012-06-23T07:50:53Z</time>
      </trkpt>
      <trkpt lat="42.70674" lon="1.41558">
        <ele>1407.0268554688</ele>
        <time>2012-06-23T07:50:56Z</time>
      </trkpt>
      <trkpt lat="42.70673" lon="1.41553">
        <ele>1407.5075683594</ele>
        <time>2012-06-23T07:51:00Z</time>
      </trkpt>
      <trkpt lat="42.70671" lon="1.41544">
        <ele>1406.0654296875</ele>
        <time>2012-06-23T07:51:07Z</time>
      </trkpt>
      <trkpt lat="42.70668" lon="1.41544">
        <ele>1404.6235351562</ele>
        <time>2012-06-23T07:51:11Z</time>
      </trkpt>
      <trkpt lat="42.70663" lon="1.41542">
        <ele>1406.0654296875</ele>
        <time>2012-06-23T07:51:18Z</time>
      </trkpt>
      <trkpt lat="42.70663" lon="1.41538">
        <ele>1407.0268554688</ele>
        <time>2012-06-23T07:51:24Z</time>
      </trkpt>
      <trkpt lat="42.70663" lon="1.41535">
        <ele>1405.1042480469</ele>
        <time>2012-06-23T07:51:28Z</time>
      </trkpt>
      <trkpt lat="42.70663" lon="1.41533">
        <ele>1403.662109375</ele>
        <time>2012-06-23T07:51:32Z</time>
      </trkpt>
      <trkpt lat="42.7066" lon="1.41531">
        <ele>1403.1813964844</ele>
        <time>2012-06-23T07:51:36Z</time>
      </trkpt>
      <trkpt lat="42.7066" lon="1.41527">
        <ele>1403.662109375</ele>
        <time>2012-06-23T07:51:42Z</time>
      </trkpt>
      <trkpt lat="42.70661" lon="1.41522">
        <ele>1404.1430664062</ele>
        <time>2012-06-23T07:51:51Z</time>
      </trkpt>
      <trkpt lat="42.70664" lon="1.41519">
        <ele>1406.0654296875</ele>
        <time>2012-06-23T07:51:57Z</time>
      </trkpt>
      <trkpt lat="42.70668" lon="1.4152">
        <ele>1404.1430664062</ele>
        <time>2012-06-23T07:52:03Z</time>
      </trkpt>
      <trkpt lat="42.70672" lon="1.41518">
        <ele>1404.1430664062</ele>
        <time>2012-06-23T07:52:06Z</time>
      </trkpt>
      <trkpt lat="42.70673" lon="1.41508">
        <ele>1404.1430664062</ele>
        <time>2012-06-23T07:52:13Z</time>
      </trkpt>
      <trkpt lat="42.70674" lon="1.41504">
        <ele>1403.662109375</ele>
        <time>2012-06-23T07:52:16Z</time>
      </trkpt>
      <trkpt lat="42.70676" lon="1.41492">
        <ele>1403.662109375</ele>
        <time>2012-06-23T07:52:24Z</time>
      </trkpt>
      <trkpt lat="42.70676" lon="1.41485">
        <ele>1405.1042480469</ele>
        <time>2012-06-23T07:52:29Z</time>
      </trkpt>
      <trkpt lat="42.70674" lon="1.4148">
        <ele>1407.5075683594</ele>
        <time>2012-06-23T07:52:36Z</time>
      </trkpt>
      <trkpt lat="42.70675" lon="1.41472">
        <ele>1409.4301757812</ele>
        <time>2012-06-23T07:52:41Z</time>
      </trkpt>
      <trkpt lat="42.70676" lon="1.41466">
        <ele>1409.9106445312</ele>
        <time>2012-06-23T07:52:45Z</time>
      </trkpt>
      <trkpt lat="42.70673" lon="1.41456">
        <ele>1411.8334960938</ele>
        <time>2012-06-23T07:52:51Z</time>
      </trkpt>
      <trkpt lat="42.70672" lon="1.41453">
        <ele>1411.8334960938</ele>
        <time>2012-06-23T07:52:53Z</time>
      </trkpt>
      <trkpt lat="42.7067" lon="1.41443">
        <ele>1414.2365722656</ele>
        <time>2012-06-23T07:52:59Z</time>
      </trkpt>
      <trkpt lat="42.70669" lon="1.41439">
        <ele>1415.1979980469</ele>
        <time>2012-06-23T07:53:02Z</time>
      </trkpt>
      <trkpt lat="42.70673" lon="1.4143">
        <ele>1416.1591796875</ele>
        <time>2012-06-23T07:53:07Z</time>
      </trkpt>
      <trkpt lat="42.70676" lon="1.41425">
        <ele>1416.6398925781</ele>
        <time>2012-06-23T07:53:10Z</time>
      </trkpt>
      <trkpt lat="42.70676" lon="1.41421">
        <ele>1415.6787109375</ele>
        <time>2012-06-23T07:53:13Z</time>
      </trkpt>
      <trkpt lat="42.70683" lon="1.41408">
        <ele>1419.0432128906</ele>
        <time>2012-06-23T07:53:20Z</time>
      </trkpt>
      <trkpt lat="42.70685" lon="1.41406">
        <ele>1419.5239257812</ele>
        <time>2012-06-23T07:53:21Z</time>
      </trkpt>
      <trkpt lat="42.70685" lon="1.41396">
        <ele>1418.0817871094</ele>
        <time>2012-06-23T07:53:28Z</time>
      </trkpt>
      <trkpt lat="42.70684" lon="1.41395">
        <ele>1416.6398925781</ele>
        <time>2012-06-23T07:53:29Z</time>
      </trkpt>
      <trkpt lat="42.70683" lon="1.41384">
        <ele>1419.5239257812</ele>
        <time>2012-06-23T07:53:36Z</time>
      </trkpt>
      <trkpt lat="42.70682" lon="1.41377">
        <ele>1420.9660644531</ele>
        <time>2012-06-23T07:53:41Z</time>
      </trkpt>
      <trkpt lat="42.70683" lon="1.41366">
        <ele>1421.9272460938</ele>
        <time>2012-06-23T07:53:46Z</time>
      </trkpt>
      <trkpt lat="42.70683" lon="1.41359">
        <ele>1422.4079589844</ele>
        <time>2012-06-23T07:53:50Z</time>
      </trkpt>
      <trkpt lat="42.70683" lon="1.41351">
        <ele>1418.0817871094</ele>
        <time>2012-06-23T07:53:55Z</time>
      </trkpt>
      <trkpt lat="42.70684" lon="1.4134">
        <ele>1420.0046386719</ele>
        <time>2012-06-23T07:54:03Z</time>
      </trkpt>
      <trkpt lat="42.70683" lon="1.41331">
        <ele>1420.4853515625</ele>
        <time>2012-06-23T07:54:07Z</time>
      </trkpt>
      <trkpt lat="42.70682" lon="1.41327">
        <ele>1419.0432128906</ele>
        <time>2012-06-23T07:54:11Z</time>
      </trkpt>
      <trkpt lat="42.70681" lon="1.41321">
        <ele>1418.5625</ele>
        <time>2012-06-23T07:54:15Z</time>
      </trkpt>
      <trkpt lat="42.70681" lon="1.41316">
        <ele>1419.0432128906</ele>
        <time>2012-06-23T07:54:19Z</time>
      </trkpt>
      <trkpt lat="42.70679" lon="1.41308">
        <ele>1420.9660644531</ele>
        <time>2012-06-23T07:54:25Z</time>
      </trkpt>
      <trkpt lat="42.70678" lon="1.41303">
        <ele>1423.3693847656</ele>
        <time>2012-06-23T07:54:29Z</time>
      </trkpt>
      <trkpt lat="42.70678" lon="1.41299">
        <ele>1423.3693847656</ele>
        <time>2012-06-23T07:54:31Z</time>
      </trkpt>
      <trkpt lat="42.70679" lon="1.4129">
        <ele>1425.7724609375</ele>
        <time>2012-06-23T07:54:36Z</time>
      </trkpt>
      <trkpt lat="42.70677" lon="1.41278">
        <ele>1425.7724609375</ele>
        <time>2012-06-23T07:54:41Z</time>
      </trkpt>
      <trkpt lat="42.70681" lon="1.41265">
        <ele>1426.7338867188</ele>
        <time>2012-06-23T07:54:48Z</time>
      </trkpt>
      <trkpt lat="42.70686" lon="1.41258">
        <ele>1431.5402832031</ele>
        <time>2012-06-23T07:54:55Z</time>
      </trkpt>
      <trkpt lat="42.70687" lon="1.41246">
        <ele>1428.6564941406</ele>
        <time>2012-06-23T07:55:02Z</time>
      </trkpt>
      <trkpt lat="42.70687" lon="1.41243">
        <ele>1428.6564941406</ele>
        <time>2012-06-23T07:55:05Z</time>
      </trkpt>
      <trkpt lat="42.70688" lon="1.41233">
        <ele>1427.2145996094</ele>
        <time>2012-06-23T07:55:11Z</time>
      </trkpt>
      <trkpt lat="42.70691" lon="1.41226">
        <ele>1428.6564941406</ele>
        <time>2012-06-23T07:55:15Z</time>
      </trkpt>
      <trkpt lat="42.70692" lon="1.41219">
        <ele>1430.5791015625</ele>
        <time>2012-06-23T07:55:20Z</time>
      </trkpt>
      <trkpt lat="42.70692" lon="1.41213">
        <ele>1432.5017089844</ele>
        <time>2012-06-23T07:55:25Z</time>
      </trkpt>
      <trkpt lat="42.70695" lon="1.41209">
        <ele>1434.4243164062</ele>
        <time>2012-06-23T07:55:29Z</time>
      </trkpt>
      <trkpt lat="42.70694" lon="1.41204">
        <ele>1436.3471679688</ele>
        <time>2012-06-23T07:55:33Z</time>
      </trkpt>
      <trkpt lat="42.70694" lon="1.41199">
        <ele>1434.4243164062</ele>
        <time>2012-06-23T07:55:36Z</time>
      </trkpt>
      <trkpt lat="42.70695" lon="1.41188">
        <ele>1433.462890625</ele>
        <time>2012-06-23T07:55:43Z</time>
      </trkpt>
      <trkpt lat="42.70696" lon="1.41182">
        <ele>1436.3471679688</ele>
        <time>2012-06-23T07:55:47Z</time>
      </trkpt>
      <trkpt lat="42.70696" lon="1.41181">
        <ele>1436.8276367188</ele>
        <time>2012-06-23T07:55:48Z</time>
      </trkpt>
      <trkpt lat="42.70697" lon="1.41172">
        <ele>1440.1923828125</ele>
        <time>2012-06-23T07:55:54Z</time>
      </trkpt>
      <trkpt lat="42.70699" lon="1.41165">
        <ele>1442.1149902344</ele>
        <time>2012-06-23T07:56:00Z</time>
      </trkpt>
      <trkpt lat="42.70698" lon="1.41161">
        <ele>1441.6342773438</ele>
        <time>2012-06-23T07:56:04Z</time>
      </trkpt>
      <trkpt lat="42.70697" lon="1.41159">
        <ele>1443.076171875</ele>
        <time>2012-06-23T07:56:08Z</time>
      </trkpt>
      <trkpt lat="42.70698" lon="1.41153">
        <ele>1443.076171875</ele>
        <time>2012-06-23T07:56:14Z</time>
      </trkpt>
      <trkpt lat="42.70697" lon="1.41151">
        <ele>1443.5568847656</ele>
        <time>2012-06-23T07:56:18Z</time>
      </trkpt>
      <trkpt lat="42.70698" lon="1.41143">
        <ele>1445.4794921875</ele>
        <time>2012-06-23T07:56:24Z</time>
      </trkpt>
      <trkpt lat="42.70698" lon="1.41139">
        <ele>1446.9213867188</ele>
        <time>2012-06-23T07:56:28Z</time>
      </trkpt>
      <trkpt lat="42.70698" lon="1.41137">
        <ele>1447.8828125</ele>
        <time>2012-06-23T07:56:29Z</time>
      </trkpt>
      <trkpt lat="42.70699" lon="1.41129">
        <ele>1449.3247070312</ele>
        <time>2012-06-23T07:56:35Z</time>
      </trkpt>
      <trkpt lat="42.70699" lon="1.41123">
        <ele>1447.8828125</ele>
        <time>2012-06-23T07:56:39Z</time>
      </trkpt>
      <trkpt lat="42.70697" lon="1.41116">
        <ele>1451.2473144531</ele>
        <time>2012-06-23T07:56:46Z</time>
      </trkpt>
      <trkpt lat="42.70692" lon="1.41112">
        <ele>1451.7280273438</ele>
        <time>2012-06-23T07:56:54Z</time>
      </trkpt>
      <trkpt lat="42.7069" lon="1.41108">
        <ele>1450.2861328125</ele>
        <time>2012-06-23T07:56:58Z</time>
      </trkpt>
      <trkpt lat="42.70688" lon="1.411">
        <ele>1452.689453125</ele>
        <time>2012-06-23T07:57:04Z</time>
      </trkpt>
      <trkpt lat="42.70689" lon="1.41095">
        <ele>1451.7280273438</ele>
        <time>2012-06-23T07:57:08Z</time>
      </trkpt>
      <trkpt lat="42.70687" lon="1.41088">
        <ele>1450.7666015625</ele>
        <time>2012-06-23T07:57:14Z</time>
      </trkpt>
      <trkpt lat="42.70687" lon="1.41082">
        <ele>1450.7666015625</ele>
        <time>2012-06-23T07:57:20Z</time>
      </trkpt>
      <trkpt lat="42.70685" lon="1.41077">
        <ele>1450.7666015625</ele>
        <time>2012-06-23T07:57:24Z</time>
      </trkpt>
      <trkpt lat="42.70683" lon="1.41072">
        <ele>1451.2473144531</ele>
        <time>2012-06-23T07:57:29Z</time>
      </trkpt>
      <trkpt lat="42.70683" lon="1.41071">
        <ele>1451.2473144531</ele>
        <time>2012-06-23T07:57:30Z</time>
      </trkpt>
      <trkpt lat="42.7068" lon="1.41067">
        <ele>1456.0539550781</ele>
        <time>2012-06-23T07:57:36Z</time>
      </trkpt>
      <trkpt lat="42.70681" lon="1.41062">
        <ele>1457.49609375</ele>
        <time>2012-06-23T07:57:41Z</time>
      </trkpt>
      <trkpt lat="42.7068" lon="1.41057">
        <ele>1457.49609375</ele>
        <time>2012-06-23T07:57:46Z</time>
      </trkpt>
      <trkpt lat="42.70679" lon="1.41052">
        <ele>1457.9768066406</ele>
        <time>2012-06-23T07:57:50Z</time>
      </trkpt>
      <trkpt lat="42.70677" lon="1.41043">
        <ele>1457.0153808594</ele>
        <time>2012-06-23T07:57:57Z</time>
      </trkpt>
      <trkpt lat="42.70678" lon="1.41039">
        <ele>1457.9768066406</ele>
        <time>2012-06-23T07:58:02Z</time>
      </trkpt>
      <trkpt lat="42.70676" lon="1.41031">
        <ele>1461.3413085938</ele>
        <time>2012-06-23T07:58:08Z</time>
      </trkpt>
      <trkpt lat="42.70674" lon="1.41029">
        <ele>1464.2250976562</ele>
        <time>2012-06-23T07:58:13Z</time>
      </trkpt>
      <trkpt lat="42.70675" lon="1.41023">
        <ele>1469.5126953125</ele>
        <time>2012-06-23T07:58:18Z</time>
      </trkpt>
      <trkpt lat="42.7067" lon="1.41025">
        <ele>1465.1865234375</ele>
        <time>2012-06-23T07:58:27Z</time>
      </trkpt>
      <trkpt lat="42.7067" lon="1.41031">
        <ele>1466.1477050781</ele>
        <time>2012-06-23T07:58:33Z</time>
      </trkpt>
      <trkpt lat="42.70669" lon="1.41039">
        <ele>1467.5895996094</ele>
        <time>2012-06-23T07:58:40Z</time>
      </trkpt>
      <trkpt lat="42.70669" lon="1.41042">
        <ele>1468.5512695312</ele>
        <time>2012-06-23T07:58:45Z</time>
      </trkpt>
      <trkpt lat="42.70667" lon="1.41048">
        <ele>1469.9931640625</ele>
        <time>2012-06-23T07:58:50Z</time>
      </trkpt>
      <trkpt lat="42.70664" lon="1.41044">
        <ele>1471.9157714844</ele>
        <time>2012-06-23T07:58:55Z</time>
      </trkpt>
      <trkpt lat="42.70662" lon="1.41039">
        <ele>1472.8771972656</ele>
        <time>2012-06-23T07:59:00Z</time>
      </trkpt>
      <trkpt lat="42.70657" lon="1.41034">
        <ele>1471.4350585938</ele>
        <time>2012-06-23T07:59:05Z</time>
      </trkpt>
      <trkpt lat="42.70655" lon="1.41029">
        <ele>1471.4350585938</ele>
        <time>2012-06-23T07:59:09Z</time>
      </trkpt>
      <trkpt lat="42.70656" lon="1.41018">
        <ele>1478.6450195312</ele>
        <time>2012-06-23T07:59:18Z</time>
      </trkpt>
      <trkpt lat="42.70654" lon="1.41012">
        <ele>1479.1254882812</ele>
        <time>2012-06-23T07:59:22Z</time>
      </trkpt>
      <trkpt lat="42.70654" lon="1.41007">
        <ele>1479.1254882812</ele>
        <time>2012-06-23T07:59:25Z</time>
      </trkpt>
      <trkpt lat="42.70651" lon="1.41">
        <ele>1478.6450195312</ele>
        <time>2012-06-23T07:59:31Z</time>
      </trkpt>
      <trkpt lat="42.70653" lon="1.40997">
        <ele>1481.0483398438</ele>
        <time>2012-06-23T07:59:39Z</time>
      </trkpt>
      <trkpt lat="42.70652" lon="1.4099">
        <ele>1484.4130859375</ele>
        <time>2012-06-23T07:59:49Z</time>
      </trkpt>
      <trkpt lat="42.70651" lon="1.40982">
        <ele>1485.3742675781</ele>
        <time>2012-06-23T07:59:56Z</time>
      </trkpt>
      <trkpt lat="42.70651" lon="1.40978">
        <ele>1486.3356933594</ele>
        <time>2012-06-23T08:00:00Z</time>
      </trkpt>
      <trkpt lat="42.70649" lon="1.40971">
        <ele>1486.3356933594</ele>
        <time>2012-06-23T08:00:04Z</time>
      </trkpt>
      <trkpt lat="42.7065" lon="1.40966">
        <ele>1487.296875</ele>
        <time>2012-06-23T08:00:08Z</time>
      </trkpt>
      <trkpt lat="42.7065" lon="1.40961">
        <ele>1485.8549804688</ele>
        <time>2012-06-23T08:00:12Z</time>
      </trkpt>
      <trkpt lat="42.70652" lon="1.40955">
        <ele>1487.296875</ele>
        <time>2012-06-23T08:00:16Z</time>
      </trkpt>
      <trkpt lat="42.70655" lon="1.40947">
        <ele>1490.1809082031</ele>
        <time>2012-06-23T08:00:22Z</time>
      </trkpt>
      <trkpt lat="42.70653" lon="1.40939">
        <ele>1486.3356933594</ele>
        <time>2012-06-23T08:00:28Z</time>
      </trkpt>
      <trkpt lat="42.70654" lon="1.40934">
        <ele>1486.3356933594</ele>
        <time>2012-06-23T08:00:32Z</time>
      </trkpt>
      <trkpt lat="42.70655" lon="1.4093">
        <ele>1489.7001953125</ele>
        <time>2012-06-23T08:00:37Z</time>
      </trkpt>
      <trkpt lat="42.70654" lon="1.40921">
        <ele>1490.1809082031</ele>
        <time>2012-06-23T08:00:43Z</time>
      </trkpt>
      <trkpt lat="42.70652" lon="1.40915">
        <ele>1489.2194824219</ele>
        <time>2012-06-23T08:00:48Z</time>
      </trkpt>
      <trkpt lat="42.70652" lon="1.40908">
        <ele>1488.2583007812</ele>
        <time>2012-06-23T08:00:52Z</time>
      </trkpt>
      <trkpt lat="42.70653" lon="1.40897">
        <ele>1493.5454101562</ele>
        <time>2012-06-23T08:00:59Z</time>
      </trkpt>
      <trkpt lat="42.70653" lon="1.40895">
        <ele>1492.5842285156</ele>
        <time>2012-06-23T08:01:01Z</time>
      </trkpt>
      <trkpt lat="42.7065" lon="1.4089">
        <ele>1489.2194824219</ele>
        <time>2012-06-23T08:01:07Z</time>
      </trkpt>
      <trkpt lat="42.70652" lon="1.40881">
        <ele>1483.4514160156</ele>
        <time>2012-06-23T08:01:30Z</time>
      </trkpt>
      <trkpt lat="42.70652" lon="1.40878">
        <ele>1484.4130859375</ele>
        <time>2012-06-23T08:01:34Z</time>
      </trkpt>
      <trkpt lat="42.70654" lon="1.40871">
        <ele>1489.2194824219</ele>
        <time>2012-06-23T08:01:42Z</time>
      </trkpt>
      <trkpt lat="42.70652" lon="1.40865">
        <ele>1492.103515625</ele>
        <time>2012-06-23T08:01:47Z</time>
      </trkpt>
      <trkpt lat="42.70652" lon="1.40862">
        <ele>1492.103515625</ele>
        <time>2012-06-23T08:01:51Z</time>
      </trkpt>
      <trkpt lat="42.70652" lon="1.40855">
        <ele>1493.5454101562</ele>
        <time>2012-06-23T08:01:56Z</time>
      </trkpt>
      <trkpt lat="42.7065" lon="1.4085">
        <ele>1495.4680175781</ele>
        <time>2012-06-23T08:02:01Z</time>
      </trkpt>
      <trkpt lat="42.70648" lon="1.40848">
        <ele>1496.4294433594</ele>
        <time>2012-06-23T08:02:05Z</time>
      </trkpt>
      <trkpt lat="42.70647" lon="1.40841">
        <ele>1498.3518066406</ele>
        <time>2012-06-23T08:02:11Z</time>
      </trkpt>
      <trkpt lat="42.70646" lon="1.40836">
        <ele>1500.2749023438</ele>
        <time>2012-06-23T08:02:15Z</time>
      </trkpt>
      <trkpt lat="42.70645" lon="1.40829">
        <ele>1500.7553710938</ele>
        <time>2012-06-23T08:02:23Z</time>
      </trkpt>
      <trkpt lat="42.70644" lon="1.40826">
        <ele>1501.2360839844</ele>
        <time>2012-06-23T08:02:28Z</time>
      </trkpt>
      <trkpt lat="42.70641" lon="1.40822">
        <ele>1502.6779785156</ele>
        <time>2012-06-23T08:02:34Z</time>
      </trkpt>
      <trkpt lat="42.70639" lon="1.40819">
        <ele>1502.6779785156</ele>
        <time>2012-06-23T08:02:38Z</time>
      </trkpt>
      <trkpt lat="42.70636" lon="1.40811">
        <ele>1502.197265625</ele>
        <time>2012-06-23T08:02:45Z</time>
      </trkpt>
      <trkpt lat="42.70634" lon="1.40807">
        <ele>1504.1201171875</ele>
        <time>2012-06-23T08:02:50Z</time>
      </trkpt>
      <trkpt lat="42.70631" lon="1.40808">
        <ele>1509.4072265625</ele>
        <time>2012-06-23T08:02:58Z</time>
      </trkpt>
      <trkpt lat="42.7063" lon="1.40805">
        <ele>1511.810546875</ele>
        <time>2012-06-23T08:03:03Z</time>
      </trkpt>
      <trkpt lat="42.70626" lon="1.40806">
        <ele>1514.6943359375</ele>
        <time>2012-06-23T08:03:08Z</time>
      </trkpt>
      <trkpt lat="42.70621" lon="1.40803">
        <ele>1518.5397949219</ele>
        <time>2012-06-23T08:03:15Z</time>
      </trkpt>
      <trkpt lat="42.70619" lon="1.40801">
        <ele>1517.5783691406</ele>
        <time>2012-06-23T08:03:19Z</time>
      </trkpt>
      <trkpt lat="42.70617" lon="1.40797">
        <ele>1518.0590820312</ele>
        <time>2012-06-23T08:03:25Z</time>
      </trkpt>
      <trkpt lat="42.70616" lon="1.40796">
        <ele>1518.5397949219</ele>
        <time>2012-06-23T08:03:31Z</time>
      </trkpt>
      <trkpt lat="42.70612" lon="1.40795">
        <ele>1517.0979003906</ele>
        <time>2012-06-23T08:03:35Z</time>
      </trkpt>
      <trkpt lat="42.7061" lon="1.40795">
        <ele>1516.1364746094</ele>
        <time>2012-06-23T08:03:37Z</time>
      </trkpt>
      <trkpt lat="42.70605" lon="1.40795">
        <ele>1516.6171875</ele>
        <time>2012-06-23T08:03:43Z</time>
      </trkpt>
      <trkpt lat="42.70601" lon="1.40796">
        <ele>1519.5012207031</ele>
        <time>2012-06-23T08:03:49Z</time>
      </trkpt>
      <trkpt lat="42.70597" lon="1.40796">
        <ele>1522.3850097656</ele>
        <time>2012-06-23T08:03:56Z</time>
      </trkpt>
      <trkpt lat="42.70596" lon="1.40801">
        <ele>1523.3464355469</ele>
        <time>2012-06-23T08:04:02Z</time>
      </trkpt>
      <trkpt lat="42.70595" lon="1.40803">
        <ele>1527.6721191406</ele>
        <time>2012-06-23T08:04:08Z</time>
      </trkpt>
      <trkpt lat="42.70594" lon="1.40808">
        <ele>1529.1140136719</ele>
        <time>2012-06-23T08:04:15Z</time>
      </trkpt>
      <trkpt lat="42.70592" lon="1.40809">
        <ele>1529.1140136719</ele>
        <time>2012-06-23T08:04:16Z</time>
      </trkpt>
      <trkpt lat="42.7059" lon="1.40807">
        <ele>1530.0754394531</ele>
        <time>2012-06-23T08:04:21Z</time>
      </trkpt>
      <trkpt lat="42.70592" lon="1.40812">
        <ele>1539.2080078125</ele>
        <time>2012-06-23T08:04:33Z</time>
      </trkpt>
      <trkpt lat="42.70589" lon="1.40813">
        <ele>1542.0920410156</ele>
        <time>2012-06-23T08:04:38Z</time>
      </trkpt>
      <trkpt lat="42.70586" lon="1.40812">
        <ele>1541.611328125</ele>
        <time>2012-06-23T08:04:40Z</time>
      </trkpt>
      <trkpt lat="42.70582" lon="1.40808">
        <ele>1542.5727539062</ele>
        <time>2012-06-23T08:04:47Z</time>
      </trkpt>
      <trkpt lat="42.7058" lon="1.40805">
        <ele>1542.0920410156</ele>
        <time>2012-06-23T08:04:52Z</time>
      </trkpt>
      <trkpt lat="42.70578" lon="1.40802">
        <ele>1544.0146484375</ele>
        <time>2012-06-23T08:04:56Z</time>
      </trkpt>
      <trkpt lat="42.70574" lon="1.40797">
        <ele>1542.0920410156</ele>
        <time>2012-06-23T08:05:01Z</time>
      </trkpt>
      <trkpt lat="42.70575" lon="1.40794">
        <ele>1542.5727539062</ele>
        <time>2012-06-23T08:05:03Z</time>
      </trkpt>
      <trkpt lat="42.70572" lon="1.40787">
        <ele>1538.7275390625</ele>
        <time>2012-06-23T08:05:08Z</time>
      </trkpt>
      <trkpt lat="42.7057" lon="1.40784">
        <ele>1537.2854003906</ele>
        <time>2012-06-23T08:05:11Z</time>
      </trkpt>
      <trkpt lat="42.70568" lon="1.40781">
        <ele>1538.2468261719</ele>
        <time>2012-06-23T08:05:17Z</time>
      </trkpt>
      <trkpt lat="42.70557" lon="1.40755">
        <ele>1543.0532226562</ele>
        <time>2012-06-23T08:05:46Z</time>
      </trkpt>
      <trkpt lat="42.70552" lon="1.40742">
        <ele>1547.3791503906</ele>
        <time>2012-06-23T08:06:03Z</time>
      </trkpt>
      <trkpt lat="42.70554" lon="1.40733">
        <ele>1550.7438964844</ele>
        <time>2012-06-23T08:06:09Z</time>
      </trkpt>
      <trkpt lat="42.70553" lon="1.4073">
        <ele>1552.6665039062</ele>
        <time>2012-06-23T08:06:13Z</time>
      </trkpt>
      <trkpt lat="42.70551" lon="1.40736">
        <ele>1551.7053222656</ele>
        <time>2012-06-23T08:06:24Z</time>
      </trkpt>
      <trkpt lat="42.70547" lon="1.40737">
        <ele>1552.1857910156</ele>
        <time>2012-06-23T08:06:30Z</time>
      </trkpt>
      <trkpt lat="42.70543" lon="1.40739">
        <ele>1551.7053222656</ele>
        <time>2012-06-23T08:06:34Z</time>
      </trkpt>
      <trkpt lat="42.70541" lon="1.4074">
        <ele>1551.7053222656</ele>
        <time>2012-06-23T08:06:39Z</time>
      </trkpt>
      <trkpt lat="42.70537" lon="1.40735">
        <ele>1549.3020019531</ele>
        <time>2012-06-23T08:06:49Z</time>
      </trkpt>
      <trkpt lat="42.70536" lon="1.40729">
        <ele>1550.7438964844</ele>
        <time>2012-06-23T08:06:54Z</time>
      </trkpt>
      <trkpt lat="42.70533" lon="1.40726">
        <ele>1550.2634277344</ele>
        <time>2012-06-23T08:06:58Z</time>
      </trkpt>
      <trkpt lat="42.70533" lon="1.4072">
        <ele>1551.224609375</ele>
        <time>2012-06-23T08:07:03Z</time>
      </trkpt>
      <trkpt lat="42.7053" lon="1.40715">
        <ele>1550.2634277344</ele>
        <time>2012-06-23T08:07:09Z</time>
      </trkpt>
      <trkpt lat="42.7053" lon="1.40711">
        <ele>1551.7053222656</ele>
        <time>2012-06-23T08:07:14Z</time>
      </trkpt>
      <trkpt lat="42.70528" lon="1.40701">
        <ele>1555.5505371094</ele>
        <time>2012-06-23T08:07:24Z</time>
      </trkpt>
      <trkpt lat="42.70526" lon="1.40692">
        <ele>1558.9150390625</ele>
        <time>2012-06-23T08:07:37Z</time>
      </trkpt>
      <trkpt lat="42.70526" lon="1.40689">
        <ele>1559.8762207031</ele>
        <time>2012-06-23T08:07:44Z</time>
      </trkpt>
      <trkpt lat="42.70523" lon="1.40688">
        <ele>1560.3569335938</ele>
        <time>2012-06-23T08:07:49Z</time>
      </trkpt>
      <trkpt lat="42.7052" lon="1.40687">
        <ele>1560.8376464844</ele>
        <time>2012-06-23T08:07:53Z</time>
      </trkpt>
      <trkpt lat="42.70519" lon="1.40684">
        <ele>1561.7990722656</ele>
        <time>2012-06-23T08:08:00Z</time>
      </trkpt>
      <trkpt lat="42.70517" lon="1.40674">
        <ele>1562.7602539062</ele>
        <time>2012-06-23T08:08:12Z</time>
      </trkpt>
      <trkpt lat="42.70515" lon="1.40671">
        <ele>1562.2795410156</ele>
        <time>2012-06-23T08:08:17Z</time>
      </trkpt>
      <trkpt lat="42.70515" lon="1.40666">
        <ele>1563.7214355469</ele>
        <time>2012-06-23T08:08:22Z</time>
      </trkpt>
      <trkpt lat="42.70512" lon="1.40661">
        <ele>1564.6831054688</ele>
        <time>2012-06-23T08:08:29Z</time>
      </trkpt>
      <trkpt lat="42.70508" lon="1.40658">
        <ele>1567.5668945312</ele>
        <time>2012-06-23T08:08:38Z</time>
      </trkpt>
      <trkpt lat="42.70507" lon="1.40663">
        <ele>1569.0090332031</ele>
        <time>2012-06-23T08:08:45Z</time>
      </trkpt>
      <trkpt lat="42.70505" lon="1.40665">
        <ele>1568.5283203125</ele>
        <time>2012-06-23T08:08:49Z</time>
      </trkpt>
      <trkpt lat="42.70502" lon="1.40667">
        <ele>1568.5283203125</ele>
        <time>2012-06-23T08:08:52Z</time>
      </trkpt>
      <trkpt lat="42.70499" lon="1.40668">
        <ele>1573.3349609375</ele>
        <time>2012-06-23T08:09:01Z</time>
      </trkpt>
      <trkpt lat="42.70498" lon="1.40669">
        <ele>1574.7768554688</ele>
        <time>2012-06-23T08:09:05Z</time>
      </trkpt>
      <trkpt lat="42.70496" lon="1.4067">
        <ele>1576.6994628906</ele>
        <time>2012-06-23T08:09:10Z</time>
      </trkpt>
      <trkpt lat="42.70494" lon="1.40668">
        <ele>1579.5832519531</ele>
        <time>2012-06-23T08:09:17Z</time>
      </trkpt>
      <trkpt lat="42.70492" lon="1.40663">
        <ele>1580.544921875</ele>
        <time>2012-06-23T08:09:23Z</time>
      </trkpt>
      <trkpt lat="42.70494" lon="1.40654">
        <ele>1585.3513183594</ele>
        <time>2012-06-23T08:09:32Z</time>
      </trkpt>
      <trkpt lat="42.70493" lon="1.4065">
        <ele>1586.3127441406</ele>
        <time>2012-06-23T08:09:37Z</time>
      </trkpt>
      <trkpt lat="42.70491" lon="1.40648">
        <ele>1587.2739257812</ele>
        <time>2012-06-23T08:09:43Z</time>
      </trkpt>
      <trkpt lat="42.70488" lon="1.4065">
        <ele>1588.2353515625</ele>
        <time>2012-06-23T08:09:50Z</time>
      </trkpt>
      <trkpt lat="42.70486" lon="1.40651">
        <ele>1594.4836425781</ele>
        <time>2012-06-23T08:10:03Z</time>
      </trkpt>
      <trkpt lat="42.70483" lon="1.40653">
        <ele>1594.9643554688</ele>
        <time>2012-06-23T08:10:07Z</time>
      </trkpt>
      <trkpt lat="42.7048" lon="1.40654">
        <ele>1595.4450683594</ele>
        <time>2012-06-23T08:10:14Z</time>
      </trkpt>
      <trkpt lat="42.70477" lon="1.40648">
        <ele>1595.92578125</ele>
        <time>2012-06-23T08:10:23Z</time>
      </trkpt>
      <trkpt lat="42.70473" lon="1.40639">
        <ele>1596.4067382812</ele>
        <time>2012-06-23T08:10:35Z</time>
      </trkpt>
      <trkpt lat="42.70471" lon="1.40636">
        <ele>1597.3679199219</ele>
        <time>2012-06-23T08:10:39Z</time>
      </trkpt>
      <trkpt lat="42.70469" lon="1.40634">
        <ele>1598.8098144531</ele>
        <time>2012-06-23T08:10:46Z</time>
      </trkpt>
      <trkpt lat="42.70465" lon="1.40638">
        <ele>1600.732421875</ele>
        <time>2012-06-23T08:10:51Z</time>
      </trkpt>
      <trkpt lat="42.70462" lon="1.40642">
        <ele>1602.6550292969</ele>
        <time>2012-06-23T08:10:57Z</time>
      </trkpt>
      <trkpt lat="42.70461" lon="1.40647">
        <ele>1605.0583496094</ele>
        <time>2012-06-23T08:11:02Z</time>
      </trkpt>
      <trkpt lat="42.70459" lon="1.4065">
        <ele>1606.5002441406</ele>
        <time>2012-06-23T08:11:06Z</time>
      </trkpt>
      <trkpt lat="42.70457" lon="1.40652">
        <ele>1607.4616699219</ele>
        <time>2012-06-23T08:11:10Z</time>
      </trkpt>
      <trkpt lat="42.70456" lon="1.40657">
        <ele>1611.7875976562</ele>
        <time>2012-06-23T08:11:19Z</time>
      </trkpt>
      <trkpt lat="42.70455" lon="1.40659">
        <ele>1613.2297363281</ele>
        <time>2012-06-23T08:11:23Z</time>
      </trkpt>
      <trkpt lat="42.7045" lon="1.40657">
        <ele>1615.6330566406</ele>
        <time>2012-06-23T08:11:36Z</time>
      </trkpt>
      <trkpt lat="42.70448" lon="1.40653">
        <ele>1614.1909179688</ele>
        <time>2012-06-23T08:11:40Z</time>
      </trkpt>
      <trkpt lat="42.70445" lon="1.40651">
        <ele>1614.6716308594</ele>
        <time>2012-06-23T08:11:46Z</time>
      </trkpt>
      <trkpt lat="42.70441" lon="1.40654">
        <ele>1615.6330566406</ele>
        <time>2012-06-23T08:11:53Z</time>
      </trkpt>
      <trkpt lat="42.70438" lon="1.40655">
        <ele>1617.0749511719</ele>
        <time>2012-06-23T08:11:57Z</time>
      </trkpt>
      <trkpt lat="42.70436" lon="1.40659">
        <ele>1619.4782714844</ele>
        <time>2012-06-23T08:12:03Z</time>
      </trkpt>
      <trkpt lat="42.70432" lon="1.40658">
        <ele>1621.8813476562</ele>
        <time>2012-06-23T08:12:08Z</time>
      </trkpt>
      <trkpt lat="42.70431" lon="1.40655">
        <ele>1625.2458496094</ele>
        <time>2012-06-23T08:12:14Z</time>
      </trkpt>
      <trkpt lat="42.70428" lon="1.40651">
        <ele>1625.7265625</ele>
        <time>2012-06-23T08:12:19Z</time>
      </trkpt>
      <trkpt lat="42.70428" lon="1.40647">
        <ele>1626.2072753906</ele>
        <time>2012-06-23T08:12:23Z</time>
      </trkpt>
      <trkpt lat="42.70426" lon="1.40645">
        <ele>1626.6879882812</ele>
        <time>2012-06-23T08:12:27Z</time>
      </trkpt>
      <trkpt lat="42.70424" lon="1.40641">
        <ele>1629.0913085938</ele>
        <time>2012-06-23T08:12:33Z</time>
      </trkpt>
      <trkpt lat="42.70421" lon="1.4064">
        <ele>1631.9753417969</ele>
        <time>2012-06-23T08:12:38Z</time>
      </trkpt>
      <trkpt lat="42.70419" lon="1.40638">
        <ele>1631.9753417969</ele>
        <time>2012-06-23T08:12:43Z</time>
      </trkpt>
      <trkpt lat="42.70416" lon="1.4064">
        <ele>1631.9753417969</ele>
        <time>2012-06-23T08:12:49Z</time>
      </trkpt>
      <trkpt lat="42.70414" lon="1.4064">
        <ele>1633.4172363281</ele>
        <time>2012-06-23T08:12:54Z</time>
      </trkpt>
      <trkpt lat="42.70411" lon="1.4064">
        <ele>1634.3786621094</ele>
        <time>2012-06-23T08:13:00Z</time>
      </trkpt>
      <trkpt lat="42.70407" lon="1.40637">
        <ele>1635.8205566406</ele>
        <time>2012-06-23T08:13:06Z</time>
      </trkpt>
      <trkpt lat="42.70405" lon="1.40635">
        <ele>1637.2624511719</ele>
        <time>2012-06-23T08:13:10Z</time>
      </trkpt>
      <trkpt lat="42.70404" lon="1.40632">
        <ele>1638.2238769531</ele>
        <time>2012-06-23T08:13:15Z</time>
      </trkpt>
      <trkpt lat="42.70403" lon="1.40628">
        <ele>1638.2238769531</ele>
        <time>2012-06-23T08:13:20Z</time>
      </trkpt>
      <trkpt lat="42.70401" lon="1.40625">
        <ele>1639.6657714844</ele>
        <time>2012-06-23T08:13:25Z</time>
      </trkpt>
      <trkpt lat="42.70398" lon="1.40621">
        <ele>1639.6657714844</ele>
        <time>2012-06-23T08:13:31Z</time>
      </trkpt>
      <trkpt lat="42.70396" lon="1.40619">
        <ele>1640.146484375</ele>
        <time>2012-06-23T08:13:36Z</time>
      </trkpt>
      <trkpt lat="42.70395" lon="1.40617">
        <ele>1640.626953125</ele>
        <time>2012-06-23T08:13:40Z</time>
      </trkpt>
      <trkpt lat="42.70393" lon="1.40612">
        <ele>1642.0690917969</ele>
        <time>2012-06-23T08:13:47Z</time>
      </trkpt>
      <trkpt lat="42.70391" lon="1.40611">
        <ele>1643.9916992188</ele>
        <time>2012-06-23T08:13:53Z</time>
      </trkpt>
      <trkpt lat="42.70387" lon="1.40611">
        <ele>1644.4724121094</ele>
        <time>2012-06-23T08:13:58Z</time>
      </trkpt>
      <trkpt lat="42.70385" lon="1.40608">
        <ele>1644.953125</ele>
        <time>2012-06-23T08:14:02Z</time>
      </trkpt>
      <trkpt lat="42.70382" lon="1.40607">
        <ele>1645.9145507812</ele>
        <time>2012-06-23T08:14:08Z</time>
      </trkpt>
      <trkpt lat="42.70378" lon="1.40609">
        <ele>1648.3176269531</ele>
        <time>2012-06-23T08:14:15Z</time>
      </trkpt>
      <trkpt lat="42.70374" lon="1.40608">
        <ele>1649.2790527344</ele>
        <time>2012-06-23T08:14:21Z</time>
      </trkpt>
      <trkpt lat="42.70371" lon="1.40606">
        <ele>1650.2404785156</ele>
        <time>2012-06-23T08:14:26Z</time>
      </trkpt>
      <trkpt lat="42.70369" lon="1.40602">
        <ele>1650.7209472656</ele>
        <time>2012-06-23T08:14:30Z</time>
      </trkpt>
      <trkpt lat="42.70365" lon="1.40597">
        <ele>1652.6435546875</ele>
        <time>2012-06-23T08:14:37Z</time>
      </trkpt>
      <trkpt lat="42.70359" lon="1.40594">
        <ele>1654.0856933594</ele>
        <time>2012-06-23T08:14:44Z</time>
      </trkpt>
      <trkpt lat="42.70354" lon="1.40591">
        <ele>1655.5275878906</ele>
        <time>2012-06-23T08:14:51Z</time>
      </trkpt>
      <trkpt lat="42.70351" lon="1.40589">
        <ele>1656.9694824219</ele>
        <time>2012-06-23T08:14:57Z</time>
      </trkpt>
      <trkpt lat="42.70348" lon="1.40589">
        <ele>1657.9309082031</ele>
        <time>2012-06-23T08:15:02Z</time>
      </trkpt>
      <trkpt lat="42.70345" lon="1.40583">
        <ele>1659.8532714844</ele>
        <time>2012-06-23T08:15:08Z</time>
      </trkpt>
      <trkpt lat="42.70344" lon="1.40583">
        <ele>1660.3342285156</ele>
        <time>2012-06-23T08:15:16Z</time>
      </trkpt>
      <trkpt lat="42.70343" lon="1.40585">
        <ele>1660.8149414062</ele>
        <time>2012-06-23T08:15:20Z</time>
      </trkpt>
      <trkpt lat="42.70339" lon="1.40584">
        <ele>1662.2568359375</ele>
        <time>2012-06-23T08:15:26Z</time>
      </trkpt>
      <trkpt lat="42.70335" lon="1.40581">
        <ele>1663.2182617188</ele>
        <time>2012-06-23T08:15:33Z</time>
      </trkpt>
      <trkpt lat="42.7033" lon="1.40582">
        <ele>1663.6987304688</ele>
        <time>2012-06-23T08:15:39Z</time>
      </trkpt>
      <trkpt lat="42.70325" lon="1.40581">
        <ele>1664.66015625</ele>
        <time>2012-06-23T08:15:45Z</time>
      </trkpt>
      <trkpt lat="42.70319" lon="1.40578">
        <ele>1665.6215820312</ele>
        <time>2012-06-23T08:15:52Z</time>
      </trkpt>
      <trkpt lat="42.70317" lon="1.40578">
        <ele>1666.5827636719</ele>
        <time>2012-06-23T08:15:57Z</time>
      </trkpt>
      <trkpt lat="42.70314" lon="1.40581">
        <ele>1668.0246582031</ele>
        <time>2012-06-23T08:16:02Z</time>
      </trkpt>
      <trkpt lat="42.70311" lon="1.4058">
        <ele>1668.9860839844</ele>
        <time>2012-06-23T08:16:06Z</time>
      </trkpt>
      <trkpt lat="42.70306" lon="1.40582">
        <ele>1670.4279785156</ele>
        <time>2012-06-23T08:16:11Z</time>
      </trkpt>
      <trkpt lat="42.70302" lon="1.40581">
        <ele>1671.3891601562</ele>
        <time>2012-06-23T08:16:16Z</time>
      </trkpt>
      <trkpt lat="42.70297" lon="1.4058">
        <ele>1672.8312988281</ele>
        <time>2012-06-23T08:16:22Z</time>
      </trkpt>
      <trkpt lat="42.70293" lon="1.40583">
        <ele>1675.234375</ele>
        <time>2012-06-23T08:16:28Z</time>
      </trkpt>
      <trkpt lat="42.70286" lon="1.40582">
        <ele>1676.1960449219</ele>
        <time>2012-06-23T08:16:34Z</time>
      </trkpt>
      <trkpt lat="42.70279" lon="1.40582">
        <ele>1678.1186523438</ele>
        <time>2012-06-23T08:16:41Z</time>
      </trkpt>
      <trkpt lat="42.70274" lon="1.40582">
        <ele>1679.0798339844</ele>
        <time>2012-06-23T08:16:46Z</time>
      </trkpt>
      <trkpt lat="42.7027" lon="1.40584">
        <ele>1680.0412597656</ele>
        <time>2012-06-23T08:16:50Z</time>
      </trkpt>
      <trkpt lat="42.70263" lon="1.40582">
        <ele>1681.4831542969</ele>
        <time>2012-06-23T08:16:57Z</time>
      </trkpt>
      <trkpt lat="42.70257" lon="1.40576">
        <ele>1682.9250488281</ele>
        <time>2012-06-23T08:17:04Z</time>
      </trkpt>
      <trkpt lat="42.70256" lon="1.40573">
        <ele>1682.9250488281</ele>
        <time>2012-06-23T08:17:06Z</time>
      </trkpt>
      <trkpt lat="42.70251" lon="1.4057">
        <ele>1685.3283691406</ele>
        <time>2012-06-23T08:17:12Z</time>
      </trkpt>
      <trkpt lat="42.70249" lon="1.40567">
        <ele>1685.8090820312</ele>
        <time>2012-06-23T08:17:16Z</time>
      </trkpt>
      <trkpt lat="42.70246" lon="1.40566">
        <ele>1686.7702636719</ele>
        <time>2012-06-23T08:17:22Z</time>
      </trkpt>
      <trkpt lat="42.70242" lon="1.40564">
        <ele>1687.7316894531</ele>
        <time>2012-06-23T08:17:28Z</time>
      </trkpt>
      <trkpt lat="42.70238" lon="1.4056">
        <ele>1689.654296875</ele>
        <time>2012-06-23T08:17:34Z</time>
      </trkpt>
      <trkpt lat="42.70229" lon="1.40556">
        <ele>1691.5769042969</ele>
        <time>2012-06-23T08:17:43Z</time>
      </trkpt>
      <trkpt lat="42.70219" lon="1.40555">
        <ele>1693.98046875</ele>
        <time>2012-06-23T08:17:52Z</time>
      </trkpt>
      <trkpt lat="42.70216" lon="1.40554">
        <ele>1693.98046875</ele>
        <time>2012-06-23T08:17:55Z</time>
      </trkpt>
      <trkpt lat="42.70205" lon="1.40554">
        <ele>1696.8642578125</ele>
        <time>2012-06-23T08:18:05Z</time>
      </trkpt>
      <trkpt lat="42.70196" lon="1.40554">
        <ele>1699.267578125</ele>
        <time>2012-06-23T08:18:13Z</time>
      </trkpt>
      <trkpt lat="42.70187" lon="1.40553">
        <ele>1701.1901855469</ele>
        <time>2012-06-23T08:18:22Z</time>
      </trkpt>
      <trkpt lat="42.70184" lon="1.40553">
        <ele>1702.6320800781</ele>
        <time>2012-06-23T08:18:27Z</time>
      </trkpt>
      <trkpt lat="42.70181" lon="1.40551">
        <ele>1704.07421875</ele>
        <time>2012-06-23T08:18:32Z</time>
      </trkpt>
      <trkpt lat="42.70176" lon="1.4055">
        <ele>1705.5161132812</ele>
        <time>2012-06-23T08:18:38Z</time>
      </trkpt>
      <trkpt lat="42.70174" lon="1.4055">
        <ele>1705.9965820312</ele>
        <time>2012-06-23T08:18:43Z</time>
      </trkpt>
      <trkpt lat="42.7017" lon="1.40547">
        <ele>1707.4387207031</ele>
        <time>2012-06-23T08:18:49Z</time>
      </trkpt>
      <trkpt lat="42.70169" lon="1.40541">
        <ele>1708.4001464844</ele>
        <time>2012-06-23T08:18:55Z</time>
      </trkpt>
      <trkpt lat="42.70166" lon="1.40541">
        <ele>1708.880859375</ele>
        <time>2012-06-23T08:19:01Z</time>
      </trkpt>
      <trkpt lat="42.70162" lon="1.40542">
        <ele>1709.8420410156</ele>
        <time>2012-06-23T08:19:08Z</time>
      </trkpt>
      <trkpt lat="42.7016" lon="1.40539">
        <ele>1710.8034667969</ele>
        <time>2012-06-23T08:19:13Z</time>
      </trkpt>
      <trkpt lat="42.70156" lon="1.40535">
        <ele>1711.7648925781</ele>
        <time>2012-06-23T08:19:19Z</time>
      </trkpt>
      <trkpt lat="42.70154" lon="1.40533">
        <ele>1712.2453613281</ele>
        <time>2012-06-23T08:19:23Z</time>
      </trkpt>
      <trkpt lat="42.70151" lon="1.4053">
        <ele>1713.2067871094</ele>
        <time>2012-06-23T08:19:28Z</time>
      </trkpt>
      <trkpt lat="42.70148" lon="1.40528">
        <ele>1714.16796875</ele>
        <time>2012-06-23T08:19:34Z</time>
      </trkpt>
      <trkpt lat="42.70145" lon="1.40526">
        <ele>1716.5712890625</ele>
        <time>2012-06-23T08:19:41Z</time>
      </trkpt>
      <trkpt lat="42.70142" lon="1.40526">
        <ele>1719.4553222656</ele>
        <time>2012-06-23T08:19:50Z</time>
      </trkpt>
      <trkpt lat="42.70141" lon="1.40526">
        <ele>1719.4553222656</ele>
        <time>2012-06-23T08:19:56Z</time>
      </trkpt>
      <trkpt lat="42.70139" lon="1.40525">
        <ele>1719.9357910156</ele>
        <time>2012-06-23T08:20:03Z</time>
      </trkpt>
      <trkpt lat="42.70138" lon="1.4052">
        <ele>1719.9357910156</ele>
        <time>2012-06-23T08:20:13Z</time>
      </trkpt>
      <trkpt lat="42.70136" lon="1.40515">
        <ele>1720.8972167969</ele>
        <time>2012-06-23T08:20:19Z</time>
      </trkpt>
      <trkpt lat="42.70135" lon="1.40514">
        <ele>1721.8583984375</ele>
        <time>2012-06-23T08:20:26Z</time>
      </trkpt>
      <trkpt lat="42.70135" lon="1.40517">
        <ele>1722.3391113281</ele>
        <time>2012-06-23T08:20:32Z</time>
      </trkpt>
      <trkpt lat="42.70133" lon="1.40512">
        <ele>1724.2619628906</ele>
        <time>2012-06-23T08:20:46Z</time>
      </trkpt>
      <trkpt lat="42.70132" lon="1.40508">
        <ele>1725.2231445312</ele>
        <time>2012-06-23T08:20:51Z</time>
      </trkpt>
      <trkpt lat="42.70131" lon="1.40507">
        <ele>1726.1845703125</ele>
        <time>2012-06-23T08:21:02Z</time>
      </trkpt>
      <trkpt lat="42.70129" lon="1.40503">
        <ele>1726.1845703125</ele>
        <time>2012-06-23T08:21:19Z</time>
      </trkpt>
      <trkpt lat="42.70126" lon="1.405">
        <ele>1727.6264648438</ele>
        <time>2012-06-23T08:21:25Z</time>
      </trkpt>
      <trkpt lat="42.70123" lon="1.40497">
        <ele>1729.068359375</ele>
        <time>2012-06-23T08:21:30Z</time>
      </trkpt>
      <trkpt lat="42.70118" lon="1.40492">
        <ele>1729.5490722656</ele>
        <time>2012-06-23T08:21:37Z</time>
      </trkpt>
      <trkpt lat="42.70115" lon="1.40489">
        <ele>1730.5104980469</ele>
        <time>2012-06-23T08:21:42Z</time>
      </trkpt>
      <trkpt lat="42.70113" lon="1.40485">
        <ele>1731.4716796875</ele>
        <time>2012-06-23T08:21:46Z</time>
      </trkpt>
      <trkpt lat="42.70112" lon="1.40479">
        <ele>1731.4716796875</ele>
        <time>2012-06-23T08:21:51Z</time>
      </trkpt>
      <trkpt lat="42.70109" lon="1.40474">
        <ele>1731.4716796875</ele>
        <time>2012-06-23T08:21:55Z</time>
      </trkpt>
      <trkpt lat="42.70108" lon="1.40474">
        <ele>1731.9523925781</ele>
        <time>2012-06-23T08:21:56Z</time>
      </trkpt>
      <trkpt lat="42.70105" lon="1.40469">
        <ele>1731.9523925781</ele>
        <time>2012-06-23T08:22:02Z</time>
      </trkpt>
      <trkpt lat="42.70103" lon="1.40467">
        <ele>1732.9135742188</ele>
        <time>2012-06-23T08:22:07Z</time>
      </trkpt>
      <trkpt lat="42.701" lon="1.40465">
        <ele>1733.875</ele>
        <time>2012-06-23T08:22:13Z</time>
      </trkpt>
      <trkpt lat="42.70096" lon="1.40464">
        <ele>1734.8364257812</ele>
        <time>2012-06-23T08:22:18Z</time>
      </trkpt>
      <trkpt lat="42.70094" lon="1.40463">
        <ele>1735.7976074219</ele>
        <time>2012-06-23T08:22:23Z</time>
      </trkpt>
      <trkpt lat="42.70091" lon="1.40458">
        <ele>1737.2395019531</ele>
        <time>2012-06-23T08:22:30Z</time>
      </trkpt>
      <trkpt lat="42.70087" lon="1.4045">
        <ele>1738.681640625</ele>
        <time>2012-06-23T08:22:37Z</time>
      </trkpt>
      <trkpt lat="42.70085" lon="1.40447">
        <ele>1738.681640625</ele>
        <time>2012-06-23T08:22:42Z</time>
      </trkpt>
      <trkpt lat="42.70084" lon="1.40445">
        <ele>1739.162109375</ele>
        <time>2012-06-23T08:22:47Z</time>
      </trkpt>
      <trkpt lat="42.70082" lon="1.40448">
        <ele>1739.162109375</ele>
        <time>2012-06-23T08:22:52Z</time>
      </trkpt>
      <trkpt lat="42.70081" lon="1.40446">
        <ele>1740.1237792969</ele>
        <time>2012-06-23T08:22:56Z</time>
      </trkpt>
      <trkpt lat="42.70078" lon="1.40441">
        <ele>1741.0849609375</ele>
        <time>2012-06-23T08:23:02Z</time>
      </trkpt>
      <trkpt lat="42.70074" lon="1.40434">
        <ele>1743.0075683594</ele>
        <time>2012-06-23T08:23:09Z</time>
      </trkpt>
      <trkpt lat="42.70071" lon="1.40433">
        <ele>1743.48828125</ele>
        <time>2012-06-23T08:23:13Z</time>
      </trkpt>
      <trkpt lat="42.70069" lon="1.40434">
        <ele>1744.4494628906</ele>
        <time>2012-06-23T08:23:17Z</time>
      </trkpt>
      <trkpt lat="42.70067" lon="1.40432">
        <ele>1745.8916015625</ele>
        <time>2012-06-23T08:23:22Z</time>
      </trkpt>
      <trkpt lat="42.70066" lon="1.40434">
        <ele>1747.3334960938</ele>
        <time>2012-06-23T08:23:27Z</time>
      </trkpt>
      <trkpt lat="42.70063" lon="1.40428">
        <ele>1748.775390625</ele>
        <time>2012-06-23T08:23:33Z</time>
      </trkpt>
      <trkpt lat="42.7006" lon="1.40424">
        <ele>1750.6979980469</ele>
        <time>2012-06-23T08:23:40Z</time>
      </trkpt>
      <trkpt lat="42.70057" lon="1.4042">
        <ele>1752.1398925781</ele>
        <time>2012-06-23T08:23:46Z</time>
      </trkpt>
      <trkpt lat="42.70055" lon="1.40412">
        <ele>1753.58203125</ele>
        <time>2012-06-23T08:23:53Z</time>
      </trkpt>
      <trkpt lat="42.70052" lon="1.40406">
        <ele>1755.5046386719</ele>
        <time>2012-06-23T08:24:00Z</time>
      </trkpt>
      <trkpt lat="42.70049" lon="1.40404">
        <ele>1757.4274902344</ele>
        <time>2012-06-23T08:24:06Z</time>
      </trkpt>
      <trkpt lat="42.70045" lon="1.404">
        <ele>1759.3500976562</ele>
        <time>2012-06-23T08:24:13Z</time>
      </trkpt>
      <trkpt lat="42.70043" lon="1.40399">
        <ele>1760.3112792969</ele>
        <time>2012-06-23T08:24:18Z</time>
      </trkpt>
      <trkpt lat="42.7004" lon="1.40398">
        <ele>1761.2727050781</ele>
        <time>2012-06-23T08:24:25Z</time>
      </trkpt>
      <trkpt lat="42.70037" lon="1.40396">
        <ele>1761.2727050781</ele>
        <time>2012-06-23T08:24:31Z</time>
      </trkpt>
      <trkpt lat="42.70035" lon="1.40394">
        <ele>1761.7534179688</ele>
        <time>2012-06-23T08:24:36Z</time>
      </trkpt>
      <trkpt lat="42.70032" lon="1.40389">
        <ele>1761.7534179688</ele>
        <time>2012-06-23T08:24:44Z</time>
      </trkpt>
      <trkpt lat="42.70029" lon="1.40385">
        <ele>1762.7145996094</ele>
        <time>2012-06-23T08:24:50Z</time>
      </trkpt>
      <trkpt lat="42.70028" lon="1.40382">
        <ele>1763.1953125</ele>
        <time>2012-06-23T08:24:54Z</time>
      </trkpt>
      <trkpt lat="42.70028" lon="1.40382">
        <ele>1763.67578125</ele>
        <time>2012-06-23T08:25:12Z</time>
      </trkpt>
      <trkpt lat="42.70026" lon="1.40378">
        <ele>1763.1953125</ele>
        <time>2012-06-23T08:25:17Z</time>
      </trkpt>
      <trkpt lat="42.70023" lon="1.40375">
        <ele>1764.6372070312</ele>
        <time>2012-06-23T08:25:22Z</time>
      </trkpt>
      <trkpt lat="42.7002" lon="1.4037">
        <ele>1765.5986328125</ele>
        <time>2012-06-23T08:25:29Z</time>
      </trkpt>
      <trkpt lat="42.70021" lon="1.4037">
        <ele>1766.5598144531</ele>
        <time>2012-06-23T08:25:34Z</time>
      </trkpt>
      <trkpt lat="42.7002" lon="1.40367">
        <ele>1767.5209960938</ele>
        <time>2012-06-23T08:25:40Z</time>
      </trkpt>
      <trkpt lat="42.70016" lon="1.40361">
        <ele>1768.9631347656</ele>
        <time>2012-06-23T08:25:48Z</time>
      </trkpt>
      <trkpt lat="42.70013" lon="1.40358">
        <ele>1769.4438476562</ele>
        <time>2012-06-23T08:25:54Z</time>
      </trkpt>
      <trkpt lat="42.70011" lon="1.40352">
        <ele>1770.4050292969</ele>
        <time>2012-06-23T08:26:00Z</time>
      </trkpt>
      <trkpt lat="42.70006" lon="1.40344">
        <ele>1770.8857421875</ele>
        <time>2012-06-23T08:26:08Z</time>
      </trkpt>
      <trkpt lat="42.70001" lon="1.40339">
        <ele>1771.8469238281</ele>
        <time>2012-06-23T08:26:14Z</time>
      </trkpt>
      <trkpt lat="42.69997" lon="1.40332">
        <ele>1772.80859375</ele>
        <time>2012-06-23T08:26:22Z</time>
      </trkpt>
      <trkpt lat="42.69997" lon="1.40331">
        <ele>1772.80859375</ele>
        <time>2012-06-23T08:26:28Z</time>
      </trkpt>
      <trkpt lat="42.69993" lon="1.40325">
        <ele>1773.2893066406</ele>
        <time>2012-06-23T08:26:36Z</time>
      </trkpt>
      <trkpt lat="42.69989" lon="1.40318">
        <ele>1773.7697753906</ele>
        <time>2012-06-23T08:26:43Z</time>
      </trkpt>
      <trkpt lat="42.69985" lon="1.40314">
        <ele>1774.7312011719</ele>
        <time>2012-06-23T08:26:49Z</time>
      </trkpt>
      <trkpt lat="42.69981" lon="1.4031">
        <ele>1776.6538085938</ele>
        <time>2012-06-23T08:26:55Z</time>
      </trkpt>
      <trkpt lat="42.69979" lon="1.40305">
        <ele>1779.0568847656</ele>
        <time>2012-06-23T08:27:02Z</time>
      </trkpt>
      <trkpt lat="42.69975" lon="1.40297">
        <ele>1781.9409179688</ele>
        <time>2012-06-23T08:27:10Z</time>
      </trkpt>
      <trkpt lat="42.69972" lon="1.40292">
        <ele>1782.9020996094</ele>
        <time>2012-06-23T08:27:16Z</time>
      </trkpt>
      <trkpt lat="42.6997" lon="1.40289">
        <ele>1783.3828125</ele>
        <time>2012-06-23T08:27:21Z</time>
      </trkpt>
      <trkpt lat="42.69968" lon="1.40283">
        <ele>1783.8635253906</ele>
        <time>2012-06-23T08:27:26Z</time>
      </trkpt>
      <trkpt lat="42.69965" lon="1.40274">
        <ele>1785.3054199219</ele>
        <time>2012-06-23T08:27:34Z</time>
      </trkpt>
      <trkpt lat="42.69962" lon="1.40268">
        <ele>1786.2668457031</ele>
        <time>2012-06-23T08:27:40Z</time>
      </trkpt>
      <trkpt lat="42.6996" lon="1.40262">
        <ele>1788.1896972656</ele>
        <time>2012-06-23T08:27:46Z</time>
      </trkpt>
      <trkpt lat="42.69958" lon="1.40258">
        <ele>1790.5927734375</ele>
        <time>2012-06-23T08:27:51Z</time>
      </trkpt>
      <trkpt lat="42.69956" lon="1.40254">
        <ele>1791.0734863281</ele>
        <time>2012-06-23T08:27:56Z</time>
      </trkpt>
      <trkpt lat="42.69954" lon="1.40248">
        <ele>1792.0349121094</ele>
        <time>2012-06-23T08:28:02Z</time>
      </trkpt>
      <trkpt lat="42.69953" lon="1.40241">
        <ele>1792.99609375</ele>
        <time>2012-06-23T08:28:08Z</time>
      </trkpt>
      <trkpt lat="42.69952" lon="1.40232">
        <ele>1794.9187011719</ele>
        <time>2012-06-23T08:28:15Z</time>
      </trkpt>
      <trkpt lat="42.69949" lon="1.40226">
        <ele>1795.3994140625</ele>
        <time>2012-06-23T08:28:21Z</time>
      </trkpt>
      <trkpt lat="42.69946" lon="1.4022">
        <ele>1796.8413085938</ele>
        <time>2012-06-23T08:28:29Z</time>
      </trkpt>
      <trkpt lat="42.69943" lon="1.40214">
        <ele>1797.3220214844</ele>
        <time>2012-06-23T08:28:35Z</time>
      </trkpt>
      <trkpt lat="42.6994" lon="1.40206">
        <ele>1798.283203125</ele>
        <time>2012-06-23T08:28:42Z</time>
      </trkpt>
      <trkpt lat="42.69936" lon="1.40202">
        <ele>1799.2446289062</ele>
        <time>2012-06-23T08:28:48Z</time>
      </trkpt>
      <trkpt lat="42.69933" lon="1.40199">
        <ele>1799.7253417969</ele>
        <time>2012-06-23T08:28:52Z</time>
      </trkpt>
      <trkpt lat="42.69928" lon="1.40198">
        <ele>1801.6479492188</ele>
        <time>2012-06-23T08:28:58Z</time>
      </trkpt>
      <trkpt lat="42.69925" lon="1.40196">
        <ele>1803.5705566406</ele>
        <time>2012-06-23T08:29:03Z</time>
      </trkpt>
      <trkpt lat="42.6992" lon="1.40191">
        <ele>1805.9738769531</ele>
        <time>2012-06-23T08:29:11Z</time>
      </trkpt>
      <trkpt lat="42.69915" lon="1.40188">
        <ele>1807.416015625</ele>
        <time>2012-06-23T08:29:18Z</time>
      </trkpt>
      <trkpt lat="42.6991" lon="1.40185">
        <ele>1809.3386230469</ele>
        <time>2012-06-23T08:29:25Z</time>
      </trkpt>
      <trkpt lat="42.69905" lon="1.40181">
        <ele>1809.3386230469</ele>
        <time>2012-06-23T08:29:30Z</time>
      </trkpt>
      <trkpt lat="42.699" lon="1.4018">
        <ele>1810.7805175781</ele>
        <time>2012-06-23T08:29:36Z</time>
      </trkpt>
      <trkpt lat="42.69896" lon="1.40178">
        <ele>1811.2612304688</ele>
        <time>2012-06-23T08:29:41Z</time>
      </trkpt>
      <trkpt lat="42.69889" lon="1.40175">
        <ele>1813.6643066406</ele>
        <time>2012-06-23T08:29:48Z</time>
      </trkpt>
      <trkpt lat="42.69882" lon="1.40172">
        <ele>1815.5871582031</ele>
        <time>2012-06-23T08:29:55Z</time>
      </trkpt>
      <trkpt lat="42.69874" lon="1.40169">
        <ele>1817.0290527344</ele>
        <time>2012-06-23T08:30:03Z</time>
      </trkpt>
      <trkpt lat="42.69868" lon="1.40168">
        <ele>1817.990234375</ele>
        <time>2012-06-23T08:30:09Z</time>
      </trkpt>
      <trkpt lat="42.69862" lon="1.40171">
        <ele>1817.5095214844</ele>
        <time>2012-06-23T08:30:17Z</time>
      </trkpt>
      <trkpt lat="42.69858" lon="1.4017">
        <ele>1817.990234375</ele>
        <time>2012-06-23T08:30:24Z</time>
      </trkpt>
      <trkpt lat="42.69855" lon="1.40171">
        <ele>1819.4323730469</ele>
        <time>2012-06-23T08:30:30Z</time>
      </trkpt>
      <trkpt lat="42.69852" lon="1.40174">
        <ele>1820.3937988281</ele>
        <time>2012-06-23T08:30:37Z</time>
      </trkpt>
      <trkpt lat="42.69849" lon="1.40178">
        <ele>1821.3549804688</ele>
        <time>2012-06-23T08:30:43Z</time>
      </trkpt>
      <trkpt lat="42.69847" lon="1.40182">
        <ele>1821.8356933594</ele>
        <time>2012-06-23T08:30:48Z</time>
      </trkpt>
      <trkpt lat="42.69843" lon="1.40185">
        <ele>1823.2778320312</ele>
        <time>2012-06-23T08:30:54Z</time>
      </trkpt>
      <trkpt lat="42.69839" lon="1.40183">
        <ele>1824.2390136719</ele>
        <time>2012-06-23T08:30:59Z</time>
      </trkpt>
      <trkpt lat="42.69838" lon="1.40182">
        <ele>1825.2001953125</ele>
        <time>2012-06-23T08:31:05Z</time>
      </trkpt>
      <trkpt lat="42.69838" lon="1.40182">
        <ele>1824.7197265625</ele>
        <time>2012-06-23T08:31:26Z</time>
      </trkpt>
      <trkpt lat="42.69837" lon="1.40178">
        <ele>1825.2001953125</ele>
        <time>2012-06-23T08:31:31Z</time>
      </trkpt>
      <trkpt lat="42.69835" lon="1.40179">
        <ele>1826.1616210938</ele>
        <time>2012-06-23T08:31:36Z</time>
      </trkpt>
      <trkpt lat="42.69831" lon="1.40182">
        <ele>1827.123046875</ele>
        <time>2012-06-23T08:31:42Z</time>
      </trkpt>
      <trkpt lat="42.69825" lon="1.40182">
        <ele>1828.0842285156</ele>
        <time>2012-06-23T08:31:49Z</time>
      </trkpt>
      <trkpt lat="42.6982" lon="1.4018">
        <ele>1829.5261230469</ele>
        <time>2012-06-23T08:31:55Z</time>
      </trkpt>
      <trkpt lat="42.69816" lon="1.40174">
        <ele>1831.4487304688</ele>
        <time>2012-06-23T08:32:02Z</time>
      </trkpt>
      <trkpt lat="42.69811" lon="1.40171">
        <ele>1833.8520507812</ele>
        <time>2012-06-23T08:32:09Z</time>
      </trkpt>
      <trkpt lat="42.69809" lon="1.40164">
        <ele>1835.2939453125</ele>
        <time>2012-06-23T08:32:15Z</time>
      </trkpt>
      <trkpt lat="42.69806" lon="1.40156">
        <ele>1836.2556152344</ele>
        <time>2012-06-23T08:32:21Z</time>
      </trkpt>
      <trkpt lat="42.69803" lon="1.40152">
        <ele>1835.7746582031</ele>
        <time>2012-06-23T08:32:25Z</time>
      </trkpt>
      <trkpt lat="42.69796" lon="1.40143">
        <ele>1837.216796875</ele>
        <time>2012-06-23T08:32:33Z</time>
      </trkpt>
      <trkpt lat="42.69791" lon="1.40137">
        <ele>1839.1394042969</ele>
        <time>2012-06-23T08:32:40Z</time>
      </trkpt>
      <trkpt lat="42.69785" lon="1.40129">
        <ele>1840.5812988281</ele>
        <time>2012-06-23T08:32:49Z</time>
      </trkpt>
      <trkpt lat="42.69784" lon="1.40121">
        <ele>1841.5427246094</ele>
        <time>2012-06-23T08:32:55Z</time>
      </trkpt>
      <trkpt lat="42.69783" lon="1.40118">
        <ele>1841.5427246094</ele>
        <time>2012-06-23T08:32:58Z</time>
      </trkpt>
      <trkpt lat="42.69781" lon="1.4011">
        <ele>1842.9846191406</ele>
        <time>2012-06-23T08:33:05Z</time>
      </trkpt>
      <trkpt lat="42.69781" lon="1.40103">
        <ele>1843.4653320312</ele>
        <time>2012-06-23T08:33:11Z</time>
      </trkpt>
      <trkpt lat="42.69781" lon="1.40094">
        <ele>1843.9460449219</ele>
        <time>2012-06-23T08:33:17Z</time>
      </trkpt>
      <trkpt lat="42.69781" lon="1.40088">
        <ele>1844.9072265625</ele>
        <time>2012-06-23T08:33:22Z</time>
      </trkpt>
      <trkpt lat="42.69778" lon="1.4008">
        <ele>1847.310546875</ele>
        <time>2012-06-23T08:33:29Z</time>
      </trkpt>
      <trkpt lat="42.69775" lon="1.40077">
        <ele>1848.2717285156</ele>
        <time>2012-06-23T08:33:34Z</time>
      </trkpt>
      <trkpt lat="42.69774" lon="1.40076">
        <ele>1846.8298339844</ele>
        <time>2012-06-23T08:33:42Z</time>
      </trkpt>
      <trkpt lat="42.69773" lon="1.40076">
        <ele>1845.3879394531</ele>
        <time>2012-06-23T08:33:50Z</time>
      </trkpt>
      <trkpt lat="42.69773" lon="1.40075">
        <ele>1844.4265136719</ele>
        <time>2012-06-23T08:34:00Z</time>
      </trkpt>
      <trkpt lat="42.69773" lon="1.40074">
        <ele>1844.9072265625</ele>
        <time>2012-06-23T08:34:10Z</time>
      </trkpt>
      <trkpt lat="42.69774" lon="1.40076">
        <ele>1846.8298339844</ele>
        <time>2012-06-23T08:34:32Z</time>
      </trkpt>
      <trkpt lat="42.69775" lon="1.40076">
        <ele>1845.8686523438</ele>
        <time>2012-06-23T08:34:47Z</time>
      </trkpt>
      <trkpt lat="42.69774" lon="1.40076">
        <ele>1843.4653320312</ele>
        <time>2012-06-23T08:34:57Z</time>
      </trkpt>
      <trkpt lat="42.69774" lon="1.40077">
        <ele>1842.9846191406</ele>
        <time>2012-06-23T08:35:05Z</time>
      </trkpt>
      <trkpt lat="42.69773" lon="1.40076">
        <ele>1842.5041503906</ele>
        <time>2012-06-23T08:35:16Z</time>
      </trkpt>
      <trkpt lat="42.69772" lon="1.40075">
        <ele>1842.0234375</ele>
        <time>2012-06-23T08:35:20Z</time>
      </trkpt>
      <trkpt lat="42.69772" lon="1.40072">
        <ele>1842.5041503906</ele>
        <time>2012-06-23T08:35:25Z</time>
      </trkpt>
      <trkpt lat="42.69768" lon="1.4007">
        <ele>1843.9460449219</ele>
        <time>2012-06-23T08:35:31Z</time>
      </trkpt>
      <trkpt lat="42.69767" lon="1.40068">
        <ele>1845.3879394531</ele>
        <time>2012-06-23T08:35:39Z</time>
      </trkpt>
      <trkpt lat="42.69762" lon="1.40065">
        <ele>1847.310546875</ele>
        <time>2012-06-23T08:35:46Z</time>
      </trkpt>
      <trkpt lat="42.69757" lon="1.4006">
        <ele>1848.7524414062</ele>
        <time>2012-06-23T08:35:53Z</time>
      </trkpt>
      <trkpt lat="42.69753" lon="1.40056">
        <ele>1849.7138671875</ele>
        <time>2012-06-23T08:35:59Z</time>
      </trkpt>
      <trkpt lat="42.69749" lon="1.40052">
        <ele>1851.1557617188</ele>
        <time>2012-06-23T08:36:04Z</time>
      </trkpt>
      <trkpt lat="42.69746" lon="1.40049">
        <ele>1852.5979003906</ele>
        <time>2012-06-23T08:36:09Z</time>
      </trkpt>
      <trkpt lat="42.69741" lon="1.40045">
        <ele>1853.5593261719</ele>
        <time>2012-06-23T08:36:15Z</time>
      </trkpt>
      <trkpt lat="42.69738" lon="1.40041">
        <ele>1854.5205078125</ele>
        <time>2012-06-23T08:36:19Z</time>
      </trkpt>
      <trkpt lat="42.69733" lon="1.40037">
        <ele>1856.4431152344</ele>
        <time>2012-06-23T08:36:26Z</time>
      </trkpt>
      <trkpt lat="42.6973" lon="1.40034">
        <ele>1857.4045410156</ele>
        <time>2012-06-23T08:36:30Z</time>
      </trkpt>
      <trkpt lat="42.69726" lon="1.40032">
        <ele>1859.3271484375</ele>
        <time>2012-06-23T08:36:36Z</time>
      </trkpt>
      <trkpt lat="42.69723" lon="1.40031">
        <ele>1860.2883300781</ele>
        <time>2012-06-23T08:36:41Z</time>
      </trkpt>
      <trkpt lat="42.6972" lon="1.40028">
        <ele>1862.6916503906</ele>
        <time>2012-06-23T08:36:48Z</time>
      </trkpt>
      <trkpt lat="42.69717" lon="1.40026">
        <ele>1863.6528320312</ele>
        <time>2012-06-23T08:36:53Z</time>
      </trkpt>
      <trkpt lat="42.69714" lon="1.40025">
        <ele>1865.0949707031</ele>
        <time>2012-06-23T08:36:59Z</time>
      </trkpt>
      <trkpt lat="42.6971" lon="1.40023">
        <ele>1866.0561523438</ele>
        <time>2012-06-23T08:37:04Z</time>
      </trkpt>
      <trkpt lat="42.69707" lon="1.40022">
        <ele>1867.498046875</ele>
        <time>2012-06-23T08:37:10Z</time>
      </trkpt>
      <trkpt lat="42.69704" lon="1.40019">
        <ele>1868.4597167969</ele>
        <time>2012-06-23T08:37:15Z</time>
      </trkpt>
      <trkpt lat="42.69699" lon="1.40016">
        <ele>1870.8630371094</ele>
        <time>2012-06-23T08:37:23Z</time>
      </trkpt>
      <trkpt lat="42.69698" lon="1.40012">
        <ele>1871.3435058594</ele>
        <time>2012-06-23T08:37:28Z</time>
      </trkpt>
      <trkpt lat="42.69695" lon="1.40008">
        <ele>1872.7856445312</ele>
        <time>2012-06-23T08:37:33Z</time>
      </trkpt>
      <trkpt lat="42.69692" lon="1.40004">
        <ele>1873.2663574219</ele>
        <time>2012-06-23T08:37:39Z</time>
      </trkpt>
      <trkpt lat="42.69693" lon="1.40001">
        <ele>1874.2275390625</ele>
        <time>2012-06-23T08:37:43Z</time>
      </trkpt>
      <trkpt lat="42.69689" lon="1.39996">
        <ele>1876.630859375</ele>
        <time>2012-06-23T08:37:50Z</time>
      </trkpt>
      <trkpt lat="42.69687" lon="1.39992">
        <ele>1877.5920410156</ele>
        <time>2012-06-23T08:37:55Z</time>
      </trkpt>
      <trkpt lat="42.69686" lon="1.39986">
        <ele>1878.5534667969</ele>
        <time>2012-06-23T08:38:01Z</time>
      </trkpt>
      <trkpt lat="42.69686" lon="1.39984">
        <ele>1878.5534667969</ele>
        <time>2012-06-23T08:38:06Z</time>
      </trkpt>
      <trkpt lat="42.69688" lon="1.39982">
        <ele>1879.0339355469</ele>
        <time>2012-06-23T08:38:10Z</time>
      </trkpt>
      <trkpt lat="42.69691" lon="1.39979">
        <ele>1880.4760742188</ele>
        <time>2012-06-23T08:38:16Z</time>
      </trkpt>
      <trkpt lat="42.69692" lon="1.39977">
        <ele>1881.4372558594</ele>
        <time>2012-06-23T08:38:20Z</time>
      </trkpt>
      <trkpt lat="42.69691" lon="1.39973">
        <ele>1883.3598632812</ele>
        <time>2012-06-23T08:38:26Z</time>
      </trkpt>
      <trkpt lat="42.6969" lon="1.3997">
        <ele>1883.8405761719</ele>
        <time>2012-06-23T08:38:30Z</time>
      </trkpt>
      <trkpt lat="42.69691" lon="1.39965">
        <ele>1885.7634277344</ele>
        <time>2012-06-23T08:38:36Z</time>
      </trkpt>
      <trkpt lat="42.69694" lon="1.39964">
        <ele>1886.244140625</ele>
        <time>2012-06-23T08:38:41Z</time>
      </trkpt>
      <trkpt lat="42.69696" lon="1.39961">
        <ele>1887.2053222656</ele>
        <time>2012-06-23T08:38:46Z</time>
      </trkpt>
      <trkpt lat="42.69696" lon="1.39957">
        <ele>1888.1667480469</ele>
        <time>2012-06-23T08:38:51Z</time>
      </trkpt>
      <trkpt lat="42.69695" lon="1.39954">
        <ele>1889.6086425781</ele>
        <time>2012-06-23T08:38:56Z</time>
      </trkpt>
      <trkpt lat="42.69695" lon="1.39949">
        <ele>1890.5698242188</ele>
        <time>2012-06-23T08:39:01Z</time>
      </trkpt>
      <trkpt lat="42.69694" lon="1.39945">
        <ele>1892.0119628906</ele>
        <time>2012-06-23T08:39:07Z</time>
      </trkpt>
      <trkpt lat="42.69694" lon="1.39941">
        <ele>1891.53125</ele>
        <time>2012-06-23T08:39:11Z</time>
      </trkpt>
      <trkpt lat="42.69693" lon="1.39937">
        <ele>1892.0119628906</ele>
        <time>2012-06-23T08:39:17Z</time>
      </trkpt>
      <trkpt lat="42.69694" lon="1.39933">
        <ele>1892.9731445312</ele>
        <time>2012-06-23T08:39:22Z</time>
      </trkpt>
      <trkpt lat="42.69692" lon="1.39929">
        <ele>1892.9731445312</ele>
        <time>2012-06-23T08:39:28Z</time>
      </trkpt>
      <trkpt lat="42.69692" lon="1.39926">
        <ele>1893.4538574219</ele>
        <time>2012-06-23T08:39:32Z</time>
      </trkpt>
      <trkpt lat="42.69691" lon="1.39922">
        <ele>1895.8571777344</ele>
        <time>2012-06-23T08:39:39Z</time>
      </trkpt>
      <trkpt lat="42.69691" lon="1.39919">
        <ele>1897.2990722656</ele>
        <time>2012-06-23T08:39:43Z</time>
      </trkpt>
      <trkpt lat="42.69693" lon="1.39912">
        <ele>1902.5864257812</ele>
        <time>2012-06-23T08:39:56Z</time>
      </trkpt>
      <trkpt lat="42.69691" lon="1.39909">
        <ele>1903.0671386719</ele>
        <time>2012-06-23T08:40:01Z</time>
      </trkpt>
      <trkpt lat="42.69693" lon="1.39905">
        <ele>1906.9123535156</ele>
        <time>2012-06-23T08:40:09Z</time>
      </trkpt>
      <trkpt lat="42.69693" lon="1.39901">
        <ele>1908.3542480469</ele>
        <time>2012-06-23T08:40:17Z</time>
      </trkpt>
      <trkpt lat="42.69692" lon="1.39897">
        <ele>1907.8737792969</ele>
        <time>2012-06-23T08:40:23Z</time>
      </trkpt>
      <trkpt lat="42.69691" lon="1.39892">
        <ele>1911.23828125</ele>
        <time>2012-06-23T08:40:34Z</time>
      </trkpt>
      <trkpt lat="42.69688" lon="1.39889">
        <ele>1912.1994628906</ele>
        <time>2012-06-23T08:40:39Z</time>
      </trkpt>
      <trkpt lat="42.69687" lon="1.39886">
        <ele>1912.6801757812</ele>
        <time>2012-06-23T08:40:44Z</time>
      </trkpt>
      <trkpt lat="42.69687" lon="1.39884">
        <ele>1913.1608886719</ele>
        <time>2012-06-23T08:40:49Z</time>
      </trkpt>
      <trkpt lat="42.69687" lon="1.39878">
        <ele>1913.6413574219</ele>
        <time>2012-06-23T08:40:59Z</time>
      </trkpt>
      <trkpt lat="42.69685" lon="1.39876">
        <ele>1913.1608886719</ele>
        <time>2012-06-23T08:41:03Z</time>
      </trkpt>
      <trkpt lat="42.69683" lon="1.39873">
        <ele>1914.6027832031</ele>
        <time>2012-06-23T08:41:08Z</time>
      </trkpt>
      <trkpt lat="42.69682" lon="1.39871">
        <ele>1916.044921875</ele>
        <time>2012-06-23T08:41:13Z</time>
      </trkpt>
      <trkpt lat="42.69683" lon="1.39869">
        <ele>1917.0063476562</ele>
        <time>2012-06-23T08:41:18Z</time>
      </trkpt>
      <trkpt lat="42.69685" lon="1.39867">
        <ele>1917.9675292969</ele>
        <time>2012-06-23T08:41:22Z</time>
      </trkpt>
      <trkpt lat="42.69682" lon="1.39865">
        <ele>1919.8901367188</ele>
        <time>2012-06-23T08:41:30Z</time>
      </trkpt>
      <trkpt lat="42.6968" lon="1.39865">
        <ele>1920.8515625</ele>
        <time>2012-06-23T08:41:37Z</time>
      </trkpt>
      <trkpt lat="42.6968" lon="1.39864">
        <ele>1921.33203125</ele>
        <time>2012-06-23T08:41:42Z</time>
      </trkpt>
      <trkpt lat="42.69679" lon="1.39863">
        <ele>1921.8127441406</ele>
        <time>2012-06-23T08:41:48Z</time>
      </trkpt>
      <trkpt lat="42.69678" lon="1.39859">
        <ele>1924.6967773438</ele>
        <time>2012-06-23T08:41:56Z</time>
      </trkpt>
      <trkpt lat="42.69678" lon="1.39854">
        <ele>1925.6579589844</ele>
        <time>2012-06-23T08:42:06Z</time>
      </trkpt>
      <trkpt lat="42.69679" lon="1.39851">
        <ele>1927.1000976562</ele>
        <time>2012-06-23T08:42:12Z</time>
      </trkpt>
      <trkpt lat="42.69678" lon="1.39849">
        <ele>1928.5419921875</ele>
        <time>2012-06-23T08:42:19Z</time>
      </trkpt>
      <trkpt lat="42.69679" lon="1.39845">
        <ele>1929.0224609375</ele>
        <time>2012-06-23T08:42:26Z</time>
      </trkpt>
      <trkpt lat="42.69681" lon="1.39844">
        <ele>1930.4645996094</ele>
        <time>2012-06-23T08:42:32Z</time>
      </trkpt>
      <trkpt lat="42.69683" lon="1.39842">
        <ele>1931.42578125</ele>
        <time>2012-06-23T08:42:37Z</time>
      </trkpt>
      <trkpt lat="42.69686" lon="1.39839">
        <ele>1932.8679199219</ele>
        <time>2012-06-23T08:42:40Z</time>
      </trkpt>
      <trkpt lat="42.69689" lon="1.39834">
        <ele>1933.8293457031</ele>
        <time>2012-06-23T08:42:47Z</time>
      </trkpt>
      <trkpt lat="42.6969" lon="1.39829">
        <ele>1936.2326660156</ele>
        <time>2012-06-23T08:42:57Z</time>
      </trkpt>
      <trkpt lat="42.6969" lon="1.39825">
        <ele>1936.2326660156</ele>
        <time>2012-06-23T08:43:01Z</time>
      </trkpt>
      <trkpt lat="42.6969" lon="1.39821">
        <ele>1937.6745605469</ele>
        <time>2012-06-23T08:43:05Z</time>
      </trkpt>
      <trkpt lat="42.69691" lon="1.39816">
        <ele>1938.1552734375</ele>
        <time>2012-06-23T08:43:12Z</time>
      </trkpt>
      <trkpt lat="42.69691" lon="1.39812">
        <ele>1939.1164550781</ele>
        <time>2012-06-23T08:43:16Z</time>
      </trkpt>
      <trkpt lat="42.69692" lon="1.39806">
        <ele>1939.1164550781</ele>
        <time>2012-06-23T08:43:21Z</time>
      </trkpt>
      <trkpt lat="42.69691" lon="1.39802">
        <ele>1939.5971679688</ele>
        <time>2012-06-23T08:43:26Z</time>
      </trkpt>
      <trkpt lat="42.69691" lon="1.39794">
        <ele>1941.0390625</ele>
        <time>2012-06-23T08:43:32Z</time>
      </trkpt>
      <trkpt lat="42.69691" lon="1.39787">
        <ele>1941.5197753906</ele>
        <time>2012-06-23T08:43:38Z</time>
      </trkpt>
      <trkpt lat="42.69692" lon="1.3978">
        <ele>1941.0390625</ele>
        <time>2012-06-23T08:43:44Z</time>
      </trkpt>
      <trkpt lat="42.69694" lon="1.39772">
        <ele>1941.0390625</ele>
        <time>2012-06-23T08:43:50Z</time>
      </trkpt>
      <trkpt lat="42.69698" lon="1.39764">
        <ele>1942.4812011719</ele>
        <time>2012-06-23T08:43:57Z</time>
      </trkpt>
      <trkpt lat="42.69701" lon="1.39759">
        <ele>1943.4423828125</ele>
        <time>2012-06-23T08:44:02Z</time>
      </trkpt>
      <trkpt lat="42.69703" lon="1.39755">
        <ele>1944.4035644531</ele>
        <time>2012-06-23T08:44:07Z</time>
      </trkpt>
      <trkpt lat="42.69703" lon="1.3975">
        <ele>1945.845703125</ele>
        <time>2012-06-23T08:44:11Z</time>
      </trkpt>
      <trkpt lat="42.69703" lon="1.39745">
        <ele>1946.8068847656</ele>
        <time>2012-06-23T08:44:16Z</time>
      </trkpt>
      <trkpt lat="42.69699" lon="1.39737">
        <ele>1948.7297363281</ele>
        <time>2012-06-23T08:44:23Z</time>
      </trkpt>
      <trkpt lat="42.69698" lon="1.39732">
        <ele>1949.6911621094</ele>
        <time>2012-06-23T08:44:27Z</time>
      </trkpt>
      <trkpt lat="42.69695" lon="1.3973">
        <ele>1949.6911621094</ele>
        <time>2012-06-23T08:44:30Z</time>
      </trkpt>
      <trkpt lat="42.6969" lon="1.39725">
        <ele>1950.65234375</ele>
        <time>2012-06-23T08:44:37Z</time>
      </trkpt>
      <trkpt lat="42.69689" lon="1.39718">
        <ele>1951.6137695312</ele>
        <time>2012-06-23T08:44:43Z</time>
      </trkpt>
      <trkpt lat="42.69686" lon="1.3971">
        <ele>1954.4975585938</ele>
        <time>2012-06-23T08:44:51Z</time>
      </trkpt>
      <trkpt lat="42.69683" lon="1.39707">
        <ele>1955.939453125</ele>
        <time>2012-06-23T08:44:57Z</time>
      </trkpt>
      <trkpt lat="42.6968" lon="1.39706">
        <ele>1956.9008789062</ele>
        <time>2012-06-23T08:45:01Z</time>
      </trkpt>
      <trkpt lat="42.69677" lon="1.39707">
        <ele>1958.3427734375</ele>
        <time>2012-06-23T08:45:07Z</time>
      </trkpt>
      <trkpt lat="42.69674" lon="1.39706">
        <ele>1959.7846679688</ele>
        <time>2012-06-23T08:45:11Z</time>
      </trkpt>
      <trkpt lat="42.69672" lon="1.39707">
        <ele>1959.7846679688</ele>
        <time>2012-06-23T08:45:15Z</time>
      </trkpt>
      <trkpt lat="42.6967" lon="1.39705">
        <ele>1960.2653808594</ele>
        <time>2012-06-23T08:45:20Z</time>
      </trkpt>
      <trkpt lat="42.69669" lon="1.39701">
        <ele>1961.2268066406</ele>
        <time>2012-06-23T08:45:24Z</time>
      </trkpt>
      <trkpt lat="42.69668" lon="1.39698">
        <ele>1962.1879882812</ele>
        <time>2012-06-23T08:45:29Z</time>
      </trkpt>
      <trkpt lat="42.69666" lon="1.397">
        <ele>1963.1494140625</ele>
        <time>2012-06-23T08:45:35Z</time>
      </trkpt>
      <trkpt lat="42.69663" lon="1.39702">
        <ele>1963.6298828125</ele>
        <time>2012-06-23T08:45:39Z</time>
      </trkpt>
      <trkpt lat="42.69661" lon="1.39704">
        <ele>1965.072265625</ele>
        <time>2012-06-23T08:45:44Z</time>
      </trkpt>
      <trkpt lat="42.69659" lon="1.39701">
        <ele>1966.0334472656</ele>
        <time>2012-06-23T08:45:49Z</time>
      </trkpt>
      <trkpt lat="42.69657" lon="1.39701">
        <ele>1966.9948730469</ele>
        <time>2012-06-23T08:45:55Z</time>
      </trkpt>
      <trkpt lat="42.69656" lon="1.39697">
        <ele>1968.4367675781</ele>
        <time>2012-06-23T08:46:01Z</time>
      </trkpt>
      <trkpt lat="42.69654" lon="1.39694">
        <ele>1969.3981933594</ele>
        <time>2012-06-23T08:46:06Z</time>
      </trkpt>
      <trkpt lat="42.69653" lon="1.39693">
        <ele>1971.3205566406</ele>
        <time>2012-06-23T08:46:13Z</time>
      </trkpt>
      <trkpt lat="42.6965" lon="1.39696">
        <ele>1972.2819824219</ele>
        <time>2012-06-23T08:46:19Z</time>
      </trkpt>
      <trkpt lat="42.69648" lon="1.39694">
        <ele>1972.7626953125</ele>
        <time>2012-06-23T08:46:24Z</time>
      </trkpt>
      <trkpt lat="42.69647" lon="1.39691">
        <ele>1974.2045898438</ele>
        <time>2012-06-23T08:46:30Z</time>
      </trkpt>
      <trkpt lat="42.69645" lon="1.39692">
        <ele>1976.1271972656</ele>
        <time>2012-06-23T08:46:36Z</time>
      </trkpt>
      <trkpt lat="42.69643" lon="1.39693">
        <ele>1977.5690917969</ele>
        <time>2012-06-23T08:46:41Z</time>
      </trkpt>
      <trkpt lat="42.69641" lon="1.3969">
        <ele>1978.0498046875</ele>
        <time>2012-06-23T08:46:47Z</time>
      </trkpt>
      <trkpt lat="42.6964" lon="1.39688">
        <ele>1979.4916992188</ele>
        <time>2012-06-23T08:46:54Z</time>
      </trkpt>
      <trkpt lat="42.6964" lon="1.39684">
        <ele>1980.4533691406</ele>
        <time>2012-06-23T08:47:00Z</time>
      </trkpt>
      <trkpt lat="42.6964" lon="1.3968">
        <ele>1982.3759765625</ele>
        <time>2012-06-23T08:47:05Z</time>
      </trkpt>
      <trkpt lat="42.6964" lon="1.39677">
        <ele>1982.8564453125</ele>
        <time>2012-06-23T08:47:11Z</time>
      </trkpt>
      <trkpt lat="42.69637" lon="1.39676">
        <ele>1983.8178710938</ele>
        <time>2012-06-23T08:47:16Z</time>
      </trkpt>
      <trkpt lat="42.69636" lon="1.39673">
        <ele>1984.2985839844</ele>
        <time>2012-06-23T08:47:22Z</time>
      </trkpt>
      <trkpt lat="42.69634" lon="1.39673">
        <ele>1986.2211914062</ele>
        <time>2012-06-23T08:47:28Z</time>
      </trkpt>
      <trkpt lat="42.69634" lon="1.39669">
        <ele>1987.6630859375</ele>
        <time>2012-06-23T08:47:34Z</time>
      </trkpt>
      <trkpt lat="42.69632" lon="1.3967">
        <ele>1988.6245117188</ele>
        <time>2012-06-23T08:47:39Z</time>
      </trkpt>
      <trkpt lat="42.69631" lon="1.39668">
        <ele>1989.5856933594</ele>
        <time>2012-06-23T08:47:44Z</time>
      </trkpt>
      <trkpt lat="42.69629" lon="1.39667">
        <ele>1991.0275878906</ele>
        <time>2012-06-23T08:47:49Z</time>
      </trkpt>
      <trkpt lat="42.69627" lon="1.39668">
        <ele>1992.4697265625</ele>
        <time>2012-06-23T08:47:55Z</time>
      </trkpt>
      <trkpt lat="42.69625" lon="1.39672">
        <ele>1992.9501953125</ele>
        <time>2012-06-23T08:48:01Z</time>
      </trkpt>
      <trkpt lat="42.69623" lon="1.39671">
        <ele>1993.9116210938</ele>
        <time>2012-06-23T08:48:07Z</time>
      </trkpt>
      <trkpt lat="42.69621" lon="1.39666">
        <ele>1994.3920898438</ele>
        <time>2012-06-23T08:48:13Z</time>
      </trkpt>
      <trkpt lat="42.69618" lon="1.3966">
        <ele>1996.3151855469</ele>
        <time>2012-06-23T08:48:21Z</time>
      </trkpt>
      <trkpt lat="42.69616" lon="1.3966">
        <ele>1997.2763671875</ele>
        <time>2012-06-23T08:48:25Z</time>
      </trkpt>
      <trkpt lat="42.69613" lon="1.39656">
        <ele>1998.2375488281</ele>
        <time>2012-06-23T08:48:31Z</time>
      </trkpt>
      <trkpt lat="42.6961" lon="1.39652">
        <ele>1999.1989746094</ele>
        <time>2012-06-23T08:48:37Z</time>
      </trkpt>
      <trkpt lat="42.69606" lon="1.3965">
        <ele>1997.2763671875</ele>
        <time>2012-06-23T08:48:41Z</time>
      </trkpt>
      <trkpt lat="42.69601" lon="1.39647">
        <ele>1997.7570800781</ele>
        <time>2012-06-23T08:48:48Z</time>
      </trkpt>
      <trkpt lat="42.69597" lon="1.39645">
        <ele>1999.6796875</ele>
        <time>2012-06-23T08:48:54Z</time>
      </trkpt>
      <trkpt lat="42.69594" lon="1.39641">
        <ele>2001.6022949219</ele>
        <time>2012-06-23T08:49:00Z</time>
      </trkpt>
      <trkpt lat="42.69591" lon="1.39642">
        <ele>2004.0056152344</ele>
        <time>2012-06-23T08:49:06Z</time>
      </trkpt>
      <trkpt lat="42.69586" lon="1.39639">
        <ele>2006.8894042969</ele>
        <time>2012-06-23T08:49:13Z</time>
      </trkpt>
      <trkpt lat="42.69584" lon="1.39635">
        <ele>2008.3312988281</ele>
        <time>2012-06-23T08:49:18Z</time>
      </trkpt>
      <trkpt lat="42.6958" lon="1.39633">
        <ele>2011.2153320312</ele>
        <time>2012-06-23T08:49:26Z</time>
      </trkpt>
      <trkpt lat="42.69577" lon="1.39634">
        <ele>2012.1767578125</ele>
        <time>2012-06-23T08:49:31Z</time>
      </trkpt>
      <trkpt lat="42.69573" lon="1.39634">
        <ele>2013.1381835938</ele>
        <time>2012-06-23T08:49:38Z</time>
      </trkpt>
      <trkpt lat="42.6957" lon="1.3963">
        <ele>2014.580078125</ele>
        <time>2012-06-23T08:49:44Z</time>
      </trkpt>
      <trkpt lat="42.69568" lon="1.39627">
        <ele>2015.0607910156</ele>
        <time>2012-06-23T08:49:50Z</time>
      </trkpt>
      <trkpt lat="42.69567" lon="1.39625">
        <ele>2016.0219726562</ele>
        <time>2012-06-23T08:49:56Z</time>
      </trkpt>
      <trkpt lat="42.69564" lon="1.39625">
        <ele>2017.4638671875</ele>
        <time>2012-06-23T08:50:01Z</time>
      </trkpt>
      <trkpt lat="42.69562" lon="1.39622">
        <ele>2018.9060058594</ele>
        <time>2012-06-23T08:50:08Z</time>
      </trkpt>
      <trkpt lat="42.69559" lon="1.3962">
        <ele>2018.9060058594</ele>
        <time>2012-06-23T08:50:14Z</time>
      </trkpt>
      <trkpt lat="42.69556" lon="1.39617">
        <ele>2020.8286132812</ele>
        <time>2012-06-23T08:50:20Z</time>
      </trkpt>
      <trkpt lat="42.69554" lon="1.39614">
        <ele>2021.7897949219</ele>
        <time>2012-06-23T08:50:26Z</time>
      </trkpt>
      <trkpt lat="42.69552" lon="1.39611">
        <ele>2023.2319335938</ele>
        <time>2012-06-23T08:50:31Z</time>
      </trkpt>
      <trkpt lat="42.6955" lon="1.39613">
        <ele>2024.1931152344</ele>
        <time>2012-06-23T08:50:36Z</time>
      </trkpt>
      <trkpt lat="42.69546" lon="1.39614">
        <ele>2025.154296875</ele>
        <time>2012-06-23T08:50:42Z</time>
      </trkpt>
      <trkpt lat="42.69545" lon="1.39611">
        <ele>2025.6350097656</ele>
        <time>2012-06-23T08:50:46Z</time>
      </trkpt>
      <trkpt lat="42.69543" lon="1.39611">
        <ele>2027.0771484375</ele>
        <time>2012-06-23T08:50:51Z</time>
      </trkpt>
      <trkpt lat="42.6954" lon="1.39612">
        <ele>2028.5192871094</ele>
        <time>2012-06-23T08:50:57Z</time>
      </trkpt>
      <trkpt lat="42.69537" lon="1.39612">
        <ele>2029.48046875</ele>
        <time>2012-06-23T08:51:02Z</time>
      </trkpt>
      <trkpt lat="42.69537" lon="1.39608">
        <ele>2030.9226074219</ele>
        <time>2012-06-23T08:51:07Z</time>
      </trkpt>
      <trkpt lat="42.69537" lon="1.39603">
        <ele>2031.8837890625</ele>
        <time>2012-06-23T08:51:13Z</time>
      </trkpt>
      <trkpt lat="42.69534" lon="1.39603">
        <ele>2032.8449707031</ele>
        <time>2012-06-23T08:51:17Z</time>
      </trkpt>
      <trkpt lat="42.69532" lon="1.39601">
        <ele>2034.7678222656</ele>
        <time>2012-06-23T08:51:23Z</time>
      </trkpt>
      <trkpt lat="42.6953" lon="1.396">
        <ele>2037.1708984375</ele>
        <time>2012-06-23T08:51:30Z</time>
      </trkpt>
      <trkpt lat="42.69528" lon="1.39599">
        <ele>2038.6130371094</ele>
        <time>2012-06-23T08:51:35Z</time>
      </trkpt>
      <trkpt lat="42.69526" lon="1.39599">
        <ele>2040.5354003906</ele>
        <time>2012-06-23T08:51:41Z</time>
      </trkpt>
      <trkpt lat="42.69524" lon="1.396">
        <ele>2042.4582519531</ele>
        <time>2012-06-23T08:51:46Z</time>
      </trkpt>
      <trkpt lat="42.69522" lon="1.39599">
        <ele>2043.4194335938</ele>
        <time>2012-06-23T08:51:51Z</time>
      </trkpt>
      <trkpt lat="42.69521" lon="1.39601">
        <ele>2043.9001464844</ele>
        <time>2012-06-23T08:51:56Z</time>
      </trkpt>
      <trkpt lat="42.69519" lon="1.39605">
        <ele>2044.380859375</ele>
        <time>2012-06-23T08:52:03Z</time>
      </trkpt>
      <trkpt lat="42.69517" lon="1.39607">
        <ele>2045.8229980469</ele>
        <time>2012-06-23T08:52:08Z</time>
      </trkpt>
      <trkpt lat="42.69515" lon="1.39604">
        <ele>2045.8229980469</ele>
        <time>2012-06-23T08:52:15Z</time>
      </trkpt>
      <trkpt lat="42.69511" lon="1.396">
        <ele>2047.7456054688</ele>
        <time>2012-06-23T08:52:23Z</time>
      </trkpt>
      <trkpt lat="42.69511" lon="1.39602">
        <ele>2048.2260742188</ele>
        <time>2012-06-23T08:52:29Z</time>
      </trkpt>
      <trkpt lat="42.69508" lon="1.39607">
        <ele>2050.1489257812</ele>
        <time>2012-06-23T08:52:37Z</time>
      </trkpt>
      <trkpt lat="42.69506" lon="1.39608">
        <ele>2051.1101074219</ele>
        <time>2012-06-23T08:52:43Z</time>
      </trkpt>
      <trkpt lat="42.69506" lon="1.39612">
        <ele>2053.0327148438</ele>
        <time>2012-06-23T08:52:48Z</time>
      </trkpt>
      <trkpt lat="42.69504" lon="1.39617">
        <ele>2054.474609375</ele>
        <time>2012-06-23T08:52:55Z</time>
      </trkpt>
      <trkpt lat="42.69501" lon="1.39615">
        <ele>2055.4360351562</ele>
        <time>2012-06-23T08:53:00Z</time>
      </trkpt>
      <trkpt lat="42.69499" lon="1.39616">
        <ele>2056.3972167969</ele>
        <time>2012-06-23T08:53:06Z</time>
      </trkpt>
      <trkpt lat="42.69495" lon="1.39618">
        <ele>2057.8393554688</ele>
        <time>2012-06-23T08:53:14Z</time>
      </trkpt>
      <trkpt lat="42.69492" lon="1.39618">
        <ele>2059.28125</ele>
        <time>2012-06-23T08:53:20Z</time>
      </trkpt>
      <trkpt lat="42.6949" lon="1.39615">
        <ele>2060.7233886719</ele>
        <time>2012-06-23T08:53:26Z</time>
      </trkpt>
      <trkpt lat="42.69487" lon="1.39615">
        <ele>2062.1652832031</ele>
        <time>2012-06-23T08:53:32Z</time>
      </trkpt>
      <trkpt lat="42.69483" lon="1.39614">
        <ele>2063.1267089844</ele>
        <time>2012-06-23T08:53:38Z</time>
      </trkpt>
      <trkpt lat="42.6948" lon="1.39614">
        <ele>2063.6071777344</ele>
        <time>2012-06-23T08:53:43Z</time>
      </trkpt>
      <trkpt lat="42.69476" lon="1.39614">
        <ele>2064.5686035156</ele>
        <time>2012-06-23T08:53:49Z</time>
      </trkpt>
      <trkpt lat="42.69473" lon="1.39613">
        <ele>2066.0104980469</ele>
        <time>2012-06-23T08:53:54Z</time>
      </trkpt>
      <trkpt lat="42.6947" lon="1.39612">
        <ele>2067.4523925781</ele>
        <time>2012-06-23T08:53:59Z</time>
      </trkpt>
      <trkpt lat="42.69469" lon="1.39609">
        <ele>2067.9331054688</ele>
        <time>2012-06-23T08:54:03Z</time>
      </trkpt>
      <trkpt lat="42.69467" lon="1.39605">
        <ele>2068.89453125</ele>
        <time>2012-06-23T08:54:09Z</time>
      </trkpt>
      <trkpt lat="42.69465" lon="1.39601">
        <ele>2070.3364257812</ele>
        <time>2012-06-23T08:54:16Z</time>
      </trkpt>
      <trkpt lat="42.69463" lon="1.39597">
        <ele>2072.2590332031</ele>
        <time>2012-06-23T08:54:22Z</time>
      </trkpt>
      <trkpt lat="42.69462" lon="1.39596">
        <ele>2073.7009277344</ele>
        <time>2012-06-23T08:54:28Z</time>
      </trkpt>
      <trkpt lat="42.69459" lon="1.39597">
        <ele>2075.1428222656</ele>
        <time>2012-06-23T08:54:33Z</time>
      </trkpt>
      <trkpt lat="42.69456" lon="1.39595">
        <ele>2077.0659179688</ele>
        <time>2012-06-23T08:54:39Z</time>
      </trkpt>
      <trkpt lat="42.69455" lon="1.39594">
        <ele>2078.5078125</ele>
        <time>2012-06-23T08:54:45Z</time>
      </trkpt>
      <trkpt lat="42.69452" lon="1.39593">
        <ele>2079.4689941406</ele>
        <time>2012-06-23T08:54:51Z</time>
      </trkpt>
      <trkpt lat="42.69449" lon="1.3959">
        <ele>2080.4304199219</ele>
        <time>2012-06-23T08:54:58Z</time>
      </trkpt>
      <trkpt lat="42.69447" lon="1.39585">
        <ele>2081.3916015625</ele>
        <time>2012-06-23T08:55:04Z</time>
      </trkpt>
      <trkpt lat="42.69444" lon="1.39585">
        <ele>2083.3142089844</ele>
        <time>2012-06-23T08:55:11Z</time>
      </trkpt>
      <trkpt lat="42.69441" lon="1.39584">
        <ele>2084.7563476562</ele>
        <time>2012-06-23T08:55:16Z</time>
      </trkpt>
      <trkpt lat="42.69439" lon="1.39585">
        <ele>2086.1982421875</ele>
        <time>2012-06-23T08:55:20Z</time>
      </trkpt>
      <trkpt lat="42.69436" lon="1.39588">
        <ele>2087.1594238281</ele>
        <time>2012-06-23T08:55:26Z</time>
      </trkpt>
      <trkpt lat="42.69434" lon="1.39593">
        <ele>2088.6015625</ele>
        <time>2012-06-23T08:55:32Z</time>
      </trkpt>
      <trkpt lat="42.69431" lon="1.39596">
        <ele>2089.08203125</ele>
        <time>2012-06-23T08:55:38Z</time>
      </trkpt>
      <trkpt lat="42.69426" lon="1.39596">
        <ele>2089.5627441406</ele>
        <time>2012-06-23T08:55:43Z</time>
      </trkpt>
      <trkpt lat="42.69422" lon="1.39596">
        <ele>2090.0434570312</ele>
        <time>2012-06-23T08:55:49Z</time>
      </trkpt>
      <trkpt lat="42.69419" lon="1.39599">
        <ele>2090.5239257812</ele>
        <time>2012-06-23T08:55:54Z</time>
      </trkpt>
      <trkpt lat="42.69417" lon="1.39604">
        <ele>2091.9660644531</ele>
        <time>2012-06-23T08:56:01Z</time>
      </trkpt>
      <trkpt lat="42.69413" lon="1.39607">
        <ele>2093.408203125</ele>
        <time>2012-06-23T08:56:07Z</time>
      </trkpt>
      <trkpt lat="42.6941" lon="1.39608">
        <ele>2095.3308105469</ele>
        <time>2012-06-23T08:56:13Z</time>
      </trkpt>
      <trkpt lat="42.69405" lon="1.39613">
        <ele>2097.7341308594</ele>
        <time>2012-06-23T08:56:21Z</time>
      </trkpt>
      <trkpt lat="42.69401" lon="1.39613">
        <ele>2097.7341308594</ele>
        <time>2012-06-23T08:56:27Z</time>
      </trkpt>
      <trkpt lat="42.69398" lon="1.39611">
        <ele>2099.1760253906</ele>
        <time>2012-06-23T08:56:33Z</time>
      </trkpt>
      <trkpt lat="42.69396" lon="1.39611">
        <ele>2100.6179199219</ele>
        <time>2012-06-23T08:56:39Z</time>
      </trkpt>
      <trkpt lat="42.69393" lon="1.39611">
        <ele>2101.5793457031</ele>
        <time>2012-06-23T08:56:45Z</time>
      </trkpt>
      <trkpt lat="42.69392" lon="1.39612">
        <ele>2102.0598144531</ele>
        <time>2012-06-23T08:56:49Z</time>
      </trkpt>
      <trkpt lat="42.69388" lon="1.39615">
        <ele>2103.501953125</ele>
        <time>2012-06-23T08:56:57Z</time>
      </trkpt>
      <trkpt lat="42.69384" lon="1.39619">
        <ele>2104.9438476562</ele>
        <time>2012-06-23T08:57:04Z</time>
      </trkpt>
      <trkpt lat="42.69381" lon="1.39623">
        <ele>2105.9050292969</ele>
        <time>2012-06-23T08:57:10Z</time>
      </trkpt>
      <trkpt lat="42.69377" lon="1.39622">
        <ele>2106.8664550781</ele>
        <time>2012-06-23T08:57:16Z</time>
      </trkpt>
      <trkpt lat="42.69374" lon="1.39622">
        <ele>2107.8278808594</ele>
        <time>2012-06-23T08:57:21Z</time>
      </trkpt>
      <trkpt lat="42.6937" lon="1.39624">
        <ele>2109.7504882812</ele>
        <time>2012-06-23T08:57:28Z</time>
      </trkpt>
      <trkpt lat="42.69368" lon="1.39626">
        <ele>2111.1926269531</ele>
        <time>2012-06-23T08:57:34Z</time>
      </trkpt>
      <trkpt lat="42.69365" lon="1.39627">
        <ele>2112.1538085938</ele>
        <time>2012-06-23T08:57:39Z</time>
      </trkpt>
      <trkpt lat="42.69363" lon="1.39629">
        <ele>2113.115234375</ele>
        <time>2012-06-23T08:57:42Z</time>
      </trkpt>
      <trkpt lat="42.6936" lon="1.39627">
        <ele>2113.595703125</ele>
        <time>2012-06-23T08:57:47Z</time>
      </trkpt>
      <trkpt lat="42.69358" lon="1.39629">
        <ele>2114.0764160156</ele>
        <time>2012-06-23T08:57:52Z</time>
      </trkpt>
      <trkpt lat="42.69357" lon="1.39634">
        <ele>2116.4797363281</ele>
        <time>2012-06-23T08:57:59Z</time>
      </trkpt>
      <trkpt lat="42.69354" lon="1.3964">
        <ele>2117.9216308594</ele>
        <time>2012-06-23T08:58:06Z</time>
      </trkpt>
      <trkpt lat="42.69352" lon="1.3964">
        <ele>2118.8830566406</ele>
        <time>2012-06-23T08:58:12Z</time>
      </trkpt>
      <trkpt lat="42.69349" lon="1.39641">
        <ele>2120.3249511719</ele>
        <time>2012-06-23T08:58:19Z</time>
      </trkpt>
      <trkpt lat="42.69347" lon="1.39642">
        <ele>2121.2861328125</ele>
        <time>2012-06-23T08:58:23Z</time>
      </trkpt>
      <trkpt lat="42.69344" lon="1.39642">
        <ele>2122.2475585938</ele>
        <time>2012-06-23T08:58:31Z</time>
      </trkpt>
      <trkpt lat="42.69342" lon="1.39641">
        <ele>2123.689453125</ele>
        <time>2012-06-23T08:58:37Z</time>
      </trkpt>
      <trkpt lat="42.6934" lon="1.39639">
        <ele>2125.1315917969</ele>
        <time>2012-06-23T08:58:43Z</time>
      </trkpt>
      <trkpt lat="42.69338" lon="1.39636">
        <ele>2125.6123046875</ele>
        <time>2012-06-23T08:58:49Z</time>
      </trkpt>
      <trkpt lat="42.69337" lon="1.39633">
        <ele>2126.5737304688</ele>
        <time>2012-06-23T08:58:56Z</time>
      </trkpt>
      <trkpt lat="42.69334" lon="1.39633">
        <ele>2127.5349121094</ele>
        <time>2012-06-23T08:59:16Z</time>
      </trkpt>
      <trkpt lat="42.69332" lon="1.39632">
        <ele>2127.0544433594</ele>
        <time>2012-06-23T08:59:20Z</time>
      </trkpt>
      <trkpt lat="42.69331" lon="1.39628">
        <ele>2129.4575195312</ele>
        <time>2012-06-23T08:59:26Z</time>
      </trkpt>
      <trkpt lat="42.69329" lon="1.39627">
        <ele>2131.3801269531</ele>
        <time>2012-06-23T08:59:32Z</time>
      </trkpt>
      <trkpt lat="42.69326" lon="1.39627">
        <ele>2131.3801269531</ele>
        <time>2012-06-23T08:59:37Z</time>
      </trkpt>
      <trkpt lat="42.69324" lon="1.39629">
        <ele>2132.3415527344</ele>
        <time>2012-06-23T08:59:42Z</time>
      </trkpt>
      <trkpt lat="42.69321" lon="1.39631">
        <ele>2133.7834472656</ele>
        <time>2012-06-23T08:59:47Z</time>
      </trkpt>
      <trkpt lat="42.6932" lon="1.39633">
        <ele>2133.7834472656</ele>
        <time>2012-06-23T08:59:51Z</time>
      </trkpt>
      <trkpt lat="42.69318" lon="1.39633">
        <ele>2134.2641601562</ele>
        <time>2012-06-23T08:59:55Z</time>
      </trkpt>
      <trkpt lat="42.69315" lon="1.39636">
        <ele>2136.1867675781</ele>
        <time>2012-06-23T09:00:01Z</time>
      </trkpt>
      <trkpt lat="42.69313" lon="1.39637">
        <ele>2136.6672363281</ele>
        <time>2012-06-23T09:00:06Z</time>
      </trkpt>
      <trkpt lat="42.69313" lon="1.39632">
        <ele>2136.6672363281</ele>
        <time>2012-06-23T09:00:11Z</time>
      </trkpt>
      <trkpt lat="42.69313" lon="1.39627">
        <ele>2138.109375</ele>
        <time>2012-06-23T09:00:18Z</time>
      </trkpt>
      <trkpt lat="42.69311" lon="1.39626">
        <ele>2139.5512695312</ele>
        <time>2012-06-23T09:00:24Z</time>
      </trkpt>
      <trkpt lat="42.6931" lon="1.39625">
        <ele>2140.5126953125</ele>
        <time>2012-06-23T09:00:31Z</time>
      </trkpt>
      <trkpt lat="42.69309" lon="1.39624">
        <ele>2141.9548339844</ele>
        <time>2012-06-23T09:00:37Z</time>
      </trkpt>
      <trkpt lat="42.69308" lon="1.39622">
        <ele>2142.435546875</ele>
        <time>2012-06-23T09:00:44Z</time>
      </trkpt>
      <trkpt lat="42.69306" lon="1.39624">
        <ele>2142.916015625</ele>
        <time>2012-06-23T09:00:50Z</time>
      </trkpt>
      <trkpt lat="42.69306" lon="1.39627">
        <ele>2143.8774414062</ele>
        <time>2012-06-23T09:00:56Z</time>
      </trkpt>
      <trkpt lat="42.69307" lon="1.39633">
        <ele>2144.8386230469</ele>
        <time>2012-06-23T09:01:02Z</time>
      </trkpt>
      <trkpt lat="42.69305" lon="1.39632">
        <ele>2146.2807617188</ele>
        <time>2012-06-23T09:01:08Z</time>
      </trkpt>
      <trkpt lat="42.69303" lon="1.39634">
        <ele>2148.203125</ele>
        <time>2012-06-23T09:01:15Z</time>
      </trkpt>
      <trkpt lat="42.69301" lon="1.39635">
        <ele>2150.1259765625</ele>
        <time>2012-06-23T09:01:20Z</time>
      </trkpt>
      <trkpt lat="42.69298" lon="1.39634">
        <ele>2151.5678710938</ele>
        <time>2012-06-23T09:01:26Z</time>
      </trkpt>
      <trkpt lat="42.69297" lon="1.3963">
        <ele>2153.9711914062</ele>
        <time>2012-06-23T09:01:32Z</time>
      </trkpt>
      <trkpt lat="42.69296" lon="1.39626">
        <ele>2154.9323730469</ele>
        <time>2012-06-23T09:01:39Z</time>
      </trkpt>
      <trkpt lat="42.69296" lon="1.39622">
        <ele>2156.3745117188</ele>
        <time>2012-06-23T09:01:46Z</time>
      </trkpt>
      <trkpt lat="42.69295" lon="1.39619">
        <ele>2157.8166503906</ele>
        <time>2012-06-23T09:01:52Z</time>
      </trkpt>
      <trkpt lat="42.69295" lon="1.39616">
        <ele>2159.7390136719</ele>
        <time>2012-06-23T09:01:57Z</time>
      </trkpt>
      <trkpt lat="42.69294" lon="1.39614">
        <ele>2160.2197265625</ele>
        <time>2012-06-23T09:02:02Z</time>
      </trkpt>
      <trkpt lat="42.69293" lon="1.39611">
        <ele>2160.7004394531</ele>
        <time>2012-06-23T09:02:06Z</time>
      </trkpt>
      <trkpt lat="42.69293" lon="1.39608">
        <ele>2161.6618652344</ele>
        <time>2012-06-23T09:02:12Z</time>
      </trkpt>
      <trkpt lat="42.69291" lon="1.39607">
        <ele>2162.623046875</ele>
        <time>2012-06-23T09:02:18Z</time>
      </trkpt>
      <trkpt lat="42.6929" lon="1.39605">
        <ele>2163.5842285156</ele>
        <time>2012-06-23T09:02:24Z</time>
      </trkpt>
      <trkpt lat="42.69291" lon="1.39602">
        <ele>2164.5456542969</ele>
        <time>2012-06-23T09:02:31Z</time>
      </trkpt>
      <trkpt lat="42.69292" lon="1.39601">
        <ele>2165.5070800781</ele>
        <time>2012-06-23T09:02:36Z</time>
      </trkpt>
      <trkpt lat="42.6929" lon="1.39597">
        <ele>2167.4294433594</ele>
        <time>2012-06-23T09:02:47Z</time>
      </trkpt>
      <trkpt lat="42.69286" lon="1.39599">
        <ele>2168.8715820312</ele>
        <time>2012-06-23T09:02:53Z</time>
      </trkpt>
      <trkpt lat="42.69281" lon="1.396">
        <ele>2170.3134765625</ele>
        <time>2012-06-23T09:03:00Z</time>
      </trkpt>
      <trkpt lat="42.6928" lon="1.39596">
        <ele>2173.6782226562</ele>
        <time>2012-06-23T09:03:07Z</time>
      </trkpt>
      <trkpt lat="42.69279" lon="1.39592">
        <ele>2175.6008300781</ele>
        <time>2012-06-23T09:03:14Z</time>
      </trkpt>
      <trkpt lat="42.69276" lon="1.39596">
        <ele>2178.0041503906</ele>
        <time>2012-06-23T09:03:20Z</time>
      </trkpt>
      <trkpt lat="42.69274" lon="1.39599">
        <ele>2180.4074707031</ele>
        <time>2012-06-23T09:03:26Z</time>
      </trkpt>
      <trkpt lat="42.69271" lon="1.39597">
        <ele>2180.8881835938</ele>
        <time>2012-06-23T09:03:32Z</time>
      </trkpt>
      <trkpt lat="42.6927" lon="1.396">
        <ele>2181.3686523438</ele>
        <time>2012-06-23T09:03:38Z</time>
      </trkpt>
      <trkpt lat="42.69267" lon="1.39601">
        <ele>2183.2912597656</ele>
        <time>2012-06-23T09:03:44Z</time>
      </trkpt>
      <trkpt lat="42.69265" lon="1.39595">
        <ele>2184.2526855469</ele>
        <time>2012-06-23T09:03:52Z</time>
      </trkpt>
      <trkpt lat="42.69263" lon="1.39591">
        <ele>2185.2138671875</ele>
        <time>2012-06-23T09:03:59Z</time>
      </trkpt>
      <trkpt lat="42.69258" lon="1.3959">
        <ele>2187.6171875</ele>
        <time>2012-06-23T09:04:08Z</time>
      </trkpt>
      <trkpt lat="42.69255" lon="1.3959">
        <ele>2188.0981445312</ele>
        <time>2012-06-23T09:04:14Z</time>
      </trkpt>
      <trkpt lat="42.6925" lon="1.39588">
        <ele>2190.9819335938</ele>
        <time>2012-06-23T09:04:23Z</time>
      </trkpt>
      <trkpt lat="42.69249" lon="1.39586">
        <ele>2192.4240722656</ele>
        <time>2012-06-23T09:04:28Z</time>
      </trkpt>
      <trkpt lat="42.69247" lon="1.39582">
        <ele>2193.8659667969</ele>
        <time>2012-06-23T09:04:34Z</time>
      </trkpt>
      <trkpt lat="42.69245" lon="1.3958">
        <ele>2194.8271484375</ele>
        <time>2012-06-23T09:04:39Z</time>
      </trkpt>
      <trkpt lat="42.69243" lon="1.39578">
        <ele>2196.2692871094</ele>
        <time>2012-06-23T09:04:45Z</time>
      </trkpt>
      <trkpt lat="42.69241" lon="1.39573">
        <ele>2197.23046875</ele>
        <time>2012-06-23T09:04:53Z</time>
      </trkpt>
      <trkpt lat="42.6924" lon="1.39568">
        <ele>2197.7111816406</ele>
        <time>2012-06-23T09:04:59Z</time>
      </trkpt>
      <trkpt lat="42.69236" lon="1.39568">
        <ele>2199.1530761719</ele>
        <time>2012-06-23T09:05:06Z</time>
      </trkpt>
      <trkpt lat="42.69233" lon="1.3957">
        <ele>2201.0756835938</ele>
        <time>2012-06-23T09:05:12Z</time>
      </trkpt>
      <trkpt lat="42.69229" lon="1.39568">
        <ele>2203.4790039062</ele>
        <time>2012-06-23T09:05:19Z</time>
      </trkpt>
      <trkpt lat="42.69225" lon="1.39563">
        <ele>2205.4018554688</ele>
        <time>2012-06-23T09:05:27Z</time>
      </trkpt>
      <trkpt lat="42.69221" lon="1.3956">
        <ele>2207.8051757812</ele>
        <time>2012-06-23T09:05:34Z</time>
      </trkpt>
      <trkpt lat="42.6922" lon="1.3956">
        <ele>2208.2856445312</ele>
        <time>2012-06-23T09:05:40Z</time>
      </trkpt>
      <trkpt lat="42.69217" lon="1.39559">
        <ele>2209.2470703125</ele>
        <time>2012-06-23T09:05:46Z</time>
      </trkpt>
      <trkpt lat="42.69215" lon="1.39557">
        <ele>2209.7275390625</ele>
        <time>2012-06-23T09:05:54Z</time>
      </trkpt>
      <trkpt lat="42.69213" lon="1.39557">
        <ele>2210.2082519531</ele>
        <time>2012-06-23T09:05:59Z</time>
      </trkpt>
      <trkpt lat="42.69211" lon="1.3956">
        <ele>2210.6889648438</ele>
        <time>2012-06-23T09:06:06Z</time>
      </trkpt>
      <trkpt lat="42.6921" lon="1.39564">
        <ele>2211.650390625</ele>
        <time>2012-06-23T09:06:12Z</time>
      </trkpt>
      <trkpt lat="42.69209" lon="1.39567">
        <ele>2212.130859375</ele>
        <time>2012-06-23T09:06:17Z</time>
      </trkpt>
      <trkpt lat="42.69204" lon="1.39569">
        <ele>2212.6115722656</ele>
        <time>2012-06-23T09:06:23Z</time>
      </trkpt>
      <trkpt lat="42.69199" lon="1.39568">
        <ele>2215.0148925781</ele>
        <time>2012-06-23T09:06:30Z</time>
      </trkpt>
      <trkpt lat="42.69195" lon="1.39567">
        <ele>2215.9760742188</ele>
        <time>2012-06-23T09:06:36Z</time>
      </trkpt>
      <trkpt lat="42.69192" lon="1.39567">
        <ele>2217.41796875</ele>
        <time>2012-06-23T09:06:42Z</time>
      </trkpt>
      <trkpt lat="42.69188" lon="1.39565">
        <ele>2218.3793945312</ele>
        <time>2012-06-23T09:06:49Z</time>
      </trkpt>
      <trkpt lat="42.69185" lon="1.39562">
        <ele>2218.8601074219</ele>
        <time>2012-06-23T09:06:54Z</time>
      </trkpt>
      <trkpt lat="42.69182" lon="1.39562">
        <ele>2221.2634277344</ele>
        <time>2012-06-23T09:07:00Z</time>
      </trkpt>
      <trkpt lat="42.69177" lon="1.39565">
        <ele>2223.1862792969</ele>
        <time>2012-06-23T09:07:07Z</time>
      </trkpt>
      <trkpt lat="42.69173" lon="1.39568">
        <ele>2225.5893554688</ele>
        <time>2012-06-23T09:07:14Z</time>
      </trkpt>
      <trkpt lat="42.69167" lon="1.39567">
        <ele>2227.0314941406</ele>
        <time>2012-06-23T09:07:22Z</time>
      </trkpt>
      <trkpt lat="42.69163" lon="1.39568">
        <ele>2227.9926757812</ele>
        <time>2012-06-23T09:07:28Z</time>
      </trkpt>
      <trkpt lat="42.6916" lon="1.39568">
        <ele>2229.4345703125</ele>
        <time>2012-06-23T09:07:33Z</time>
      </trkpt>
      <trkpt lat="42.69157" lon="1.39569">
        <ele>2230.8767089844</ele>
        <time>2012-06-23T09:07:40Z</time>
      </trkpt>
      <trkpt lat="42.69154" lon="1.3957">
        <ele>2231.837890625</ele>
        <time>2012-06-23T09:07:45Z</time>
      </trkpt>
      <trkpt lat="42.69151" lon="1.39569">
        <ele>2230.8767089844</ele>
        <time>2012-06-23T09:07:52Z</time>
      </trkpt>
      <trkpt lat="42.69147" lon="1.3957">
        <ele>2230.3959960938</ele>
        <time>2012-06-23T09:07:57Z</time>
      </trkpt>
      <trkpt lat="42.69145" lon="1.3957">
        <ele>2228.9538574219</ele>
        <time>2012-06-23T09:08:05Z</time>
      </trkpt>
      <trkpt lat="42.69141" lon="1.3957">
        <ele>2228.4733886719</ele>
        <time>2012-06-23T09:08:11Z</time>
      </trkpt>
      <trkpt lat="42.69138" lon="1.39573">
        <ele>2232.3186035156</ele>
        <time>2012-06-23T09:08:17Z</time>
      </trkpt>
      <trkpt lat="42.69135" lon="1.39572">
        <ele>2233.7604980469</ele>
        <time>2012-06-23T09:08:21Z</time>
      </trkpt>
      <trkpt lat="42.69132" lon="1.39573">
        <ele>2233.7604980469</ele>
        <time>2012-06-23T09:08:27Z</time>
      </trkpt>
      <trkpt lat="42.69128" lon="1.39573">
        <ele>2234.2412109375</ele>
        <time>2012-06-23T09:08:32Z</time>
      </trkpt>
      <trkpt lat="42.6912" lon="1.39571">
        <ele>2235.6831054688</ele>
        <time>2012-06-23T09:08:40Z</time>
      </trkpt>
      <trkpt lat="42.69117" lon="1.39569">
        <ele>2236.64453125</ele>
        <time>2012-06-23T09:08:45Z</time>
      </trkpt>
      <trkpt lat="42.69116" lon="1.39563">
        <ele>2237.1252441406</ele>
        <time>2012-06-23T09:08:51Z</time>
      </trkpt>
      <trkpt lat="42.6911" lon="1.39557">
        <ele>2237.1252441406</ele>
        <time>2012-06-23T09:08:59Z</time>
      </trkpt>
      <trkpt lat="42.69108" lon="1.39552">
        <ele>2239.0478515625</ele>
        <time>2012-06-23T09:09:05Z</time>
      </trkpt>
      <trkpt lat="42.69107" lon="1.39544">
        <ele>2240.9704589844</ele>
        <time>2012-06-23T09:09:12Z</time>
      </trkpt>
      <trkpt lat="42.69107" lon="1.3954">
        <ele>2243.3737792969</ele>
        <time>2012-06-23T09:09:18Z</time>
      </trkpt>
      <trkpt lat="42.69105" lon="1.39536">
        <ele>2243.8544921875</ele>
        <time>2012-06-23T09:09:24Z</time>
      </trkpt>
      <trkpt lat="42.69104" lon="1.3953">
        <ele>2244.3349609375</ele>
        <time>2012-06-23T09:09:30Z</time>
      </trkpt>
      <trkpt lat="42.69102" lon="1.39527">
        <ele>2245.2963867188</ele>
        <time>2012-06-23T09:09:35Z</time>
      </trkpt>
      <trkpt lat="42.69102" lon="1.39521">
        <ele>2240.9704589844</ele>
        <time>2012-06-23T09:14:23Z</time>
      </trkpt>
      <trkpt lat="42.69102" lon="1.39521">
        <ele>2240.4897460938</ele>
        <time>2012-06-23T09:14:24Z</time>
      </trkpt>
      <trkpt lat="42.69098" lon="1.39519">
        <ele>2240.0092773438</ele>
        <time>2012-06-23T09:14:29Z</time>
      </trkpt>
      <trkpt lat="42.69093" lon="1.39523">
        <ele>2239.0478515625</ele>
        <time>2012-06-23T09:14:35Z</time>
      </trkpt>
      <trkpt lat="42.6909" lon="1.39526">
        <ele>2239.0478515625</ele>
        <time>2012-06-23T09:14:41Z</time>
      </trkpt>
      <trkpt lat="42.69087" lon="1.39521">
        <ele>2240.4897460938</ele>
        <time>2012-06-23T09:14:47Z</time>
      </trkpt>
      <trkpt lat="42.69084" lon="1.39517">
        <ele>2241.451171875</ele>
        <time>2012-06-23T09:14:54Z</time>
      </trkpt>
      <trkpt lat="42.69081" lon="1.39516">
        <ele>2242.8930664062</ele>
        <time>2012-06-23T09:14:59Z</time>
      </trkpt>
      <trkpt lat="42.69077" lon="1.39514">
        <ele>2244.3349609375</ele>
        <time>2012-06-23T09:15:05Z</time>
      </trkpt>
      <trkpt lat="42.69072" lon="1.39516">
        <ele>2245.2963867188</ele>
        <time>2012-06-23T09:15:12Z</time>
      </trkpt>
      <trkpt lat="42.69068" lon="1.39519">
        <ele>2246.73828125</ele>
        <time>2012-06-23T09:15:19Z</time>
      </trkpt>
      <trkpt lat="42.69067" lon="1.3952">
        <ele>2248.1801757812</ele>
        <time>2012-06-23T09:15:25Z</time>
      </trkpt>
      <trkpt lat="42.69065" lon="1.39518">
        <ele>2248.1801757812</ele>
        <time>2012-06-23T09:15:30Z</time>
      </trkpt>
      <trkpt lat="42.69064" lon="1.39516">
        <ele>2249.1416015625</ele>
        <time>2012-06-23T09:15:35Z</time>
      </trkpt>
      <trkpt lat="42.69064" lon="1.39511">
        <ele>2250.5834960938</ele>
        <time>2012-06-23T09:15:41Z</time>
      </trkpt>
      <trkpt lat="42.69062" lon="1.39505">
        <ele>2251.0642089844</ele>
        <time>2012-06-23T09:15:48Z</time>
      </trkpt>
      <trkpt lat="42.69059" lon="1.39499">
        <ele>2252.0256347656</ele>
        <time>2012-06-23T09:15:55Z</time>
      </trkpt>
      <trkpt lat="42.69057" lon="1.39495">
        <ele>2252.5063476562</ele>
        <time>2012-06-23T09:16:00Z</time>
      </trkpt>
      <trkpt lat="42.69054" lon="1.39494">
        <ele>2253.9484863281</ele>
        <time>2012-06-23T09:16:07Z</time>
      </trkpt>
      <trkpt lat="42.69053" lon="1.39496">
        <ele>2255.8708496094</ele>
        <time>2012-06-23T09:16:13Z</time>
      </trkpt>
      <trkpt lat="42.69049" lon="1.39494">
        <ele>2256.8322753906</ele>
        <time>2012-06-23T09:16:20Z</time>
      </trkpt>
      <trkpt lat="42.69048" lon="1.39497">
        <ele>2257.7937011719</ele>
        <time>2012-06-23T09:16:24Z</time>
      </trkpt>
      <trkpt lat="42.69048" lon="1.39501">
        <ele>2259.2355957031</ele>
        <time>2012-06-23T09:16:29Z</time>
      </trkpt>
      <trkpt lat="42.69046" lon="1.39505">
        <ele>2259.7160644531</ele>
        <time>2012-06-23T09:16:34Z</time>
      </trkpt>
      <trkpt lat="42.69044" lon="1.3951">
        <ele>2261.158203125</ele>
        <time>2012-06-23T09:16:40Z</time>
      </trkpt>
      <trkpt lat="42.69041" lon="1.39512">
        <ele>2262.1193847656</ele>
        <time>2012-06-23T09:16:45Z</time>
      </trkpt>
      <trkpt lat="42.69038" lon="1.39512">
        <ele>2263.0808105469</ele>
        <time>2012-06-23T09:16:50Z</time>
      </trkpt>
      <trkpt lat="42.69034" lon="1.39512">
        <ele>2264.5227050781</ele>
        <time>2012-06-23T09:16:56Z</time>
      </trkpt>
      <trkpt lat="42.69032" lon="1.3951">
        <ele>2265.4841308594</ele>
        <time>2012-06-23T09:17:02Z</time>
      </trkpt>
      <trkpt lat="42.69029" lon="1.39506">
        <ele>2266.9260253906</ele>
        <time>2012-06-23T09:17:08Z</time>
      </trkpt>
      <trkpt lat="42.69027" lon="1.39505">
        <ele>2267.8872070312</ele>
        <time>2012-06-23T09:17:13Z</time>
      </trkpt>
      <trkpt lat="42.69023" lon="1.39504">
        <ele>2269.8100585938</ele>
        <time>2012-06-23T09:17:20Z</time>
      </trkpt>
      <trkpt lat="42.6902" lon="1.39503">
        <ele>2270.771484375</ele>
        <time>2012-06-23T09:17:26Z</time>
      </trkpt>
      <trkpt lat="42.69016" lon="1.39503">
        <ele>2271.7326660156</ele>
        <time>2012-06-23T09:17:33Z</time>
      </trkpt>
      <trkpt lat="42.69014" lon="1.39506">
        <ele>2272.2133789062</ele>
        <time>2012-06-23T09:17:38Z</time>
      </trkpt>
      <trkpt lat="42.69013" lon="1.39511">
        <ele>2273.6552734375</ele>
        <time>2012-06-23T09:17:45Z</time>
      </trkpt>
      <trkpt lat="42.69011" lon="1.39517">
        <ele>2273.6552734375</ele>
        <time>2012-06-23T09:17:51Z</time>
      </trkpt>
      <trkpt lat="42.69008" lon="1.39519">
        <ele>2275.0971679688</ele>
        <time>2012-06-23T09:17:57Z</time>
      </trkpt>
      <trkpt lat="42.69005" lon="1.39521">
        <ele>2276.05859375</ele>
        <time>2012-06-23T09:18:04Z</time>
      </trkpt>
      <trkpt lat="42.69001" lon="1.39525">
        <ele>2277.0200195312</ele>
        <time>2012-06-23T09:18:11Z</time>
      </trkpt>
      <trkpt lat="42.68999" lon="1.39529">
        <ele>2278.4619140625</ele>
        <time>2012-06-23T09:18:18Z</time>
      </trkpt>
      <trkpt lat="42.68998" lon="1.39532">
        <ele>2279.4230957031</ele>
        <time>2012-06-23T09:18:23Z</time>
      </trkpt>
      <trkpt lat="42.68997" lon="1.39535">
        <ele>2280.3845214844</ele>
        <time>2012-06-23T09:18:28Z</time>
      </trkpt>
      <trkpt lat="42.68994" lon="1.39537">
        <ele>2281.8264160156</ele>
        <time>2012-06-23T09:18:34Z</time>
      </trkpt>
      <trkpt lat="42.68993" lon="1.3954">
        <ele>2283.2683105469</ele>
        <time>2012-06-23T09:18:40Z</time>
      </trkpt>
      <trkpt lat="42.68992" lon="1.39544">
        <ele>2284.2299804688</ele>
        <time>2012-06-23T09:18:46Z</time>
      </trkpt>
      <trkpt lat="42.6899" lon="1.39544">
        <ele>2285.1911621094</ele>
        <time>2012-06-23T09:18:51Z</time>
      </trkpt>
      <trkpt lat="42.68987" lon="1.39545">
        <ele>2286.1525878906</ele>
        <time>2012-06-23T09:18:56Z</time>
      </trkpt>
      <trkpt lat="42.68986" lon="1.39543">
        <ele>2287.5944824219</ele>
        <time>2012-06-23T09:19:01Z</time>
      </trkpt>
      <trkpt lat="42.68983" lon="1.39541">
        <ele>2288.0751953125</ele>
        <time>2012-06-23T09:19:06Z</time>
      </trkpt>
      <trkpt lat="42.6898" lon="1.39539">
        <ele>2289.0363769531</ele>
        <time>2012-06-23T09:19:12Z</time>
      </trkpt>
      <trkpt lat="42.68977" lon="1.39539">
        <ele>2289.9978027344</ele>
        <time>2012-06-23T09:19:18Z</time>
      </trkpt>
      <trkpt lat="42.68971" lon="1.39539">
        <ele>2290.4782714844</ele>
        <time>2012-06-23T09:19:24Z</time>
      </trkpt>
      <trkpt lat="42.68967" lon="1.39539">
        <ele>2291.4396972656</ele>
        <time>2012-06-23T09:19:30Z</time>
      </trkpt>
      <trkpt lat="42.68963" lon="1.39537">
        <ele>2292.4011230469</ele>
        <time>2012-06-23T09:19:36Z</time>
      </trkpt>
      <trkpt lat="42.68959" lon="1.39534">
        <ele>2293.8430175781</ele>
        <time>2012-06-23T09:19:42Z</time>
      </trkpt>
      <trkpt lat="42.68956" lon="1.39537">
        <ele>2293.8430175781</ele>
        <time>2012-06-23T09:19:48Z</time>
      </trkpt>
      <trkpt lat="42.68952" lon="1.39537">
        <ele>2294.8041992188</ele>
        <time>2012-06-23T09:19:53Z</time>
      </trkpt>
      <trkpt lat="42.68949" lon="1.39537">
        <ele>2296.2463378906</ele>
        <time>2012-06-23T09:19:59Z</time>
      </trkpt>
      <trkpt lat="42.6895" lon="1.39543">
        <ele>2297.2075195312</ele>
        <time>2012-06-23T09:20:05Z</time>
      </trkpt>
      <trkpt lat="42.68948" lon="1.39547">
        <ele>2298.1687011719</ele>
        <time>2012-06-23T09:20:11Z</time>
      </trkpt>
      <trkpt lat="42.68945" lon="1.3955">
        <ele>2299.6108398438</ele>
        <time>2012-06-23T09:20:17Z</time>
      </trkpt>
      <trkpt lat="42.68943" lon="1.39553">
        <ele>2300.572265625</ele>
        <time>2012-06-23T09:20:21Z</time>
      </trkpt>
      <trkpt lat="42.68943" lon="1.39559">
        <ele>2302.0141601562</ele>
        <time>2012-06-23T09:20:28Z</time>
      </trkpt>
      <trkpt lat="42.68942" lon="1.39563">
        <ele>2302.4948730469</ele>
        <time>2012-06-23T09:20:33Z</time>
      </trkpt>
      <trkpt lat="42.6894" lon="1.39566">
        <ele>2302.9755859375</ele>
        <time>2012-06-23T09:20:38Z</time>
      </trkpt>
      <trkpt lat="42.68935" lon="1.39564">
        <ele>2303.9370117188</ele>
        <time>2012-06-23T09:20:44Z</time>
      </trkpt>
      <trkpt lat="42.68931" lon="1.39561">
        <ele>2304.4174804688</ele>
        <time>2012-06-23T09:20:50Z</time>
      </trkpt>
      <trkpt lat="42.68929" lon="1.39556">
        <ele>2305.37890625</ele>
        <time>2012-06-23T09:20:57Z</time>
      </trkpt>
      <trkpt lat="42.68927" lon="1.39555">
        <ele>2307.3015136719</ele>
        <time>2012-06-23T09:21:03Z</time>
      </trkpt>
      <trkpt lat="42.68922" lon="1.39551">
        <ele>2310.1853027344</ele>
        <time>2012-06-23T09:21:10Z</time>
      </trkpt>
      <trkpt lat="42.68919" lon="1.39549">
        <ele>2312.1079101562</ele>
        <time>2012-06-23T09:21:16Z</time>
      </trkpt>
      <trkpt lat="42.68916" lon="1.3955">
        <ele>2312.5886230469</ele>
        <time>2012-06-23T09:21:22Z</time>
      </trkpt>
      <trkpt lat="42.68916" lon="1.39554">
        <ele>2313.5498046875</ele>
        <time>2012-06-23T09:21:28Z</time>
      </trkpt>
      <trkpt lat="42.68914" lon="1.39558">
        <ele>2314.0305175781</ele>
        <time>2012-06-23T09:21:33Z</time>
      </trkpt>
      <trkpt lat="42.68912" lon="1.39559">
        <ele>2314.9919433594</ele>
        <time>2012-06-23T09:21:38Z</time>
      </trkpt>
      <trkpt lat="42.6891" lon="1.39563">
        <ele>2315.953125</ele>
        <time>2012-06-23T09:21:43Z</time>
      </trkpt>
      <trkpt lat="42.68906" lon="1.39561">
        <ele>2316.9147949219</ele>
        <time>2012-06-23T09:21:49Z</time>
      </trkpt>
      <trkpt lat="42.68904" lon="1.39562">
        <ele>2318.3566894531</ele>
        <time>2012-06-23T09:21:55Z</time>
      </trkpt>
      <trkpt lat="42.68901" lon="1.39561">
        <ele>2319.7985839844</ele>
        <time>2012-06-23T09:22:01Z</time>
      </trkpt>
      <trkpt lat="42.68898" lon="1.39558">
        <ele>2320.7600097656</ele>
        <time>2012-06-23T09:22:07Z</time>
      </trkpt>
      <trkpt lat="42.68894" lon="1.39558">
        <ele>2322.2019042969</ele>
        <time>2012-06-23T09:22:13Z</time>
      </trkpt>
      <trkpt lat="42.68892" lon="1.39561">
        <ele>2322.6826171875</ele>
        <time>2012-06-23T09:22:18Z</time>
      </trkpt>
      <trkpt lat="42.68892" lon="1.39566">
        <ele>2323.6437988281</ele>
        <time>2012-06-23T09:22:23Z</time>
      </trkpt>
      <trkpt lat="42.6889" lon="1.39569">
        <ele>2324.6052246094</ele>
        <time>2012-06-23T09:22:28Z</time>
      </trkpt>
      <trkpt lat="42.68888" lon="1.39572">
        <ele>2325.56640625</ele>
        <time>2012-06-23T09:22:33Z</time>
      </trkpt>
      <trkpt lat="42.68884" lon="1.39572">
        <ele>2326.5278320312</ele>
        <time>2012-06-23T09:22:39Z</time>
      </trkpt>
      <trkpt lat="42.68882" lon="1.39567">
        <ele>2327.0085449219</ele>
        <time>2012-06-23T09:22:47Z</time>
      </trkpt>
      <trkpt lat="42.68879" lon="1.39566">
        <ele>2327.4890136719</ele>
        <time>2012-06-23T09:22:53Z</time>
      </trkpt>
      <trkpt lat="42.68877" lon="1.39567">
        <ele>2328.4504394531</ele>
        <time>2012-06-23T09:22:59Z</time>
      </trkpt>
      <trkpt lat="42.68872" lon="1.39568">
        <ele>2329.8923339844</ele>
        <time>2012-06-23T09:23:06Z</time>
      </trkpt>
      <trkpt lat="42.68866" lon="1.39567">
        <ele>2330.8537597656</ele>
        <time>2012-06-23T09:23:14Z</time>
      </trkpt>
      <trkpt lat="42.68863" lon="1.3957">
        <ele>2331.3342285156</ele>
        <time>2012-06-23T09:23:19Z</time>
      </trkpt>
      <trkpt lat="42.6886" lon="1.39573">
        <ele>2332.7763671875</ele>
        <time>2012-06-23T09:23:25Z</time>
      </trkpt>
      <trkpt lat="42.68859" lon="1.39577">
        <ele>2334.2185058594</ele>
        <time>2012-06-23T09:23:31Z</time>
      </trkpt>
      <trkpt lat="42.68859" lon="1.39581">
        <ele>2335.6604003906</ele>
        <time>2012-06-23T09:23:37Z</time>
      </trkpt>
      <trkpt lat="42.68857" lon="1.39585">
        <ele>2336.6215820312</ele>
        <time>2012-06-23T09:23:43Z</time>
      </trkpt>
      <trkpt lat="42.68855" lon="1.39589">
        <ele>2338.5444335938</ele>
        <time>2012-06-23T09:23:50Z</time>
      </trkpt>
      <trkpt lat="42.68853" lon="1.39593">
        <ele>2339.5056152344</ele>
        <time>2012-06-23T09:23:57Z</time>
      </trkpt>
      <trkpt lat="42.6885" lon="1.39596">
        <ele>2341.9089355469</ele>
        <time>2012-06-23T09:24:04Z</time>
      </trkpt>
      <trkpt lat="42.68847" lon="1.39599">
        <ele>2343.3508300781</ele>
        <time>2012-06-23T09:24:11Z</time>
      </trkpt>
      <trkpt lat="42.68847" lon="1.39604">
        <ele>2344.7927246094</ele>
        <time>2012-06-23T09:24:17Z</time>
      </trkpt>
      <trkpt lat="42.68843" lon="1.39605">
        <ele>2345.2734375</ele>
        <time>2012-06-23T09:24:23Z</time>
      </trkpt>
      <trkpt lat="42.6884" lon="1.39602">
        <ele>2346.7153320312</ele>
        <time>2012-06-23T09:24:29Z</time>
      </trkpt>
      <trkpt lat="42.68838" lon="1.39601">
        <ele>2347.6767578125</ele>
        <time>2012-06-23T09:24:34Z</time>
      </trkpt>
      <trkpt lat="42.68835" lon="1.39599">
        <ele>2348.6381835938</ele>
        <time>2012-06-23T09:24:40Z</time>
      </trkpt>
      <trkpt lat="42.68832" lon="1.39597">
        <ele>2350.0803222656</ele>
        <time>2012-06-23T09:24:47Z</time>
      </trkpt>
      <trkpt lat="42.68831" lon="1.396">
        <ele>2351.0415039062</ele>
        <time>2012-06-23T09:24:59Z</time>
      </trkpt>
      <trkpt lat="42.6883" lon="1.39608">
        <ele>2352.0026855469</ele>
        <time>2012-06-23T09:25:04Z</time>
      </trkpt>
      <trkpt lat="42.68827" lon="1.3961">
        <ele>2353.9255371094</ele>
        <time>2012-06-23T09:25:11Z</time>
      </trkpt>
      <trkpt lat="42.68823" lon="1.39609">
        <ele>2354.88671875</ele>
        <time>2012-06-23T09:25:17Z</time>
      </trkpt>
      <trkpt lat="42.68823" lon="1.39603">
        <ele>2353.4448242188</ele>
        <time>2012-06-23T09:25:23Z</time>
      </trkpt>
      <trkpt lat="42.6882" lon="1.39598">
        <ele>2351.5222167969</ele>
        <time>2012-06-23T09:25:28Z</time>
      </trkpt>
      <trkpt lat="42.68815" lon="1.39595">
        <ele>2349.1188964844</ele>
        <time>2012-06-23T09:25:35Z</time>
      </trkpt>
      <trkpt lat="42.68809" lon="1.39595">
        <ele>2347.1960449219</ele>
        <time>2012-06-23T09:25:41Z</time>
      </trkpt>
      <trkpt lat="42.68808" lon="1.39596">
        <ele>2347.1960449219</ele>
        <time>2012-06-23T09:25:42Z</time>
      </trkpt>
      <trkpt lat="42.68801" lon="1.39595">
        <ele>2347.6767578125</ele>
        <time>2012-06-23T09:25:48Z</time>
      </trkpt>
      <trkpt lat="42.68797" lon="1.39589">
        <ele>2349.1188964844</ele>
        <time>2012-06-23T09:25:56Z</time>
      </trkpt>
      <trkpt lat="42.68791" lon="1.39589">
        <ele>2350.5607910156</ele>
        <time>2012-06-23T09:26:04Z</time>
      </trkpt>
      <trkpt lat="42.68789" lon="1.39593">
        <ele>2352.0026855469</ele>
        <time>2012-06-23T09:26:09Z</time>
      </trkpt>
      <trkpt lat="42.68787" lon="1.39597">
        <ele>2352.9641113281</ele>
        <time>2012-06-23T09:26:14Z</time>
      </trkpt>
      <trkpt lat="42.68784" lon="1.39594">
        <ele>2354.4060058594</ele>
        <time>2012-06-23T09:26:20Z</time>
      </trkpt>
      <trkpt lat="42.6878" lon="1.39592">
        <ele>2357.7707519531</ele>
        <time>2012-06-23T09:26:26Z</time>
      </trkpt>
      <trkpt lat="42.68778" lon="1.39594">
        <ele>2358.7319335938</ele>
        <time>2012-06-23T09:26:32Z</time>
      </trkpt>
      <trkpt lat="42.68776" lon="1.396">
        <ele>2359.6931152344</ele>
        <time>2012-06-23T09:26:40Z</time>
      </trkpt>
      <trkpt lat="42.68773" lon="1.39604">
        <ele>2360.173828125</ele>
        <time>2012-06-23T09:26:48Z</time>
      </trkpt>
      <trkpt lat="42.68773" lon="1.39607">
        <ele>2361.6159667969</ele>
        <time>2012-06-23T09:26:54Z</time>
      </trkpt>
      <trkpt lat="42.68771" lon="1.39612">
        <ele>2363.0578613281</ele>
        <time>2012-06-23T09:27:00Z</time>
      </trkpt>
      <trkpt lat="42.68767" lon="1.39612">
        <ele>2364.0192871094</ele>
        <time>2012-06-23T09:27:05Z</time>
      </trkpt>
      <trkpt lat="42.68765" lon="1.3961">
        <ele>2364.5</ele>
        <time>2012-06-23T09:27:11Z</time>
      </trkpt>
      <trkpt lat="42.68759" lon="1.39608">
        <ele>2365.9418945312</ele>
        <time>2012-06-23T09:27:18Z</time>
      </trkpt>
      <trkpt lat="42.68754" lon="1.39606">
        <ele>2365.9418945312</ele>
        <time>2012-06-23T09:27:24Z</time>
      </trkpt>
      <trkpt lat="42.6875" lon="1.39608">
        <ele>2366.4226074219</ele>
        <time>2012-06-23T09:27:30Z</time>
      </trkpt>
      <trkpt lat="42.68746" lon="1.39605">
        <ele>2367.3837890625</ele>
        <time>2012-06-23T09:27:36Z</time>
      </trkpt>
      <trkpt lat="42.68743" lon="1.39606">
        <ele>2367.8645019531</ele>
        <time>2012-06-23T09:27:44Z</time>
      </trkpt>
      <trkpt lat="42.68741" lon="1.39609">
        <ele>2369.306640625</ele>
        <time>2012-06-23T09:27:50Z</time>
      </trkpt>
      <trkpt lat="42.68738" lon="1.39609">
        <ele>2371.2290039062</ele>
        <time>2012-06-23T09:27:57Z</time>
      </trkpt>
      <trkpt lat="42.68732" lon="1.39607">
        <ele>2370.2678222656</ele>
        <time>2012-06-23T09:28:04Z</time>
      </trkpt>
      <trkpt lat="42.68727" lon="1.39608">
        <ele>2371.7097167969</ele>
        <time>2012-06-23T09:28:11Z</time>
      </trkpt>
      <trkpt lat="42.68725" lon="1.3961">
        <ele>2372.1904296875</ele>
        <time>2012-06-23T09:28:16Z</time>
      </trkpt>
      <trkpt lat="42.68721" lon="1.39609">
        <ele>2374.1130371094</ele>
        <time>2012-06-23T09:28:22Z</time>
      </trkpt>
      <trkpt lat="42.68717" lon="1.3961">
        <ele>2375.07421875</ele>
        <time>2012-06-23T09:28:29Z</time>
      </trkpt>
      <trkpt lat="42.68716" lon="1.39611">
        <ele>2376.0356445312</ele>
        <time>2012-06-23T09:28:33Z</time>
      </trkpt>
      <trkpt lat="42.68716" lon="1.39616">
        <ele>2377.9582519531</ele>
        <time>2012-06-23T09:28:39Z</time>
      </trkpt>
      <trkpt lat="42.68713" lon="1.39621">
        <ele>2379.4001464844</ele>
        <time>2012-06-23T09:28:46Z</time>
      </trkpt>
      <trkpt lat="42.6871" lon="1.39621">
        <ele>2380.8425292969</ele>
        <time>2012-06-23T09:28:52Z</time>
      </trkpt>
      <trkpt lat="42.68707" lon="1.3962">
        <ele>2381.8037109375</ele>
        <time>2012-06-23T09:28:57Z</time>
      </trkpt>
      <trkpt lat="42.68703" lon="1.39616">
        <ele>2382.7648925781</ele>
        <time>2012-06-23T09:29:04Z</time>
      </trkpt>
      <trkpt lat="42.68699" lon="1.39616">
        <ele>2384.6877441406</ele>
        <time>2012-06-23T09:29:11Z</time>
      </trkpt>
      <trkpt lat="42.68694" lon="1.39617">
        <ele>2386.6101074219</ele>
        <time>2012-06-23T09:29:20Z</time>
      </trkpt>
      <trkpt lat="42.6869" lon="1.39614">
        <ele>2387.0908203125</ele>
        <time>2012-06-23T09:29:25Z</time>
      </trkpt>
      <trkpt lat="42.68684" lon="1.39611">
        <ele>2388.5329589844</ele>
        <time>2012-06-23T09:29:32Z</time>
      </trkpt>
      <trkpt lat="42.68678" lon="1.39612">
        <ele>2386.6101074219</ele>
        <time>2012-06-23T09:29:40Z</time>
      </trkpt>
      <trkpt lat="42.68672" lon="1.39614">
        <ele>2385.6489257812</ele>
        <time>2012-06-23T09:29:46Z</time>
      </trkpt>
      <trkpt lat="42.68666" lon="1.39612">
        <ele>2384.6877441406</ele>
        <time>2012-06-23T09:29:54Z</time>
      </trkpt>
      <trkpt lat="42.68659" lon="1.39609">
        <ele>2383.7263183594</ele>
        <time>2012-06-23T09:30:01Z</time>
      </trkpt>
      <trkpt lat="42.68654" lon="1.39605">
        <ele>2383.2456054688</ele>
        <time>2012-06-23T09:30:07Z</time>
      </trkpt>
      <trkpt lat="42.68649" lon="1.396">
        <ele>2383.2456054688</ele>
        <time>2012-06-23T09:30:13Z</time>
      </trkpt>
      <trkpt lat="42.68647" lon="1.39597">
        <ele>2383.2456054688</ele>
        <time>2012-06-23T09:30:16Z</time>
      </trkpt>
      <trkpt lat="42.68641" lon="1.39594">
        <ele>2382.7648925781</ele>
        <time>2012-06-23T09:30:23Z</time>
      </trkpt>
      <trkpt lat="42.68634" lon="1.39594">
        <ele>2382.7648925781</ele>
        <time>2012-06-23T09:30:31Z</time>
      </trkpt>
      <trkpt lat="42.68628" lon="1.39595">
        <ele>2384.6877441406</ele>
        <time>2012-06-23T09:30:38Z</time>
      </trkpt>
      <trkpt lat="42.68621" lon="1.39595">
        <ele>2386.1296386719</ele>
        <time>2012-06-23T09:30:46Z</time>
      </trkpt>
      <trkpt lat="42.68616" lon="1.39593">
        <ele>2388.5329589844</ele>
        <time>2012-06-23T09:30:52Z</time>
      </trkpt>
      <trkpt lat="42.68612" lon="1.39592">
        <ele>2389.9748535156</ele>
        <time>2012-06-23T09:30:58Z</time>
      </trkpt>
      <trkpt lat="42.68608" lon="1.39588">
        <ele>2391.4167480469</ele>
        <time>2012-06-23T09:31:05Z</time>
      </trkpt>
      <trkpt lat="42.68603" lon="1.39586">
        <ele>2391.8974609375</ele>
        <time>2012-06-23T09:31:11Z</time>
      </trkpt>
      <trkpt lat="42.68599" lon="1.39583">
        <ele>2391.4167480469</ele>
        <time>2012-06-23T09:31:17Z</time>
      </trkpt>
      <trkpt lat="42.68594" lon="1.39585">
        <ele>2392.3781738281</ele>
        <time>2012-06-23T09:31:23Z</time>
      </trkpt>
      <trkpt lat="42.68588" lon="1.39585">
        <ele>2392.3781738281</ele>
        <time>2012-06-23T09:31:30Z</time>
      </trkpt>
      <trkpt lat="42.68585" lon="1.39584">
        <ele>2393.3393554688</ele>
        <time>2012-06-23T09:31:35Z</time>
      </trkpt>
      <trkpt lat="42.68581" lon="1.39581">
        <ele>2393.8200683594</ele>
        <time>2012-06-23T09:31:41Z</time>
      </trkpt>
      <trkpt lat="42.68576" lon="1.39578">
        <ele>2394.3005371094</ele>
        <time>2012-06-23T09:31:48Z</time>
      </trkpt>
      <trkpt lat="42.6857" lon="1.39573">
        <ele>2392.8586425781</ele>
        <time>2012-06-23T09:31:54Z</time>
      </trkpt>
      <trkpt lat="42.68569" lon="1.39572">
        <ele>2392.3781738281</ele>
        <time>2012-06-23T09:31:55Z</time>
      </trkpt>
      <trkpt lat="42.6856" lon="1.39565">
        <ele>2390.9360351562</ele>
        <time>2012-06-23T09:32:04Z</time>
      </trkpt>
      <trkpt lat="42.68552" lon="1.39555">
        <ele>2390.4553222656</ele>
        <time>2012-06-23T09:32:13Z</time>
      </trkpt>
      <trkpt lat="42.6855" lon="1.39553">
        <ele>2390.4553222656</ele>
        <time>2012-06-23T09:32:20Z</time>
      </trkpt>
      <trkpt lat="42.68545" lon="1.39553">
        <ele>2389.494140625</ele>
        <time>2012-06-23T09:32:27Z</time>
      </trkpt>
      <trkpt lat="42.68539" lon="1.3955">
        <ele>2389.9748535156</ele>
        <time>2012-06-23T09:32:33Z</time>
      </trkpt>
      <trkpt lat="42.68537" lon="1.39549">
        <ele>2389.9748535156</ele>
        <time>2012-06-23T09:32:35Z</time>
      </trkpt>
      <trkpt lat="42.68533" lon="1.39548">
        <ele>2389.9748535156</ele>
        <time>2012-06-23T09:32:39Z</time>
      </trkpt>
      <trkpt lat="42.68526" lon="1.39542">
        <ele>2390.4553222656</ele>
        <time>2012-06-23T09:32:47Z</time>
      </trkpt>
      <trkpt lat="42.6852" lon="1.39536">
        <ele>2390.4553222656</ele>
        <time>2012-06-23T09:32:54Z</time>
      </trkpt>
      <trkpt lat="42.68516" lon="1.39534">
        <ele>2389.9748535156</ele>
        <time>2012-06-23T09:32:58Z</time>
      </trkpt>
      <trkpt lat="42.6851" lon="1.39526">
        <ele>2389.494140625</ele>
        <time>2012-06-23T09:33:04Z</time>
      </trkpt>
      <trkpt lat="42.68506" lon="1.39523">
        <ele>2389.9748535156</ele>
        <time>2012-06-23T09:33:08Z</time>
      </trkpt>
      <trkpt lat="42.68498" lon="1.3952">
        <ele>2389.9748535156</ele>
        <time>2012-06-23T09:33:17Z</time>
      </trkpt>
      <trkpt lat="42.68494" lon="1.3952">
        <ele>2390.4553222656</ele>
        <time>2012-06-23T09:33:23Z</time>
      </trkpt>
      <trkpt lat="42.6849" lon="1.3952">
        <ele>2390.4553222656</ele>
        <time>2012-06-23T09:33:29Z</time>
      </trkpt>
      <trkpt lat="42.68485" lon="1.39518">
        <ele>2389.0134277344</ele>
        <time>2012-06-23T09:33:36Z</time>
      </trkpt>
      <trkpt lat="42.68484" lon="1.39519">
        <ele>2389.494140625</ele>
        <time>2012-06-23T09:33:44Z</time>
      </trkpt>
      <trkpt lat="42.68481" lon="1.39518">
        <ele>2389.494140625</ele>
        <time>2012-06-23T09:33:53Z</time>
      </trkpt>
      <trkpt lat="42.6848" lon="1.39517">
        <ele>2389.0134277344</ele>
        <time>2012-06-23T09:34:00Z</time>
      </trkpt>
      <trkpt lat="42.68478" lon="1.39516">
        <ele>2388.5329589844</ele>
        <time>2012-06-23T09:34:07Z</time>
      </trkpt>
      <trkpt lat="42.68476" lon="1.39514">
        <ele>2388.0522460938</ele>
        <time>2012-06-23T09:34:15Z</time>
      </trkpt>
      <trkpt lat="42.68473" lon="1.3951">
        <ele>2386.6101074219</ele>
        <time>2012-06-23T09:34:21Z</time>
      </trkpt>
      <trkpt lat="42.6847" lon="1.39508">
        <ele>2384.20703125</ele>
        <time>2012-06-23T09:34:29Z</time>
      </trkpt>
      <trkpt lat="42.68468" lon="1.39506">
        <ele>2383.7263183594</ele>
        <time>2012-06-23T09:34:36Z</time>
      </trkpt>
      <trkpt lat="42.68466" lon="1.39505">
        <ele>2383.7263183594</ele>
        <time>2012-06-23T09:34:45Z</time>
      </trkpt>
      <trkpt lat="42.68464" lon="1.39503">
        <ele>2382.7648925781</ele>
        <time>2012-06-23T09:34:53Z</time>
      </trkpt>
      <trkpt lat="42.6846" lon="1.39501">
        <ele>2382.7648925781</ele>
        <time>2012-06-23T09:35:00Z</time>
      </trkpt>
      <trkpt lat="42.68458" lon="1.39499">
        <ele>2382.2844238281</ele>
        <time>2012-06-23T09:35:10Z</time>
      </trkpt>
      <trkpt lat="42.68454" lon="1.39494">
        <ele>2383.2456054688</ele>
        <time>2012-06-23T09:35:17Z</time>
      </trkpt>
      <trkpt lat="42.68448" lon="1.39491">
        <ele>2383.7263183594</ele>
        <time>2012-06-23T09:35:23Z</time>
      </trkpt>
      <trkpt lat="42.68441" lon="1.39485">
        <ele>2383.2456054688</ele>
        <time>2012-06-23T09:35:31Z</time>
      </trkpt>
      <trkpt lat="42.68433" lon="1.39481">
        <ele>2382.2844238281</ele>
        <time>2012-06-23T09:35:38Z</time>
      </trkpt>
      <trkpt lat="42.6843" lon="1.3948">
        <ele>2381.8037109375</ele>
        <time>2012-06-23T09:35:42Z</time>
      </trkpt>
      <trkpt lat="42.68422" lon="1.39475">
        <ele>2382.7648925781</ele>
        <time>2012-06-23T09:35:51Z</time>
      </trkpt>
      <trkpt lat="42.68416" lon="1.3947">
        <ele>2383.2456054688</ele>
        <time>2012-06-23T09:35:58Z</time>
      </trkpt>
      <trkpt lat="42.68412" lon="1.39465">
        <ele>2382.2844238281</ele>
        <time>2012-06-23T09:36:04Z</time>
      </trkpt>
      <trkpt lat="42.68408" lon="1.39463">
        <ele>2381.3229980469</ele>
        <time>2012-06-23T09:36:12Z</time>
      </trkpt>
      <trkpt lat="42.68405" lon="1.39463">
        <ele>2380.3618164062</ele>
        <time>2012-06-23T09:36:18Z</time>
      </trkpt>
      <trkpt lat="42.68403" lon="1.39464">
        <ele>2380.3618164062</ele>
        <time>2012-06-23T09:36:26Z</time>
      </trkpt>
      <trkpt lat="42.68402" lon="1.39465">
        <ele>2380.8425292969</ele>
        <time>2012-06-23T09:36:32Z</time>
      </trkpt>
      <trkpt lat="42.68401" lon="1.39466">
        <ele>2382.7648925781</ele>
        <time>2012-06-23T09:36:45Z</time>
      </trkpt>
      <trkpt lat="42.68399" lon="1.39465">
        <ele>2382.2844238281</ele>
        <time>2012-06-23T09:36:52Z</time>
      </trkpt>
      <trkpt lat="42.68398" lon="1.39465">
        <ele>2382.2844238281</ele>
        <time>2012-06-23T09:36:59Z</time>
      </trkpt>
      <trkpt lat="42.68396" lon="1.39464">
        <ele>2382.2844238281</ele>
        <time>2012-06-23T09:37:06Z</time>
      </trkpt>
      <trkpt lat="42.68394" lon="1.39463">
        <ele>2382.2844238281</ele>
        <time>2012-06-23T09:37:12Z</time>
      </trkpt>
      <trkpt lat="42.68392" lon="1.39462">
        <ele>2380.8425292969</ele>
        <time>2012-06-23T09:37:19Z</time>
      </trkpt>
      <trkpt lat="42.68388" lon="1.39461">
        <ele>2380.3618164062</ele>
        <time>2012-06-23T09:37:30Z</time>
      </trkpt>
      <trkpt lat="42.68383" lon="1.39459">
        <ele>2379.880859375</ele>
        <time>2012-06-23T09:37:39Z</time>
      </trkpt>
      <trkpt lat="42.6838" lon="1.39458">
        <ele>2380.3618164062</ele>
        <time>2012-06-23T09:37:46Z</time>
      </trkpt>
      <trkpt lat="42.68378" lon="1.39457">
        <ele>2380.8425292969</ele>
        <time>2012-06-23T09:37:52Z</time>
      </trkpt>
      <trkpt lat="42.68376" lon="1.39457">
        <ele>2381.3229980469</ele>
        <time>2012-06-23T09:37:59Z</time>
      </trkpt>
      <trkpt lat="42.68374" lon="1.39457">
        <ele>2381.8037109375</ele>
        <time>2012-06-23T09:38:06Z</time>
      </trkpt>
      <trkpt lat="42.68372" lon="1.39456">
        <ele>2382.2844238281</ele>
        <time>2012-06-23T09:38:13Z</time>
      </trkpt>
      <trkpt lat="42.6837" lon="1.39456">
        <ele>2383.7263183594</ele>
        <time>2012-06-23T09:38:20Z</time>
      </trkpt>
      <trkpt lat="42.68369" lon="1.39456">
        <ele>2384.6877441406</ele>
        <time>2012-06-23T09:38:28Z</time>
      </trkpt>
      <trkpt lat="42.68368" lon="1.39455">
        <ele>2385.6489257812</ele>
        <time>2012-06-23T09:38:35Z</time>
      </trkpt>
      <trkpt lat="42.68366" lon="1.39455">
        <ele>2386.1296386719</ele>
        <time>2012-06-23T09:38:43Z</time>
      </trkpt>
      <trkpt lat="42.68366" lon="1.39451">
        <ele>2385.1682128906</ele>
        <time>2012-06-23T09:39:01Z</time>
      </trkpt>
      <trkpt lat="42.68362" lon="1.39451">
        <ele>2385.6489257812</ele>
        <time>2012-06-23T09:39:12Z</time>
      </trkpt>
      <trkpt lat="42.68359" lon="1.39449">
        <ele>2387.5715332031</ele>
        <time>2012-06-23T09:39:20Z</time>
      </trkpt>
      <trkpt lat="42.68356" lon="1.39448">
        <ele>2388.5329589844</ele>
        <time>2012-06-23T09:39:26Z</time>
      </trkpt>
      <trkpt lat="42.68353" lon="1.39448">
        <ele>2389.9748535156</ele>
        <time>2012-06-23T09:39:34Z</time>
      </trkpt>
      <trkpt lat="42.6835" lon="1.39447">
        <ele>2390.9360351562</ele>
        <time>2012-06-23T09:39:42Z</time>
      </trkpt>
      <trkpt lat="42.68347" lon="1.39446">
        <ele>2391.8974609375</ele>
        <time>2012-06-23T09:39:49Z</time>
      </trkpt>
      <trkpt lat="42.68343" lon="1.39445">
        <ele>2392.3781738281</ele>
        <time>2012-06-23T09:39:56Z</time>
      </trkpt>
      <trkpt lat="42.68341" lon="1.39445">
        <ele>2393.3393554688</ele>
        <time>2012-06-23T09:40:01Z</time>
      </trkpt>
      <trkpt lat="42.68337" lon="1.39444">
        <ele>2393.8200683594</ele>
        <time>2012-06-23T09:40:07Z</time>
      </trkpt>
      <trkpt lat="42.68335" lon="1.39443">
        <ele>2394.78125</ele>
        <time>2012-06-23T09:40:12Z</time>
      </trkpt>
      <trkpt lat="42.6833" lon="1.39442">
        <ele>2394.3005371094</ele>
        <time>2012-06-23T09:40:20Z</time>
      </trkpt>
      <trkpt lat="42.68328" lon="1.39442">
        <ele>2394.78125</ele>
        <time>2012-06-23T09:40:24Z</time>
      </trkpt>
      <trkpt lat="42.68325" lon="1.3944">
        <ele>2394.78125</ele>
        <time>2012-06-23T09:40:31Z</time>
      </trkpt>
      <trkpt lat="42.68323" lon="1.3944">
        <ele>2394.78125</ele>
        <time>2012-06-23T09:40:36Z</time>
      </trkpt>
      <trkpt lat="42.6832" lon="1.39439">
        <ele>2395.7426757812</ele>
        <time>2012-06-23T09:40:43Z</time>
      </trkpt>
      <trkpt lat="42.68316" lon="1.39438">
        <ele>2396.7041015625</ele>
        <time>2012-06-23T09:40:52Z</time>
      </trkpt>
      <trkpt lat="42.68313" lon="1.39438">
        <ele>2397.6655273438</ele>
        <time>2012-06-23T09:41:00Z</time>
      </trkpt>
      <trkpt lat="42.68311" lon="1.39437">
        <ele>2398.1459960938</ele>
        <time>2012-06-23T09:41:08Z</time>
      </trkpt>
      <trkpt lat="42.68307" lon="1.39437">
        <ele>2399.107421875</ele>
        <time>2012-06-23T09:41:15Z</time>
      </trkpt>
      <trkpt lat="42.68305" lon="1.39435">
        <ele>2400.0688476562</ele>
        <time>2012-06-23T09:41:21Z</time>
      </trkpt>
      <trkpt lat="42.68301" lon="1.39433">
        <ele>2400.5493164062</ele>
        <time>2012-06-23T09:41:28Z</time>
      </trkpt>
      <trkpt lat="42.68299" lon="1.39432">
        <ele>2401.5107421875</ele>
        <time>2012-06-23T09:41:35Z</time>
      </trkpt>
      <trkpt lat="42.68295" lon="1.39431">
        <ele>2403.4333496094</ele>
        <time>2012-06-23T09:41:44Z</time>
      </trkpt>
      <trkpt lat="42.68293" lon="1.3943">
        <ele>2404.39453125</ele>
        <time>2012-06-23T09:41:51Z</time>
      </trkpt>
      <trkpt lat="42.68292" lon="1.39431">
        <ele>2404.8752441406</ele>
        <time>2012-06-23T09:41:58Z</time>
      </trkpt>
      <trkpt lat="42.6829" lon="1.39431">
        <ele>2406.3171386719</ele>
        <time>2012-06-23T09:42:03Z</time>
      </trkpt>
      <trkpt lat="42.68287" lon="1.3943">
        <ele>2407.7592773438</ele>
        <time>2012-06-23T09:42:10Z</time>
      </trkpt>
      <trkpt lat="42.68284" lon="1.39425">
        <ele>2408.2397460938</ele>
        <time>2012-06-23T09:42:17Z</time>
      </trkpt>
      <trkpt lat="42.68282" lon="1.39422">
        <ele>2408.7204589844</ele>
        <time>2012-06-23T09:42:22Z</time>
      </trkpt>
      <trkpt lat="42.6828" lon="1.3942">
        <ele>2408.7204589844</ele>
        <time>2012-06-23T09:42:26Z</time>
      </trkpt>
      <trkpt lat="42.68277" lon="1.39419">
        <ele>2409.201171875</ele>
        <time>2012-06-23T09:42:30Z</time>
      </trkpt>
      <trkpt lat="42.68273" lon="1.39419">
        <ele>2411.6044921875</ele>
        <time>2012-06-23T09:42:35Z</time>
      </trkpt>
      <trkpt lat="42.68269" lon="1.39417">
        <ele>2411.1237792969</ele>
        <time>2012-06-23T09:42:41Z</time>
      </trkpt>
      <trkpt lat="42.68265" lon="1.39413">
        <ele>2411.6044921875</ele>
        <time>2012-06-23T09:42:48Z</time>
      </trkpt>
      <trkpt lat="42.68262" lon="1.3941">
        <ele>2410.6430664062</ele>
        <time>2012-06-23T09:42:53Z</time>
      </trkpt>
      <trkpt lat="42.68259" lon="1.3941">
        <ele>2410.6430664062</ele>
        <time>2012-06-23T09:42:58Z</time>
      </trkpt>
      <trkpt lat="42.68255" lon="1.39408">
        <ele>2411.6044921875</ele>
        <time>2012-06-23T09:43:04Z</time>
      </trkpt>
      <trkpt lat="42.68253" lon="1.39408">
        <ele>2412.5659179688</ele>
        <time>2012-06-23T09:43:10Z</time>
      </trkpt>
      <trkpt lat="42.68251" lon="1.39409">
        <ele>2413.5270996094</ele>
        <time>2012-06-23T09:43:15Z</time>
      </trkpt>
      <trkpt lat="42.6825" lon="1.39409">
        <ele>2414.0078125</ele>
        <time>2012-06-23T09:43:24Z</time>
      </trkpt>
      <trkpt lat="42.68247" lon="1.39408">
        <ele>2414.4885253906</ele>
        <time>2012-06-23T09:43:31Z</time>
      </trkpt>
      <trkpt lat="42.68244" lon="1.39408">
        <ele>2415.9304199219</ele>
        <time>2012-06-23T09:43:37Z</time>
      </trkpt>
      <trkpt lat="42.68242" lon="1.39407">
        <ele>2416.8918457031</ele>
        <time>2012-06-23T09:43:43Z</time>
      </trkpt>
      <trkpt lat="42.68239" lon="1.39406">
        <ele>2417.8530273438</ele>
        <time>2012-06-23T09:43:48Z</time>
      </trkpt>
      <trkpt lat="42.68238" lon="1.39408">
        <ele>2418.814453125</ele>
        <time>2012-06-23T09:43:53Z</time>
      </trkpt>
      <trkpt lat="42.68235" lon="1.39409">
        <ele>2419.7756347656</ele>
        <time>2012-06-23T09:43:59Z</time>
      </trkpt>
      <trkpt lat="42.68233" lon="1.39407">
        <ele>2420.2563476562</ele>
        <time>2012-06-23T09:44:04Z</time>
      </trkpt>
      <trkpt lat="42.68229" lon="1.39406">
        <ele>2421.6982421875</ele>
        <time>2012-06-23T09:44:08Z</time>
      </trkpt>
      <trkpt lat="42.68227" lon="1.39401">
        <ele>2424.1015625</ele>
        <time>2012-06-23T09:44:13Z</time>
      </trkpt>
      <trkpt lat="42.68222" lon="1.39397">
        <ele>2426.5048828125</ele>
        <time>2012-06-23T09:44:18Z</time>
      </trkpt>
      <trkpt lat="42.68219" lon="1.39395">
        <ele>2427.9467773438</ele>
        <time>2012-06-23T09:44:21Z</time>
      </trkpt>
      <trkpt lat="42.68214" lon="1.39394">
        <ele>2428.427734375</ele>
        <time>2012-06-23T09:44:28Z</time>
      </trkpt>
      <trkpt lat="42.68211" lon="1.39394">
        <ele>2428.908203125</ele>
        <time>2012-06-23T09:44:32Z</time>
      </trkpt>
      <trkpt lat="42.68209" lon="1.39393">
        <ele>2429.3889160156</ele>
        <time>2012-06-23T09:44:36Z</time>
      </trkpt>
      <trkpt lat="42.68205" lon="1.39392">
        <ele>2430.3503417969</ele>
        <time>2012-06-23T09:44:41Z</time>
      </trkpt>
      <trkpt lat="42.68202" lon="1.39392">
        <ele>2430.8310546875</ele>
        <time>2012-06-23T09:44:45Z</time>
      </trkpt>
      <trkpt lat="42.68201" lon="1.39394">
        <ele>2431.7922363281</ele>
        <time>2012-06-23T09:44:51Z</time>
      </trkpt>
      <trkpt lat="42.68202" lon="1.39398">
        <ele>2432.2729492188</ele>
        <time>2012-06-23T09:45:05Z</time>
      </trkpt>
      <trkpt lat="42.68201" lon="1.39403">
        <ele>2434.6762695312</ele>
        <time>2012-06-23T09:45:18Z</time>
      </trkpt>
      <trkpt lat="42.68202" lon="1.39406">
        <ele>2436.1181640625</ele>
        <time>2012-06-23T09:45:25Z</time>
      </trkpt>
      <trkpt lat="42.682" lon="1.39407">
        <ele>2437.0793457031</ele>
        <time>2012-06-23T09:45:29Z</time>
      </trkpt>
      <trkpt lat="42.68198" lon="1.39408">
        <ele>2438.0407714844</ele>
        <time>2012-06-23T09:45:33Z</time>
      </trkpt>
      <trkpt lat="42.68194" lon="1.3941">
        <ele>2441.8859863281</ele>
        <time>2012-06-23T09:45:42Z</time>
      </trkpt>
      <trkpt lat="42.68194" lon="1.39414">
        <ele>2441.8859863281</ele>
        <time>2012-06-23T09:45:49Z</time>
      </trkpt>
      <trkpt lat="42.68191" lon="1.39415">
        <ele>2441.8859863281</ele>
        <time>2012-06-23T09:45:55Z</time>
      </trkpt>
      <trkpt lat="42.68192" lon="1.39418">
        <ele>2442.8471679688</ele>
        <time>2012-06-23T09:46:01Z</time>
      </trkpt>
      <trkpt lat="42.68193" lon="1.39422">
        <ele>2443.80859375</ele>
        <time>2012-06-23T09:46:09Z</time>
      </trkpt>
      <trkpt lat="42.68193" lon="1.39425">
        <ele>2444.7700195312</ele>
        <time>2012-06-23T09:46:16Z</time>
      </trkpt>
      <trkpt lat="42.68193" lon="1.39429">
        <ele>2446.6926269531</ele>
        <time>2012-06-23T09:46:24Z</time>
      </trkpt>
      <trkpt lat="42.68193" lon="1.39431">
        <ele>2447.6540527344</ele>
        <time>2012-06-23T09:46:30Z</time>
      </trkpt>
      <trkpt lat="42.68193" lon="1.39434">
        <ele>2448.1345214844</ele>
        <time>2012-06-23T09:46:36Z</time>
      </trkpt>
      <trkpt lat="42.6819" lon="1.39436">
        <ele>2449.0959472656</ele>
        <time>2012-06-23T09:46:43Z</time>
      </trkpt>
      <trkpt lat="42.68189" lon="1.39438">
        <ele>2449.5766601562</ele>
        <time>2012-06-23T09:46:48Z</time>
      </trkpt>
      <trkpt lat="42.68188" lon="1.3944">
        <ele>2449.5766601562</ele>
        <time>2012-06-23T09:46:56Z</time>
      </trkpt>
      <trkpt lat="42.68186" lon="1.39443">
        <ele>2450.5378417969</ele>
        <time>2012-06-23T09:47:02Z</time>
      </trkpt>
      <trkpt lat="42.68183" lon="1.39444">
        <ele>2451.9797363281</ele>
        <time>2012-06-23T09:47:09Z</time>
      </trkpt>
      <trkpt lat="42.6818" lon="1.39445">
        <ele>2452.9411621094</ele>
        <time>2012-06-23T09:47:14Z</time>
      </trkpt>
      <trkpt lat="42.68177" lon="1.39445">
        <ele>2453.9025878906</ele>
        <time>2012-06-23T09:47:20Z</time>
      </trkpt>
      <trkpt lat="42.68174" lon="1.39446">
        <ele>2454.8637695312</ele>
        <time>2012-06-23T09:47:26Z</time>
      </trkpt>
      <trkpt lat="42.68171" lon="1.39449">
        <ele>2456.7863769531</ele>
        <time>2012-06-23T09:47:35Z</time>
      </trkpt>
      <trkpt lat="42.68167" lon="1.39449">
        <ele>2456.7863769531</ele>
        <time>2012-06-23T09:47:44Z</time>
      </trkpt>
      <trkpt lat="42.68165" lon="1.3945">
        <ele>2458.2282714844</ele>
        <time>2012-06-23T09:47:50Z</time>
      </trkpt>
      <trkpt lat="42.68163" lon="1.39451">
        <ele>2458.2282714844</ele>
        <time>2012-06-23T09:47:55Z</time>
      </trkpt>
      <trkpt lat="42.6816" lon="1.39453">
        <ele>2458.2282714844</ele>
        <time>2012-06-23T09:48:02Z</time>
      </trkpt>
      <trkpt lat="42.68154" lon="1.39453">
        <ele>2459.6701660156</ele>
        <time>2012-06-23T09:48:13Z</time>
      </trkpt>
      <trkpt lat="42.68151" lon="1.39454">
        <ele>2461.1125488281</ele>
        <time>2012-06-23T09:48:20Z</time>
      </trkpt>
      <trkpt lat="42.68149" lon="1.39455">
        <ele>2462.0737304688</ele>
        <time>2012-06-23T09:48:24Z</time>
      </trkpt>
      <trkpt lat="42.68147" lon="1.39457">
        <ele>2463.03515625</ele>
        <time>2012-06-23T09:48:30Z</time>
      </trkpt>
      <trkpt lat="42.68146" lon="1.39458">
        <ele>2463.9963378906</ele>
        <time>2012-06-23T09:48:39Z</time>
      </trkpt>
      <trkpt lat="42.68143" lon="1.39455">
        <ele>2464.9577636719</ele>
        <time>2012-06-23T09:48:46Z</time>
      </trkpt>
      <trkpt lat="42.68139" lon="1.39456">
        <ele>2465.9189453125</ele>
        <time>2012-06-23T09:48:54Z</time>
      </trkpt>
      <trkpt lat="42.68135" lon="1.39455">
        <ele>2468.322265625</ele>
        <time>2012-06-23T09:49:02Z</time>
      </trkpt>
      <trkpt lat="42.68132" lon="1.39456">
        <ele>2469.2836914062</ele>
        <time>2012-06-23T09:49:08Z</time>
      </trkpt>
      <trkpt lat="42.6813" lon="1.39458">
        <ele>2470.2448730469</ele>
        <time>2012-06-23T09:49:17Z</time>
      </trkpt>
      <trkpt lat="42.68127" lon="1.39458">
        <ele>2470.7255859375</ele>
        <time>2012-06-23T09:49:23Z</time>
      </trkpt>
      <trkpt lat="42.68123" lon="1.39455">
        <ele>2470.7255859375</ele>
        <time>2012-06-23T09:49:29Z</time>
      </trkpt>
      <trkpt lat="42.68119" lon="1.39455">
        <ele>2471.2060546875</ele>
        <time>2012-06-23T09:49:34Z</time>
      </trkpt>
      <trkpt lat="42.68116" lon="1.39458">
        <ele>2471.6867675781</ele>
        <time>2012-06-23T09:49:40Z</time>
      </trkpt>
      <trkpt lat="42.68113" lon="1.3946">
        <ele>2472.1674804688</ele>
        <time>2012-06-23T09:49:44Z</time>
      </trkpt>
      <trkpt lat="42.68105" lon="1.39462">
        <ele>2471.6867675781</ele>
        <time>2012-06-23T09:49:53Z</time>
      </trkpt>
      <trkpt lat="42.68103" lon="1.39465">
        <ele>2472.1674804688</ele>
        <time>2012-06-23T09:49:58Z</time>
      </trkpt>
      <trkpt lat="42.68103" lon="1.39467">
        <ele>2473.609375</ele>
        <time>2012-06-23T09:50:04Z</time>
      </trkpt>
      <trkpt lat="42.68103" lon="1.39469">
        <ele>2475.5319824219</ele>
        <time>2012-06-23T09:50:12Z</time>
      </trkpt>
      <trkpt lat="42.68102" lon="1.39472">
        <ele>2478.4162597656</ele>
        <time>2012-06-23T09:50:23Z</time>
      </trkpt>
      <trkpt lat="42.681" lon="1.39479">
        <ele>2480.3388671875</ele>
        <time>2012-06-23T09:50:31Z</time>
      </trkpt>
      <trkpt lat="42.68098" lon="1.39481">
        <ele>2480.8195800781</ele>
        <time>2012-06-23T09:50:36Z</time>
      </trkpt>
      <trkpt lat="42.68097" lon="1.39484">
        <ele>2482.2614746094</ele>
        <time>2012-06-23T09:50:44Z</time>
      </trkpt>
      <trkpt lat="42.68097" lon="1.39487">
        <ele>2483.22265625</ele>
        <time>2012-06-23T09:50:49Z</time>
      </trkpt>
      <trkpt lat="42.68098" lon="1.39489">
        <ele>2484.1840820312</ele>
        <time>2012-06-23T09:50:56Z</time>
      </trkpt>
      <trkpt lat="42.68097" lon="1.3949">
        <ele>2485.1452636719</ele>
        <time>2012-06-23T09:51:00Z</time>
      </trkpt>
      <trkpt lat="42.68097" lon="1.39493">
        <ele>2486.5871582031</ele>
        <time>2012-06-23T09:51:06Z</time>
      </trkpt>
      <trkpt lat="42.68097" lon="1.39495">
        <ele>2487.5485839844</ele>
        <time>2012-06-23T09:51:11Z</time>
      </trkpt>
      <trkpt lat="42.68097" lon="1.39498">
        <ele>2488.029296875</ele>
        <time>2012-06-23T09:51:17Z</time>
      </trkpt>
      <trkpt lat="42.68097" lon="1.39502">
        <ele>2489.4711914062</ele>
        <time>2012-06-23T09:51:23Z</time>
      </trkpt>
      <trkpt lat="42.68096" lon="1.39504">
        <ele>2491.3937988281</ele>
        <time>2012-06-23T09:51:29Z</time>
      </trkpt>
      <trkpt lat="42.68095" lon="1.39507">
        <ele>2491.8745117188</ele>
        <time>2012-06-23T09:51:35Z</time>
      </trkpt>
      <trkpt lat="42.68096" lon="1.39508">
        <ele>2493.3166503906</ele>
        <time>2012-06-23T09:51:40Z</time>
      </trkpt>
      <trkpt lat="42.68097" lon="1.39512">
        <ele>2494.7585449219</ele>
        <time>2012-06-23T09:51:45Z</time>
      </trkpt>
      <trkpt lat="42.68094" lon="1.39514">
        <ele>2495.7199707031</ele>
        <time>2012-06-23T09:51:51Z</time>
      </trkpt>
      <trkpt lat="42.68092" lon="1.39517">
        <ele>2496.2006835938</ele>
        <time>2012-06-23T09:52:00Z</time>
      </trkpt>
      <trkpt lat="42.6809" lon="1.3952">
        <ele>2497.1618652344</ele>
        <time>2012-06-23T09:52:04Z</time>
      </trkpt>
      <trkpt lat="42.6809" lon="1.39524">
        <ele>2498.6037597656</ele>
        <time>2012-06-23T09:52:10Z</time>
      </trkpt>
      <trkpt lat="42.68089" lon="1.39528">
        <ele>2500.0458984375</ele>
        <time>2012-06-23T09:52:17Z</time>
      </trkpt>
      <trkpt lat="42.68089" lon="1.3953">
        <ele>2501.4877929688</ele>
        <time>2012-06-23T09:52:21Z</time>
      </trkpt>
      <trkpt lat="42.68087" lon="1.39532">
        <ele>2501.9682617188</ele>
        <time>2012-06-23T09:52:28Z</time>
      </trkpt>
      <trkpt lat="42.68087" lon="1.39535">
        <ele>2503.4104003906</ele>
        <time>2012-06-23T09:52:35Z</time>
      </trkpt>
      <trkpt lat="42.68085" lon="1.39538">
        <ele>2505.3330078125</ele>
        <time>2012-06-23T09:52:41Z</time>
      </trkpt>
      <trkpt lat="42.68084" lon="1.3954">
        <ele>2506.2941894531</ele>
        <time>2012-06-23T09:52:47Z</time>
      </trkpt>
      <trkpt lat="42.68081" lon="1.39544">
        <ele>2507.2556152344</ele>
        <time>2012-06-23T09:52:54Z</time>
      </trkpt>
      <trkpt lat="42.68078" lon="1.39548">
        <ele>2507.736328125</ele>
        <time>2012-06-23T09:53:00Z</time>
      </trkpt>
      <trkpt lat="42.68076" lon="1.39552">
        <ele>2509.1784667969</ele>
        <time>2012-06-23T09:53:08Z</time>
      </trkpt>
      <trkpt lat="42.68076" lon="1.39554">
        <ele>2511.1010742188</ele>
        <time>2012-06-23T09:53:14Z</time>
      </trkpt>
      <trkpt lat="42.6808" lon="1.39554">
        <ele>2513.0236816406</ele>
        <time>2012-06-23T09:53:21Z</time>
      </trkpt>
      <trkpt lat="42.68079" lon="1.39555">
        <ele>2514.4655761719</ele>
        <time>2012-06-23T09:53:30Z</time>
      </trkpt>
      <trkpt lat="42.68077" lon="1.39558">
        <ele>2514.4655761719</ele>
        <time>2012-06-23T09:53:40Z</time>
      </trkpt>
      <trkpt lat="42.68076" lon="1.39561">
        <ele>2515.4270019531</ele>
        <time>2012-06-23T09:53:45Z</time>
      </trkpt>
      <trkpt lat="42.68077" lon="1.39563">
        <ele>2515.9074707031</ele>
        <time>2012-06-23T09:53:50Z</time>
      </trkpt>
      <trkpt lat="42.68078" lon="1.39564">
        <ele>2516.8688964844</ele>
        <time>2012-06-23T09:53:54Z</time>
      </trkpt>
      <trkpt lat="42.68081" lon="1.39567">
        <ele>2519.2722167969</ele>
        <time>2012-06-23T09:54:02Z</time>
      </trkpt>
      <trkpt lat="42.6808" lon="1.3957">
        <ele>2520.7141113281</ele>
        <time>2012-06-23T09:54:07Z</time>
      </trkpt>
      <trkpt lat="42.68078" lon="1.39572">
        <ele>2522.1560058594</ele>
        <time>2012-06-23T09:54:13Z</time>
      </trkpt>
      <trkpt lat="42.68076" lon="1.39574">
        <ele>2523.1174316406</ele>
        <time>2012-06-23T09:54:20Z</time>
      </trkpt>
      <trkpt lat="42.68076" lon="1.39579">
        <ele>2524.5595703125</ele>
        <time>2012-06-23T09:54:26Z</time>
      </trkpt>
      <trkpt lat="42.68076" lon="1.39581">
        <ele>2525.5207519531</ele>
        <time>2012-06-23T09:54:31Z</time>
      </trkpt>
      <trkpt lat="42.68076" lon="1.39585">
        <ele>2526.962890625</ele>
        <time>2012-06-23T09:54:38Z</time>
      </trkpt>
      <trkpt lat="42.68076" lon="1.3959">
        <ele>2528.4047851562</ele>
        <time>2012-06-23T09:54:45Z</time>
      </trkpt>
      <trkpt lat="42.68074" lon="1.39596">
        <ele>2530.3273925781</ele>
        <time>2012-06-23T09:54:53Z</time>
      </trkpt>
      <trkpt lat="42.68073" lon="1.39603">
        <ele>2531.7692871094</ele>
        <time>2012-06-23T09:55:00Z</time>
      </trkpt>
      <trkpt lat="42.68068" lon="1.39609">
        <ele>2532.73046875</ele>
        <time>2012-06-23T09:55:07Z</time>
      </trkpt>
      <trkpt lat="42.68064" lon="1.39615">
        <ele>2533.6918945312</ele>
        <time>2012-06-23T09:55:13Z</time>
      </trkpt>
      <trkpt lat="42.68063" lon="1.39617">
        <ele>2533.6918945312</ele>
        <time>2012-06-23T09:55:18Z</time>
      </trkpt>
      <trkpt lat="42.68061" lon="1.3962">
        <ele>2532.73046875</ele>
        <time>2012-06-23T09:55:24Z</time>
      </trkpt>
      <trkpt lat="42.68057" lon="1.39626">
        <ele>2532.73046875</ele>
        <time>2012-06-23T09:55:30Z</time>
      </trkpt>
      <trkpt lat="42.68055" lon="1.39632">
        <ele>2531.7692871094</ele>
        <time>2012-06-23T09:55:36Z</time>
      </trkpt>
      <trkpt lat="42.68054" lon="1.39634">
        <ele>2531.7692871094</ele>
        <time>2012-06-23T09:55:37Z</time>
      </trkpt>
      <trkpt lat="42.6805" lon="1.39644">
        <ele>2532.25</ele>
        <time>2012-06-23T09:55:43Z</time>
      </trkpt>
      <trkpt lat="42.68048" lon="1.39654">
        <ele>2533.6918945312</ele>
        <time>2012-06-23T09:55:50Z</time>
      </trkpt>
      <trkpt lat="42.68047" lon="1.39661">
        <ele>2532.73046875</ele>
        <time>2012-06-23T09:55:56Z</time>
      </trkpt>
      <trkpt lat="42.68047" lon="1.39669">
        <ele>2531.2885742188</ele>
        <time>2012-06-23T09:56:01Z</time>
      </trkpt>
      <trkpt lat="42.68046" lon="1.39677">
        <ele>2532.25</ele>
        <time>2012-06-23T09:56:07Z</time>
      </trkpt>
      <trkpt lat="42.68047" lon="1.39681">
        <ele>2535.1337890625</ele>
        <time>2012-06-23T09:56:12Z</time>
      </trkpt>
      <trkpt lat="42.68047" lon="1.39685">
        <ele>2535.6145019531</ele>
        <time>2012-06-23T09:56:16Z</time>
      </trkpt>
      <trkpt lat="42.68046" lon="1.3969">
        <ele>2538.0178222656</ele>
        <time>2012-06-23T09:56:20Z</time>
      </trkpt>
      <trkpt lat="42.68044" lon="1.39694">
        <ele>2539.9404296875</ele>
        <time>2012-06-23T09:56:25Z</time>
      </trkpt>
      <trkpt lat="42.68043" lon="1.39698">
        <ele>2541.3825683594</ele>
        <time>2012-06-23T09:56:29Z</time>
      </trkpt>
      <trkpt lat="42.68042" lon="1.39702">
        <ele>2542.3439941406</ele>
        <time>2012-06-23T09:56:34Z</time>
      </trkpt>
      <trkpt lat="42.6804" lon="1.39704">
        <ele>2542.8244628906</ele>
        <time>2012-06-23T09:56:37Z</time>
      </trkpt>
      <trkpt lat="42.68037" lon="1.39709">
        <ele>2543.3051757812</ele>
        <time>2012-06-23T09:56:42Z</time>
      </trkpt>
      <trkpt lat="42.68036" lon="1.39711">
        <ele>2543.3051757812</ele>
        <time>2012-06-23T09:56:44Z</time>
      </trkpt>
      <trkpt lat="42.68032" lon="1.39716">
        <ele>2548.1115722656</ele>
        <time>2012-06-23T09:56:49Z</time>
      </trkpt>
      <trkpt lat="42.6803" lon="1.3972">
        <ele>2550.5148925781</ele>
        <time>2012-06-23T09:56:55Z</time>
      </trkpt>
      <trkpt lat="42.6803" lon="1.39723">
        <ele>2552.9182128906</ele>
        <time>2012-06-23T09:56:59Z</time>
      </trkpt>
      <trkpt lat="42.6803" lon="1.39727">
        <ele>2554.3601074219</ele>
        <time>2012-06-23T09:57:05Z</time>
      </trkpt>
      <trkpt lat="42.68025" lon="1.3973">
        <ele>2551.9567871094</ele>
        <time>2012-06-23T09:57:10Z</time>
      </trkpt>
      <trkpt lat="42.6802" lon="1.39732">
        <ele>2549.0729980469</ele>
        <time>2012-06-23T09:57:14Z</time>
      </trkpt>
      <trkpt lat="42.68017" lon="1.39735">
        <ele>2548.5922851562</ele>
        <time>2012-06-23T09:57:19Z</time>
      </trkpt>
      <trkpt lat="42.68016" lon="1.39738">
        <ele>2549.5537109375</ele>
        <time>2012-06-23T09:57:24Z</time>
      </trkpt>
      <trkpt lat="42.68015" lon="1.3974">
        <ele>2549.5537109375</ele>
        <time>2012-06-23T09:57:29Z</time>
      </trkpt>
      <trkpt lat="42.6801" lon="1.39744">
        <ele>2545.7084960938</ele>
        <time>2012-06-23T09:57:37Z</time>
      </trkpt>
      <trkpt lat="42.6801" lon="1.39747">
        <ele>2546.6696777344</ele>
        <time>2012-06-23T09:57:43Z</time>
      </trkpt>
      <trkpt lat="42.68006" lon="1.39752">
        <ele>2547.6311035156</ele>
        <time>2012-06-23T09:57:52Z</time>
      </trkpt>
      <trkpt lat="42.68004" lon="1.39754">
        <ele>2548.1115722656</ele>
        <time>2012-06-23T09:57:58Z</time>
      </trkpt>
      <trkpt lat="42.68003" lon="1.39756">
        <ele>2549.5537109375</ele>
        <time>2012-06-23T09:58:04Z</time>
      </trkpt>
      <trkpt lat="42.68002" lon="1.39758">
        <ele>2550.9956054688</ele>
        <time>2012-06-23T09:58:09Z</time>
      </trkpt>
      <trkpt lat="42.68001" lon="1.39761">
        <ele>2554.3601074219</ele>
        <time>2012-06-23T09:58:17Z</time>
      </trkpt>
      <trkpt lat="42.67999" lon="1.39765">
        <ele>2555.8020019531</ele>
        <time>2012-06-23T09:58:23Z</time>
      </trkpt>
      <trkpt lat="42.67998" lon="1.39768">
        <ele>2556.763671875</ele>
        <time>2012-06-23T09:58:28Z</time>
      </trkpt>
      <trkpt lat="42.67997" lon="1.39772">
        <ele>2556.763671875</ele>
        <time>2012-06-23T09:58:37Z</time>
      </trkpt>
      <trkpt lat="42.67996" lon="1.39774">
        <ele>2556.763671875</ele>
        <time>2012-06-23T09:58:42Z</time>
      </trkpt>
      <trkpt lat="42.67992" lon="1.39775">
        <ele>2558.2055664062</ele>
        <time>2012-06-23T09:58:49Z</time>
      </trkpt>
      <trkpt lat="42.6799" lon="1.39776">
        <ele>2560.1281738281</ele>
        <time>2012-06-23T09:58:55Z</time>
      </trkpt>
      <trkpt lat="42.6799" lon="1.39777">
        <ele>2561.5703125</ele>
        <time>2012-06-23T09:59:00Z</time>
      </trkpt>
      <trkpt lat="42.67989" lon="1.3978">
        <ele>2562.05078125</ele>
        <time>2012-06-23T09:59:08Z</time>
      </trkpt>
      <trkpt lat="42.67989" lon="1.39782">
        <ele>2563.4926757812</ele>
        <time>2012-06-23T09:59:13Z</time>
      </trkpt>
      <trkpt lat="42.6799" lon="1.39786">
        <ele>2564.9348144531</ele>
        <time>2012-06-23T09:59:18Z</time>
      </trkpt>
      <trkpt lat="42.6799" lon="1.39789">
        <ele>2565.8959960938</ele>
        <time>2012-06-23T09:59:23Z</time>
      </trkpt>
      <trkpt lat="42.6799" lon="1.39794">
        <ele>2567.337890625</ele>
        <time>2012-06-23T09:59:29Z</time>
      </trkpt>
      <trkpt lat="42.6799" lon="1.39798">
        <ele>2568.2993164062</ele>
        <time>2012-06-23T09:59:34Z</time>
      </trkpt>
      <trkpt lat="42.6799" lon="1.39803">
        <ele>2569.7412109375</ele>
        <time>2012-06-23T09:59:40Z</time>
      </trkpt>
      <trkpt lat="42.67989" lon="1.39807">
        <ele>2571.6638183594</ele>
        <time>2012-06-23T09:59:46Z</time>
      </trkpt>
      <trkpt lat="42.67988" lon="1.39811">
        <ele>2572.6254882812</ele>
        <time>2012-06-23T09:59:52Z</time>
      </trkpt>
      <trkpt lat="42.67986" lon="1.39817">
        <ele>2573.1062011719</ele>
        <time>2012-06-23T09:59:59Z</time>
      </trkpt>
      <trkpt lat="42.67989" lon="1.39818">
        <ele>2577.9125976562</ele>
        <time>2012-06-23T10:00:08Z</time>
      </trkpt>
      <trkpt lat="42.67986" lon="1.39823">
        <ele>2575.9899902344</ele>
        <time>2012-06-23T10:00:14Z</time>
      </trkpt>
      <trkpt lat="42.67981" lon="1.39825">
        <ele>2574.0673828125</ele>
        <time>2012-06-23T10:00:19Z</time>
      </trkpt>
      <trkpt lat="42.67981" lon="1.39829">
        <ele>2577.9125976562</ele>
        <time>2012-06-23T10:00:25Z</time>
      </trkpt>
      <trkpt lat="42.6798" lon="1.39834">
        <ele>2579.8352050781</ele>
        <time>2012-06-23T10:00:31Z</time>
      </trkpt>
      <trkpt lat="42.67978" lon="1.39837">
        <ele>2578.8737792969</ele>
        <time>2012-06-23T10:00:35Z</time>
      </trkpt>
      <trkpt lat="42.67974" lon="1.39843">
        <ele>2577.9125976562</ele>
        <time>2012-06-23T10:00:43Z</time>
      </trkpt>
      <trkpt lat="42.67973" lon="1.39845">
        <ele>2578.8737792969</ele>
        <time>2012-06-23T10:00:47Z</time>
      </trkpt>
      <trkpt lat="42.67972" lon="1.39846">
        <ele>2582.7189941406</ele>
        <time>2012-06-23T10:00:54Z</time>
      </trkpt>
      <trkpt lat="42.67969" lon="1.39848">
        <ele>2582.2385253906</ele>
        <time>2012-06-23T10:01:02Z</time>
      </trkpt>
      <trkpt lat="42.6797" lon="1.3985">
        <ele>2584.6418457031</ele>
        <time>2012-06-23T10:01:09Z</time>
      </trkpt>
      <trkpt lat="42.6797" lon="1.39851">
        <ele>2586.5642089844</ele>
        <time>2012-06-23T10:01:16Z</time>
      </trkpt>
      <trkpt lat="42.67968" lon="1.39852">
        <ele>2585.6030273438</ele>
        <time>2012-06-23T10:01:21Z</time>
      </trkpt>
      <trkpt lat="42.67963" lon="1.39849">
        <ele>2583.6804199219</ele>
        <time>2012-06-23T10:01:29Z</time>
      </trkpt>
      <trkpt lat="42.67961" lon="1.39852">
        <ele>2583.6804199219</ele>
        <time>2012-06-23T10:01:35Z</time>
      </trkpt>
      <trkpt lat="42.67958" lon="1.39859">
        <ele>2583.6804199219</ele>
        <time>2012-06-23T10:01:41Z</time>
      </trkpt>
      <trkpt lat="42.67958" lon="1.39862">
        <ele>2584.6418457031</ele>
        <time>2012-06-23T10:01:43Z</time>
      </trkpt>
      <trkpt lat="42.67954" lon="1.39868">
        <ele>2586.0837402344</ele>
        <time>2012-06-23T10:01:50Z</time>
      </trkpt>
      <trkpt lat="42.6795" lon="1.39869">
        <ele>2585.1223144531</ele>
        <time>2012-06-23T10:01:56Z</time>
      </trkpt>
      <trkpt lat="42.67946" lon="1.39868">
        <ele>2584.6418457031</ele>
        <time>2012-06-23T10:02:03Z</time>
      </trkpt>
      <trkpt lat="42.67945" lon="1.3987">
        <ele>2588.4873046875</ele>
        <time>2012-06-23T10:02:10Z</time>
      </trkpt>
      <trkpt lat="42.67941" lon="1.39874">
        <ele>2590.4096679688</ele>
        <time>2012-06-23T10:02:17Z</time>
      </trkpt>
      <trkpt lat="42.67938" lon="1.39876">
        <ele>2592.8129882812</ele>
        <time>2012-06-23T10:02:24Z</time>
      </trkpt>
      <trkpt lat="42.67937" lon="1.39873">
        <ele>2596.177734375</ele>
        <time>2012-06-23T10:02:31Z</time>
      </trkpt>
      <trkpt lat="42.67936" lon="1.3987">
        <ele>2596.177734375</ele>
        <time>2012-06-23T10:02:37Z</time>
      </trkpt>
      <trkpt lat="42.67933" lon="1.39868">
        <ele>2597.6196289062</ele>
        <time>2012-06-23T10:02:41Z</time>
      </trkpt>
      <trkpt lat="42.67928" lon="1.39866">
        <ele>2596.658203125</ele>
        <time>2012-06-23T10:02:50Z</time>
      </trkpt>
      <trkpt lat="42.67924" lon="1.39866">
        <ele>2595.2163085938</ele>
        <time>2012-06-23T10:02:57Z</time>
      </trkpt>
      <trkpt lat="42.67923" lon="1.39865">
        <ele>2593.7744140625</ele>
        <time>2012-06-23T10:03:04Z</time>
      </trkpt>
      <trkpt lat="42.67922" lon="1.39862">
        <ele>2594.7355957031</ele>
        <time>2012-06-23T10:03:10Z</time>
      </trkpt>
      <trkpt lat="42.67922" lon="1.3986">
        <ele>2594.2548828125</ele>
        <time>2012-06-23T10:03:15Z</time>
      </trkpt>
      <trkpt lat="42.6792" lon="1.39854">
        <ele>2593.7744140625</ele>
        <time>2012-06-23T10:03:22Z</time>
      </trkpt>
      <trkpt lat="42.67919" lon="1.39846">
        <ele>2594.2548828125</ele>
        <time>2012-06-23T10:03:30Z</time>
      </trkpt>
      <trkpt lat="42.67917" lon="1.39838">
        <ele>2593.7744140625</ele>
        <time>2012-06-23T10:03:36Z</time>
      </trkpt>
      <trkpt lat="42.67916" lon="1.39834">
        <ele>2593.2937011719</ele>
        <time>2012-06-23T10:03:41Z</time>
      </trkpt>
      <trkpt lat="42.67913" lon="1.3983">
        <ele>2593.2937011719</ele>
        <time>2012-06-23T10:03:47Z</time>
      </trkpt>
      <trkpt lat="42.67914" lon="1.39825">
        <ele>2592.3325195312</ele>
        <time>2012-06-23T10:03:52Z</time>
      </trkpt>
      <trkpt lat="42.67913" lon="1.39821">
        <ele>2593.2937011719</ele>
        <time>2012-06-23T10:03:58Z</time>
      </trkpt>
      <trkpt lat="42.67913" lon="1.39819">
        <ele>2593.2937011719</ele>
        <time>2012-06-23T10:04:02Z</time>
      </trkpt>
      <trkpt lat="42.67915" lon="1.39814">
        <ele>2593.2937011719</ele>
        <time>2012-06-23T10:04:07Z</time>
      </trkpt>
      <trkpt lat="42.67916" lon="1.3981">
        <ele>2593.2937011719</ele>
        <time>2012-06-23T10:04:11Z</time>
      </trkpt>
      <trkpt lat="42.67915" lon="1.39804">
        <ele>2592.8129882812</ele>
        <time>2012-06-23T10:04:18Z</time>
      </trkpt>
      <trkpt lat="42.67913" lon="1.39799">
        <ele>2592.3325195312</ele>
        <time>2012-06-23T10:04:24Z</time>
      </trkpt>
      <trkpt lat="42.67912" lon="1.39794">
        <ele>2592.8129882812</ele>
        <time>2012-06-23T10:04:28Z</time>
      </trkpt>
      <trkpt lat="42.67912" lon="1.39787">
        <ele>2593.7744140625</ele>
        <time>2012-06-23T10:04:34Z</time>
      </trkpt>
      <trkpt lat="42.67909" lon="1.39783">
        <ele>2594.2548828125</ele>
        <time>2012-06-23T10:04:39Z</time>
      </trkpt>
      <trkpt lat="42.67907" lon="1.3978">
        <ele>2593.7744140625</ele>
        <time>2012-06-23T10:04:45Z</time>
      </trkpt>
      <trkpt lat="42.67904" lon="1.39777">
        <ele>2592.8129882812</ele>
        <time>2012-06-23T10:04:49Z</time>
      </trkpt>
      <trkpt lat="42.67905" lon="1.39771">
        <ele>2592.8129882812</ele>
        <time>2012-06-23T10:04:53Z</time>
      </trkpt>
      <trkpt lat="42.67904" lon="1.39762">
        <ele>2592.8129882812</ele>
        <time>2012-06-23T10:04:59Z</time>
      </trkpt>
      <trkpt lat="42.67906" lon="1.39758">
        <ele>2592.3325195312</ele>
        <time>2012-06-23T10:05:02Z</time>
      </trkpt>
      <trkpt lat="42.67904" lon="1.39748">
        <ele>2593.7744140625</ele>
        <time>2012-06-23T10:05:10Z</time>
      </trkpt>
      <trkpt lat="42.67903" lon="1.39745">
        <ele>2593.2937011719</ele>
        <time>2012-06-23T10:05:14Z</time>
      </trkpt>
      <trkpt lat="42.679" lon="1.39744">
        <ele>2592.8129882812</ele>
        <time>2012-06-23T10:05:18Z</time>
      </trkpt>
      <trkpt lat="42.67897" lon="1.39743">
        <ele>2592.8129882812</ele>
        <time>2012-06-23T10:05:23Z</time>
      </trkpt>
      <trkpt lat="42.67897" lon="1.39739">
        <ele>2593.7744140625</ele>
        <time>2012-06-23T10:05:28Z</time>
      </trkpt>
      <trkpt lat="42.67894" lon="1.39735">
        <ele>2594.2548828125</ele>
        <time>2012-06-23T10:05:34Z</time>
      </trkpt>
      <trkpt lat="42.67891" lon="1.39737">
        <ele>2594.7355957031</ele>
        <time>2012-06-23T10:05:39Z</time>
      </trkpt>
      <trkpt lat="42.6789" lon="1.3974">
        <ele>2596.658203125</ele>
        <time>2012-06-23T10:05:44Z</time>
      </trkpt>
      <trkpt lat="42.67889" lon="1.39744">
        <ele>2597.138671875</ele>
        <time>2012-06-23T10:05:50Z</time>
      </trkpt>
      <trkpt lat="42.67886" lon="1.3974">
        <ele>2598.1000976562</ele>
        <time>2012-06-23T10:05:57Z</time>
      </trkpt>
      <trkpt lat="42.67884" lon="1.39741">
        <ele>2599.0615234375</ele>
        <time>2012-06-23T10:06:02Z</time>
      </trkpt>
      <trkpt lat="42.67883" lon="1.39741">
        <ele>2599.0615234375</ele>
        <time>2012-06-23T10:06:07Z</time>
      </trkpt>
      <trkpt lat="42.67881" lon="1.39742">
        <ele>2599.0615234375</ele>
        <time>2012-06-23T10:06:12Z</time>
      </trkpt>
      <trkpt lat="42.6788" lon="1.39745">
        <ele>2600.0229492188</ele>
        <time>2012-06-23T10:06:18Z</time>
      </trkpt>
      <trkpt lat="42.67878" lon="1.39746">
        <ele>2599.5419921875</ele>
        <time>2012-06-23T10:06:23Z</time>
      </trkpt>
      <trkpt lat="42.67876" lon="1.39745">
        <ele>2601.46484375</ele>
        <time>2012-06-23T10:06:29Z</time>
      </trkpt>
      <trkpt lat="42.67876" lon="1.39747">
        <ele>2603.8681640625</ele>
        <time>2012-06-23T10:06:35Z</time>
      </trkpt>
      <trkpt lat="42.67874" lon="1.3975">
        <ele>2604.8291015625</ele>
        <time>2012-06-23T10:06:43Z</time>
      </trkpt>
      <trkpt lat="42.67872" lon="1.3975">
        <ele>2605.7905273438</ele>
        <time>2012-06-23T10:06:48Z</time>
      </trkpt>
      <trkpt lat="42.67871" lon="1.39751">
        <ele>2606.271484375</ele>
        <time>2012-06-23T10:06:53Z</time>
      </trkpt>
      <trkpt lat="42.6787" lon="1.39752">
        <ele>2608.1938476562</ele>
        <time>2012-06-23T10:06:57Z</time>
      </trkpt>
      <trkpt lat="42.67867" lon="1.3975">
        <ele>2608.1938476562</ele>
        <time>2012-06-23T10:07:03Z</time>
      </trkpt>
      <trkpt lat="42.67866" lon="1.3975">
        <ele>2608.6748046875</ele>
        <time>2012-06-23T10:07:09Z</time>
      </trkpt>
      <trkpt lat="42.67863" lon="1.39749">
        <ele>2610.5971679688</ele>
        <time>2012-06-23T10:07:16Z</time>
      </trkpt>
      <trkpt lat="42.67862" lon="1.39751">
        <ele>2612.5200195312</ele>
        <time>2012-06-23T10:07:23Z</time>
      </trkpt>
      <trkpt lat="42.67861" lon="1.39751">
        <ele>2612.0395507812</ele>
        <time>2012-06-23T10:07:31Z</time>
      </trkpt>
      <trkpt lat="42.67859" lon="1.39755">
        <ele>2612.0395507812</ele>
        <time>2012-06-23T10:07:43Z</time>
      </trkpt>
      <trkpt lat="42.67857" lon="1.39756">
        <ele>2613.0009765625</ele>
        <time>2012-06-23T10:07:50Z</time>
      </trkpt>
      <trkpt lat="42.67855" lon="1.39758">
        <ele>2613.9624023438</ele>
        <time>2012-06-23T10:07:55Z</time>
      </trkpt>
      <trkpt lat="42.67852" lon="1.39757">
        <ele>2614.9233398438</ele>
        <time>2012-06-23T10:08:01Z</time>
      </trkpt>
      <trkpt lat="42.6785" lon="1.39758">
        <ele>2616.8461914062</ele>
        <time>2012-06-23T10:08:08Z</time>
      </trkpt>
      <trkpt lat="42.67849" lon="1.3976">
        <ele>2618.2880859375</ele>
        <time>2012-06-23T10:08:15Z</time>
      </trkpt>
      <trkpt lat="42.67848" lon="1.39761">
        <ele>2620.2104492188</ele>
        <time>2012-06-23T10:08:21Z</time>
      </trkpt>
      <trkpt lat="42.67848" lon="1.39763">
        <ele>2621.6528320312</ele>
        <time>2012-06-23T10:08:25Z</time>
      </trkpt>
      <trkpt lat="42.67846" lon="1.39763">
        <ele>2623.5751953125</ele>
        <time>2012-06-23T10:08:31Z</time>
      </trkpt>
      <trkpt lat="42.67845" lon="1.39761">
        <ele>2624.5366210938</ele>
        <time>2012-06-23T10:08:35Z</time>
      </trkpt>
      <trkpt lat="42.67843" lon="1.39758">
        <ele>2625.978515625</ele>
        <time>2012-06-23T10:08:41Z</time>
      </trkpt>
      <trkpt lat="42.67841" lon="1.39758">
        <ele>2626.458984375</ele>
        <time>2012-06-23T10:08:51Z</time>
      </trkpt>
      <trkpt lat="42.67839" lon="1.39758">
        <ele>2627.4204101562</ele>
        <time>2012-06-23T10:08:59Z</time>
      </trkpt>
      <trkpt lat="42.67838" lon="1.39758">
        <ele>2628.3818359375</ele>
        <time>2012-06-23T10:09:04Z</time>
      </trkpt>
      <trkpt lat="42.67838" lon="1.39759">
        <ele>2629.3432617188</ele>
        <time>2012-06-23T10:09:17Z</time>
      </trkpt>
      <trkpt lat="42.67836" lon="1.3976">
        <ele>2630.78515625</ele>
        <time>2012-06-23T10:09:22Z</time>
      </trkpt>
      <trkpt lat="42.67834" lon="1.39758">
        <ele>2632.2270507812</ele>
        <time>2012-06-23T10:09:32Z</time>
      </trkpt>
      <trkpt lat="42.67833" lon="1.39754">
        <ele>2633.1884765625</ele>
        <time>2012-06-23T10:09:39Z</time>
      </trkpt>
      <trkpt lat="42.67831" lon="1.39753">
        <ele>2634.6303710938</ele>
        <time>2012-06-23T10:09:44Z</time>
      </trkpt>
      <trkpt lat="42.6783" lon="1.39752">
        <ele>2636.072265625</ele>
        <time>2012-06-23T10:09:49Z</time>
      </trkpt>
      <trkpt lat="42.6783" lon="1.3975">
        <ele>2636.552734375</ele>
        <time>2012-06-23T10:09:55Z</time>
      </trkpt>
      <trkpt lat="42.67829" lon="1.39746">
        <ele>2636.552734375</ele>
        <time>2012-06-23T10:10:02Z</time>
      </trkpt>
      <trkpt lat="42.67828" lon="1.39742">
        <ele>2637.0336914062</ele>
        <time>2012-06-23T10:10:08Z</time>
      </trkpt>
      <trkpt lat="42.67827" lon="1.3974">
        <ele>2637.9946289062</ele>
        <time>2012-06-23T10:10:17Z</time>
      </trkpt>
      <trkpt lat="42.67827" lon="1.39738">
        <ele>2638.4755859375</ele>
        <time>2012-06-23T10:10:24Z</time>
      </trkpt>
      <trkpt lat="42.67826" lon="1.39734">
        <ele>2639.4370117188</ele>
        <time>2012-06-23T10:10:30Z</time>
      </trkpt>
      <trkpt lat="42.67826" lon="1.39734">
        <ele>2640.3979492188</ele>
        <time>2012-06-23T10:10:35Z</time>
      </trkpt>
      <trkpt lat="42.67823" lon="1.39734">
        <ele>2641.359375</ele>
        <time>2012-06-23T10:10:42Z</time>
      </trkpt>
      <trkpt lat="42.67823" lon="1.39734">
        <ele>2642.3208007812</ele>
        <time>2012-06-23T10:10:51Z</time>
      </trkpt>
      <trkpt lat="42.67823" lon="1.39734">
        <ele>2643.2817382812</ele>
        <time>2012-06-23T10:11:07Z</time>
      </trkpt>
      <trkpt lat="42.6782" lon="1.39732">
        <ele>2645.205078125</ele>
        <time>2012-06-23T10:11:14Z</time>
      </trkpt>
      <trkpt lat="42.67817" lon="1.3973">
        <ele>2647.1279296875</ele>
        <time>2012-06-23T10:11:21Z</time>
      </trkpt>
      <trkpt lat="42.67817" lon="1.39728">
        <ele>2648.0888671875</ele>
        <time>2012-06-23T10:11:36Z</time>
      </trkpt>
      <trkpt lat="42.67815" lon="1.39726">
        <ele>2649.0502929688</ele>
        <time>2012-06-23T10:11:43Z</time>
      </trkpt>
      <trkpt lat="42.67814" lon="1.39724">
        <ele>2650.01171875</ele>
        <time>2012-06-23T10:11:49Z</time>
      </trkpt>
      <trkpt lat="42.67812" lon="1.39722">
        <ele>2650.4921875</ele>
        <time>2012-06-23T10:11:56Z</time>
      </trkpt>
      <trkpt lat="42.6781" lon="1.39722">
        <ele>2651.4536132812</ele>
        <time>2012-06-23T10:12:03Z</time>
      </trkpt>
      <trkpt lat="42.67808" lon="1.39723">
        <ele>2651.9340820312</ele>
        <time>2012-06-23T10:12:09Z</time>
      </trkpt>
      <trkpt lat="42.67807" lon="1.39725">
        <ele>2652.4150390625</ele>
        <time>2012-06-23T10:12:12Z</time>
      </trkpt>
      <trkpt lat="42.67805" lon="1.39726">
        <ele>2653.3759765625</ele>
        <time>2012-06-23T10:12:18Z</time>
      </trkpt>
      <trkpt lat="42.67804" lon="1.39728">
        <ele>2653.8569335938</ele>
        <time>2012-06-23T10:12:23Z</time>
      </trkpt>
      <trkpt lat="42.67803" lon="1.39731">
        <ele>2654.818359375</ele>
        <time>2012-06-23T10:12:28Z</time>
      </trkpt>
      <trkpt lat="42.67803" lon="1.39733">
        <ele>2657.2211914062</ele>
        <time>2012-06-23T10:12:39Z</time>
      </trkpt>
      <trkpt lat="42.67802" lon="1.39735">
        <ele>2658.1826171875</ele>
        <time>2012-06-23T10:12:46Z</time>
      </trkpt>
      <trkpt lat="42.67801" lon="1.39734">
        <ele>2659.1440429688</ele>
        <time>2012-06-23T10:12:54Z</time>
      </trkpt>
      <trkpt lat="42.67799" lon="1.39736">
        <ele>2661.06640625</ele>
        <time>2012-06-23T10:13:18Z</time>
      </trkpt>
      <trkpt lat="42.67797" lon="1.39736">
        <ele>2661.5473632812</ele>
        <time>2012-06-23T10:13:23Z</time>
      </trkpt>
      <trkpt lat="42.67796" lon="1.39739">
        <ele>2662.0278320312</ele>
        <time>2012-06-23T10:13:29Z</time>
      </trkpt>
      <trkpt lat="42.67793" lon="1.39742">
        <ele>2662.0278320312</ele>
        <time>2012-06-23T10:13:35Z</time>
      </trkpt>
      <trkpt lat="42.67791" lon="1.39745">
        <ele>2662.5087890625</ele>
        <time>2012-06-23T10:13:39Z</time>
      </trkpt>
      <trkpt lat="42.67789" lon="1.39749">
        <ele>2663.9506835938</ele>
        <time>2012-06-23T10:13:48Z</time>
      </trkpt>
      <trkpt lat="42.67789" lon="1.3975">
        <ele>2665.392578125</ele>
        <time>2012-06-23T10:13:55Z</time>
      </trkpt>
      <trkpt lat="42.67788" lon="1.3975">
        <ele>2665.392578125</ele>
        <time>2012-06-23T10:14:02Z</time>
      </trkpt>
      <trkpt lat="42.67787" lon="1.3975">
        <ele>2667.7958984375</ele>
        <time>2012-06-23T10:14:10Z</time>
      </trkpt>
      <trkpt lat="42.67786" lon="1.39751">
        <ele>2669.2377929688</ele>
        <time>2012-06-23T10:14:17Z</time>
      </trkpt>
      <trkpt lat="42.67785" lon="1.39755">
        <ele>2670.19921875</ele>
        <time>2012-06-23T10:14:28Z</time>
      </trkpt>
      <trkpt lat="42.67785" lon="1.39759">
        <ele>2671.16015625</ele>
        <time>2012-06-23T10:14:36Z</time>
      </trkpt>
      <trkpt lat="42.67785" lon="1.39761">
        <ele>2671.6411132812</ele>
        <time>2012-06-23T10:14:41Z</time>
      </trkpt>
      <trkpt lat="42.67785" lon="1.39762">
        <ele>2674.0439453125</ele>
        <time>2012-06-23T10:14:47Z</time>
      </trkpt>
      <trkpt lat="42.67786" lon="1.39766">
        <ele>2675.486328125</ele>
        <time>2012-06-23T10:14:53Z</time>
      </trkpt>
      <trkpt lat="42.67783" lon="1.39768">
        <ele>2677.4091796875</ele>
        <time>2012-06-23T10:14:59Z</time>
      </trkpt>
      <trkpt lat="42.67782" lon="1.39768">
        <ele>2679.33203125</ele>
        <time>2012-06-23T10:15:06Z</time>
      </trkpt>
      <trkpt lat="42.67781" lon="1.39766">
        <ele>2677.8901367188</ele>
        <time>2012-06-23T10:15:37Z</time>
      </trkpt>
      <trkpt lat="42.67779" lon="1.39764">
        <ele>2678.3706054688</ele>
        <time>2012-06-23T10:15:43Z</time>
      </trkpt>
      <trkpt lat="42.67777" lon="1.39763">
        <ele>2679.33203125</ele>
        <time>2012-06-23T10:15:47Z</time>
      </trkpt>
      <trkpt lat="42.67776" lon="1.39765">
        <ele>2680.7739257812</ele>
        <time>2012-06-23T10:15:52Z</time>
      </trkpt>
      <trkpt lat="42.67775" lon="1.39766">
        <ele>2683.1772460938</ele>
        <time>2012-06-23T10:15:58Z</time>
      </trkpt>
      <trkpt lat="42.67775" lon="1.3977">
        <ele>2685.099609375</ele>
        <time>2012-06-23T10:16:04Z</time>
      </trkpt>
      <trkpt lat="42.67778" lon="1.39777">
        <ele>2687.0224609375</ele>
        <time>2012-06-23T10:16:12Z</time>
      </trkpt>
      <trkpt lat="42.67779" lon="1.39781">
        <ele>2687.9833984375</ele>
        <time>2012-06-23T10:16:17Z</time>
      </trkpt>
      <trkpt lat="42.67779" lon="1.39785">
        <ele>2689.90625</ele>
        <time>2012-06-23T10:16:23Z</time>
      </trkpt>
      <trkpt lat="42.67776" lon="1.39787">
        <ele>2690.8676757812</ele>
        <time>2012-06-23T10:16:30Z</time>
      </trkpt>
      <trkpt lat="42.67774" lon="1.39789">
        <ele>2689.90625</ele>
        <time>2012-06-23T10:16:34Z</time>
      </trkpt>
      <trkpt lat="42.67772" lon="1.39794">
        <ele>2690.8676757812</ele>
        <time>2012-06-23T10:16:40Z</time>
      </trkpt>
      <trkpt lat="42.67769" lon="1.398">
        <ele>2691.3481445312</ele>
        <time>2012-06-23T10:16:47Z</time>
      </trkpt>
      <trkpt lat="42.67768" lon="1.39802">
        <ele>2691.3481445312</ele>
        <time>2012-06-23T10:16:54Z</time>
      </trkpt>
      <trkpt lat="42.67767" lon="1.39805">
        <ele>2692.3095703125</ele>
        <time>2012-06-23T10:17:01Z</time>
      </trkpt>
      <trkpt lat="42.67764" lon="1.39807">
        <ele>2693.7514648438</ele>
        <time>2012-06-23T10:17:08Z</time>
      </trkpt>
      <trkpt lat="42.67762" lon="1.39808">
        <ele>2693.7514648438</ele>
        <time>2012-06-23T10:17:14Z</time>
      </trkpt>
      <trkpt lat="42.67758" lon="1.39812">
        <ele>2693.7514648438</ele>
        <time>2012-06-23T10:17:22Z</time>
      </trkpt>
      <trkpt lat="42.67756" lon="1.39815">
        <ele>2694.712890625</ele>
        <time>2012-06-23T10:17:27Z</time>
      </trkpt>
      <trkpt lat="42.67755" lon="1.39818">
        <ele>2695.193359375</ele>
        <time>2012-06-23T10:17:32Z</time>
      </trkpt>
      <trkpt lat="42.67754" lon="1.39821">
        <ele>2694.712890625</ele>
        <time>2012-06-23T10:17:39Z</time>
      </trkpt>
      <trkpt lat="42.67752" lon="1.39824">
        <ele>2694.712890625</ele>
        <time>2012-06-23T10:17:44Z</time>
      </trkpt>
      <trkpt lat="42.67751" lon="1.39828">
        <ele>2695.673828125</ele>
        <time>2012-06-23T10:17:49Z</time>
      </trkpt>
      <trkpt lat="42.67748" lon="1.39831">
        <ele>2696.6352539062</ele>
        <time>2012-06-23T10:17:55Z</time>
      </trkpt>
      <trkpt lat="42.67747" lon="1.39832">
        <ele>2697.1157226562</ele>
        <time>2012-06-23T10:18:05Z</time>
      </trkpt>
      <trkpt lat="42.67743" lon="1.39834">
        <ele>2698.0771484375</ele>
        <time>2012-06-23T10:18:12Z</time>
      </trkpt>
      <trkpt lat="42.67742" lon="1.39837">
        <ele>2699.5190429688</ele>
        <time>2012-06-23T10:18:19Z</time>
      </trkpt>
      <trkpt lat="42.67743" lon="1.39842">
        <ele>2700.48046875</ele>
        <time>2012-06-23T10:18:27Z</time>
      </trkpt>
      <trkpt lat="42.67743" lon="1.39845">
        <ele>2700.9614257812</ele>
        <time>2012-06-23T10:18:33Z</time>
      </trkpt>
      <trkpt lat="42.67742" lon="1.39849">
        <ele>2702.4033203125</ele>
        <time>2012-06-23T10:18:38Z</time>
      </trkpt>
      <trkpt lat="42.6774" lon="1.39853">
        <ele>2702.8837890625</ele>
        <time>2012-06-23T10:18:45Z</time>
      </trkpt>
      <trkpt lat="42.67739" lon="1.39856">
        <ele>2703.3642578125</ele>
        <time>2012-06-23T10:18:51Z</time>
      </trkpt>
      <trkpt lat="42.67738" lon="1.3986">
        <ele>2704.3256835938</ele>
        <time>2012-06-23T10:18:57Z</time>
      </trkpt>
      <trkpt lat="42.67736" lon="1.39864">
        <ele>2705.287109375</ele>
        <time>2012-06-23T10:19:04Z</time>
      </trkpt>
      <trkpt lat="42.67734" lon="1.39867">
        <ele>2706.2485351562</ele>
        <time>2012-06-23T10:19:10Z</time>
      </trkpt>
      <trkpt lat="42.67731" lon="1.3987">
        <ele>2707.2094726562</ele>
        <time>2012-06-23T10:19:16Z</time>
      </trkpt>
      <trkpt lat="42.67728" lon="1.39872">
        <ele>2707.6904296875</ele>
        <time>2012-06-23T10:19:21Z</time>
      </trkpt>
      <trkpt lat="42.67726" lon="1.39876">
        <ele>2708.65234375</ele>
        <time>2012-06-23T10:19:28Z</time>
      </trkpt>
      <trkpt lat="42.67724" lon="1.39881">
        <ele>2710.0942382812</ele>
        <time>2012-06-23T10:19:34Z</time>
      </trkpt>
      <trkpt lat="42.67722" lon="1.39884">
        <ele>2710.5747070312</ele>
        <time>2012-06-23T10:19:40Z</time>
      </trkpt>
      <trkpt lat="42.67721" lon="1.39888">
        <ele>2711.5361328125</ele>
        <time>2012-06-23T10:19:46Z</time>
      </trkpt>
      <trkpt lat="42.67719" lon="1.39891">
        <ele>2712.9780273438</ele>
        <time>2012-06-23T10:19:52Z</time>
      </trkpt>
      <trkpt lat="42.67716" lon="1.39893">
        <ele>2713.4584960938</ele>
        <time>2012-06-23T10:19:58Z</time>
      </trkpt>
      <trkpt lat="42.67715" lon="1.39896">
        <ele>2713.939453125</ele>
        <time>2012-06-23T10:20:04Z</time>
      </trkpt>
      <trkpt lat="42.67713" lon="1.39899">
        <ele>2715.3813476562</ele>
        <time>2012-06-23T10:20:12Z</time>
      </trkpt>
      <trkpt lat="42.6771" lon="1.39901">
        <ele>2718.2651367188</ele>
        <time>2012-06-23T10:20:20Z</time>
      </trkpt>
      <trkpt lat="42.67708" lon="1.39904">
        <ele>2719.2265625</ele>
        <time>2012-06-23T10:20:26Z</time>
      </trkpt>
      <trkpt lat="42.67707" lon="1.39907">
        <ele>2719.70703125</ele>
        <time>2012-06-23T10:20:32Z</time>
      </trkpt>
      <trkpt lat="42.67704" lon="1.39905">
        <ele>2720.6684570312</ele>
        <time>2012-06-23T10:20:38Z</time>
      </trkpt>
      <trkpt lat="42.67701" lon="1.39903">
        <ele>2722.1103515625</ele>
        <time>2012-06-23T10:20:44Z</time>
      </trkpt>
      <trkpt lat="42.677" lon="1.39902">
        <ele>2723.0717773438</ele>
        <time>2012-06-23T10:20:49Z</time>
      </trkpt>
      <trkpt lat="42.67698" lon="1.39904">
        <ele>2724.033203125</ele>
        <time>2012-06-23T10:20:54Z</time>
      </trkpt>
      <trkpt lat="42.67696" lon="1.39907">
        <ele>2724.513671875</ele>
        <time>2012-06-23T10:21:00Z</time>
      </trkpt>
      <trkpt lat="42.67694" lon="1.3991">
        <ele>2725.4750976562</ele>
        <time>2012-06-23T10:21:06Z</time>
      </trkpt>
      <trkpt lat="42.67691" lon="1.39906">
        <ele>2726.4360351562</ele>
        <time>2012-06-23T10:21:12Z</time>
      </trkpt>
      <trkpt lat="42.67691" lon="1.39903">
        <ele>2727.8779296875</ele>
        <time>2012-06-23T10:21:17Z</time>
      </trkpt>
      <trkpt lat="42.67689" lon="1.399">
        <ele>2729.3203125</ele>
        <time>2012-06-23T10:21:23Z</time>
      </trkpt>
      <trkpt lat="42.67688" lon="1.39899">
        <ele>2730.7622070312</ele>
        <time>2012-06-23T10:21:28Z</time>
      </trkpt>
      <trkpt lat="42.67686" lon="1.39895">
        <ele>2731.2426757812</ele>
        <time>2012-06-23T10:21:34Z</time>
      </trkpt>
      <trkpt lat="42.67683" lon="1.39891">
        <ele>2732.2041015625</ele>
        <time>2012-06-23T10:21:40Z</time>
      </trkpt>
      <trkpt lat="42.67681" lon="1.3989">
        <ele>2733.6459960938</ele>
        <time>2012-06-23T10:21:46Z</time>
      </trkpt>
      <trkpt lat="42.67678" lon="1.39891">
        <ele>2735.568359375</ele>
        <time>2012-06-23T10:21:52Z</time>
      </trkpt>
      <trkpt lat="42.67676" lon="1.39894">
        <ele>2736.5297851562</ele>
        <time>2012-06-23T10:21:57Z</time>
      </trkpt>
      <trkpt lat="42.67675" lon="1.39896">
        <ele>2737.0107421875</ele>
        <time>2012-06-23T10:22:03Z</time>
      </trkpt>
      <trkpt lat="42.67673" lon="1.39898">
        <ele>2738.9331054688</ele>
        <time>2012-06-23T10:22:09Z</time>
      </trkpt>
      <trkpt lat="42.6767" lon="1.39896">
        <ele>2739.89453125</ele>
        <time>2012-06-23T10:22:15Z</time>
      </trkpt>
      <trkpt lat="42.67667" lon="1.39898">
        <ele>2741.8173828125</ele>
        <time>2012-06-23T10:22:21Z</time>
      </trkpt>
      <trkpt lat="42.67663" lon="1.39897">
        <ele>2744.220703125</ele>
        <time>2012-06-23T10:22:28Z</time>
      </trkpt>
      <trkpt lat="42.67661" lon="1.39899">
        <ele>2745.6625976562</ele>
        <time>2012-06-23T10:22:34Z</time>
      </trkpt>
      <trkpt lat="42.67658" lon="1.39903">
        <ele>2747.1049804688</ele>
        <time>2012-06-23T10:22:40Z</time>
      </trkpt>
      <trkpt lat="42.67656" lon="1.39906">
        <ele>2749.02734375</ele>
        <time>2012-06-23T10:22:47Z</time>
      </trkpt>
      <trkpt lat="42.67652" lon="1.39906">
        <ele>2750.9497070312</ele>
        <time>2012-06-23T10:22:54Z</time>
      </trkpt>
      <trkpt lat="42.6765" lon="1.39908">
        <ele>2751.9111328125</ele>
        <time>2012-06-23T10:23:00Z</time>
      </trkpt>
      <trkpt lat="42.67647" lon="1.39906">
        <ele>2753.3530273438</ele>
        <time>2012-06-23T10:23:07Z</time>
      </trkpt>
      <trkpt lat="42.67645" lon="1.39906">
        <ele>2755.2758789062</ele>
        <time>2012-06-23T10:23:13Z</time>
      </trkpt>
      <trkpt lat="42.67642" lon="1.39905">
        <ele>2755.2758789062</ele>
        <time>2012-06-23T10:23:20Z</time>
      </trkpt>
      <trkpt lat="42.6764" lon="1.39905">
        <ele>2756.2373046875</ele>
        <time>2012-06-23T10:23:25Z</time>
      </trkpt>
      <trkpt lat="42.67638" lon="1.39907">
        <ele>2756.2373046875</ele>
        <time>2012-06-23T10:23:33Z</time>
      </trkpt>
      <trkpt lat="42.67635" lon="1.39908">
        <ele>2757.1982421875</ele>
        <time>2012-06-23T10:23:41Z</time>
      </trkpt>
      <trkpt lat="42.67633" lon="1.39908">
        <ele>2758.6401367188</ele>
        <time>2012-06-23T10:23:46Z</time>
      </trkpt>
      <trkpt lat="42.67631" lon="1.39907">
        <ele>2759.12109375</ele>
        <time>2012-06-23T10:23:52Z</time>
      </trkpt>
      <trkpt lat="42.67628" lon="1.39907">
        <ele>2760.5629882812</ele>
        <time>2012-06-23T10:23:59Z</time>
      </trkpt>
      <trkpt lat="42.67627" lon="1.39906">
        <ele>2761.5244140625</ele>
        <time>2012-06-23T10:24:04Z</time>
      </trkpt>
      <trkpt lat="42.67624" lon="1.39905">
        <ele>2762.9663085938</ele>
        <time>2012-06-23T10:24:11Z</time>
      </trkpt>
      <trkpt lat="42.67622" lon="1.39904">
        <ele>2763.4467773438</ele>
        <time>2012-06-23T10:24:17Z</time>
      </trkpt>
      <trkpt lat="42.67621" lon="1.39902">
        <ele>2764.408203125</ele>
        <time>2012-06-23T10:24:25Z</time>
      </trkpt>
      <trkpt lat="42.67619" lon="1.399">
        <ele>2765.3696289062</ele>
        <time>2012-06-23T10:24:33Z</time>
      </trkpt>
      <trkpt lat="42.67618" lon="1.39899">
        <ele>2765.8500976562</ele>
        <time>2012-06-23T10:24:38Z</time>
      </trkpt>
      <trkpt lat="42.67616" lon="1.39898">
        <ele>2767.2919921875</ele>
        <time>2012-06-23T10:24:45Z</time>
      </trkpt>
      <trkpt lat="42.67614" lon="1.39896">
        <ele>2768.2534179688</ele>
        <time>2012-06-23T10:24:51Z</time>
      </trkpt>
      <trkpt lat="42.67614" lon="1.39894">
        <ele>2768.7338867188</ele>
        <time>2012-06-23T10:24:57Z</time>
      </trkpt>
      <trkpt lat="42.67612" lon="1.39892">
        <ele>2769.21484375</ele>
        <time>2012-06-23T10:25:04Z</time>
      </trkpt>
      <trkpt lat="42.6761" lon="1.39892">
        <ele>2770.6567382812</ele>
        <time>2012-06-23T10:25:11Z</time>
      </trkpt>
      <trkpt lat="42.67607" lon="1.39891">
        <ele>2771.6181640625</ele>
        <time>2012-06-23T10:25:18Z</time>
      </trkpt>
      <trkpt lat="42.67604" lon="1.39891">
        <ele>2772.5795898438</ele>
        <time>2012-06-23T10:25:26Z</time>
      </trkpt>
      <trkpt lat="42.67602" lon="1.39891">
        <ele>2774.021484375</ele>
        <time>2012-06-23T10:25:32Z</time>
      </trkpt>
      <trkpt lat="42.67598" lon="1.39891">
        <ele>2775.9443359375</ele>
        <time>2012-06-23T10:25:39Z</time>
      </trkpt>
      <trkpt lat="42.67595" lon="1.39893">
        <ele>2777.8671875</ele>
        <time>2012-06-23T10:25:47Z</time>
      </trkpt>
      <trkpt lat="42.67591" lon="1.39893">
        <ele>2778.34765625</ele>
        <time>2012-06-23T10:25:53Z</time>
      </trkpt>
      <trkpt lat="42.67588" lon="1.39893">
        <ele>2779.3090820312</ele>
        <time>2012-06-23T10:26:00Z</time>
      </trkpt>
      <trkpt lat="42.67585" lon="1.39894">
        <ele>2780.2700195312</ele>
        <time>2012-06-23T10:26:07Z</time>
      </trkpt>
      <trkpt lat="42.67582" lon="1.39894">
        <ele>2780.7509765625</ele>
        <time>2012-06-23T10:26:13Z</time>
      </trkpt>
      <trkpt lat="42.67579" lon="1.39894">
        <ele>2781.2314453125</ele>
        <time>2012-06-23T10:26:18Z</time>
      </trkpt>
      <trkpt lat="42.67574" lon="1.39893">
        <ele>2782.6733398438</ele>
        <time>2012-06-23T10:26:25Z</time>
      </trkpt>
      <trkpt lat="42.67571" lon="1.39892">
        <ele>2783.634765625</ele>
        <time>2012-06-23T10:26:31Z</time>
      </trkpt>
      <trkpt lat="42.67569" lon="1.39891">
        <ele>2784.5961914062</ele>
        <time>2012-06-23T10:26:36Z</time>
      </trkpt>
      <trkpt lat="42.67566" lon="1.39891">
        <ele>2785.5576171875</ele>
        <time>2012-06-23T10:26:42Z</time>
      </trkpt>
      <trkpt lat="42.67564" lon="1.39891">
        <ele>2786.9995117188</ele>
        <time>2012-06-23T10:26:48Z</time>
      </trkpt>
      <trkpt lat="42.67561" lon="1.3989">
        <ele>2787.9604492188</ele>
        <time>2012-06-23T10:26:55Z</time>
      </trkpt>
      <trkpt lat="42.6756" lon="1.39888">
        <ele>2788.44140625</ele>
        <time>2012-06-23T10:27:02Z</time>
      </trkpt>
      <trkpt lat="42.67559" lon="1.39887">
        <ele>2789.8833007812</ele>
        <time>2012-06-23T10:27:12Z</time>
      </trkpt>
      <trkpt lat="42.67557" lon="1.39886">
        <ele>2790.3637695312</ele>
        <time>2012-06-23T10:27:17Z</time>
      </trkpt>
      <trkpt lat="42.67554" lon="1.39885">
        <ele>2791.8056640625</ele>
        <time>2012-06-23T10:27:21Z</time>
      </trkpt>
      <trkpt lat="42.67552" lon="1.39883">
        <ele>2792.7670898438</ele>
        <time>2012-06-23T10:27:26Z</time>
      </trkpt>
      <trkpt lat="42.67551" lon="1.39883">
        <ele>2793.248046875</ele>
        <time>2012-06-23T10:27:33Z</time>
      </trkpt>
      <trkpt lat="42.67549" lon="1.39883">
        <ele>2792.7670898438</ele>
        <time>2012-06-23T10:27:54Z</time>
      </trkpt>
      <trkpt lat="42.67546" lon="1.39883">
        <ele>2794.6899414062</ele>
        <time>2012-06-23T10:28:04Z</time>
      </trkpt>
      <trkpt lat="42.67546" lon="1.39889">
        <ele>2797.0927734375</ele>
        <time>2012-06-23T10:28:11Z</time>
      </trkpt>
      <trkpt lat="42.67543" lon="1.39888">
        <ele>2798.53515625</ele>
        <time>2012-06-23T10:28:17Z</time>
      </trkpt>
      <trkpt lat="42.6754" lon="1.39888">
        <ele>2799.9770507812</ele>
        <time>2012-06-23T10:28:23Z</time>
      </trkpt>
      <trkpt lat="42.6754" lon="1.39891">
        <ele>2801.4189453125</ele>
        <time>2012-06-23T10:28:30Z</time>
      </trkpt>
      <trkpt lat="42.6754" lon="1.39894">
        <ele>2802.8608398438</ele>
        <time>2012-06-23T10:28:44Z</time>
      </trkpt>
      <trkpt lat="42.67537" lon="1.39895">
        <ele>2804.7836914062</ele>
        <time>2012-06-23T10:28:49Z</time>
      </trkpt>
      <trkpt lat="42.67536" lon="1.39897">
        <ele>2805.2646484375</ele>
        <time>2012-06-23T10:28:55Z</time>
      </trkpt>
      <trkpt lat="42.67536" lon="1.399">
        <ele>2805.7451171875</ele>
        <time>2012-06-23T10:29:01Z</time>
      </trkpt>
      <trkpt lat="42.67535" lon="1.39904">
        <ele>2807.1870117188</ele>
        <time>2012-06-23T10:29:09Z</time>
      </trkpt>
      <trkpt lat="42.67535" lon="1.39908">
        <ele>2807.66796875</ele>
        <time>2012-06-23T10:29:16Z</time>
      </trkpt>
      <trkpt lat="42.67535" lon="1.3991">
        <ele>2808.6293945312</ele>
        <time>2012-06-23T10:29:22Z</time>
      </trkpt>
      <trkpt lat="42.67534" lon="1.39913">
        <ele>2810.5517578125</ele>
        <time>2012-06-23T10:29:27Z</time>
      </trkpt>
      <trkpt lat="42.67531" lon="1.39917">
        <ele>2811.5131835938</ele>
        <time>2012-06-23T10:29:35Z</time>
      </trkpt>
      <trkpt lat="42.67529" lon="1.39919">
        <ele>2812.4741210938</ele>
        <time>2012-06-23T10:29:42Z</time>
      </trkpt>
      <trkpt lat="42.67529" lon="1.39917">
        <ele>2812.955078125</ele>
        <time>2012-06-23T10:29:48Z</time>
      </trkpt>
      <trkpt lat="42.67528" lon="1.39911">
        <ele>2812.4741210938</ele>
        <time>2012-06-23T10:29:53Z</time>
      </trkpt>
      <trkpt lat="42.67526" lon="1.39906">
        <ele>2814.3969726562</ele>
        <time>2012-06-23T10:30:00Z</time>
      </trkpt>
      <trkpt lat="42.67524" lon="1.39906">
        <ele>2816.3198242188</ele>
        <time>2012-06-23T10:30:07Z</time>
      </trkpt>
      <trkpt lat="42.67521" lon="1.39908">
        <ele>2817.76171875</ele>
        <time>2012-06-23T10:30:13Z</time>
      </trkpt>
      <trkpt lat="42.67518" lon="1.39905">
        <ele>2819.2036132812</ele>
        <time>2012-06-23T10:30:20Z</time>
      </trkpt>
      <trkpt lat="42.67517" lon="1.39903">
        <ele>2820.6455078125</ele>
        <time>2012-06-23T10:30:24Z</time>
      </trkpt>
      <trkpt lat="42.67516" lon="1.399">
        <ele>2821.6069335938</ele>
        <time>2012-06-23T10:30:30Z</time>
      </trkpt>
      <trkpt lat="42.67514" lon="1.39896">
        <ele>2822.0874023438</ele>
        <time>2012-06-23T10:30:36Z</time>
      </trkpt>
      <trkpt lat="42.67513" lon="1.39894">
        <ele>2823.048828125</ele>
        <time>2012-06-23T10:30:43Z</time>
      </trkpt>
      <trkpt lat="42.67512" lon="1.39893">
        <ele>2823.529296875</ele>
        <time>2012-06-23T10:30:49Z</time>
      </trkpt>
      <trkpt lat="42.6751" lon="1.39895">
        <ele>2824.9711914062</ele>
        <time>2012-06-23T10:30:55Z</time>
      </trkpt>
      <trkpt lat="42.67509" lon="1.399">
        <ele>2826.4130859375</ele>
        <time>2012-06-23T10:31:03Z</time>
      </trkpt>
      <trkpt lat="42.67509" lon="1.39903">
        <ele>2827.3745117188</ele>
        <time>2012-06-23T10:31:09Z</time>
      </trkpt>
      <trkpt lat="42.67507" lon="1.39906">
        <ele>2828.81640625</ele>
        <time>2012-06-23T10:31:15Z</time>
      </trkpt>
      <trkpt lat="42.67505" lon="1.39904">
        <ele>2829.7778320312</ele>
        <time>2012-06-23T10:31:20Z</time>
      </trkpt>
      <trkpt lat="42.67503" lon="1.39901">
        <ele>2830.7392578125</ele>
        <time>2012-06-23T10:31:26Z</time>
      </trkpt>
      <trkpt lat="42.67501" lon="1.399">
        <ele>2832.1811523438</ele>
        <time>2012-06-23T10:31:31Z</time>
      </trkpt>
      <trkpt lat="42.67498" lon="1.39899">
        <ele>2834.103515625</ele>
        <time>2012-06-23T10:31:37Z</time>
      </trkpt>
      <trkpt lat="42.67496" lon="1.39898">
        <ele>2836.5073242188</ele>
        <time>2012-06-23T10:31:42Z</time>
      </trkpt>
      <trkpt lat="42.67495" lon="1.39899">
        <ele>2839.3916015625</ele>
        <time>2012-06-23T10:31:47Z</time>
      </trkpt>
      <trkpt lat="42.67494" lon="1.39901">
        <ele>2842.275390625</ele>
        <time>2012-06-23T10:31:54Z</time>
      </trkpt>
      <trkpt lat="42.67494" lon="1.39901">
        <ele>2841.3139648438</ele>
        <time>2012-06-23T10:32:02Z</time>
      </trkpt>
      <trkpt lat="42.67493" lon="1.39902">
        <ele>2840.3525390625</ele>
        <time>2012-06-23T10:32:15Z</time>
      </trkpt>
      <trkpt lat="42.67491" lon="1.39903">
        <ele>2840.8334960938</ele>
        <time>2012-06-23T10:32:21Z</time>
      </trkpt>
      <trkpt lat="42.67489" lon="1.39905">
        <ele>2841.7944335938</ele>
        <time>2012-06-23T10:32:27Z</time>
      </trkpt>
      <trkpt lat="42.67487" lon="1.39907">
        <ele>2842.275390625</ele>
        <time>2012-06-23T10:32:32Z</time>
      </trkpt>
      <trkpt lat="42.67489" lon="1.39911">
        <ele>2843.236328125</ele>
        <time>2012-06-23T10:32:38Z</time>
      </trkpt>
      <trkpt lat="42.67488" lon="1.39916">
        <ele>2844.6787109375</ele>
        <time>2012-06-23T10:32:44Z</time>
      </trkpt>
      <trkpt lat="42.67485" lon="1.39918">
        <ele>2846.1206054688</ele>
        <time>2012-06-23T10:32:51Z</time>
      </trkpt>
      <trkpt lat="42.67484" lon="1.39921">
        <ele>2846.6010742188</ele>
        <time>2012-06-23T10:32:59Z</time>
      </trkpt>
      <trkpt lat="42.67482" lon="1.39922">
        <ele>2848.04296875</ele>
        <time>2012-06-23T10:33:05Z</time>
      </trkpt>
      <trkpt lat="42.6748" lon="1.39921">
        <ele>2850.9267578125</ele>
        <time>2012-06-23T10:33:11Z</time>
      </trkpt>
      <trkpt lat="42.67476" lon="1.3992">
        <ele>2853.8110351562</ele>
        <time>2012-06-23T10:33:20Z</time>
      </trkpt>
      <trkpt lat="42.67474" lon="1.39923">
        <ele>2855.2529296875</ele>
        <time>2012-06-23T10:33:26Z</time>
      </trkpt>
      <trkpt lat="42.67472" lon="1.39924">
        <ele>2857.1752929688</ele>
        <time>2012-06-23T10:33:31Z</time>
      </trkpt>
      <trkpt lat="42.67468" lon="1.39926">
        <ele>2858.13671875</ele>
        <time>2012-06-23T10:33:37Z</time>
      </trkpt>
      <trkpt lat="42.67465" lon="1.39929">
        <ele>2858.13671875</ele>
        <time>2012-06-23T10:33:43Z</time>
      </trkpt>
      <trkpt lat="42.67465" lon="1.39928">
        <ele>2857.65625</ele>
        <time>2012-06-23T10:33:50Z</time>
      </trkpt>
      <trkpt lat="42.67465" lon="1.39927">
        <ele>2854.2915039062</ele>
        <time>2012-06-23T10:33:57Z</time>
      </trkpt>
      <trkpt lat="42.67463" lon="1.39924">
        <ele>2851.8881835938</ele>
        <time>2012-06-23T10:34:04Z</time>
      </trkpt>
      <trkpt lat="42.67464" lon="1.39925">
        <ele>2851.8881835938</ele>
        <time>2012-06-23T10:34:08Z</time>
      </trkpt>
      <trkpt lat="42.67465" lon="1.39926">
        <ele>2851.8881835938</ele>
        <time>2012-06-23T10:34:15Z</time>
      </trkpt>
      <trkpt lat="42.67465" lon="1.39926">
        <ele>2852.369140625</ele>
        <time>2012-06-23T10:34:21Z</time>
      </trkpt>
      <trkpt lat="42.67465" lon="1.39926">
        <ele>2853.330078125</ele>
        <time>2012-06-23T10:34:36Z</time>
      </trkpt>
      <trkpt lat="42.67465" lon="1.39927">
        <ele>2853.330078125</ele>
        <time>2012-06-23T10:34:43Z</time>
      </trkpt>
      <trkpt lat="42.67465" lon="1.39927">
        <ele>2852.369140625</ele>
        <time>2012-06-23T10:34:50Z</time>
      </trkpt>
      <trkpt lat="42.67464" lon="1.39928">
        <ele>2853.330078125</ele>
        <time>2012-06-23T10:34:56Z</time>
      </trkpt>
      <trkpt lat="42.67466" lon="1.3993">
        <ele>2855.7333984375</ele>
        <time>2012-06-23T10:35:10Z</time>
      </trkpt>
      <trkpt lat="42.67465" lon="1.3993">
        <ele>2855.2529296875</ele>
        <time>2012-06-23T10:35:19Z</time>
      </trkpt>
      <trkpt lat="42.67461" lon="1.3993">
        <ele>2854.2915039062</ele>
        <time>2012-06-23T10:35:26Z</time>
      </trkpt>
      <trkpt lat="42.67459" lon="1.39933">
        <ele>2853.330078125</ele>
        <time>2012-06-23T10:35:31Z</time>
      </trkpt>
      <trkpt lat="42.67458" lon="1.39933">
        <ele>2853.330078125</ele>
        <time>2012-06-23T10:35:38Z</time>
      </trkpt>
      <trkpt lat="42.67458" lon="1.39933">
        <ele>2852.849609375</ele>
        <time>2012-06-23T10:35:51Z</time>
      </trkpt>
      <trkpt lat="42.67456" lon="1.39934">
        <ele>2853.330078125</ele>
        <time>2012-06-23T10:36:05Z</time>
      </trkpt>
      <trkpt lat="42.67449" lon="1.39935">
        <ele>2854.2915039062</ele>
        <time>2012-06-23T10:36:12Z</time>
      </trkpt>
      <trkpt lat="42.67443" lon="1.39936">
        <ele>2855.2529296875</ele>
        <time>2012-06-23T10:36:19Z</time>
      </trkpt>
      <trkpt lat="42.67437" lon="1.39938">
        <ele>2856.6948242188</ele>
        <time>2012-06-23T10:36:26Z</time>
      </trkpt>
      <trkpt lat="42.67432" lon="1.39939">
        <ele>2857.65625</ele>
        <time>2012-06-23T10:36:32Z</time>
      </trkpt>
      <trkpt lat="42.67427" lon="1.3994">
        <ele>2858.6171875</ele>
        <time>2012-06-23T10:36:38Z</time>
      </trkpt>
      <trkpt lat="42.67421" lon="1.3994">
        <ele>2858.6171875</ele>
        <time>2012-06-23T10:36:44Z</time>
      </trkpt>
      <trkpt lat="42.67416" lon="1.39941">
        <ele>2858.6171875</ele>
        <time>2012-06-23T10:36:51Z</time>
      </trkpt>
      <trkpt lat="42.67409" lon="1.39943">
        <ele>2858.6171875</ele>
        <time>2012-06-23T10:36:59Z</time>
      </trkpt>
      <trkpt lat="42.67405" lon="1.39943">
        <ele>2859.0981445312</ele>
        <time>2012-06-23T10:37:04Z</time>
      </trkpt>
      <trkpt lat="42.67402" lon="1.39944">
        <ele>2860.0595703125</ele>
        <time>2012-06-23T10:37:09Z</time>
      </trkpt>
      <trkpt lat="42.67398" lon="1.39943">
        <ele>2861.0205078125</ele>
        <time>2012-06-23T10:37:15Z</time>
      </trkpt>
      <trkpt lat="42.67396" lon="1.39942">
        <ele>2861.5014648438</ele>
        <time>2012-06-23T10:37:21Z</time>
      </trkpt>
      <trkpt lat="42.67393" lon="1.39944">
        <ele>2861.9819335938</ele>
        <time>2012-06-23T10:37:27Z</time>
      </trkpt>
      <trkpt lat="42.67389" lon="1.39945">
        <ele>2861.9819335938</ele>
        <time>2012-06-23T10:37:35Z</time>
      </trkpt>
      <trkpt lat="42.67386" lon="1.39944">
        <ele>2862.462890625</ele>
        <time>2012-06-23T10:37:41Z</time>
      </trkpt>
      <trkpt lat="42.67384" lon="1.39942">
        <ele>2862.943359375</ele>
        <time>2012-06-23T10:37:47Z</time>
      </trkpt>
      <trkpt lat="42.67379" lon="1.39946">
        <ele>2864.3852539062</ele>
        <time>2012-06-23T10:37:54Z</time>
      </trkpt>
      <trkpt lat="42.67374" lon="1.3995">
        <ele>2865.3466796875</ele>
        <time>2012-06-23T10:38:01Z</time>
      </trkpt>
      <trkpt lat="42.6737" lon="1.39952">
        <ele>2865.8271484375</ele>
        <time>2012-06-23T10:38:06Z</time>
      </trkpt>
      <trkpt lat="42.67365" lon="1.39955">
        <ele>2865.3466796875</ele>
        <time>2012-06-23T10:38:12Z</time>
      </trkpt>
      <trkpt lat="42.67362" lon="1.39958">
        <ele>2864.8657226562</ele>
        <time>2012-06-23T10:38:17Z</time>
      </trkpt>
      <trkpt lat="42.67358" lon="1.3996">
        <ele>2865.3466796875</ele>
        <time>2012-06-23T10:38:23Z</time>
      </trkpt>
      <trkpt lat="42.67354" lon="1.39962">
        <ele>2865.8271484375</ele>
        <time>2012-06-23T10:38:29Z</time>
      </trkpt>
      <trkpt lat="42.6735" lon="1.39965">
        <ele>2865.8271484375</ele>
        <time>2012-06-23T10:38:35Z</time>
      </trkpt>
      <trkpt lat="42.67345" lon="1.39966">
        <ele>2866.3076171875</ele>
        <time>2012-06-23T10:38:41Z</time>
      </trkpt>
      <trkpt lat="42.67342" lon="1.39966">
        <ele>2866.3076171875</ele>
        <time>2012-06-23T10:38:46Z</time>
      </trkpt>
      <trkpt lat="42.67339" lon="1.39967">
        <ele>2867.2690429688</ele>
        <time>2012-06-23T10:38:51Z</time>
      </trkpt>
      <trkpt lat="42.67336" lon="1.39968">
        <ele>2868.7114257812</ele>
        <time>2012-06-23T10:38:56Z</time>
      </trkpt>
      <trkpt lat="42.67333" lon="1.39969">
        <ele>2868.7114257812</ele>
        <time>2012-06-23T10:39:01Z</time>
      </trkpt>
      <trkpt lat="42.67328" lon="1.39969">
        <ele>2867.75</ele>
        <time>2012-06-23T10:39:08Z</time>
      </trkpt>
      <trkpt lat="42.67325" lon="1.39971">
        <ele>2868.7114257812</ele>
        <time>2012-06-23T10:39:13Z</time>
      </trkpt>
      <trkpt lat="42.67322" lon="1.39973">
        <ele>2870.1538085938</ele>
        <time>2012-06-23T10:39:19Z</time>
      </trkpt>
      <trkpt lat="42.67319" lon="1.39974">
        <ele>2871.595703125</ele>
        <time>2012-06-23T10:39:25Z</time>
      </trkpt>
      <trkpt lat="42.67317" lon="1.39974">
        <ele>2871.595703125</ele>
        <time>2012-06-23T10:39:31Z</time>
      </trkpt>
      <trkpt lat="42.67314" lon="1.39973">
        <ele>2873.0375976562</ele>
        <time>2012-06-23T10:39:36Z</time>
      </trkpt>
      <trkpt lat="42.67313" lon="1.3997">
        <ele>2874.4794921875</ele>
        <time>2012-06-23T10:39:42Z</time>
      </trkpt>
      <trkpt lat="42.67311" lon="1.39968">
        <ele>2876.4018554688</ele>
        <time>2012-06-23T10:39:49Z</time>
      </trkpt>
      <trkpt lat="42.67309" lon="1.39965">
        <ele>2878.3247070312</ele>
        <time>2012-06-23T10:39:55Z</time>
      </trkpt>
      <trkpt lat="42.67308" lon="1.39963">
        <ele>2879.2861328125</ele>
        <time>2012-06-23T10:40:00Z</time>
      </trkpt>
      <trkpt lat="42.67305" lon="1.39961">
        <ele>2879.2861328125</ele>
        <time>2012-06-23T10:40:06Z</time>
      </trkpt>
      <trkpt lat="42.67302" lon="1.39958">
        <ele>2879.7666015625</ele>
        <time>2012-06-23T10:40:12Z</time>
      </trkpt>
      <trkpt lat="42.673" lon="1.39956">
        <ele>2880.2470703125</ele>
        <time>2012-06-23T10:40:17Z</time>
      </trkpt>
      <trkpt lat="42.67299" lon="1.39955">
        <ele>2882.169921875</ele>
        <time>2012-06-23T10:40:22Z</time>
      </trkpt>
      <trkpt lat="42.67297" lon="1.39954">
        <ele>2882.169921875</ele>
        <time>2012-06-23T10:40:28Z</time>
      </trkpt>
      <trkpt lat="42.67296" lon="1.39952">
        <ele>2882.650390625</ele>
        <time>2012-06-23T10:40:34Z</time>
      </trkpt>
      <trkpt lat="42.67294" lon="1.3995">
        <ele>2882.650390625</ele>
        <time>2012-06-23T10:40:40Z</time>
      </trkpt>
      <trkpt lat="42.67293" lon="1.39948">
        <ele>2883.1313476562</ele>
        <time>2012-06-23T10:40:46Z</time>
      </trkpt>
      <trkpt lat="42.67292" lon="1.39946">
        <ele>2883.6118164062</ele>
        <time>2012-06-23T10:40:52Z</time>
      </trkpt>
      <trkpt lat="42.67289" lon="1.39945">
        <ele>2885.0537109375</ele>
        <time>2012-06-23T10:40:58Z</time>
      </trkpt>
      <trkpt lat="42.67287" lon="1.39945">
        <ele>2885.0537109375</ele>
        <time>2012-06-23T10:41:03Z</time>
      </trkpt>
      <trkpt lat="42.67284" lon="1.39946">
        <ele>2884.0922851562</ele>
        <time>2012-06-23T10:41:11Z</time>
      </trkpt>
      <trkpt lat="42.67282" lon="1.39947">
        <ele>2885.0537109375</ele>
        <time>2012-06-23T10:41:17Z</time>
      </trkpt>
      <trkpt lat="42.67281" lon="1.39949">
        <ele>2883.6118164062</ele>
        <time>2012-06-23T10:41:24Z</time>
      </trkpt>
      <trkpt lat="42.6728" lon="1.39955">
        <ele>2883.1313476562</ele>
        <time>2012-06-23T10:41:31Z</time>
      </trkpt>
      <trkpt lat="42.67278" lon="1.39959">
        <ele>2883.6118164062</ele>
        <time>2012-06-23T10:41:35Z</time>
      </trkpt>
      <trkpt lat="42.67275" lon="1.39962">
        <ele>2885.5346679688</ele>
        <time>2012-06-23T10:41:41Z</time>
      </trkpt>
      <trkpt lat="42.67275" lon="1.39961">
        <ele>2884.0922851562</ele>
        <time>2012-06-23T10:41:50Z</time>
      </trkpt>
      <trkpt lat="42.67271" lon="1.39959">
        <ele>2879.2861328125</ele>
        <time>2012-06-23T10:42:05Z</time>
      </trkpt>
      <trkpt lat="42.67268" lon="1.3996">
        <ele>2882.169921875</ele>
        <time>2012-06-23T10:42:10Z</time>
      </trkpt>
      <trkpt lat="42.67267" lon="1.39963">
        <ele>2886.0151367188</ele>
        <time>2012-06-23T10:42:16Z</time>
      </trkpt>
      <trkpt lat="42.67263" lon="1.39964">
        <ele>2891.3022460938</ele>
        <time>2012-06-23T10:42:24Z</time>
      </trkpt>
      <trkpt lat="42.67261" lon="1.39962">
        <ele>2891.7827148438</ele>
        <time>2012-06-23T10:42:28Z</time>
      </trkpt>
      <trkpt lat="42.67257" lon="1.39961">
        <ele>2890.8217773438</ele>
        <time>2012-06-23T10:42:35Z</time>
      </trkpt>
      <trkpt lat="42.67253" lon="1.39957">
        <ele>2890.3408203125</ele>
        <time>2012-06-23T10:42:42Z</time>
      </trkpt>
      <trkpt lat="42.67249" lon="1.39957">
        <ele>2892.263671875</ele>
        <time>2012-06-23T10:42:48Z</time>
      </trkpt>
      <trkpt lat="42.67245" lon="1.3996">
        <ele>2892.263671875</ele>
        <time>2012-06-23T10:42:53Z</time>
      </trkpt>
      <trkpt lat="42.6724" lon="1.39963">
        <ele>2892.263671875</ele>
        <time>2012-06-23T10:43:00Z</time>
      </trkpt>
      <trkpt lat="42.67237" lon="1.39965">
        <ele>2892.263671875</ele>
        <time>2012-06-23T10:43:05Z</time>
      </trkpt>
      <trkpt lat="42.67229" lon="1.39966">
        <ele>2893.7055664062</ele>
        <time>2012-06-23T10:43:14Z</time>
      </trkpt>
      <trkpt lat="42.67222" lon="1.39969">
        <ele>2894.1860351562</ele>
        <time>2012-06-23T10:43:22Z</time>
      </trkpt>
      <trkpt lat="42.67217" lon="1.39969">
        <ele>2894.1860351562</ele>
        <time>2012-06-23T10:43:28Z</time>
      </trkpt>
      <trkpt lat="42.67212" lon="1.3997">
        <ele>2896.1088867188</ele>
        <time>2012-06-23T10:43:35Z</time>
      </trkpt>
      <trkpt lat="42.67207" lon="1.39971">
        <ele>2896.1088867188</ele>
        <time>2012-06-23T10:43:40Z</time>
      </trkpt>
      <trkpt lat="42.67201" lon="1.39972">
        <ele>2895.6279296875</ele>
        <time>2012-06-23T10:43:47Z</time>
      </trkpt>
      <trkpt lat="42.67196" lon="1.39972">
        <ele>2896.1088867188</ele>
        <time>2012-06-23T10:43:54Z</time>
      </trkpt>
      <trkpt lat="42.67191" lon="1.39973">
        <ele>2896.5893554688</ele>
        <time>2012-06-23T10:44:00Z</time>
      </trkpt>
      <trkpt lat="42.67188" lon="1.39973">
        <ele>2897.55078125</ele>
        <time>2012-06-23T10:44:05Z</time>
      </trkpt>
      <trkpt lat="42.67184" lon="1.39972">
        <ele>2898.9926757812</ele>
        <time>2012-06-23T10:44:11Z</time>
      </trkpt>
      <trkpt lat="42.67182" lon="1.39972">
        <ele>2898.5122070312</ele>
        <time>2012-06-23T10:44:17Z</time>
      </trkpt>
      <trkpt lat="42.6718" lon="1.39972">
        <ele>2898.9926757812</ele>
        <time>2012-06-23T10:44:23Z</time>
      </trkpt>
      <trkpt lat="42.67177" lon="1.39973">
        <ele>2899.4731445312</ele>
        <time>2012-06-23T10:44:31Z</time>
      </trkpt>
      <trkpt lat="42.67175" lon="1.39974">
        <ele>2900.4350585938</ele>
        <time>2012-06-23T10:44:35Z</time>
      </trkpt>
      <trkpt lat="42.67173" lon="1.39976">
        <ele>2902.3579101562</ele>
        <time>2012-06-23T10:44:42Z</time>
      </trkpt>
      <trkpt lat="42.67171" lon="1.39977">
        <ele>2903.3188476562</ele>
        <time>2012-06-23T10:44:49Z</time>
      </trkpt>
      <trkpt lat="42.67169" lon="1.39977">
        <ele>2901.396484375</ele>
        <time>2012-06-23T10:44:55Z</time>
      </trkpt>
      <trkpt lat="42.67168" lon="1.39978">
        <ele>2902.8383789062</ele>
        <time>2012-06-23T10:45:03Z</time>
      </trkpt>
      <trkpt lat="42.67167" lon="1.39979">
        <ele>2905.2416992188</ele>
        <time>2012-06-23T10:45:10Z</time>
      </trkpt>
      <trkpt lat="42.67167" lon="1.39979">
        <ele>2907.1640625</ele>
        <time>2012-06-23T10:45:20Z</time>
      </trkpt>
      <trkpt lat="42.67168" lon="1.39981">
        <ele>2905.2416992188</ele>
        <time>2012-06-23T10:45:34Z</time>
      </trkpt>
      <trkpt lat="42.67167" lon="1.39984">
        <ele>2904.2802734375</ele>
        <time>2012-06-23T10:45:39Z</time>
      </trkpt>
      <trkpt lat="42.67164" lon="1.39986">
        <ele>2904.2802734375</ele>
        <time>2012-06-23T10:45:45Z</time>
      </trkpt>
      <trkpt lat="42.67162" lon="1.39986">
        <ele>2904.7607421875</ele>
        <time>2012-06-23T10:45:51Z</time>
      </trkpt>
      <trkpt lat="42.6716" lon="1.39983">
        <ele>2905.7221679688</ele>
        <time>2012-06-23T10:45:56Z</time>
      </trkpt>
      <trkpt lat="42.6716" lon="1.39982">
        <ele>2906.68359375</ele>
        <time>2012-06-23T10:46:01Z</time>
      </trkpt>
      <trkpt lat="42.67157" lon="1.39983">
        <ele>2907.6450195312</ele>
        <time>2012-06-23T10:46:07Z</time>
      </trkpt>
      <trkpt lat="42.67154" lon="1.39981">
        <ele>2908.6064453125</ele>
        <time>2012-06-23T10:46:13Z</time>
      </trkpt>
      <trkpt lat="42.67152" lon="1.39981">
        <ele>2911.0092773438</ele>
        <time>2012-06-23T10:46:21Z</time>
      </trkpt>
      <trkpt lat="42.67149" lon="1.39979">
        <ele>2911.970703125</ele>
        <time>2012-06-23T10:46:28Z</time>
      </trkpt>
      <trkpt lat="42.67147" lon="1.39978">
        <ele>2908.6064453125</ele>
        <time>2012-06-23T10:46:38Z</time>
      </trkpt>
      <trkpt lat="42.67146" lon="1.39978">
        <ele>2908.1254882812</ele>
        <time>2012-06-23T10:46:47Z</time>
      </trkpt>
      <trkpt lat="42.67144" lon="1.39981">
        <ele>2907.6450195312</ele>
        <time>2012-06-23T10:47:02Z</time>
      </trkpt>
      <trkpt lat="42.67141" lon="1.39983">
        <ele>2907.6450195312</ele>
        <time>2012-06-23T10:47:06Z</time>
      </trkpt>
      <trkpt lat="42.67138" lon="1.39984">
        <ele>2910.5288085938</ele>
        <time>2012-06-23T10:47:13Z</time>
      </trkpt>
      <trkpt lat="42.67138" lon="1.39986">
        <ele>2914.8544921875</ele>
        <time>2012-06-23T10:47:20Z</time>
      </trkpt>
      <trkpt lat="42.67137" lon="1.39986">
        <ele>2915.3354492188</ele>
        <time>2012-06-23T10:47:27Z</time>
      </trkpt>
      <trkpt lat="42.67137" lon="1.39986">
        <ele>2914.8544921875</ele>
        <time>2012-06-23T10:47:28Z</time>
      </trkpt>
      <trkpt lat="42.67131" lon="1.39983">
        <ele>2912.451171875</ele>
        <time>2012-06-23T10:47:35Z</time>
      </trkpt>
      <trkpt lat="42.67128" lon="1.39985">
        <ele>2911.970703125</ele>
        <time>2012-06-23T10:47:41Z</time>
      </trkpt>
      <trkpt lat="42.67129" lon="1.39988">
        <ele>2912.451171875</ele>
        <time>2012-06-23T10:47:45Z</time>
      </trkpt>
      <trkpt lat="42.67129" lon="1.39993">
        <ele>2911.970703125</ele>
        <time>2012-06-23T10:47:51Z</time>
      </trkpt>
      <trkpt lat="42.67125" lon="1.39996">
        <ele>2911.970703125</ele>
        <time>2012-06-23T10:47:56Z</time>
      </trkpt>
      <trkpt lat="42.67124" lon="1.4">
        <ele>2911.970703125</ele>
        <time>2012-06-23T10:48:00Z</time>
      </trkpt>
      <trkpt lat="42.67124" lon="1.40003">
        <ele>2913.4125976562</ele>
        <time>2012-06-23T10:48:04Z</time>
      </trkpt>
      <trkpt lat="42.67122" lon="1.40005">
        <ele>2913.8935546875</ele>
        <time>2012-06-23T10:48:07Z</time>
      </trkpt>
      <trkpt lat="42.67122" lon="1.40008">
        <ele>2913.8935546875</ele>
        <time>2012-06-23T10:48:11Z</time>
      </trkpt>
      <trkpt lat="42.6712" lon="1.40012">
        <ele>2914.8544921875</ele>
        <time>2012-06-23T10:48:16Z</time>
      </trkpt>
      <trkpt lat="42.67118" lon="1.40018">
        <ele>2917.2578125</ele>
        <time>2012-06-23T10:48:23Z</time>
      </trkpt>
      <trkpt lat="42.67117" lon="1.40025">
        <ele>2920.1416015625</ele>
        <time>2012-06-23T10:48:30Z</time>
      </trkpt>
      <trkpt lat="42.67115" lon="1.40031">
        <ele>2922.544921875</ele>
        <time>2012-06-23T10:48:37Z</time>
      </trkpt>
      <trkpt lat="42.67114" lon="1.40034">
        <ele>2923.9873046875</ele>
        <time>2012-06-23T10:48:46Z</time>
      </trkpt>
      <trkpt lat="42.67113" lon="1.40037">
        <ele>2923.5063476562</ele>
        <time>2012-06-23T10:48:53Z</time>
      </trkpt>
      <trkpt lat="42.67113" lon="1.40042">
        <ele>2923.9873046875</ele>
        <time>2012-06-23T10:48:59Z</time>
      </trkpt>
      <trkpt lat="42.67113" lon="1.40047">
        <ele>2925.4291992188</ele>
        <time>2012-06-23T10:49:05Z</time>
      </trkpt>
      <trkpt lat="42.67111" lon="1.40052">
        <ele>2927.83203125</ele>
        <time>2012-06-23T10:49:11Z</time>
      </trkpt>
      <trkpt lat="42.67109" lon="1.40056">
        <ele>2928.3129882812</ele>
        <time>2012-06-23T10:49:17Z</time>
      </trkpt>
      <trkpt lat="42.67109" lon="1.40059">
        <ele>2927.3515625</ele>
        <time>2012-06-23T10:49:22Z</time>
      </trkpt>
      <trkpt lat="42.67107" lon="1.40063">
        <ele>2927.3515625</ele>
        <time>2012-06-23T10:49:27Z</time>
      </trkpt>
      <trkpt lat="42.67105" lon="1.40066">
        <ele>2927.83203125</ele>
        <time>2012-06-23T10:49:33Z</time>
      </trkpt>
      <trkpt lat="42.67104" lon="1.40068">
        <ele>2929.2744140625</ele>
        <time>2012-06-23T10:49:37Z</time>
      </trkpt>
      <trkpt lat="42.67103" lon="1.40071">
        <ele>2929.7548828125</ele>
        <time>2012-06-23T10:49:42Z</time>
      </trkpt>
      <trkpt lat="42.67099" lon="1.40073">
        <ele>2931.677734375</ele>
        <time>2012-06-23T10:49:48Z</time>
      </trkpt>
      <trkpt lat="42.67093" lon="1.40075">
        <ele>2932.1586914062</ele>
        <time>2012-06-23T10:49:54Z</time>
      </trkpt>
      <trkpt lat="42.6709" lon="1.40079">
        <ele>2933.1201171875</ele>
        <time>2012-06-23T10:50:01Z</time>
      </trkpt>
      <trkpt lat="42.67087" lon="1.40085">
        <ele>2933.1201171875</ele>
        <time>2012-06-23T10:50:07Z</time>
      </trkpt>
      <trkpt lat="42.67082" lon="1.40088">
        <ele>2934.0810546875</ele>
        <time>2012-06-23T10:50:13Z</time>
      </trkpt>
      <trkpt lat="42.67082" lon="1.40091">
        <ele>2934.0810546875</ele>
        <time>2012-06-23T10:50:21Z</time>
      </trkpt>
      <trkpt lat="42.67081" lon="1.40097">
        <ele>2935.5229492188</ele>
        <time>2012-06-23T10:50:29Z</time>
      </trkpt>
      <trkpt lat="42.67082" lon="1.40101">
        <ele>2936.484375</ele>
        <time>2012-06-23T10:50:35Z</time>
      </trkpt>
      <trkpt lat="42.67084" lon="1.40105">
        <ele>2938.4072265625</ele>
        <time>2012-06-23T10:50:41Z</time>
      </trkpt>
      <trkpt lat="42.67081" lon="1.40109">
        <ele>2939.8491210938</ele>
        <time>2012-06-23T10:50:46Z</time>
      </trkpt>
      <trkpt lat="42.67081" lon="1.40112">
        <ele>2941.291015625</ele>
        <time>2012-06-23T10:50:52Z</time>
      </trkpt>
      <trkpt lat="42.6708" lon="1.40117">
        <ele>2943.2133789062</ele>
        <time>2012-06-23T10:50:59Z</time>
      </trkpt>
      <trkpt lat="42.67085" lon="1.40119">
        <ele>2945.6166992188</ele>
        <time>2012-06-23T10:51:06Z</time>
      </trkpt>
      <trkpt lat="42.67083" lon="1.40123">
        <ele>2947.5395507812</ele>
        <time>2012-06-23T10:51:12Z</time>
      </trkpt>
      <trkpt lat="42.67081" lon="1.40126">
        <ele>2948.9814453125</ele>
        <time>2012-06-23T10:51:18Z</time>
      </trkpt>
      <trkpt lat="42.6708" lon="1.40131">
        <ele>2950.4233398438</ele>
        <time>2012-06-23T10:51:25Z</time>
      </trkpt>
      <trkpt lat="42.67079" lon="1.40134">
        <ele>2951.384765625</ele>
        <time>2012-06-23T10:51:32Z</time>
      </trkpt>
      <trkpt lat="42.67079" lon="1.40136">
        <ele>2951.384765625</ele>
        <time>2012-06-23T10:51:38Z</time>
      </trkpt>
      <trkpt lat="42.6708" lon="1.40138">
        <ele>2951.865234375</ele>
        <time>2012-06-23T10:51:43Z</time>
      </trkpt>
      <trkpt lat="42.67081" lon="1.4014">
        <ele>2952.3461914062</ele>
        <time>2012-06-23T10:51:51Z</time>
      </trkpt>
      <trkpt lat="42.67082" lon="1.40142">
        <ele>2952.8266601562</ele>
        <time>2012-06-23T10:51:59Z</time>
      </trkpt>
      <trkpt lat="42.67083" lon="1.40146">
        <ele>2954.7495117188</ele>
        <time>2012-06-23T10:52:06Z</time>
      </trkpt>
      <trkpt lat="42.67084" lon="1.4015">
        <ele>2956.671875</ele>
        <time>2012-06-23T10:52:13Z</time>
      </trkpt>
      <trkpt lat="42.67083" lon="1.40151">
        <ele>2957.6333007812</ele>
        <time>2012-06-23T10:52:20Z</time>
      </trkpt>
      <trkpt lat="42.67085" lon="1.40154">
        <ele>2959.0751953125</ele>
        <time>2012-06-23T10:52:25Z</time>
      </trkpt>
      <trkpt lat="42.67085" lon="1.40157">
        <ele>2960.0366210938</ele>
        <time>2012-06-23T10:52:30Z</time>
      </trkpt>
      <trkpt lat="42.67085" lon="1.40159">
        <ele>2960.5170898438</ele>
        <time>2012-06-23T10:52:35Z</time>
      </trkpt>
      <trkpt lat="42.67085" lon="1.40159">
        <ele>2961.478515625</ele>
        <time>2012-06-23T10:52:44Z</time>
      </trkpt>
      <trkpt lat="42.67085" lon="1.40162">
        <ele>2962.4399414062</ele>
        <time>2012-06-23T10:52:49Z</time>
      </trkpt>
      <trkpt lat="42.67088" lon="1.40162">
        <ele>2964.3627929688</ele>
        <time>2012-06-23T10:52:55Z</time>
      </trkpt>
      <trkpt lat="42.67089" lon="1.40164">
        <ele>2965.32421875</ele>
        <time>2012-06-23T10:53:00Z</time>
      </trkpt>
      <trkpt lat="42.67086" lon="1.40167">
        <ele>2966.7661132812</ele>
        <time>2012-06-23T10:53:05Z</time>
      </trkpt>
      <trkpt lat="42.67086" lon="1.4017">
        <ele>2967.2465820312</ele>
        <time>2012-06-23T10:53:11Z</time>
      </trkpt>
      <trkpt lat="42.67088" lon="1.40173">
        <ele>2968.2080078125</ele>
        <time>2012-06-23T10:53:17Z</time>
      </trkpt>
      <trkpt lat="42.67091" lon="1.40174">
        <ele>2969.1694335938</ele>
        <time>2012-06-23T10:53:22Z</time>
      </trkpt>
      <trkpt lat="42.67093" lon="1.40177">
        <ele>2970.130859375</ele>
        <time>2012-06-23T10:53:27Z</time>
      </trkpt>
      <trkpt lat="42.67093" lon="1.40179">
        <ele>2970.611328125</ele>
        <time>2012-06-23T10:53:33Z</time>
      </trkpt>
      <trkpt lat="42.67092" lon="1.40179">
        <ele>2972.5336914062</ele>
        <time>2012-06-23T10:53:46Z</time>
      </trkpt>
      <trkpt lat="42.67093" lon="1.40181">
        <ele>2972.0532226562</ele>
        <time>2012-06-23T10:53:52Z</time>
      </trkpt>
      <trkpt lat="42.67092" lon="1.40186">
        <ele>2972.5336914062</ele>
        <time>2012-06-23T10:53:59Z</time>
      </trkpt>
      <trkpt lat="42.6709" lon="1.4019">
        <ele>2973.0146484375</ele>
        <time>2012-06-23T10:54:05Z</time>
      </trkpt>
      <trkpt lat="42.67086" lon="1.40193">
        <ele>2974.9370117188</ele>
        <time>2012-06-23T10:54:11Z</time>
      </trkpt>
      <trkpt lat="42.67083" lon="1.40195">
        <ele>2976.8598632812</ele>
        <time>2012-06-23T10:54:17Z</time>
      </trkpt>
      <trkpt lat="42.67085" lon="1.40198">
        <ele>2978.7822265625</ele>
        <time>2012-06-23T10:54:24Z</time>
      </trkpt>
      <trkpt lat="42.67083" lon="1.402">
        <ele>2979.7436523438</ele>
        <time>2012-06-23T10:54:29Z</time>
      </trkpt>
      <trkpt lat="42.67083" lon="1.40203">
        <ele>2980.705078125</ele>
        <time>2012-06-23T10:54:35Z</time>
      </trkpt>
      <trkpt lat="42.67083" lon="1.40206">
        <ele>2981.185546875</ele>
        <time>2012-06-23T10:54:41Z</time>
      </trkpt>
      <trkpt lat="42.6708" lon="1.40209">
        <ele>2982.6274414062</ele>
        <time>2012-06-23T10:54:47Z</time>
      </trkpt>
      <trkpt lat="42.67082" lon="1.40212">
        <ele>2983.1083984375</ele>
        <time>2012-06-23T10:54:52Z</time>
      </trkpt>
      <trkpt lat="42.67082" lon="1.40215">
        <ele>2983.5888671875</ele>
        <time>2012-06-23T10:54:57Z</time>
      </trkpt>
      <trkpt lat="42.67081" lon="1.40219">
        <ele>2984.5502929688</ele>
        <time>2012-06-23T10:55:03Z</time>
      </trkpt>
      <trkpt lat="42.67081" lon="1.40221">
        <ele>2985.51171875</ele>
        <time>2012-06-23T10:55:09Z</time>
      </trkpt>
      <trkpt lat="42.67082" lon="1.40221">
        <ele>2986.47265625</ele>
        <time>2012-06-23T10:55:18Z</time>
      </trkpt>
      <trkpt lat="42.67085" lon="1.40223">
        <ele>2987.9145507812</ele>
        <time>2012-06-23T10:55:30Z</time>
      </trkpt>
      <trkpt lat="42.67088" lon="1.40223">
        <ele>2988.8759765625</ele>
        <time>2012-06-23T10:55:37Z</time>
      </trkpt>
      <trkpt lat="42.67091" lon="1.40224">
        <ele>2990.3178710938</ele>
        <time>2012-06-23T10:55:42Z</time>
      </trkpt>
      <trkpt lat="42.67092" lon="1.4023">
        <ele>2993.2021484375</ele>
        <time>2012-06-23T10:55:51Z</time>
      </trkpt>
      <trkpt lat="42.67096" lon="1.40232">
        <ele>2994.6440429688</ele>
        <time>2012-06-23T10:55:58Z</time>
      </trkpt>
      <trkpt lat="42.67099" lon="1.40233">
        <ele>2996.5668945312</ele>
        <time>2012-06-23T10:56:05Z</time>
      </trkpt>
      <trkpt lat="42.67098" lon="1.40238">
        <ele>2997.5283203125</ele>
        <time>2012-06-23T10:56:12Z</time>
      </trkpt>
      <trkpt lat="42.67098" lon="1.40244">
        <ele>2998.9702148438</ele>
        <time>2012-06-23T10:56:21Z</time>
      </trkpt>
      <trkpt lat="42.67099" lon="1.40243">
        <ele>2999.931640625</ele>
        <time>2012-06-23T10:56:29Z</time>
      </trkpt>
      <trkpt lat="42.67101" lon="1.40241">
        <ele>3001.3735351562</ele>
        <time>2012-06-23T10:56:39Z</time>
      </trkpt>
      <trkpt lat="42.67103" lon="1.40243">
        <ele>3003.2958984375</ele>
        <time>2012-06-23T10:56:45Z</time>
      </trkpt>
      <trkpt lat="42.67105" lon="1.40248">
        <ele>3004.2573242188</ele>
        <time>2012-06-23T10:56:52Z</time>
      </trkpt>
      <trkpt lat="42.67107" lon="1.40251">
        <ele>3005.21875</ele>
        <time>2012-06-23T10:56:59Z</time>
      </trkpt>
      <trkpt lat="42.67109" lon="1.40251">
        <ele>3006.1801757812</ele>
        <time>2012-06-23T10:57:04Z</time>
      </trkpt>
      <trkpt lat="42.6711" lon="1.40252">
        <ele>3006.6606445312</ele>
        <time>2012-06-23T10:57:08Z</time>
      </trkpt>
      <trkpt lat="42.67111" lon="1.40256">
        <ele>3007.1411132812</ele>
        <time>2012-06-23T10:57:14Z</time>
      </trkpt>
      <trkpt lat="42.67112" lon="1.40257">
        <ele>3007.1411132812</ele>
        <time>2012-06-23T10:57:20Z</time>
      </trkpt>
      <trkpt lat="42.67112" lon="1.40257">
        <ele>3007.1411132812</ele>
        <time>2012-06-23T10:57:33Z</time>
      </trkpt>
      <trkpt lat="42.67113" lon="1.40258">
        <ele>3008.1025390625</ele>
        <time>2012-06-23T10:57:46Z</time>
      </trkpt>
      <trkpt lat="42.67116" lon="1.40255">
        <ele>3009.0639648438</ele>
        <time>2012-06-23T10:57:53Z</time>
      </trkpt>
      <trkpt lat="42.67119" lon="1.40253">
        <ele>3010.505859375</ele>
        <time>2012-06-23T10:57:59Z</time>
      </trkpt>
      <trkpt lat="42.6712" lon="1.40255">
        <ele>3011.9477539062</ele>
        <time>2012-06-23T10:58:04Z</time>
      </trkpt>
      <trkpt lat="42.67122" lon="1.40256">
        <ele>3013.8706054688</ele>
        <time>2012-06-23T10:58:11Z</time>
      </trkpt>
      <trkpt lat="42.67125" lon="1.40254">
        <ele>3014.8315429688</ele>
        <time>2012-06-23T10:58:18Z</time>
      </trkpt>
      <trkpt lat="42.67126" lon="1.40252">
        <ele>3015.79296875</ele>
        <time>2012-06-23T10:58:23Z</time>
      </trkpt>
      <trkpt lat="42.67128" lon="1.40254">
        <ele>3017.2348632812</ele>
        <time>2012-06-23T10:58:28Z</time>
      </trkpt>
      <trkpt lat="42.6713" lon="1.40254">
        <ele>3017.7158203125</ele>
        <time>2012-06-23T10:58:35Z</time>
      </trkpt>
      <trkpt lat="42.67131" lon="1.40258">
        <ele>3018.6767578125</ele>
        <time>2012-06-23T10:58:42Z</time>
      </trkpt>
      <trkpt lat="42.67134" lon="1.40258">
        <ele>3020.1186523438</ele>
        <time>2012-06-23T10:58:50Z</time>
      </trkpt>
      <trkpt lat="42.67136" lon="1.40259">
        <ele>3020.599609375</ele>
        <time>2012-06-23T10:58:57Z</time>
      </trkpt>
      <trkpt lat="42.67136" lon="1.4026">
        <ele>3020.1186523438</ele>
        <time>2012-06-23T10:59:08Z</time>
      </trkpt>
      <trkpt lat="42.67138" lon="1.40259">
        <ele>3020.599609375</ele>
        <time>2012-06-23T10:59:14Z</time>
      </trkpt>
      <trkpt lat="42.67142" lon="1.40257">
        <ele>3021.5610351562</ele>
        <time>2012-06-23T10:59:21Z</time>
      </trkpt>
      <trkpt lat="42.67145" lon="1.40257">
        <ele>3023.9643554688</ele>
        <time>2012-06-23T10:59:28Z</time>
      </trkpt>
      <trkpt lat="42.67145" lon="1.40257">
        <ele>3024.4448242188</ele>
        <time>2012-06-23T10:59:34Z</time>
      </trkpt>
      <trkpt lat="42.67145" lon="1.40257">
        <ele>3023.4833984375</ele>
        <time>2012-06-23T10:59:48Z</time>
      </trkpt>
      <trkpt lat="42.67148" lon="1.40256">
        <ele>3024.4448242188</ele>
        <time>2012-06-23T10:59:54Z</time>
      </trkpt>
      <trkpt lat="42.67151" lon="1.40255">
        <ele>3025.88671875</ele>
        <time>2012-06-23T11:00:00Z</time>
      </trkpt>
      <trkpt lat="42.67152" lon="1.40255">
        <ele>3026.8481445312</ele>
        <time>2012-06-23T11:00:06Z</time>
      </trkpt>
      <trkpt lat="42.67152" lon="1.40254">
        <ele>3025.88671875</ele>
        <time>2012-06-23T11:00:15Z</time>
      </trkpt>
      <trkpt lat="42.67152" lon="1.40253">
        <ele>3025.88671875</ele>
        <time>2012-06-23T11:00:23Z</time>
      </trkpt>
      <trkpt lat="42.67157" lon="1.40254">
        <ele>3027.3286132812</ele>
        <time>2012-06-23T11:00:31Z</time>
      </trkpt>
      <trkpt lat="42.6716" lon="1.40256">
        <ele>3028.2905273438</ele>
        <time>2012-06-23T11:00:36Z</time>
      </trkpt>
      <trkpt lat="42.67164" lon="1.40258">
        <ele>3030.212890625</ele>
        <time>2012-06-23T11:00:43Z</time>
      </trkpt>
      <trkpt lat="42.67168" lon="1.4026">
        <ele>3031.1743164062</ele>
        <time>2012-06-23T11:00:49Z</time>
      </trkpt>
      <trkpt lat="42.67169" lon="1.40264">
        <ele>3032.6162109375</ele>
        <time>2012-06-23T11:00:55Z</time>
      </trkpt>
      <trkpt lat="42.67171" lon="1.40267">
        <ele>3034.0581054688</ele>
        <time>2012-06-23T11:01:01Z</time>
      </trkpt>
      <trkpt lat="42.6717" lon="1.4027">
        <ele>3035.01953125</ele>
        <time>2012-06-23T11:01:08Z</time>
      </trkpt>
      <trkpt lat="42.6717" lon="1.40272">
        <ele>3035.9809570312</ele>
        <time>2012-06-23T11:01:19Z</time>
      </trkpt>
      <trkpt lat="42.67169" lon="1.40274">
        <ele>3036.9423828125</ele>
        <time>2012-06-23T11:01:27Z</time>
      </trkpt>
      <trkpt lat="42.6717" lon="1.40276">
        <ele>3037.4228515625</ele>
        <time>2012-06-23T11:01:32Z</time>
      </trkpt>
      <trkpt lat="42.67171" lon="1.4028">
        <ele>3038.3842773438</ele>
        <time>2012-06-23T11:01:38Z</time>
      </trkpt>
      <trkpt lat="42.67176" lon="1.40284">
        <ele>3040.306640625</ele>
        <time>2012-06-23T11:01:46Z</time>
      </trkpt>
      <trkpt lat="42.67178" lon="1.4029">
        <ele>3041.7485351562</ele>
        <time>2012-06-23T11:01:52Z</time>
      </trkpt>
      <trkpt lat="42.67178" lon="1.40297">
        <ele>3043.6713867188</ele>
        <time>2012-06-23T11:01:59Z</time>
      </trkpt>
      <trkpt lat="42.67175" lon="1.40301">
        <ele>3045.59375</ele>
        <time>2012-06-23T11:02:06Z</time>
      </trkpt>
      <trkpt lat="42.67173" lon="1.40309">
        <ele>3047.9970703125</ele>
        <time>2012-06-23T11:02:15Z</time>
      </trkpt>
      <trkpt lat="42.67173" lon="1.40318">
        <ele>3048.9584960938</ele>
        <time>2012-06-23T11:02:24Z</time>
      </trkpt>
      <trkpt lat="42.67174" lon="1.40325">
        <ele>3049.4389648438</ele>
        <time>2012-06-23T11:02:31Z</time>
      </trkpt>
      <trkpt lat="42.67174" lon="1.40332">
        <ele>3050.400390625</ele>
        <time>2012-06-23T11:02:37Z</time>
      </trkpt>
      <trkpt lat="42.67173" lon="1.40338">
        <ele>3050.400390625</ele>
        <time>2012-06-23T11:02:44Z</time>
      </trkpt>
      <trkpt lat="42.67174" lon="1.40344">
        <ele>3050.880859375</ele>
        <time>2012-06-23T11:02:50Z</time>
      </trkpt>
      <trkpt lat="42.67176" lon="1.40348">
        <ele>3051.3618164062</ele>
        <time>2012-06-23T11:02:55Z</time>
      </trkpt>
      <trkpt lat="42.67176" lon="1.40356">
        <ele>3052.3232421875</ele>
        <time>2012-06-23T11:03:02Z</time>
      </trkpt>
      <trkpt lat="42.67175" lon="1.40362">
        <ele>3052.8037109375</ele>
        <time>2012-06-23T11:03:08Z</time>
      </trkpt>
      <trkpt lat="42.67176" lon="1.40367">
        <ele>3054.2456054688</ele>
        <time>2012-06-23T11:03:15Z</time>
      </trkpt>
      <trkpt lat="42.67176" lon="1.40371">
        <ele>3055.20703125</ele>
        <time>2012-06-23T11:03:21Z</time>
      </trkpt>
      <trkpt lat="42.67178" lon="1.40374">
        <ele>3056.6489257812</ele>
        <time>2012-06-23T11:03:27Z</time>
      </trkpt>
      <trkpt lat="42.67178" lon="1.40378">
        <ele>3057.1293945312</ele>
        <time>2012-06-23T11:03:32Z</time>
      </trkpt>
      <trkpt lat="42.67178" lon="1.40382">
        <ele>3058.0908203125</ele>
        <time>2012-06-23T11:03:38Z</time>
      </trkpt>
      <trkpt lat="42.67179" lon="1.40385">
        <ele>3059.0522460938</ele>
        <time>2012-06-23T11:03:44Z</time>
      </trkpt>
      <trkpt lat="42.67179" lon="1.40387">
        <ele>3059.0522460938</ele>
        <time>2012-06-23T11:03:50Z</time>
      </trkpt>
      <trkpt lat="42.67179" lon="1.40387">
        <ele>3059.0522460938</ele>
        <time>2012-06-23T11:03:58Z</time>
      </trkpt>
      <trkpt lat="42.6718" lon="1.40388">
        <ele>3059.0522460938</ele>
        <time>2012-06-23T11:04:09Z</time>
      </trkpt>
      <trkpt lat="42.67181" lon="1.40392">
        <ele>3059.5327148438</ele>
        <time>2012-06-23T11:04:14Z</time>
      </trkpt>
      <trkpt lat="42.67183" lon="1.40397">
        <ele>3060.9750976562</ele>
        <time>2012-06-23T11:04:20Z</time>
      </trkpt>
      <trkpt lat="42.67183" lon="1.40402">
        <ele>3061.9365234375</ele>
        <time>2012-06-23T11:04:26Z</time>
      </trkpt>
      <trkpt lat="42.67184" lon="1.40407">
        <ele>3062.8979492188</ele>
        <time>2012-06-23T11:04:32Z</time>
      </trkpt>
      <trkpt lat="42.67186" lon="1.40412">
        <ele>3064.8203125</ele>
        <time>2012-06-23T11:04:39Z</time>
      </trkpt>
      <trkpt lat="42.67184" lon="1.40416">
        <ele>3065.7817382812</ele>
        <time>2012-06-23T11:04:45Z</time>
      </trkpt>
      <trkpt lat="42.67184" lon="1.40418">
        <ele>3066.2622070312</ele>
        <time>2012-06-23T11:04:50Z</time>
      </trkpt>
      <trkpt lat="42.67185" lon="1.40423">
        <ele>3067.7045898438</ele>
        <time>2012-06-23T11:04:57Z</time>
      </trkpt>
      <trkpt lat="42.67185" lon="1.40425">
        <ele>3068.1850585938</ele>
        <time>2012-06-23T11:05:03Z</time>
      </trkpt>
      <trkpt lat="42.67183" lon="1.40427">
        <ele>3068.6655273438</ele>
        <time>2012-06-23T11:05:09Z</time>
      </trkpt>
      <trkpt lat="42.67185" lon="1.40429">
        <ele>3071.0688476562</ele>
        <time>2012-06-23T11:05:17Z</time>
      </trkpt>
      <trkpt lat="42.67185" lon="1.40432">
        <ele>3071.5498046875</ele>
        <time>2012-06-23T11:05:22Z</time>
      </trkpt>
      <trkpt lat="42.67187" lon="1.40436">
        <ele>3072.5107421875</ele>
        <time>2012-06-23T11:05:29Z</time>
      </trkpt>
      <trkpt lat="42.67192" lon="1.40442">
        <ele>3073.9526367188</ele>
        <time>2012-06-23T11:05:37Z</time>
      </trkpt>
      <trkpt lat="42.67195" lon="1.40449">
        <ele>3074.43359375</ele>
        <time>2012-06-23T11:05:43Z</time>
      </trkpt>
      <trkpt lat="42.67196" lon="1.40455">
        <ele>3075.3950195312</ele>
        <time>2012-06-23T11:05:50Z</time>
      </trkpt>
      <trkpt lat="42.67197" lon="1.40459">
        <ele>3076.3559570312</ele>
        <time>2012-06-23T11:05:57Z</time>
      </trkpt>
      <trkpt lat="42.67197" lon="1.40463">
        <ele>3077.3173828125</ele>
        <time>2012-06-23T11:06:02Z</time>
      </trkpt>
      <trkpt lat="42.67198" lon="1.4047">
        <ele>3078.2788085938</ele>
        <time>2012-06-23T11:06:08Z</time>
      </trkpt>
      <trkpt lat="42.67196" lon="1.40475">
        <ele>3079.720703125</ele>
        <time>2012-06-23T11:06:15Z</time>
      </trkpt>
      <trkpt lat="42.67196" lon="1.40484">
        <ele>3079.720703125</ele>
        <time>2012-06-23T11:06:21Z</time>
      </trkpt>
      <trkpt lat="42.67196" lon="1.40488">
        <ele>3079.720703125</ele>
        <time>2012-06-23T11:06:24Z</time>
      </trkpt>
      <trkpt lat="42.67196" lon="1.40497">
        <ele>3080.6821289062</ele>
        <time>2012-06-23T11:06:31Z</time>
      </trkpt>
      <trkpt lat="42.67197" lon="1.40508">
        <ele>3081.1625976562</ele>
        <time>2012-06-23T11:06:38Z</time>
      </trkpt>
      <trkpt lat="42.67198" lon="1.40509">
        <ele>3081.6430664062</ele>
        <time>2012-06-23T11:06:39Z</time>
      </trkpt>
      <trkpt lat="42.67197" lon="1.40514">
        <ele>3082.6044921875</ele>
        <time>2012-06-23T11:06:43Z</time>
      </trkpt>
      <trkpt lat="42.67198" lon="1.40522">
        <ele>3082.6044921875</ele>
        <time>2012-06-23T11:06:50Z</time>
      </trkpt>
      <trkpt lat="42.67199" lon="1.40526">
        <ele>3081.1625976562</ele>
        <time>2012-06-23T11:06:56Z</time>
      </trkpt>
      <trkpt lat="42.67199" lon="1.4053">
        <ele>3079.720703125</ele>
        <time>2012-06-23T11:07:02Z</time>
      </trkpt>
      <trkpt lat="42.672" lon="1.40539">
        <ele>3077.3173828125</ele>
        <time>2012-06-23T11:07:07Z</time>
      </trkpt>
      <trkpt lat="42.67201" lon="1.40544">
        <ele>3077.3173828125</ele>
        <time>2012-06-23T11:07:11Z</time>
      </trkpt>
      <trkpt lat="42.67199" lon="1.40555">
        <ele>3078.7592773438</ele>
        <time>2012-06-23T11:07:19Z</time>
      </trkpt>
      <trkpt lat="42.67197" lon="1.4056">
        <ele>3080.6821289062</ele>
        <time>2012-06-23T11:07:26Z</time>
      </trkpt>
      <trkpt lat="42.67196" lon="1.40566">
        <ele>3082.1240234375</ele>
        <time>2012-06-23T11:07:32Z</time>
      </trkpt>
      <trkpt lat="42.67193" lon="1.40572">
        <ele>3083.5659179688</ele>
        <time>2012-06-23T11:07:39Z</time>
      </trkpt>
      <trkpt lat="42.67192" lon="1.40575">
        <ele>3084.0463867188</ele>
        <time>2012-06-23T11:07:44Z</time>
      </trkpt>
      <trkpt lat="42.67193" lon="1.40583">
        <ele>3085.0078125</ele>
        <time>2012-06-23T11:07:51Z</time>
      </trkpt>
      <trkpt lat="42.67193" lon="1.40592">
        <ele>3085.0078125</ele>
        <time>2012-06-23T11:07:58Z</time>
      </trkpt>
      <trkpt lat="42.6719" lon="1.40607">
        <ele>3085.4887695312</ele>
        <time>2012-06-23T11:08:08Z</time>
      </trkpt>
      <trkpt lat="42.6719" lon="1.40611">
        <ele>3085.9692382812</ele>
        <time>2012-06-23T11:08:10Z</time>
      </trkpt>
      <trkpt lat="42.67207" lon="1.40638">
        <ele>3084.52734375</ele>
        <time>2012-06-23T11:13:38Z</time>
      </trkpt>
      <trkpt lat="42.67207" lon="1.40638">
        <ele>3084.52734375</ele>
        <time>2012-06-23T11:13:39Z</time>
      </trkpt>
      <trkpt lat="42.67207" lon="1.40638">
        <ele>3084.52734375</ele>
        <time>2012-06-23T11:13:49Z</time>
      </trkpt>
      <trkpt lat="42.67207" lon="1.40643">
        <ele>3082.6044921875</ele>
        <time>2012-06-23T11:14:03Z</time>
      </trkpt>
      <trkpt lat="42.67208" lon="1.40655">
        <ele>3078.7592773438</ele>
        <time>2012-06-23T11:14:11Z</time>
      </trkpt>
      <trkpt lat="42.67208" lon="1.40665">
        <ele>3076.3559570312</ele>
        <time>2012-06-23T11:14:18Z</time>
      </trkpt>
      <trkpt lat="42.67209" lon="1.4067">
        <ele>3074.43359375</ele>
        <time>2012-06-23T11:14:24Z</time>
      </trkpt>
      <trkpt lat="42.6721" lon="1.40678">
        <ele>3072.5107421875</ele>
        <time>2012-06-23T11:14:30Z</time>
      </trkpt>
      <trkpt lat="42.67213" lon="1.40683">
        <ele>3070.1079101562</ele>
        <time>2012-06-23T11:14:35Z</time>
      </trkpt>
      <trkpt lat="42.67218" lon="1.40687">
        <ele>3069.146484375</ele>
        <time>2012-06-23T11:14:41Z</time>
      </trkpt>
      <trkpt lat="42.67217" lon="1.40691">
        <ele>3067.2236328125</ele>
        <time>2012-06-23T11:14:48Z</time>
      </trkpt>
      <trkpt lat="42.67219" lon="1.40694">
        <ele>3065.3012695312</ele>
        <time>2012-06-23T11:14:58Z</time>
      </trkpt>
      <trkpt lat="42.67221" lon="1.40701">
        <ele>3063.3784179688</ele>
        <time>2012-06-23T11:15:05Z</time>
      </trkpt>
      <trkpt lat="42.67222" lon="1.40709">
        <ele>3061.4560546875</ele>
        <time>2012-06-23T11:15:11Z</time>
      </trkpt>
      <trkpt lat="42.67223" lon="1.40718">
        <ele>3059.0522460938</ele>
        <time>2012-06-23T11:15:18Z</time>
      </trkpt>
      <trkpt lat="42.67221" lon="1.40726">
        <ele>3055.20703125</ele>
        <time>2012-06-23T11:15:24Z</time>
      </trkpt>
      <trkpt lat="42.67223" lon="1.40728">
        <ele>3054.2456054688</ele>
        <time>2012-06-23T11:15:30Z</time>
      </trkpt>
      <trkpt lat="42.67224" lon="1.40728">
        <ele>3054.2456054688</ele>
        <time>2012-06-23T11:15:39Z</time>
      </trkpt>
      <trkpt lat="42.67226" lon="1.40728">
        <ele>3053.2841796875</ele>
        <time>2012-06-23T11:15:47Z</time>
      </trkpt>
      <trkpt lat="42.67228" lon="1.40733">
        <ele>3051.8422851562</ele>
        <time>2012-06-23T11:15:52Z</time>
      </trkpt>
      <trkpt lat="42.67229" lon="1.40738">
        <ele>3049.919921875</ele>
        <time>2012-06-23T11:15:58Z</time>
      </trkpt>
      <trkpt lat="42.67232" lon="1.40744">
        <ele>3048.4780273438</ele>
        <time>2012-06-23T11:16:03Z</time>
      </trkpt>
      <trkpt lat="42.67235" lon="1.40748">
        <ele>3047.0361328125</ele>
        <time>2012-06-23T11:16:08Z</time>
      </trkpt>
      <trkpt lat="42.67236" lon="1.40749">
        <ele>3047.0361328125</ele>
        <time>2012-06-23T11:16:09Z</time>
      </trkpt>
      <trkpt lat="42.67239" lon="1.40753">
        <ele>3045.11328125</ele>
        <time>2012-06-23T11:16:14Z</time>
      </trkpt>
      <trkpt lat="42.67242" lon="1.40756">
        <ele>3043.1904296875</ele>
        <time>2012-06-23T11:16:19Z</time>
      </trkpt>
      <trkpt lat="42.67244" lon="1.4076">
        <ele>3041.2680664062</ele>
        <time>2012-06-23T11:16:24Z</time>
      </trkpt>
      <trkpt lat="42.67248" lon="1.40764">
        <ele>3039.826171875</ele>
        <time>2012-06-23T11:16:30Z</time>
      </trkpt>
      <trkpt lat="42.67249" lon="1.40769">
        <ele>3037.9033203125</ele>
        <time>2012-06-23T11:16:34Z</time>
      </trkpt>
      <trkpt lat="42.67249" lon="1.40775">
        <ele>3036.4614257812</ele>
        <time>2012-06-23T11:16:39Z</time>
      </trkpt>
      <trkpt lat="42.67251" lon="1.4078">
        <ele>3035.01953125</ele>
        <time>2012-06-23T11:16:43Z</time>
      </trkpt>
      <trkpt lat="42.67251" lon="1.4079">
        <ele>3033.0971679688</ele>
        <time>2012-06-23T11:16:50Z</time>
      </trkpt>
      <trkpt lat="42.6725" lon="1.40797">
        <ele>3031.6552734375</ele>
        <time>2012-06-23T11:16:55Z</time>
      </trkpt>
      <trkpt lat="42.67252" lon="1.40803">
        <ele>3029.732421875</ele>
        <time>2012-06-23T11:17:02Z</time>
      </trkpt>
      <trkpt lat="42.67257" lon="1.40802">
        <ele>3027.8090820312</ele>
        <time>2012-06-23T11:17:06Z</time>
      </trkpt>
      <trkpt lat="42.67258" lon="1.40803">
        <ele>3027.8090820312</ele>
        <time>2012-06-23T11:17:07Z</time>
      </trkpt>
      <trkpt lat="42.67264" lon="1.40803">
        <ele>3025.88671875</ele>
        <time>2012-06-23T11:17:13Z</time>
      </trkpt>
      <trkpt lat="42.67266" lon="1.40801">
        <ele>3024.9252929688</ele>
        <time>2012-06-23T11:17:15Z</time>
      </trkpt>
      <trkpt lat="42.67273" lon="1.40797">
        <ele>3023.4833984375</ele>
        <time>2012-06-23T11:17:21Z</time>
      </trkpt>
      <trkpt lat="42.67275" lon="1.40796">
        <ele>3023.0029296875</ele>
        <time>2012-06-23T11:17:23Z</time>
      </trkpt>
      <trkpt lat="42.67278" lon="1.40797">
        <ele>3022.0415039062</ele>
        <time>2012-06-23T11:17:26Z</time>
      </trkpt>
      <trkpt lat="42.67283" lon="1.40797">
        <ele>3020.599609375</ele>
        <time>2012-06-23T11:17:32Z</time>
      </trkpt>
      <trkpt lat="42.6729" lon="1.40799">
        <ele>3018.6767578125</ele>
        <time>2012-06-23T11:17:38Z</time>
      </trkpt>
      <trkpt lat="42.673" lon="1.40797">
        <ele>3017.2348632812</ele>
        <time>2012-06-23T11:17:46Z</time>
      </trkpt>
      <trkpt lat="42.67304" lon="1.40798">
        <ele>3015.3125</ele>
        <time>2012-06-23T11:17:50Z</time>
      </trkpt>
      <trkpt lat="42.67309" lon="1.40799">
        <ele>3013.3896484375</ele>
        <time>2012-06-23T11:17:56Z</time>
      </trkpt>
      <trkpt lat="42.67311" lon="1.40804">
        <ele>3011.4672851562</ele>
        <time>2012-06-23T11:18:01Z</time>
      </trkpt>
      <trkpt lat="42.67316" lon="1.40805">
        <ele>3010.025390625</ele>
        <time>2012-06-23T11:18:06Z</time>
      </trkpt>
      <trkpt lat="42.67319" lon="1.40807">
        <ele>3008.1025390625</ele>
        <time>2012-06-23T11:18:12Z</time>
      </trkpt>
      <trkpt lat="42.67326" lon="1.40807">
        <ele>3006.1801757812</ele>
        <time>2012-06-23T11:18:19Z</time>
      </trkpt>
      <trkpt lat="42.67329" lon="1.40809">
        <ele>3005.21875</ele>
        <time>2012-06-23T11:18:22Z</time>
      </trkpt>
      <trkpt lat="42.67334" lon="1.40816">
        <ele>3003.7768554688</ele>
        <time>2012-06-23T11:18:30Z</time>
      </trkpt>
      <trkpt lat="42.67339" lon="1.40819">
        <ele>3001.8540039062</ele>
        <time>2012-06-23T11:18:36Z</time>
      </trkpt>
      <trkpt lat="42.67344" lon="1.40822">
        <ele>3000.412109375</ele>
        <time>2012-06-23T11:18:41Z</time>
      </trkpt>
      <trkpt lat="42.67348" lon="1.40828">
        <ele>2998.4897460938</ele>
        <time>2012-06-23T11:18:48Z</time>
      </trkpt>
      <trkpt lat="42.67353" lon="1.40834">
        <ele>2997.0473632812</ele>
        <time>2012-06-23T11:18:55Z</time>
      </trkpt>
      <trkpt lat="42.67354" lon="1.40839">
        <ele>2995.6049804688</ele>
        <time>2012-06-23T11:19:00Z</time>
      </trkpt>
      <trkpt lat="42.67358" lon="1.40841">
        <ele>2994.6440429688</ele>
        <time>2012-06-23T11:19:05Z</time>
      </trkpt>
      <trkpt lat="42.6736" lon="1.40845">
        <ele>2993.2021484375</ele>
        <time>2012-06-23T11:19:09Z</time>
      </trkpt>
      <trkpt lat="42.67363" lon="1.40851">
        <ele>2991.279296875</ele>
        <time>2012-06-23T11:19:15Z</time>
      </trkpt>
      <trkpt lat="42.67363" lon="1.40856">
        <ele>2989.8374023438</ele>
        <time>2012-06-23T11:19:19Z</time>
      </trkpt>
      <trkpt lat="42.67365" lon="1.40861">
        <ele>2987.9145507812</ele>
        <time>2012-06-23T11:19:25Z</time>
      </trkpt>
      <trkpt lat="42.67368" lon="1.40862">
        <ele>2986.47265625</ele>
        <time>2012-06-23T11:19:31Z</time>
      </trkpt>
      <trkpt lat="42.6737" lon="1.40864">
        <ele>2985.51171875</ele>
        <time>2012-06-23T11:19:37Z</time>
      </trkpt>
      <trkpt lat="42.67376" lon="1.40863">
        <ele>2983.1083984375</ele>
        <time>2012-06-23T11:19:44Z</time>
      </trkpt>
      <trkpt lat="42.6738" lon="1.40861">
        <ele>2982.6274414062</ele>
        <time>2012-06-23T11:19:47Z</time>
      </trkpt>
      <trkpt lat="42.67388" lon="1.40861">
        <ele>2979.7436523438</ele>
        <time>2012-06-23T11:19:54Z</time>
      </trkpt>
      <trkpt lat="42.6739" lon="1.40863">
        <ele>2979.2631835938</ele>
        <time>2012-06-23T11:19:56Z</time>
      </trkpt>
      <trkpt lat="42.67391" lon="1.40865">
        <ele>2978.7822265625</ele>
        <time>2012-06-23T11:19:58Z</time>
      </trkpt>
      <trkpt lat="42.67393" lon="1.40871">
        <ele>2976.37890625</ele>
        <time>2012-06-23T11:20:04Z</time>
      </trkpt>
      <trkpt lat="42.67398" lon="1.40873">
        <ele>2975.41796875</ele>
        <time>2012-06-23T11:20:10Z</time>
      </trkpt>
      <trkpt lat="42.67402" lon="1.40871">
        <ele>2974.9370117188</ele>
        <time>2012-06-23T11:20:15Z</time>
      </trkpt>
      <trkpt lat="42.67409" lon="1.40871">
        <ele>2973.4951171875</ele>
        <time>2012-06-23T11:20:22Z</time>
      </trkpt>
      <trkpt lat="42.67415" lon="1.40871">
        <ele>2971.5727539062</ele>
        <time>2012-06-23T11:20:29Z</time>
      </trkpt>
      <trkpt lat="42.67421" lon="1.40872">
        <ele>2969.1694335938</ele>
        <time>2012-06-23T11:20:36Z</time>
      </trkpt>
      <trkpt lat="42.67426" lon="1.40874">
        <ele>2967.7275390625</ele>
        <time>2012-06-23T11:20:42Z</time>
      </trkpt>
      <trkpt lat="42.67434" lon="1.40878">
        <ele>2965.8046875</ele>
        <time>2012-06-23T11:20:50Z</time>
      </trkpt>
      <trkpt lat="42.67436" lon="1.40885">
        <ele>2964.3627929688</ele>
        <time>2012-06-23T11:20:56Z</time>
      </trkpt>
      <trkpt lat="42.67435" lon="1.40896">
        <ele>2962.4399414062</ele>
        <time>2012-06-23T11:21:04Z</time>
      </trkpt>
      <trkpt lat="42.67436" lon="1.40904">
        <ele>2961.478515625</ele>
        <time>2012-06-23T11:21:11Z</time>
      </trkpt>
      <trkpt lat="42.67435" lon="1.40911">
        <ele>2960.9975585938</ele>
        <time>2012-06-23T11:21:16Z</time>
      </trkpt>
      <trkpt lat="42.67435" lon="1.40921">
        <ele>2959.5556640625</ele>
        <time>2012-06-23T11:21:23Z</time>
      </trkpt>
      <trkpt lat="42.67432" lon="1.40928">
        <ele>2958.5942382812</ele>
        <time>2012-06-23T11:21:30Z</time>
      </trkpt>
      <trkpt lat="42.6743" lon="1.40935">
        <ele>2957.6333007812</ele>
        <time>2012-06-23T11:21:36Z</time>
      </trkpt>
      <trkpt lat="42.67429" lon="1.40945">
        <ele>2955.7104492188</ele>
        <time>2012-06-23T11:21:44Z</time>
      </trkpt>
      <trkpt lat="42.67427" lon="1.40952">
        <ele>2954.7495117188</ele>
        <time>2012-06-23T11:21:54Z</time>
      </trkpt>
      <trkpt lat="42.67426" lon="1.40956">
        <ele>2953.7880859375</ele>
        <time>2012-06-23T11:22:00Z</time>
      </trkpt>
      <trkpt lat="42.67425" lon="1.40958">
        <ele>2953.3071289062</ele>
        <time>2012-06-23T11:22:06Z</time>
      </trkpt>
      <trkpt lat="42.67425" lon="1.40958">
        <ele>2954.2685546875</ele>
        <time>2012-06-23T11:22:15Z</time>
      </trkpt>
      <trkpt lat="42.67427" lon="1.4096">
        <ele>2952.8266601562</ele>
        <time>2012-06-23T11:22:22Z</time>
      </trkpt>
      <trkpt lat="42.67427" lon="1.4096">
        <ele>2952.8266601562</ele>
        <time>2012-06-23T11:22:32Z</time>
      </trkpt>
      <trkpt lat="42.67427" lon="1.4096">
        <ele>2952.8266601562</ele>
        <time>2012-06-23T11:22:39Z</time>
      </trkpt>
      <trkpt lat="42.67427" lon="1.40962">
        <ele>2951.865234375</ele>
        <time>2012-06-23T11:22:47Z</time>
      </trkpt>
      <trkpt lat="42.67427" lon="1.40962">
        <ele>2951.384765625</ele>
        <time>2012-06-23T11:22:56Z</time>
      </trkpt>
      <trkpt lat="42.67428" lon="1.40962">
        <ele>2950.9038085938</ele>
        <time>2012-06-23T11:23:03Z</time>
      </trkpt>
      <trkpt lat="42.6743" lon="1.40961">
        <ele>2950.4233398438</ele>
        <time>2012-06-23T11:23:09Z</time>
      </trkpt>
      <trkpt lat="42.6743" lon="1.40963">
        <ele>2949.4619140625</ele>
        <time>2012-06-23T11:23:17Z</time>
      </trkpt>
      <trkpt lat="42.6743" lon="1.40965">
        <ele>2950.4233398438</ele>
        <time>2012-06-23T11:23:28Z</time>
      </trkpt>
      <trkpt lat="42.67428" lon="1.40966">
        <ele>2950.9038085938</ele>
        <time>2012-06-23T11:23:34Z</time>
      </trkpt>
      <trkpt lat="42.67428" lon="1.40967">
        <ele>2950.4233398438</ele>
        <time>2012-06-23T11:23:41Z</time>
      </trkpt>
      <trkpt lat="42.67428" lon="1.40967">
        <ele>2950.4233398438</ele>
        <time>2012-06-23T11:23:49Z</time>
      </trkpt>
      <trkpt lat="42.67427" lon="1.40967">
        <ele>2949.4619140625</ele>
        <time>2012-06-23T11:24:01Z</time>
      </trkpt>
      <trkpt lat="42.67426" lon="1.40969">
        <ele>2949.4619140625</ele>
        <time>2012-06-23T11:24:08Z</time>
      </trkpt>
      <trkpt lat="42.67425" lon="1.40971">
        <ele>2948.9814453125</ele>
        <time>2012-06-23T11:24:14Z</time>
      </trkpt>
      <trkpt lat="42.67425" lon="1.40971">
        <ele>2948.9814453125</ele>
        <time>2012-06-23T11:24:27Z</time>
      </trkpt>
      <trkpt lat="42.67425" lon="1.4097">
        <ele>2949.9428710938</ele>
        <time>2012-06-23T11:24:36Z</time>
      </trkpt>
      <trkpt lat="42.67426" lon="1.4097">
        <ele>2950.9038085938</ele>
        <time>2012-06-23T11:24:45Z</time>
      </trkpt>
      <trkpt lat="42.67426" lon="1.40971">
        <ele>2950.9038085938</ele>
        <time>2012-06-23T11:24:56Z</time>
      </trkpt>
      <trkpt lat="42.67426" lon="1.4097">
        <ele>2950.4233398438</ele>
        <time>2012-06-23T11:25:11Z</time>
      </trkpt>
      <trkpt lat="42.67426" lon="1.40969">
        <ele>2950.4233398438</ele>
        <time>2012-06-23T11:25:23Z</time>
      </trkpt>
      <trkpt lat="42.67427" lon="1.40969">
        <ele>2950.4233398438</ele>
        <time>2012-06-23T11:25:30Z</time>
      </trkpt>
      <trkpt lat="42.67428" lon="1.4097">
        <ele>2950.4233398438</ele>
        <time>2012-06-23T11:25:38Z</time>
      </trkpt>
      <trkpt lat="42.67429" lon="1.4097">
        <ele>2948.9814453125</ele>
        <time>2012-06-23T11:25:45Z</time>
      </trkpt>
      <trkpt lat="42.6743" lon="1.4097">
        <ele>2947.5395507812</ele>
        <time>2012-06-23T11:25:51Z</time>
      </trkpt>
      <trkpt lat="42.67431" lon="1.40971">
        <ele>2946.578125</ele>
        <time>2012-06-23T11:25:57Z</time>
      </trkpt>
      <trkpt lat="42.67431" lon="1.40973">
        <ele>2945.6166992188</ele>
        <time>2012-06-23T11:26:04Z</time>
      </trkpt>
      <trkpt lat="42.67431" lon="1.40974">
        <ele>2945.6166992188</ele>
        <time>2012-06-23T11:26:10Z</time>
      </trkpt>
      <trkpt lat="42.67432" lon="1.40974">
        <ele>2946.09765625</ele>
        <time>2012-06-23T11:26:16Z</time>
      </trkpt>
      <trkpt lat="42.67432" lon="1.40974">
        <ele>2945.6166992188</ele>
        <time>2012-06-23T11:26:24Z</time>
      </trkpt>
      <trkpt lat="42.67432" lon="1.40974">
        <ele>2945.6166992188</ele>
        <time>2012-06-23T11:26:32Z</time>
      </trkpt>
      <trkpt lat="42.67432" lon="1.40975">
        <ele>2944.1748046875</ele>
        <time>2012-06-23T11:26:38Z</time>
      </trkpt>
      <trkpt lat="42.67432" lon="1.40976">
        <ele>2942.7329101562</ele>
        <time>2012-06-23T11:26:45Z</time>
      </trkpt>
      <trkpt lat="42.67433" lon="1.40975">
        <ele>2943.6943359375</ele>
        <time>2012-06-23T11:26:56Z</time>
      </trkpt>
      <trkpt lat="42.67434" lon="1.40976">
        <ele>2943.6943359375</ele>
        <time>2012-06-23T11:27:04Z</time>
      </trkpt>
      <trkpt lat="42.67434" lon="1.40975">
        <ele>2942.7329101562</ele>
        <time>2012-06-23T11:27:14Z</time>
      </trkpt>
      <trkpt lat="42.67436" lon="1.40976">
        <ele>2941.291015625</ele>
        <time>2012-06-23T11:27:19Z</time>
      </trkpt>
      <trkpt lat="42.67435" lon="1.40976">
        <ele>2938.4072265625</ele>
        <time>2012-06-23T11:27:26Z</time>
      </trkpt>
      <trkpt lat="42.67435" lon="1.40977">
        <ele>2937.4458007812</ele>
        <time>2012-06-23T11:27:32Z</time>
      </trkpt>
      <trkpt lat="42.67434" lon="1.40978">
        <ele>2936.484375</ele>
        <time>2012-06-23T11:27:39Z</time>
      </trkpt>
      <trkpt lat="42.67434" lon="1.40979">
        <ele>2936.484375</ele>
        <time>2012-06-23T11:27:45Z</time>
      </trkpt>
      <trkpt lat="42.67433" lon="1.40981">
        <ele>2935.5229492188</ele>
        <time>2012-06-23T11:27:53Z</time>
      </trkpt>
      <trkpt lat="42.67433" lon="1.40981">
        <ele>2936.00390625</ele>
        <time>2012-06-23T11:28:00Z</time>
      </trkpt>
      <trkpt lat="42.67433" lon="1.40983">
        <ele>2936.484375</ele>
        <time>2012-06-23T11:28:08Z</time>
      </trkpt>
      <trkpt lat="42.67432" lon="1.40984">
        <ele>2936.00390625</ele>
        <time>2012-06-23T11:28:13Z</time>
      </trkpt>
      <trkpt lat="42.67432" lon="1.40985">
        <ele>2936.00390625</ele>
        <time>2012-06-23T11:28:19Z</time>
      </trkpt>
      <trkpt lat="42.67433" lon="1.40985">
        <ele>2935.5229492188</ele>
        <time>2012-06-23T11:28:25Z</time>
      </trkpt>
      <trkpt lat="42.67434" lon="1.40986">
        <ele>2935.0424804688</ele>
        <time>2012-06-23T11:28:30Z</time>
      </trkpt>
      <trkpt lat="42.67434" lon="1.40988">
        <ele>2933.6005859375</ele>
        <time>2012-06-23T11:28:39Z</time>
      </trkpt>
      <trkpt lat="42.67434" lon="1.40988">
        <ele>2931.1967773438</ele>
        <time>2012-06-23T11:28:47Z</time>
      </trkpt>
      <trkpt lat="42.67435" lon="1.4099">
        <ele>2931.1967773438</ele>
        <time>2012-06-23T11:29:03Z</time>
      </trkpt>
      <trkpt lat="42.67435" lon="1.40991">
        <ele>2930.2353515625</ele>
        <time>2012-06-23T11:29:09Z</time>
      </trkpt>
      <trkpt lat="42.67437" lon="1.40992">
        <ele>2929.2744140625</ele>
        <time>2012-06-23T11:29:15Z</time>
      </trkpt>
      <trkpt lat="42.67438" lon="1.40992">
        <ele>2928.7934570312</ele>
        <time>2012-06-23T11:29:21Z</time>
      </trkpt>
      <trkpt lat="42.67438" lon="1.40995">
        <ele>2927.3515625</ele>
        <time>2012-06-23T11:29:27Z</time>
      </trkpt>
      <trkpt lat="42.67439" lon="1.40995">
        <ele>2926.3901367188</ele>
        <time>2012-06-23T11:29:33Z</time>
      </trkpt>
      <trkpt lat="42.6744" lon="1.40995">
        <ele>2925.9096679688</ele>
        <time>2012-06-23T11:29:38Z</time>
      </trkpt>
      <trkpt lat="42.6744" lon="1.40994">
        <ele>2923.5063476562</ele>
        <time>2012-06-23T11:29:44Z</time>
      </trkpt>
      <trkpt lat="42.67441" lon="1.40995">
        <ele>2922.064453125</ele>
        <time>2012-06-23T11:29:49Z</time>
      </trkpt>
      <trkpt lat="42.67441" lon="1.40997">
        <ele>2922.064453125</ele>
        <time>2012-06-23T11:29:57Z</time>
      </trkpt>
      <trkpt lat="42.67442" lon="1.40996">
        <ele>2921.583984375</ele>
        <time>2012-06-23T11:30:06Z</time>
      </trkpt>
      <trkpt lat="42.67443" lon="1.40997">
        <ele>2920.6225585938</ele>
        <time>2012-06-23T11:30:19Z</time>
      </trkpt>
      <trkpt lat="42.67443" lon="1.40995">
        <ele>2917.7387695312</ele>
        <time>2012-06-23T11:30:30Z</time>
      </trkpt>
      <trkpt lat="42.67445" lon="1.40995">
        <ele>2917.2578125</ele>
        <time>2012-06-23T11:30:36Z</time>
      </trkpt>
      <trkpt lat="42.67448" lon="1.40997">
        <ele>2914.3740234375</ele>
        <time>2012-06-23T11:30:48Z</time>
      </trkpt>
      <trkpt lat="42.67449" lon="1.40998">
        <ele>2913.4125976562</ele>
        <time>2012-06-23T11:30:55Z</time>
      </trkpt>
      <trkpt lat="42.6745" lon="1.41">
        <ele>2912.451171875</ele>
        <time>2012-06-23T11:31:02Z</time>
      </trkpt>
      <trkpt lat="42.67453" lon="1.41002">
        <ele>2910.5288085938</ele>
        <time>2012-06-23T11:31:10Z</time>
      </trkpt>
      <trkpt lat="42.67454" lon="1.41006">
        <ele>2909.0869140625</ele>
        <time>2012-06-23T11:31:17Z</time>
      </trkpt>
      <trkpt lat="42.67457" lon="1.41005">
        <ele>2907.1640625</ele>
        <time>2012-06-23T11:31:23Z</time>
      </trkpt>
      <trkpt lat="42.6746" lon="1.41005">
        <ele>2905.7221679688</ele>
        <time>2012-06-23T11:31:29Z</time>
      </trkpt>
      <trkpt lat="42.67463" lon="1.41004">
        <ele>2903.3188476562</ele>
        <time>2012-06-23T11:31:35Z</time>
      </trkpt>
      <trkpt lat="42.67467" lon="1.41003">
        <ele>2901.396484375</ele>
        <time>2012-06-23T11:31:41Z</time>
      </trkpt>
      <trkpt lat="42.67467" lon="1.41005">
        <ele>2899.9541015625</ele>
        <time>2012-06-23T11:31:46Z</time>
      </trkpt>
      <trkpt lat="42.67468" lon="1.41007">
        <ele>2898.9926757812</ele>
        <time>2012-06-23T11:31:51Z</time>
      </trkpt>
      <trkpt lat="42.67471" lon="1.41005">
        <ele>2897.55078125</ele>
        <time>2012-06-23T11:31:56Z</time>
      </trkpt>
      <trkpt lat="42.67474" lon="1.41006">
        <ele>2895.6279296875</ele>
        <time>2012-06-23T11:32:02Z</time>
      </trkpt>
      <trkpt lat="42.67477" lon="1.41004">
        <ele>2894.1860351562</ele>
        <time>2012-06-23T11:32:08Z</time>
      </trkpt>
      <trkpt lat="42.6748" lon="1.41003">
        <ele>2892.263671875</ele>
        <time>2012-06-23T11:32:15Z</time>
      </trkpt>
      <trkpt lat="42.67483" lon="1.41006">
        <ele>2890.3408203125</ele>
        <time>2012-06-23T11:32:22Z</time>
      </trkpt>
      <trkpt lat="42.67484" lon="1.41007">
        <ele>2889.3793945312</ele>
        <time>2012-06-23T11:32:28Z</time>
      </trkpt>
      <trkpt lat="42.67487" lon="1.41001">
        <ele>2886.4956054688</ele>
        <time>2012-06-23T11:32:34Z</time>
      </trkpt>
      <trkpt lat="42.67489" lon="1.41002">
        <ele>2885.0537109375</ele>
        <time>2012-06-23T11:32:39Z</time>
      </trkpt>
      <trkpt lat="42.67489" lon="1.41003">
        <ele>2885.0537109375</ele>
        <time>2012-06-23T11:32:48Z</time>
      </trkpt>
      <trkpt lat="42.67491" lon="1.41005">
        <ele>2884.5732421875</ele>
        <time>2012-06-23T11:32:57Z</time>
      </trkpt>
      <trkpt lat="42.67492" lon="1.41003">
        <ele>2883.6118164062</ele>
        <time>2012-06-23T11:33:03Z</time>
      </trkpt>
      <trkpt lat="42.67494" lon="1.41002">
        <ele>2882.169921875</ele>
        <time>2012-06-23T11:33:08Z</time>
      </trkpt>
      <trkpt lat="42.67496" lon="1.41002">
        <ele>2880.7280273438</ele>
        <time>2012-06-23T11:33:14Z</time>
      </trkpt>
      <trkpt lat="42.67496" lon="1.41">
        <ele>2879.2861328125</ele>
        <time>2012-06-23T11:33:20Z</time>
      </trkpt>
      <trkpt lat="42.67496" lon="1.41">
        <ele>2878.3247070312</ele>
        <time>2012-06-23T11:33:28Z</time>
      </trkpt>
      <trkpt lat="42.67497" lon="1.40998">
        <ele>2877.36328125</ele>
        <time>2012-06-23T11:33:39Z</time>
      </trkpt>
      <trkpt lat="42.67498" lon="1.41">
        <ele>2876.8828125</ele>
        <time>2012-06-23T11:33:44Z</time>
      </trkpt>
      <trkpt lat="42.67499" lon="1.41001">
        <ele>2876.4018554688</ele>
        <time>2012-06-23T11:33:52Z</time>
      </trkpt>
      <trkpt lat="42.675" lon="1.41001">
        <ele>2874.9599609375</ele>
        <time>2012-06-23T11:34:00Z</time>
      </trkpt>
      <trkpt lat="42.67501" lon="1.41">
        <ele>2873.9985351562</ele>
        <time>2012-06-23T11:34:06Z</time>
      </trkpt>
      <trkpt lat="42.67501" lon="1.40998">
        <ele>2872.556640625</ele>
        <time>2012-06-23T11:34:15Z</time>
      </trkpt>
      <trkpt lat="42.67501" lon="1.40999">
        <ele>2871.1147460938</ele>
        <time>2012-06-23T11:34:22Z</time>
      </trkpt>
      <trkpt lat="42.67502" lon="1.41">
        <ele>2869.1923828125</ele>
        <time>2012-06-23T11:34:31Z</time>
      </trkpt>
      <trkpt lat="42.67503" lon="1.41001">
        <ele>2867.75</ele>
        <time>2012-06-23T11:34:37Z</time>
      </trkpt>
      <trkpt lat="42.67503" lon="1.41003">
        <ele>2867.2690429688</ele>
        <time>2012-06-23T11:34:44Z</time>
      </trkpt>
      <trkpt lat="42.67504" lon="1.41004">
        <ele>2868.2309570312</ele>
        <time>2012-06-23T11:34:52Z</time>
      </trkpt>
      <trkpt lat="42.67504" lon="1.41006">
        <ele>2867.75</ele>
        <time>2012-06-23T11:35:08Z</time>
      </trkpt>
      <trkpt lat="42.67505" lon="1.41007">
        <ele>2867.75</ele>
        <time>2012-06-23T11:35:13Z</time>
      </trkpt>
      <trkpt lat="42.67507" lon="1.41009">
        <ele>2866.7885742188</ele>
        <time>2012-06-23T11:35:19Z</time>
      </trkpt>
      <trkpt lat="42.67508" lon="1.41011">
        <ele>2866.3076171875</ele>
        <time>2012-06-23T11:35:24Z</time>
      </trkpt>
      <trkpt lat="42.67509" lon="1.41011">
        <ele>2865.8271484375</ele>
        <time>2012-06-23T11:35:29Z</time>
      </trkpt>
      <trkpt lat="42.6751" lon="1.41013">
        <ele>2864.8657226562</ele>
        <time>2012-06-23T11:35:35Z</time>
      </trkpt>
      <trkpt lat="42.6751" lon="1.41014">
        <ele>2863.9047851562</ele>
        <time>2012-06-23T11:35:43Z</time>
      </trkpt>
      <trkpt lat="42.67508" lon="1.41014">
        <ele>2862.462890625</ele>
        <time>2012-06-23T11:35:51Z</time>
      </trkpt>
      <trkpt lat="42.6751" lon="1.41016">
        <ele>2860.5400390625</ele>
        <time>2012-06-23T11:35:58Z</time>
      </trkpt>
      <trkpt lat="42.67512" lon="1.41015">
        <ele>2859.5786132812</ele>
        <time>2012-06-23T11:36:03Z</time>
      </trkpt>
      <trkpt lat="42.67513" lon="1.41012">
        <ele>2859.5786132812</ele>
        <time>2012-06-23T11:36:10Z</time>
      </trkpt>
      <trkpt lat="42.67515" lon="1.4101">
        <ele>2858.13671875</ele>
        <time>2012-06-23T11:36:18Z</time>
      </trkpt>
      <trkpt lat="42.67516" lon="1.41012">
        <ele>2856.6948242188</ele>
        <time>2012-06-23T11:36:25Z</time>
      </trkpt>
      <trkpt lat="42.67516" lon="1.41011">
        <ele>2855.2529296875</ele>
        <time>2012-06-23T11:36:35Z</time>
      </trkpt>
      <trkpt lat="42.67516" lon="1.4101">
        <ele>2854.2915039062</ele>
        <time>2012-06-23T11:36:42Z</time>
      </trkpt>
      <trkpt lat="42.67516" lon="1.41008">
        <ele>2853.330078125</ele>
        <time>2012-06-23T11:36:50Z</time>
      </trkpt>
      <trkpt lat="42.67516" lon="1.41006">
        <ele>2852.369140625</ele>
        <time>2012-06-23T11:37:02Z</time>
      </trkpt>
      <trkpt lat="42.67517" lon="1.41005">
        <ele>2851.8881835938</ele>
        <time>2012-06-23T11:37:08Z</time>
      </trkpt>
      <trkpt lat="42.67519" lon="1.41003">
        <ele>2852.849609375</ele>
        <time>2012-06-23T11:37:14Z</time>
      </trkpt>
      <trkpt lat="42.6752" lon="1.41001">
        <ele>2853.8110351562</ele>
        <time>2012-06-23T11:37:18Z</time>
      </trkpt>
      <trkpt lat="42.67523" lon="1.41">
        <ele>2852.849609375</ele>
        <time>2012-06-23T11:37:26Z</time>
      </trkpt>
      <trkpt lat="42.67525" lon="1.41">
        <ele>2850.9267578125</ele>
        <time>2012-06-23T11:37:33Z</time>
      </trkpt>
      <trkpt lat="42.67527" lon="1.40999">
        <ele>2849.0043945312</ele>
        <time>2012-06-23T11:37:39Z</time>
      </trkpt>
      <trkpt lat="42.67529" lon="1.41">
        <ele>2847.5625</ele>
        <time>2012-06-23T11:37:46Z</time>
      </trkpt>
      <trkpt lat="42.67529" lon="1.40998">
        <ele>2847.5625</ele>
        <time>2012-06-23T11:37:52Z</time>
      </trkpt>
      <trkpt lat="42.6753" lon="1.40997">
        <ele>2847.08203125</ele>
        <time>2012-06-23T11:37:59Z</time>
      </trkpt>
      <trkpt lat="42.67532" lon="1.40998">
        <ele>2846.1206054688</ele>
        <time>2012-06-23T11:38:07Z</time>
      </trkpt>
      <trkpt lat="42.67534" lon="1.41">
        <ele>2845.1591796875</ele>
        <time>2012-06-23T11:38:13Z</time>
      </trkpt>
      <trkpt lat="42.67535" lon="1.41003">
        <ele>2844.6787109375</ele>
        <time>2012-06-23T11:38:19Z</time>
      </trkpt>
      <trkpt lat="42.67534" lon="1.41007">
        <ele>2843.236328125</ele>
        <time>2012-06-23T11:38:25Z</time>
      </trkpt>
      <trkpt lat="42.67535" lon="1.4101">
        <ele>2842.275390625</ele>
        <time>2012-06-23T11:38:31Z</time>
      </trkpt>
      <trkpt lat="42.67536" lon="1.41011">
        <ele>2841.7944335938</ele>
        <time>2012-06-23T11:38:37Z</time>
      </trkpt>
      <trkpt lat="42.67539" lon="1.41009">
        <ele>2840.8334960938</ele>
        <time>2012-06-23T11:38:44Z</time>
      </trkpt>
      <trkpt lat="42.67541" lon="1.41009">
        <ele>2839.3916015625</ele>
        <time>2012-06-23T11:38:48Z</time>
      </trkpt>
      <trkpt lat="42.67543" lon="1.41011">
        <ele>2836.98828125</ele>
        <time>2012-06-23T11:38:54Z</time>
      </trkpt>
      <trkpt lat="42.67542" lon="1.41015">
        <ele>2835.0649414062</ele>
        <time>2012-06-23T11:39:00Z</time>
      </trkpt>
      <trkpt lat="42.67542" lon="1.41017">
        <ele>2833.623046875</ele>
        <time>2012-06-23T11:39:06Z</time>
      </trkpt>
      <trkpt lat="42.67543" lon="1.41022">
        <ele>2831.7006835938</ele>
        <time>2012-06-23T11:39:12Z</time>
      </trkpt>
      <trkpt lat="42.67544" lon="1.4103">
        <ele>2829.7778320312</ele>
        <time>2012-06-23T11:39:19Z</time>
      </trkpt>
      <trkpt lat="42.67544" lon="1.41035">
        <ele>2827.8549804688</ele>
        <time>2012-06-23T11:39:25Z</time>
      </trkpt>
      <trkpt lat="42.67544" lon="1.41039">
        <ele>2825.4521484375</ele>
        <time>2012-06-23T11:39:32Z</time>
      </trkpt>
      <trkpt lat="42.67545" lon="1.41041">
        <ele>2824.0102539062</ele>
        <time>2012-06-23T11:39:38Z</time>
      </trkpt>
      <trkpt lat="42.67545" lon="1.4104">
        <ele>2823.048828125</ele>
        <time>2012-06-23T11:39:46Z</time>
      </trkpt>
      <trkpt lat="42.67548" lon="1.41039">
        <ele>2823.048828125</ele>
        <time>2012-06-23T11:39:53Z</time>
      </trkpt>
      <trkpt lat="42.67549" lon="1.41041">
        <ele>2821.6069335938</ele>
        <time>2012-06-23T11:39:59Z</time>
      </trkpt>
      <trkpt lat="42.67549" lon="1.41042">
        <ele>2820.6455078125</ele>
        <time>2012-06-23T11:40:05Z</time>
      </trkpt>
      <trkpt lat="42.6755" lon="1.41045">
        <ele>2818.72265625</ele>
        <time>2012-06-23T11:40:13Z</time>
      </trkpt>
      <trkpt lat="42.67552" lon="1.41048">
        <ele>2817.2807617188</ele>
        <time>2012-06-23T11:40:20Z</time>
      </trkpt>
      <trkpt lat="42.67551" lon="1.41049">
        <ele>2816.3198242188</ele>
        <time>2012-06-23T11:40:28Z</time>
      </trkpt>
      <trkpt lat="42.67551" lon="1.4105">
        <ele>2816.8002929688</ele>
        <time>2012-06-23T11:40:35Z</time>
      </trkpt>
      <trkpt lat="42.67551" lon="1.41052">
        <ele>2816.8002929688</ele>
        <time>2012-06-23T11:40:42Z</time>
      </trkpt>
      <trkpt lat="42.67553" lon="1.41052">
        <ele>2815.3583984375</ele>
        <time>2012-06-23T11:40:49Z</time>
      </trkpt>
      <trkpt lat="42.67554" lon="1.41053">
        <ele>2813.9165039062</ele>
        <time>2012-06-23T11:40:55Z</time>
      </trkpt>
      <trkpt lat="42.67554" lon="1.41053">
        <ele>2812.4741210938</ele>
        <time>2012-06-23T11:41:01Z</time>
      </trkpt>
      <trkpt lat="42.67555" lon="1.41054">
        <ele>2811.0322265625</ele>
        <time>2012-06-23T11:41:07Z</time>
      </trkpt>
      <trkpt lat="42.67557" lon="1.41052">
        <ele>2810.5517578125</ele>
        <time>2012-06-23T11:41:14Z</time>
      </trkpt>
      <trkpt lat="42.67559" lon="1.41049">
        <ele>2810.0712890625</ele>
        <time>2012-06-23T11:41:21Z</time>
      </trkpt>
      <trkpt lat="42.67562" lon="1.41047">
        <ele>2809.1098632812</ele>
        <time>2012-06-23T11:41:28Z</time>
      </trkpt>
      <trkpt lat="42.67563" lon="1.41046">
        <ele>2808.1484375</ele>
        <time>2012-06-23T11:41:37Z</time>
      </trkpt>
      <trkpt lat="42.67565" lon="1.41046">
        <ele>2807.1870117188</ele>
        <time>2012-06-23T11:41:44Z</time>
      </trkpt>
      <trkpt lat="42.67566" lon="1.41048">
        <ele>2806.2260742188</ele>
        <time>2012-06-23T11:41:50Z</time>
      </trkpt>
      <trkpt lat="42.67566" lon="1.41049">
        <ele>2805.7451171875</ele>
        <time>2012-06-23T11:41:57Z</time>
      </trkpt>
      <trkpt lat="42.67566" lon="1.4105">
        <ele>2805.2646484375</ele>
        <time>2012-06-23T11:42:05Z</time>
      </trkpt>
      <trkpt lat="42.67566" lon="1.41051">
        <ele>2804.7836914062</ele>
        <time>2012-06-23T11:42:12Z</time>
      </trkpt>
      <trkpt lat="42.67567" lon="1.41052">
        <ele>2802.8608398438</ele>
        <time>2012-06-23T11:42:19Z</time>
      </trkpt>
      <trkpt lat="42.67568" lon="1.41054">
        <ele>2801.4189453125</ele>
        <time>2012-06-23T11:42:24Z</time>
      </trkpt>
      <trkpt lat="42.67569" lon="1.41056">
        <ele>2801.4189453125</ele>
        <time>2012-06-23T11:42:29Z</time>
      </trkpt>
      <trkpt lat="42.67569" lon="1.41058">
        <ele>2799.9770507812</ele>
        <time>2012-06-23T11:42:36Z</time>
      </trkpt>
      <trkpt lat="42.67568" lon="1.41062">
        <ele>2799.9770507812</ele>
        <time>2012-06-23T11:42:42Z</time>
      </trkpt>
      <trkpt lat="42.67568" lon="1.41064">
        <ele>2799.015625</ele>
        <time>2012-06-23T11:42:48Z</time>
      </trkpt>
      <trkpt lat="42.67567" lon="1.41066">
        <ele>2798.0541992188</ele>
        <time>2012-06-23T11:42:55Z</time>
      </trkpt>
      <trkpt lat="42.67568" lon="1.41067">
        <ele>2797.5737304688</ele>
        <time>2012-06-23T11:43:00Z</time>
      </trkpt>
      <trkpt lat="42.67568" lon="1.41068">
        <ele>2796.1318359375</ele>
        <time>2012-06-23T11:43:08Z</time>
      </trkpt>
      <trkpt lat="42.6757" lon="1.41069">
        <ele>2794.6899414062</ele>
        <time>2012-06-23T11:43:15Z</time>
      </trkpt>
      <trkpt lat="42.6757" lon="1.41071">
        <ele>2792.2866210938</ele>
        <time>2012-06-23T11:43:21Z</time>
      </trkpt>
      <trkpt lat="42.67573" lon="1.41073">
        <ele>2790.3637695312</ele>
        <time>2012-06-23T11:43:28Z</time>
      </trkpt>
      <trkpt lat="42.67577" lon="1.41072">
        <ele>2787.9604492188</ele>
        <time>2012-06-23T11:43:35Z</time>
      </trkpt>
      <trkpt lat="42.67581" lon="1.41073">
        <ele>2786.0380859375</ele>
        <time>2012-06-23T11:43:41Z</time>
      </trkpt>
      <trkpt lat="42.67582" lon="1.41078">
        <ele>2784.115234375</ele>
        <time>2012-06-23T11:43:46Z</time>
      </trkpt>
      <trkpt lat="42.67585" lon="1.41079">
        <ele>2782.1928710938</ele>
        <time>2012-06-23T11:43:51Z</time>
      </trkpt>
      <trkpt lat="42.67584" lon="1.41083">
        <ele>2780.7509765625</ele>
        <time>2012-06-23T11:43:58Z</time>
      </trkpt>
      <trkpt lat="42.67584" lon="1.41085">
        <ele>2779.3090820312</ele>
        <time>2012-06-23T11:44:03Z</time>
      </trkpt>
      <trkpt lat="42.67587" lon="1.41088">
        <ele>2776.4248046875</ele>
        <time>2012-06-23T11:44:09Z</time>
      </trkpt>
      <trkpt lat="42.67587" lon="1.41089">
        <ele>2774.5024414062</ele>
        <time>2012-06-23T11:44:21Z</time>
      </trkpt>
      <trkpt lat="42.67588" lon="1.4109">
        <ele>2773.060546875</ele>
        <time>2012-06-23T11:44:28Z</time>
      </trkpt>
      <trkpt lat="42.6759" lon="1.41092">
        <ele>2771.1372070312</ele>
        <time>2012-06-23T11:44:33Z</time>
      </trkpt>
      <trkpt lat="42.67592" lon="1.41096">
        <ele>2769.21484375</ele>
        <time>2012-06-23T11:44:40Z</time>
      </trkpt>
      <trkpt lat="42.67594" lon="1.411">
        <ele>2767.2919921875</ele>
        <time>2012-06-23T11:44:47Z</time>
      </trkpt>
      <trkpt lat="42.67595" lon="1.41101">
        <ele>2766.3305664062</ele>
        <time>2012-06-23T11:44:55Z</time>
      </trkpt>
      <trkpt lat="42.67596" lon="1.41103">
        <ele>2766.3305664062</ele>
        <time>2012-06-23T11:45:00Z</time>
      </trkpt>
      <trkpt lat="42.67596" lon="1.41106">
        <ele>2765.8500976562</ele>
        <time>2012-06-23T11:45:08Z</time>
      </trkpt>
      <trkpt lat="42.67596" lon="1.41106">
        <ele>2766.3305664062</ele>
        <time>2012-06-23T11:45:16Z</time>
      </trkpt>
      <trkpt lat="42.67598" lon="1.41108">
        <ele>2763.927734375</ele>
        <time>2012-06-23T11:45:23Z</time>
      </trkpt>
      <trkpt lat="42.67598" lon="1.41112">
        <ele>2761.5244140625</ele>
        <time>2012-06-23T11:45:28Z</time>
      </trkpt>
      <trkpt lat="42.67596" lon="1.41115">
        <ele>2761.0434570312</ele>
        <time>2012-06-23T11:45:33Z</time>
      </trkpt>
      <trkpt lat="42.67596" lon="1.41118">
        <ele>2760.5629882812</ele>
        <time>2012-06-23T11:45:37Z</time>
      </trkpt>
      <trkpt lat="42.67595" lon="1.41119">
        <ele>2760.0825195312</ele>
        <time>2012-06-23T11:45:42Z</time>
      </trkpt>
      <trkpt lat="42.67594" lon="1.41121">
        <ele>2759.12109375</ele>
        <time>2012-06-23T11:45:47Z</time>
      </trkpt>
      <trkpt lat="42.67591" lon="1.41121">
        <ele>2757.6791992188</ele>
        <time>2012-06-23T11:45:52Z</time>
      </trkpt>
      <trkpt lat="42.67588" lon="1.41122">
        <ele>2756.2373046875</ele>
        <time>2012-06-23T11:45:58Z</time>
      </trkpt>
      <trkpt lat="42.67587" lon="1.41126">
        <ele>2754.7954101562</ele>
        <time>2012-06-23T11:46:04Z</time>
      </trkpt>
      <trkpt lat="42.67585" lon="1.41127">
        <ele>2753.833984375</ele>
        <time>2012-06-23T11:46:10Z</time>
      </trkpt>
      <trkpt lat="42.67584" lon="1.41129">
        <ele>2752.3920898438</ele>
        <time>2012-06-23T11:46:15Z</time>
      </trkpt>
      <trkpt lat="42.67582" lon="1.41131">
        <ele>2750.4692382812</ele>
        <time>2012-06-23T11:46:21Z</time>
      </trkpt>
      <trkpt lat="42.67582" lon="1.41134">
        <ele>2749.5078125</ele>
        <time>2012-06-23T11:46:27Z</time>
      </trkpt>
      <trkpt lat="42.67581" lon="1.41136">
        <ele>2748.0659179688</ele>
        <time>2012-06-23T11:46:33Z</time>
      </trkpt>
      <trkpt lat="42.6758" lon="1.41138">
        <ele>2746.6240234375</ele>
        <time>2012-06-23T11:46:42Z</time>
      </trkpt>
      <trkpt lat="42.6758" lon="1.41138">
        <ele>2746.6240234375</ele>
        <time>2012-06-23T11:46:50Z</time>
      </trkpt>
      <trkpt lat="42.6758" lon="1.41138">
        <ele>2748.0659179688</ele>
        <time>2012-06-23T11:47:21Z</time>
      </trkpt>
      <trkpt lat="42.67579" lon="1.41139">
        <ele>2747.5854492188</ele>
        <time>2012-06-23T11:47:37Z</time>
      </trkpt>
      <trkpt lat="42.67578" lon="1.41141">
        <ele>2747.1049804688</ele>
        <time>2012-06-23T11:47:42Z</time>
      </trkpt>
      <trkpt lat="42.67576" lon="1.41144">
        <ele>2745.1821289062</ele>
        <time>2012-06-23T11:47:48Z</time>
      </trkpt>
      <trkpt lat="42.67574" lon="1.41146">
        <ele>2743.740234375</ele>
        <time>2012-06-23T11:47:54Z</time>
      </trkpt>
      <trkpt lat="42.67572" lon="1.41149">
        <ele>2742.2983398438</ele>
        <time>2012-06-23T11:48:01Z</time>
      </trkpt>
      <trkpt lat="42.6757" lon="1.4115">
        <ele>2741.3369140625</ele>
        <time>2012-06-23T11:48:06Z</time>
      </trkpt>
      <trkpt lat="42.67569" lon="1.41154">
        <ele>2739.89453125</ele>
        <time>2012-06-23T11:48:13Z</time>
      </trkpt>
      <trkpt lat="42.67568" lon="1.41158">
        <ele>2738.9331054688</ele>
        <time>2012-06-23T11:48:19Z</time>
      </trkpt>
      <trkpt lat="42.67567" lon="1.41159">
        <ele>2737.4912109375</ele>
        <time>2012-06-23T11:48:27Z</time>
      </trkpt>
      <trkpt lat="42.67567" lon="1.41159">
        <ele>2736.5297851562</ele>
        <time>2012-06-23T11:48:36Z</time>
      </trkpt>
      <trkpt lat="42.67566" lon="1.41159">
        <ele>2736.0493164062</ele>
        <time>2012-06-23T11:48:42Z</time>
      </trkpt>
      <trkpt lat="42.67566" lon="1.4116">
        <ele>2736.5297851562</ele>
        <time>2012-06-23T11:48:59Z</time>
      </trkpt>
      <trkpt lat="42.67566" lon="1.41161">
        <ele>2735.568359375</ele>
        <time>2012-06-23T11:49:08Z</time>
      </trkpt>
      <trkpt lat="42.67566" lon="1.41163">
        <ele>2734.607421875</ele>
        <time>2012-06-23T11:49:24Z</time>
      </trkpt>
      <trkpt lat="42.67566" lon="1.41166">
        <ele>2734.1264648438</ele>
        <time>2012-06-23T11:49:31Z</time>
      </trkpt>
      <trkpt lat="42.67566" lon="1.41169">
        <ele>2733.6459960938</ele>
        <time>2012-06-23T11:49:38Z</time>
      </trkpt>
      <trkpt lat="42.67565" lon="1.41172">
        <ele>2732.6845703125</ele>
        <time>2012-06-23T11:49:46Z</time>
      </trkpt>
      <trkpt lat="42.67565" lon="1.41173">
        <ele>2731.2426757812</ele>
        <time>2012-06-23T11:49:53Z</time>
      </trkpt>
      <trkpt lat="42.67565" lon="1.41175">
        <ele>2731.2426757812</ele>
        <time>2012-06-23T11:49:59Z</time>
      </trkpt>
      <trkpt lat="42.67564" lon="1.41178">
        <ele>2730.7622070312</ele>
        <time>2012-06-23T11:50:06Z</time>
      </trkpt>
      <trkpt lat="42.67562" lon="1.41181">
        <ele>2730.28125</ele>
        <time>2012-06-23T11:50:12Z</time>
      </trkpt>
      <trkpt lat="42.67562" lon="1.41179">
        <ele>2728.8393554688</ele>
        <time>2012-06-23T11:50:19Z</time>
      </trkpt>
      <trkpt lat="42.67562" lon="1.41177">
        <ele>2728.8393554688</ele>
        <time>2012-06-23T11:50:25Z</time>
      </trkpt>
      <trkpt lat="42.67564" lon="1.41175">
        <ele>2729.3203125</ele>
        <time>2012-06-23T11:50:30Z</time>
      </trkpt>
      <trkpt lat="42.67564" lon="1.41174">
        <ele>2729.80078125</ele>
        <time>2012-06-23T11:50:37Z</time>
      </trkpt>
      <trkpt lat="42.67565" lon="1.41174">
        <ele>2731.7236328125</ele>
        <time>2012-06-23T11:50:44Z</time>
      </trkpt>
      <trkpt lat="42.67566" lon="1.41173">
        <ele>2732.2041015625</ele>
        <time>2012-06-23T11:50:52Z</time>
      </trkpt>
      <trkpt lat="42.67566" lon="1.41169">
        <ele>2731.2426757812</ele>
        <time>2012-06-23T11:51:05Z</time>
      </trkpt>
      <trkpt lat="42.67566" lon="1.41167">
        <ele>2731.2426757812</ele>
        <time>2012-06-23T11:51:11Z</time>
      </trkpt>
      <trkpt lat="42.67566" lon="1.4117">
        <ele>2731.2426757812</ele>
        <time>2012-06-23T11:51:17Z</time>
      </trkpt>
      <trkpt lat="42.67566" lon="1.41171">
        <ele>2732.6845703125</ele>
        <time>2012-06-23T11:51:29Z</time>
      </trkpt>
      <trkpt lat="42.67566" lon="1.4117">
        <ele>2734.1264648438</ele>
        <time>2012-06-23T11:51:36Z</time>
      </trkpt>
      <trkpt lat="42.67567" lon="1.41169">
        <ele>2733.6459960938</ele>
        <time>2012-06-23T11:51:41Z</time>
      </trkpt>
      <trkpt lat="42.67567" lon="1.41168">
        <ele>2733.1655273438</ele>
        <time>2012-06-23T11:51:47Z</time>
      </trkpt>
      <trkpt lat="42.67568" lon="1.41168">
        <ele>2730.7622070312</ele>
        <time>2012-06-23T11:52:01Z</time>
      </trkpt>
      <trkpt lat="42.67568" lon="1.41169">
        <ele>2729.3203125</ele>
        <time>2012-06-23T11:52:07Z</time>
      </trkpt>
      <trkpt lat="42.67568" lon="1.4117">
        <ele>2728.8393554688</ele>
        <time>2012-06-23T11:52:19Z</time>
      </trkpt>
      <trkpt lat="42.67568" lon="1.41171">
        <ele>2726.9169921875</ele>
        <time>2012-06-23T11:52:26Z</time>
      </trkpt>
      <trkpt lat="42.67569" lon="1.4117">
        <ele>2725.9555664062</ele>
        <time>2012-06-23T11:52:36Z</time>
      </trkpt>
      <trkpt lat="42.67569" lon="1.41171">
        <ele>2724.994140625</ele>
        <time>2012-06-23T11:52:42Z</time>
      </trkpt>
      <trkpt lat="42.67568" lon="1.41172">
        <ele>2724.033203125</ele>
        <time>2012-06-23T11:52:47Z</time>
      </trkpt>
      <trkpt lat="42.67568" lon="1.41174">
        <ele>2723.0717773438</ele>
        <time>2012-06-23T11:52:55Z</time>
      </trkpt>
      <trkpt lat="42.67569" lon="1.41175">
        <ele>2719.2265625</ele>
        <time>2012-06-23T11:53:09Z</time>
      </trkpt>
      <trkpt lat="42.67568" lon="1.41179">
        <ele>2718.2651367188</ele>
        <time>2012-06-23T11:53:20Z</time>
      </trkpt>
      <trkpt lat="42.67568" lon="1.41179">
        <ele>2717.7846679688</ele>
        <time>2012-06-23T11:53:27Z</time>
      </trkpt>
      <trkpt lat="42.67569" lon="1.41182">
        <ele>2718.2651367188</ele>
        <time>2012-06-23T11:53:32Z</time>
      </trkpt>
      <trkpt lat="42.6757" lon="1.41184">
        <ele>2717.3037109375</ele>
        <time>2012-06-23T11:53:37Z</time>
      </trkpt>
      <trkpt lat="42.6757" lon="1.41187">
        <ele>2717.3037109375</ele>
        <time>2012-06-23T11:53:44Z</time>
      </trkpt>
      <trkpt lat="42.67571" lon="1.41189">
        <ele>2715.3813476562</ele>
        <time>2012-06-23T11:53:51Z</time>
      </trkpt>
      <trkpt lat="42.67571" lon="1.41192">
        <ele>2713.4584960938</ele>
        <time>2012-06-23T11:54:00Z</time>
      </trkpt>
      <trkpt lat="42.67571" lon="1.41193">
        <ele>2712.4970703125</ele>
        <time>2012-06-23T11:54:08Z</time>
      </trkpt>
      <trkpt lat="42.67572" lon="1.41192">
        <ele>2710.0942382812</ele>
        <time>2012-06-23T11:54:17Z</time>
      </trkpt>
      <trkpt lat="42.67572" lon="1.41195">
        <ele>2709.1328125</ele>
        <time>2012-06-23T11:54:23Z</time>
      </trkpt>
      <trkpt lat="42.67572" lon="1.41196">
        <ele>2708.1713867188</ele>
        <time>2012-06-23T11:54:33Z</time>
      </trkpt>
      <trkpt lat="42.6757" lon="1.41197">
        <ele>2707.2094726562</ele>
        <time>2012-06-23T11:54:37Z</time>
      </trkpt>
      <trkpt lat="42.6757" lon="1.41197">
        <ele>2706.2485351562</ele>
        <time>2012-06-23T11:54:46Z</time>
      </trkpt>
      <trkpt lat="42.67569" lon="1.41198">
        <ele>2706.2485351562</ele>
        <time>2012-06-23T11:54:53Z</time>
      </trkpt>
      <trkpt lat="42.67569" lon="1.412">
        <ele>2705.767578125</ele>
        <time>2012-06-23T11:54:59Z</time>
      </trkpt>
      <trkpt lat="42.67569" lon="1.41202">
        <ele>2705.287109375</ele>
        <time>2012-06-23T11:55:05Z</time>
      </trkpt>
      <trkpt lat="42.67568" lon="1.41205">
        <ele>2705.287109375</ele>
        <time>2012-06-23T11:55:14Z</time>
      </trkpt>
      <trkpt lat="42.67568" lon="1.41205">
        <ele>2703.8452148438</ele>
        <time>2012-06-23T11:55:21Z</time>
      </trkpt>
      <trkpt lat="42.67568" lon="1.41206">
        <ele>2701.4418945312</ele>
        <time>2012-06-23T11:55:29Z</time>
      </trkpt>
      <trkpt lat="42.67568" lon="1.41207">
        <ele>2700.9614257812</ele>
        <time>2012-06-23T11:55:35Z</time>
      </trkpt>
      <trkpt lat="42.67568" lon="1.41208">
        <ele>2699.5190429688</ele>
        <time>2012-06-23T11:55:44Z</time>
      </trkpt>
      <trkpt lat="42.67568" lon="1.41208">
        <ele>2698.5581054688</ele>
        <time>2012-06-23T11:55:49Z</time>
      </trkpt>
      <trkpt lat="42.67569" lon="1.41209">
        <ele>2697.1157226562</ele>
        <time>2012-06-23T11:55:57Z</time>
      </trkpt>
      <trkpt lat="42.67568" lon="1.41211">
        <ele>2693.7514648438</ele>
        <time>2012-06-23T11:56:04Z</time>
      </trkpt>
      <trkpt lat="42.6757" lon="1.41209">
        <ele>2688.4643554688</ele>
        <time>2012-06-23T11:56:19Z</time>
      </trkpt>
      <trkpt lat="42.67571" lon="1.41211">
        <ele>2687.9833984375</ele>
        <time>2012-06-23T11:56:23Z</time>
      </trkpt>
      <trkpt lat="42.6757" lon="1.41215">
        <ele>2687.0224609375</ele>
        <time>2012-06-23T11:56:29Z</time>
      </trkpt>
      <trkpt lat="42.67571" lon="1.41215">
        <ele>2685.099609375</ele>
        <time>2012-06-23T11:56:41Z</time>
      </trkpt>
      <trkpt lat="42.67574" lon="1.41214">
        <ele>2684.1381835938</ele>
        <time>2012-06-23T11:56:47Z</time>
      </trkpt>
      <trkpt lat="42.67574" lon="1.41218">
        <ele>2682.6962890625</ele>
        <time>2012-06-23T11:56:53Z</time>
      </trkpt>
      <trkpt lat="42.67577" lon="1.4122">
        <ele>2679.33203125</ele>
        <time>2012-06-23T11:57:04Z</time>
      </trkpt>
      <trkpt lat="42.67575" lon="1.41223">
        <ele>2677.8901367188</ele>
        <time>2012-06-23T11:57:11Z</time>
      </trkpt>
      <trkpt lat="42.67574" lon="1.41225">
        <ele>2677.4091796875</ele>
        <time>2012-06-23T11:57:17Z</time>
      </trkpt>
      <trkpt lat="42.67574" lon="1.41227">
        <ele>2676.4477539062</ele>
        <time>2012-06-23T11:57:23Z</time>
      </trkpt>
      <trkpt lat="42.67574" lon="1.41228">
        <ele>2676.4477539062</ele>
        <time>2012-06-23T11:57:29Z</time>
      </trkpt>
      <trkpt lat="42.67575" lon="1.41228">
        <ele>2676.4477539062</ele>
        <time>2012-06-23T11:57:46Z</time>
      </trkpt>
      <trkpt lat="42.67577" lon="1.41229">
        <ele>2675.966796875</ele>
        <time>2012-06-23T11:57:51Z</time>
      </trkpt>
      <trkpt lat="42.67578" lon="1.41231">
        <ele>2675.0053710938</ele>
        <time>2012-06-23T11:58:00Z</time>
      </trkpt>
      <trkpt lat="42.67578" lon="1.41232">
        <ele>2674.5249023438</ele>
        <time>2012-06-23T11:58:06Z</time>
      </trkpt>
      <trkpt lat="42.67579" lon="1.41232">
        <ele>2674.5249023438</ele>
        <time>2012-06-23T11:58:13Z</time>
      </trkpt>
      <trkpt lat="42.6758" lon="1.41232">
        <ele>2674.0439453125</ele>
        <time>2012-06-23T11:58:21Z</time>
      </trkpt>
      <trkpt lat="42.67581" lon="1.41234">
        <ele>2675.0053710938</ele>
        <time>2012-06-23T11:58:28Z</time>
      </trkpt>
      <trkpt lat="42.67581" lon="1.41235">
        <ele>2674.0439453125</ele>
        <time>2012-06-23T11:58:32Z</time>
      </trkpt>
      <trkpt lat="42.67583" lon="1.41234">
        <ele>2673.0830078125</ele>
        <time>2012-06-23T11:58:39Z</time>
      </trkpt>
      <trkpt lat="42.67589" lon="1.41233">
        <ele>2671.16015625</ele>
        <time>2012-06-23T11:58:46Z</time>
      </trkpt>
      <trkpt lat="42.67591" lon="1.41233">
        <ele>2669.2377929688</ele>
        <time>2012-06-23T11:58:50Z</time>
      </trkpt>
      <trkpt lat="42.67591" lon="1.41235">
        <ele>2666.8344726562</ele>
        <time>2012-06-23T11:58:54Z</time>
      </trkpt>
      <trkpt lat="42.6759" lon="1.41238">
        <ele>2663.9506835938</ele>
        <time>2012-06-23T11:59:00Z</time>
      </trkpt>
      <trkpt lat="42.67589" lon="1.41241">
        <ele>2662.0278320312</ele>
        <time>2012-06-23T11:59:06Z</time>
      </trkpt>
      <trkpt lat="42.67588" lon="1.41243">
        <ele>2660.10546875</ele>
        <time>2012-06-23T11:59:10Z</time>
      </trkpt>
      <trkpt lat="42.67588" lon="1.41245">
        <ele>2658.1826171875</ele>
        <time>2012-06-23T11:59:15Z</time>
      </trkpt>
      <trkpt lat="42.67588" lon="1.41246">
        <ele>2655.779296875</ele>
        <time>2012-06-23T11:59:20Z</time>
      </trkpt>
      <trkpt lat="42.6759" lon="1.41246">
        <ele>2654.3374023438</ele>
        <time>2012-06-23T11:59:27Z</time>
      </trkpt>
      <trkpt lat="42.67591" lon="1.41247">
        <ele>2653.3759765625</ele>
        <time>2012-06-23T11:59:33Z</time>
      </trkpt>
      <trkpt lat="42.67592" lon="1.4125">
        <ele>2650.97265625</ele>
        <time>2012-06-23T11:59:37Z</time>
      </trkpt>
      <trkpt lat="42.67591" lon="1.41252">
        <ele>2649.0502929688</ele>
        <time>2012-06-23T11:59:42Z</time>
      </trkpt>
      <trkpt lat="42.67593" lon="1.41253">
        <ele>2647.6083984375</ele>
        <time>2012-06-23T11:59:47Z</time>
      </trkpt>
      <trkpt lat="42.67593" lon="1.41255">
        <ele>2647.1279296875</ele>
        <time>2012-06-23T11:59:53Z</time>
      </trkpt>
      <trkpt lat="42.67594" lon="1.41255">
        <ele>2648.0888671875</ele>
        <time>2012-06-23T12:00:02Z</time>
      </trkpt>
      <trkpt lat="42.67597" lon="1.41255">
        <ele>2647.1279296875</ele>
        <time>2012-06-23T12:00:08Z</time>
      </trkpt>
      <trkpt lat="42.676" lon="1.41256">
        <ele>2645.685546875</ele>
        <time>2012-06-23T12:00:14Z</time>
      </trkpt>
      <trkpt lat="42.67601" lon="1.41257">
        <ele>2644.724609375</ele>
        <time>2012-06-23T12:00:21Z</time>
      </trkpt>
      <trkpt lat="42.67599" lon="1.4126">
        <ele>2646.6469726562</ele>
        <time>2012-06-23T12:00:35Z</time>
      </trkpt>
      <trkpt lat="42.67597" lon="1.41263">
        <ele>2648.0888671875</ele>
        <time>2012-06-23T12:00:47Z</time>
      </trkpt>
      <trkpt lat="42.67595" lon="1.41264">
        <ele>2648.5698242188</ele>
        <time>2012-06-23T12:00:54Z</time>
      </trkpt>
      <trkpt lat="42.67594" lon="1.41265">
        <ele>2648.0888671875</ele>
        <time>2012-06-23T12:01:00Z</time>
      </trkpt>
      <trkpt lat="42.67595" lon="1.41264">
        <ele>2645.205078125</ele>
        <time>2012-06-23T12:01:09Z</time>
      </trkpt>
      <trkpt lat="42.67596" lon="1.41264">
        <ele>2644.2436523438</ele>
        <time>2012-06-23T12:01:15Z</time>
      </trkpt>
      <trkpt lat="42.67595" lon="1.41267">
        <ele>2643.2817382812</ele>
        <time>2012-06-23T12:01:20Z</time>
      </trkpt>
      <trkpt lat="42.67593" lon="1.41268">
        <ele>2642.3208007812</ele>
        <time>2012-06-23T12:01:29Z</time>
      </trkpt>
      <trkpt lat="42.67592" lon="1.41269">
        <ele>2642.3208007812</ele>
        <time>2012-06-23T12:01:38Z</time>
      </trkpt>
      <trkpt lat="42.67592" lon="1.41269">
        <ele>2641.83984375</ele>
        <time>2012-06-23T12:01:44Z</time>
      </trkpt>
      <trkpt lat="42.67591" lon="1.4127">
        <ele>2641.359375</ele>
        <time>2012-06-23T12:01:57Z</time>
      </trkpt>
      <trkpt lat="42.67591" lon="1.41271">
        <ele>2641.359375</ele>
        <time>2012-06-23T12:02:06Z</time>
      </trkpt>
      <trkpt lat="42.6759" lon="1.41273">
        <ele>2640.87890625</ele>
        <time>2012-06-23T12:02:10Z</time>
      </trkpt>
      <trkpt lat="42.6759" lon="1.41273">
        <ele>2638.9560546875</ele>
        <time>2012-06-23T12:02:16Z</time>
      </trkpt>
      <trkpt lat="42.67591" lon="1.41273">
        <ele>2637.5141601562</ele>
        <time>2012-06-23T12:02:21Z</time>
      </trkpt>
      <trkpt lat="42.6759" lon="1.41276">
        <ele>2636.072265625</ele>
        <time>2012-06-23T12:02:27Z</time>
      </trkpt>
      <trkpt lat="42.67589" lon="1.41278">
        <ele>2635.5913085938</ele>
        <time>2012-06-23T12:02:33Z</time>
      </trkpt>
      <trkpt lat="42.67589" lon="1.4128">
        <ele>2634.6303710938</ele>
        <time>2012-06-23T12:02:37Z</time>
      </trkpt>
      <trkpt lat="42.67588" lon="1.4128">
        <ele>2631.7465820312</ele>
        <time>2012-06-23T12:02:49Z</time>
      </trkpt>
      <trkpt lat="42.67586" lon="1.41282">
        <ele>2629.8237304688</ele>
        <time>2012-06-23T12:02:56Z</time>
      </trkpt>
      <trkpt lat="42.67586" lon="1.41282">
        <ele>2628.8623046875</ele>
        <time>2012-06-23T12:03:02Z</time>
      </trkpt>
      <trkpt lat="42.67587" lon="1.41287">
        <ele>2627.4204101562</ele>
        <time>2012-06-23T12:03:09Z</time>
      </trkpt>
      <trkpt lat="42.67587" lon="1.41287">
        <ele>2626.458984375</ele>
        <time>2012-06-23T12:03:20Z</time>
      </trkpt>
      <trkpt lat="42.67587" lon="1.41287">
        <ele>2626.458984375</ele>
        <time>2012-06-23T12:03:22Z</time>
      </trkpt>
      <trkpt lat="42.67586" lon="1.41288">
        <ele>2621.171875</ele>
        <time>2012-06-23T12:33:08Z</time>
      </trkpt>
      <trkpt lat="42.67585" lon="1.41287">
        <ele>2621.171875</ele>
        <time>2012-06-23T12:33:15Z</time>
      </trkpt>
      <trkpt lat="42.67584" lon="1.41287">
        <ele>2620.69140625</ele>
        <time>2012-06-23T12:33:22Z</time>
      </trkpt>
      <trkpt lat="42.67582" lon="1.41286">
        <ele>2620.2104492188</ele>
        <time>2012-06-23T12:33:28Z</time>
      </trkpt>
      <trkpt lat="42.67581" lon="1.41287">
        <ele>2620.69140625</ele>
        <time>2012-06-23T12:33:39Z</time>
      </trkpt>
      <trkpt lat="42.67579" lon="1.41289">
        <ele>2621.6528320312</ele>
        <time>2012-06-23T12:33:50Z</time>
      </trkpt>
      <trkpt lat="42.67579" lon="1.4129">
        <ele>2621.6528320312</ele>
        <time>2012-06-23T12:34:08Z</time>
      </trkpt>
      <trkpt lat="42.67579" lon="1.41294">
        <ele>2622.1333007812</ele>
        <time>2012-06-23T12:34:19Z</time>
      </trkpt>
      <trkpt lat="42.67578" lon="1.41299">
        <ele>2622.6137695312</ele>
        <time>2012-06-23T12:34:29Z</time>
      </trkpt>
      <trkpt lat="42.67576" lon="1.41305">
        <ele>2622.6137695312</ele>
        <time>2012-06-23T12:34:37Z</time>
      </trkpt>
      <trkpt lat="42.67575" lon="1.41308">
        <ele>2622.1333007812</ele>
        <time>2012-06-23T12:34:43Z</time>
      </trkpt>
      <trkpt lat="42.67573" lon="1.41312">
        <ele>2621.6528320312</ele>
        <time>2012-06-23T12:34:51Z</time>
      </trkpt>
      <trkpt lat="42.67572" lon="1.41314">
        <ele>2622.1333007812</ele>
        <time>2012-06-23T12:34:55Z</time>
      </trkpt>
      <trkpt lat="42.6757" lon="1.41317">
        <ele>2621.6528320312</ele>
        <time>2012-06-23T12:35:00Z</time>
      </trkpt>
      <trkpt lat="42.67569" lon="1.41321">
        <ele>2622.1333007812</ele>
        <time>2012-06-23T12:35:06Z</time>
      </trkpt>
      <trkpt lat="42.67567" lon="1.41325">
        <ele>2622.1333007812</ele>
        <time>2012-06-23T12:35:12Z</time>
      </trkpt>
      <trkpt lat="42.67567" lon="1.41328">
        <ele>2622.1333007812</ele>
        <time>2012-06-23T12:35:16Z</time>
      </trkpt>
      <trkpt lat="42.67566" lon="1.41329">
        <ele>2622.6137695312</ele>
        <time>2012-06-23T12:35:29Z</time>
      </trkpt>
      <trkpt lat="42.67565" lon="1.4133">
        <ele>2622.1333007812</ele>
        <time>2012-06-23T12:35:38Z</time>
      </trkpt>
      <trkpt lat="42.67565" lon="1.41334">
        <ele>2621.6528320312</ele>
        <time>2012-06-23T12:35:49Z</time>
      </trkpt>
      <trkpt lat="42.67564" lon="1.41338">
        <ele>2620.69140625</ele>
        <time>2012-06-23T12:36:01Z</time>
      </trkpt>
      <trkpt lat="42.67566" lon="1.41337">
        <ele>2620.69140625</ele>
        <time>2012-06-23T12:36:19Z</time>
      </trkpt>
      <trkpt lat="42.67569" lon="1.41337">
        <ele>2620.69140625</ele>
        <time>2012-06-23T12:36:31Z</time>
      </trkpt>
      <trkpt lat="42.67572" lon="1.41334">
        <ele>2619.2495117188</ele>
        <time>2012-06-23T12:36:36Z</time>
      </trkpt>
      <trkpt lat="42.67576" lon="1.41335">
        <ele>2617.8076171875</ele>
        <time>2012-06-23T12:36:42Z</time>
      </trkpt>
      <trkpt lat="42.67576" lon="1.41336">
        <ele>2616.8461914062</ele>
        <time>2012-06-23T12:36:49Z</time>
      </trkpt>
      <trkpt lat="42.67575" lon="1.41339">
        <ele>2615.884765625</ele>
        <time>2012-06-23T12:37:04Z</time>
      </trkpt>
      <trkpt lat="42.67575" lon="1.41341">
        <ele>2614.4428710938</ele>
        <time>2012-06-23T12:37:09Z</time>
      </trkpt>
      <trkpt lat="42.67574" lon="1.41343">
        <ele>2613.4814453125</ele>
        <time>2012-06-23T12:37:16Z</time>
      </trkpt>
      <trkpt lat="42.67573" lon="1.41345">
        <ele>2613.4814453125</ele>
        <time>2012-06-23T12:37:21Z</time>
      </trkpt>
      <trkpt lat="42.67572" lon="1.41348">
        <ele>2613.9624023438</ele>
        <time>2012-06-23T12:37:27Z</time>
      </trkpt>
      <trkpt lat="42.67571" lon="1.41351">
        <ele>2613.9624023438</ele>
        <time>2012-06-23T12:37:33Z</time>
      </trkpt>
      <trkpt lat="42.6757" lon="1.41354">
        <ele>2613.9624023438</ele>
        <time>2012-06-23T12:37:38Z</time>
      </trkpt>
      <trkpt lat="42.67569" lon="1.41356">
        <ele>2613.9624023438</ele>
        <time>2012-06-23T12:37:44Z</time>
      </trkpt>
      <trkpt lat="42.67568" lon="1.4136">
        <ele>2614.4428710938</ele>
        <time>2012-06-23T12:37:52Z</time>
      </trkpt>
      <trkpt lat="42.67568" lon="1.41364">
        <ele>2614.4428710938</ele>
        <time>2012-06-23T12:37:59Z</time>
      </trkpt>
      <trkpt lat="42.67569" lon="1.41369">
        <ele>2614.9233398438</ele>
        <time>2012-06-23T12:38:05Z</time>
      </trkpt>
      <trkpt lat="42.6757" lon="1.41375">
        <ele>2617.3266601562</ele>
        <time>2012-06-23T12:38:16Z</time>
      </trkpt>
      <trkpt lat="42.6757" lon="1.41379">
        <ele>2618.2880859375</ele>
        <time>2012-06-23T12:38:22Z</time>
      </trkpt>
      <trkpt lat="42.6757" lon="1.41382">
        <ele>2619.2495117188</ele>
        <time>2012-06-23T12:38:26Z</time>
      </trkpt>
      <trkpt lat="42.67571" lon="1.41384">
        <ele>2620.69140625</ele>
        <time>2012-06-23T12:38:33Z</time>
      </trkpt>
      <trkpt lat="42.67574" lon="1.41384">
        <ele>2621.6528320312</ele>
        <time>2012-06-23T12:38:40Z</time>
      </trkpt>
      <trkpt lat="42.67575" lon="1.41387">
        <ele>2621.6528320312</ele>
        <time>2012-06-23T12:38:45Z</time>
      </trkpt>
      <trkpt lat="42.67575" lon="1.41387">
        <ele>2620.69140625</ele>
        <time>2012-06-23T12:38:50Z</time>
      </trkpt>
      <trkpt lat="42.67578" lon="1.41384">
        <ele>2619.7299804688</ele>
        <time>2012-06-23T12:39:07Z</time>
      </trkpt>
      <trkpt lat="42.67583" lon="1.41386">
        <ele>2618.7685546875</ele>
        <time>2012-06-23T12:39:13Z</time>
      </trkpt>
      <trkpt lat="42.67589" lon="1.41388">
        <ele>2617.8076171875</ele>
        <time>2012-06-23T12:39:20Z</time>
      </trkpt>
      <trkpt lat="42.67591" lon="1.41384">
        <ele>2615.404296875</ele>
        <time>2012-06-23T12:39:29Z</time>
      </trkpt>
      <trkpt lat="42.67593" lon="1.41386">
        <ele>2614.4428710938</ele>
        <time>2012-06-23T12:39:33Z</time>
      </trkpt>
      <trkpt lat="42.67596" lon="1.41388">
        <ele>2613.4814453125</ele>
        <time>2012-06-23T12:39:38Z</time>
      </trkpt>
      <trkpt lat="42.67598" lon="1.41388">
        <ele>2612.5200195312</ele>
        <time>2012-06-23T12:39:41Z</time>
      </trkpt>
      <trkpt lat="42.67602" lon="1.41391">
        <ele>2611.55859375</ele>
        <time>2012-06-23T12:39:47Z</time>
      </trkpt>
      <trkpt lat="42.67604" lon="1.41394">
        <ele>2612.0395507812</ele>
        <time>2012-06-23T12:39:51Z</time>
      </trkpt>
      <trkpt lat="42.67605" lon="1.41399">
        <ele>2613.4814453125</ele>
        <time>2012-06-23T12:39:59Z</time>
      </trkpt>
      <trkpt lat="42.67605" lon="1.41405">
        <ele>2615.884765625</ele>
        <time>2012-06-23T12:40:11Z</time>
      </trkpt>
      <trkpt lat="42.67605" lon="1.41408">
        <ele>2618.2880859375</ele>
        <time>2012-06-23T12:40:20Z</time>
      </trkpt>
      <trkpt lat="42.67605" lon="1.41411">
        <ele>2619.2495117188</ele>
        <time>2012-06-23T12:40:26Z</time>
      </trkpt>
      <trkpt lat="42.67605" lon="1.41412">
        <ele>2619.7299804688</ele>
        <time>2012-06-23T12:40:33Z</time>
      </trkpt>
      <trkpt lat="42.67604" lon="1.41414">
        <ele>2621.171875</ele>
        <time>2012-06-23T12:40:46Z</time>
      </trkpt>
      <trkpt lat="42.67603" lon="1.41416">
        <ele>2622.1333007812</ele>
        <time>2012-06-23T12:40:51Z</time>
      </trkpt>
      <trkpt lat="42.67603" lon="1.41419">
        <ele>2623.5751953125</ele>
        <time>2012-06-23T12:40:58Z</time>
      </trkpt>
      <trkpt lat="42.67603" lon="1.41423">
        <ele>2624.5366210938</ele>
        <time>2012-06-23T12:41:07Z</time>
      </trkpt>
      <trkpt lat="42.67603" lon="1.41427">
        <ele>2624.0561523438</ele>
        <time>2012-06-23T12:41:15Z</time>
      </trkpt>
      <trkpt lat="42.67604" lon="1.41429">
        <ele>2624.5366210938</ele>
        <time>2012-06-23T12:41:23Z</time>
      </trkpt>
      <trkpt lat="42.67604" lon="1.41433">
        <ele>2624.5366210938</ele>
        <time>2012-06-23T12:41:30Z</time>
      </trkpt>
      <trkpt lat="42.67604" lon="1.41434">
        <ele>2624.5366210938</ele>
        <time>2012-06-23T12:41:40Z</time>
      </trkpt>
      <trkpt lat="42.67605" lon="1.41434">
        <ele>2625.978515625</ele>
        <time>2012-06-23T12:41:53Z</time>
      </trkpt>
      <trkpt lat="42.67604" lon="1.4143">
        <ele>2625.0170898438</ele>
        <time>2012-06-23T12:42:02Z</time>
      </trkpt>
      <trkpt lat="42.67605" lon="1.41426">
        <ele>2623.5751953125</ele>
        <time>2012-06-23T12:42:08Z</time>
      </trkpt>
      <trkpt lat="42.67606" lon="1.41424">
        <ele>2622.6137695312</ele>
        <time>2012-06-23T12:42:14Z</time>
      </trkpt>
      <trkpt lat="42.67606" lon="1.41421">
        <ele>2619.2495117188</ele>
        <time>2012-06-23T12:42:25Z</time>
      </trkpt>
      <trkpt lat="42.67605" lon="1.41416">
        <ele>2618.7685546875</ele>
        <time>2012-06-23T12:42:35Z</time>
      </trkpt>
      <trkpt lat="42.67606" lon="1.41414">
        <ele>2617.8076171875</ele>
        <time>2012-06-23T12:42:40Z</time>
      </trkpt>
      <trkpt lat="42.67609" lon="1.41418">
        <ele>2618.7685546875</ele>
        <time>2012-06-23T12:43:00Z</time>
      </trkpt>
      <trkpt lat="42.67614" lon="1.41417">
        <ele>2621.171875</ele>
        <time>2012-06-23T12:43:18Z</time>
      </trkpt>
      <trkpt lat="42.67615" lon="1.41417">
        <ele>2621.171875</ele>
        <time>2012-06-23T12:43:34Z</time>
      </trkpt>
      <trkpt lat="42.67618" lon="1.41418">
        <ele>2615.884765625</ele>
        <time>2012-06-23T12:43:56Z</time>
      </trkpt>
      <trkpt lat="42.6762" lon="1.41421">
        <ele>2612.0395507812</ele>
        <time>2012-06-23T12:44:04Z</time>
      </trkpt>
      <trkpt lat="42.67624" lon="1.41422">
        <ele>2613.0009765625</ele>
        <time>2012-06-23T12:44:13Z</time>
      </trkpt>
      <trkpt lat="42.67622" lon="1.41422">
        <ele>2607.232421875</ele>
        <time>2012-06-23T12:44:26Z</time>
      </trkpt>
      <trkpt lat="42.67623" lon="1.41426">
        <ele>2602.9067382812</ele>
        <time>2012-06-23T12:44:35Z</time>
      </trkpt>
      <trkpt lat="42.67629" lon="1.41429">
        <ele>2602.4262695312</ele>
        <time>2012-06-23T12:44:51Z</time>
      </trkpt>
      <trkpt lat="42.67633" lon="1.4143">
        <ele>2601.9453125</ele>
        <time>2012-06-23T12:45:03Z</time>
      </trkpt>
      <trkpt lat="42.67637" lon="1.41431">
        <ele>2599.5419921875</ele>
        <time>2012-06-23T12:45:14Z</time>
      </trkpt>
      <trkpt lat="42.67642" lon="1.4143">
        <ele>2599.0615234375</ele>
        <time>2012-06-23T12:45:23Z</time>
      </trkpt>
      <trkpt lat="42.67642" lon="1.4143">
        <ele>2598.5810546875</ele>
        <time>2012-06-23T12:45:31Z</time>
      </trkpt>
      <trkpt lat="42.67641" lon="1.41429">
        <ele>2598.1000976562</ele>
        <time>2012-06-23T12:45:41Z</time>
      </trkpt>
      <trkpt lat="42.67641" lon="1.41426">
        <ele>2597.138671875</ele>
        <time>2012-06-23T12:45:52Z</time>
      </trkpt>
      <trkpt lat="42.6764" lon="1.41426">
        <ele>2599.5419921875</ele>
        <time>2012-06-23T12:46:03Z</time>
      </trkpt>
      <trkpt lat="42.67641" lon="1.41424">
        <ele>2599.0615234375</ele>
        <time>2012-06-23T12:46:09Z</time>
      </trkpt>
      <trkpt lat="42.67643" lon="1.41424">
        <ele>2598.1000976562</ele>
        <time>2012-06-23T12:46:14Z</time>
      </trkpt>
      <trkpt lat="42.67644" lon="1.41424">
        <ele>2597.6196289062</ele>
        <time>2012-06-23T12:46:18Z</time>
      </trkpt>
      <trkpt lat="42.67648" lon="1.41426">
        <ele>2597.138671875</ele>
        <time>2012-06-23T12:46:31Z</time>
      </trkpt>
      <trkpt lat="42.67649" lon="1.41424">
        <ele>2594.2548828125</ele>
        <time>2012-06-23T12:46:42Z</time>
      </trkpt>
      <trkpt lat="42.67651" lon="1.41421">
        <ele>2591.8518066406</ele>
        <time>2012-06-23T12:46:47Z</time>
      </trkpt>
      <trkpt lat="42.67653" lon="1.41417">
        <ele>2589.9291992188</ele>
        <time>2012-06-23T12:46:52Z</time>
      </trkpt>
      <trkpt lat="42.67655" lon="1.41411">
        <ele>2585.6030273438</ele>
        <time>2012-06-23T12:46:59Z</time>
      </trkpt>
      <trkpt lat="42.67658" lon="1.41409">
        <ele>2584.6418457031</ele>
        <time>2012-06-23T12:47:04Z</time>
      </trkpt>
      <trkpt lat="42.67665" lon="1.41412">
        <ele>2584.6418457031</ele>
        <time>2012-06-23T12:47:10Z</time>
      </trkpt>
      <trkpt lat="42.6767" lon="1.41413">
        <ele>2584.1611328125</ele>
        <time>2012-06-23T12:47:16Z</time>
      </trkpt>
      <trkpt lat="42.67674" lon="1.41416">
        <ele>2583.6804199219</ele>
        <time>2012-06-23T12:47:22Z</time>
      </trkpt>
      <trkpt lat="42.67676" lon="1.41418">
        <ele>2584.1611328125</ele>
        <time>2012-06-23T12:47:26Z</time>
      </trkpt>
      <trkpt lat="42.67679" lon="1.41417">
        <ele>2585.1223144531</ele>
        <time>2012-06-23T12:47:36Z</time>
      </trkpt>
      <trkpt lat="42.67682" lon="1.41416">
        <ele>2583.6804199219</ele>
        <time>2012-06-23T12:47:46Z</time>
      </trkpt>
      <trkpt lat="42.67685" lon="1.41413">
        <ele>2583.1997070312</ele>
        <time>2012-06-23T12:47:50Z</time>
      </trkpt>
      <trkpt lat="42.67689" lon="1.41409">
        <ele>2582.7189941406</ele>
        <time>2012-06-23T12:47:56Z</time>
      </trkpt>
      <trkpt lat="42.67693" lon="1.41407">
        <ele>2581.7578125</ele>
        <time>2012-06-23T12:48:01Z</time>
      </trkpt>
      <trkpt lat="42.67699" lon="1.41405">
        <ele>2579.8352050781</ele>
        <time>2012-06-23T12:48:07Z</time>
      </trkpt>
      <trkpt lat="42.677" lon="1.41406">
        <ele>2578.3933105469</ele>
        <time>2012-06-23T12:48:13Z</time>
      </trkpt>
      <trkpt lat="42.67702" lon="1.41407">
        <ele>2577.9125976562</ele>
        <time>2012-06-23T12:48:17Z</time>
      </trkpt>
      <trkpt lat="42.67706" lon="1.41407">
        <ele>2576.470703125</ele>
        <time>2012-06-23T12:48:21Z</time>
      </trkpt>
      <trkpt lat="42.67712" lon="1.41411">
        <ele>2574.5480957031</ele>
        <time>2012-06-23T12:48:27Z</time>
      </trkpt>
      <trkpt lat="42.67718" lon="1.41418">
        <ele>2575.5092773438</ele>
        <time>2012-06-23T12:48:33Z</time>
      </trkpt>
      <trkpt lat="42.67727" lon="1.41421">
        <ele>2577.4318847656</ele>
        <time>2012-06-23T12:48:41Z</time>
      </trkpt>
      <trkpt lat="42.67731" lon="1.4142">
        <ele>2577.4318847656</ele>
        <time>2012-06-23T12:48:44Z</time>
      </trkpt>
      <trkpt lat="42.67734" lon="1.41421">
        <ele>2577.9125976562</ele>
        <time>2012-06-23T12:48:46Z</time>
      </trkpt>
      <trkpt lat="42.6774" lon="1.4142">
        <ele>2577.4318847656</ele>
        <time>2012-06-23T12:48:52Z</time>
      </trkpt>
      <trkpt lat="42.6775" lon="1.41417">
        <ele>2575.9899902344</ele>
        <time>2012-06-23T12:49:00Z</time>
      </trkpt>
      <trkpt lat="42.67755" lon="1.41413">
        <ele>2576.9514160156</ele>
        <time>2012-06-23T12:49:05Z</time>
      </trkpt>
      <trkpt lat="42.67762" lon="1.41403">
        <ele>2575.9899902344</ele>
        <time>2012-06-23T12:49:13Z</time>
      </trkpt>
      <trkpt lat="42.67764" lon="1.41402">
        <ele>2575.9899902344</ele>
        <time>2012-06-23T12:49:19Z</time>
      </trkpt>
      <trkpt lat="42.67764" lon="1.41398">
        <ele>2576.470703125</ele>
        <time>2012-06-23T12:49:26Z</time>
      </trkpt>
      <trkpt lat="42.67765" lon="1.41394">
        <ele>2575.0285644531</ele>
        <time>2012-06-23T12:49:35Z</time>
      </trkpt>
      <trkpt lat="42.67769" lon="1.41386">
        <ele>2574.5480957031</ele>
        <time>2012-06-23T12:49:42Z</time>
      </trkpt>
      <trkpt lat="42.67773" lon="1.4138">
        <ele>2573.5866699219</ele>
        <time>2012-06-23T12:49:49Z</time>
      </trkpt>
      <trkpt lat="42.67775" lon="1.41375">
        <ele>2572.6254882812</ele>
        <time>2012-06-23T12:49:55Z</time>
      </trkpt>
      <trkpt lat="42.67777" lon="1.4137">
        <ele>2570.7026367188</ele>
        <time>2012-06-23T12:50:04Z</time>
      </trkpt>
      <trkpt lat="42.67781" lon="1.41368">
        <ele>2569.2607421875</ele>
        <time>2012-06-23T12:50:10Z</time>
      </trkpt>
      <trkpt lat="42.67787" lon="1.41367">
        <ele>2567.337890625</ele>
        <time>2012-06-23T12:50:17Z</time>
      </trkpt>
      <trkpt lat="42.67789" lon="1.41369">
        <ele>2565.4155273438</ele>
        <time>2012-06-23T12:50:23Z</time>
      </trkpt>
      <trkpt lat="42.67792" lon="1.41369">
        <ele>2563.9733886719</ele>
        <time>2012-06-23T12:50:30Z</time>
      </trkpt>
      <trkpt lat="42.67793" lon="1.41367">
        <ele>2563.4926757812</ele>
        <time>2012-06-23T12:50:36Z</time>
      </trkpt>
      <trkpt lat="42.67797" lon="1.41364">
        <ele>2561.5703125</ele>
        <time>2012-06-23T12:50:44Z</time>
      </trkpt>
      <trkpt lat="42.67801" lon="1.41365">
        <ele>2560.6088867188</ele>
        <time>2012-06-23T12:50:48Z</time>
      </trkpt>
      <trkpt lat="42.67804" lon="1.41367">
        <ele>2558.6862792969</ele>
        <time>2012-06-23T12:50:52Z</time>
      </trkpt>
      <trkpt lat="42.67808" lon="1.41369">
        <ele>2557.2443847656</ele>
        <time>2012-06-23T12:50:57Z</time>
      </trkpt>
      <trkpt lat="42.67812" lon="1.4137">
        <ele>2557.2443847656</ele>
        <time>2012-06-23T12:51:01Z</time>
      </trkpt>
      <trkpt lat="42.67816" lon="1.41374">
        <ele>2556.2829589844</ele>
        <time>2012-06-23T12:51:07Z</time>
      </trkpt>
      <trkpt lat="42.67819" lon="1.41374">
        <ele>2554.3601074219</ele>
        <time>2012-06-23T12:51:15Z</time>
      </trkpt>
      <trkpt lat="42.67822" lon="1.41374">
        <ele>2553.3989257812</ele>
        <time>2012-06-23T12:51:25Z</time>
      </trkpt>
      <trkpt lat="42.67823" lon="1.41377">
        <ele>2552.4375</ele>
        <time>2012-06-23T12:51:30Z</time>
      </trkpt>
      <trkpt lat="42.67825" lon="1.41377">
        <ele>2551.4763183594</ele>
        <time>2012-06-23T12:51:37Z</time>
      </trkpt>
      <trkpt lat="42.67826" lon="1.41375">
        <ele>2550.5148925781</ele>
        <time>2012-06-23T12:51:43Z</time>
      </trkpt>
      <trkpt lat="42.67831" lon="1.41372">
        <ele>2547.6311035156</ele>
        <time>2012-06-23T12:51:54Z</time>
      </trkpt>
      <trkpt lat="42.67834" lon="1.41374">
        <ele>2546.6696777344</ele>
        <time>2012-06-23T12:51:59Z</time>
      </trkpt>
      <trkpt lat="42.67836" lon="1.41377">
        <ele>2544.7470703125</ele>
        <time>2012-06-23T12:52:04Z</time>
      </trkpt>
      <trkpt lat="42.67838" lon="1.41379">
        <ele>2544.2663574219</ele>
        <time>2012-06-23T12:52:08Z</time>
      </trkpt>
      <trkpt lat="42.67847" lon="1.41384">
        <ele>2544.2663574219</ele>
        <time>2012-06-23T12:52:22Z</time>
      </trkpt>
      <trkpt lat="42.6785" lon="1.41387">
        <ele>2543.3051757812</ele>
        <time>2012-06-23T12:52:28Z</time>
      </trkpt>
      <trkpt lat="42.67858" lon="1.41394">
        <ele>2550.0344238281</ele>
        <time>2012-06-23T12:52:40Z</time>
      </trkpt>
      <trkpt lat="42.6786" lon="1.41396">
        <ele>2549.0729980469</ele>
        <time>2012-06-23T12:52:45Z</time>
      </trkpt>
      <trkpt lat="42.6786" lon="1.414">
        <ele>2541.86328125</ele>
        <time>2012-06-23T12:52:53Z</time>
      </trkpt>
      <trkpt lat="42.67862" lon="1.41401">
        <ele>2540.9018554688</ele>
        <time>2012-06-23T12:52:57Z</time>
      </trkpt>
      <trkpt lat="42.67865" lon="1.41401">
        <ele>2539.4597167969</ele>
        <time>2012-06-23T12:53:02Z</time>
      </trkpt>
      <trkpt lat="42.67865" lon="1.41402">
        <ele>2538.4985351562</ele>
        <time>2012-06-23T12:53:10Z</time>
      </trkpt>
      <trkpt lat="42.67866" lon="1.41402">
        <ele>2538.9790039062</ele>
        <time>2012-06-23T12:53:33Z</time>
      </trkpt>
      <trkpt lat="42.67865" lon="1.41403">
        <ele>2538.9790039062</ele>
        <time>2012-06-23T12:53:45Z</time>
      </trkpt>
      <trkpt lat="42.67865" lon="1.41404">
        <ele>2540.4211425781</ele>
        <time>2012-06-23T12:53:59Z</time>
      </trkpt>
      <trkpt lat="42.67868" lon="1.414">
        <ele>2538.0178222656</ele>
        <time>2012-06-23T12:54:30Z</time>
      </trkpt>
      <trkpt lat="42.67872" lon="1.41399">
        <ele>2536.0952148438</ele>
        <time>2012-06-23T12:54:37Z</time>
      </trkpt>
      <trkpt lat="42.67875" lon="1.41401">
        <ele>2535.1337890625</ele>
        <time>2012-06-23T12:54:45Z</time>
      </trkpt>
      <trkpt lat="42.67876" lon="1.414">
        <ele>2533.6918945312</ele>
        <time>2012-06-23T12:54:49Z</time>
      </trkpt>
      <trkpt lat="42.67879" lon="1.41402">
        <ele>2532.25</ele>
        <time>2012-06-23T12:54:53Z</time>
      </trkpt>
      <trkpt lat="42.67882" lon="1.41409">
        <ele>2531.2885742188</ele>
        <time>2012-06-23T12:54:59Z</time>
      </trkpt>
      <trkpt lat="42.67883" lon="1.41414">
        <ele>2531.7692871094</ele>
        <time>2012-06-23T12:55:04Z</time>
      </trkpt>
      <trkpt lat="42.67884" lon="1.41417">
        <ele>2531.2885742188</ele>
        <time>2012-06-23T12:55:10Z</time>
      </trkpt>
      <trkpt lat="42.67885" lon="1.4142">
        <ele>2531.2885742188</ele>
        <time>2012-06-23T12:55:14Z</time>
      </trkpt>
      <trkpt lat="42.67886" lon="1.41423">
        <ele>2531.2885742188</ele>
        <time>2012-06-23T12:55:20Z</time>
      </trkpt>
      <trkpt lat="42.67887" lon="1.41425">
        <ele>2530.3273925781</ele>
        <time>2012-06-23T12:55:26Z</time>
      </trkpt>
      <trkpt lat="42.67893" lon="1.41429">
        <ele>2535.1337890625</ele>
        <time>2012-06-23T12:55:31Z</time>
      </trkpt>
      <trkpt lat="42.67899" lon="1.41436">
        <ele>2538.9790039062</ele>
        <time>2012-06-23T12:55:37Z</time>
      </trkpt>
      <trkpt lat="42.679" lon="1.41438">
        <ele>2538.9790039062</ele>
        <time>2012-06-23T12:55:39Z</time>
      </trkpt>
      <trkpt lat="42.67903" lon="1.41444">
        <ele>2539.4597167969</ele>
        <time>2012-06-23T12:55:47Z</time>
      </trkpt>
      <trkpt lat="42.67902" lon="1.41445">
        <ele>2538.4985351562</ele>
        <time>2012-06-23T12:55:52Z</time>
      </trkpt>
      <trkpt lat="42.67901" lon="1.41449">
        <ele>2535.6145019531</ele>
        <time>2012-06-23T12:56:01Z</time>
      </trkpt>
      <trkpt lat="42.679" lon="1.41453">
        <ele>2532.73046875</ele>
        <time>2012-06-23T12:56:08Z</time>
      </trkpt>
      <trkpt lat="42.679" lon="1.41456">
        <ele>2530.3273925781</ele>
        <time>2012-06-23T12:56:13Z</time>
      </trkpt>
      <trkpt lat="42.67901" lon="1.41459">
        <ele>2528.4047851562</ele>
        <time>2012-06-23T12:56:18Z</time>
      </trkpt>
      <trkpt lat="42.679" lon="1.4146">
        <ele>2525.0400390625</ele>
        <time>2012-06-23T12:56:24Z</time>
      </trkpt>
      <trkpt lat="42.67899" lon="1.41461">
        <ele>2522.63671875</ele>
        <time>2012-06-23T12:56:30Z</time>
      </trkpt>
      <trkpt lat="42.67897" lon="1.41463">
        <ele>2518.7915039062</ele>
        <time>2012-06-23T12:56:38Z</time>
      </trkpt>
      <trkpt lat="42.67898" lon="1.41466">
        <ele>2514.4655761719</ele>
        <time>2012-06-23T12:56:53Z</time>
      </trkpt>
      <trkpt lat="42.67899" lon="1.41466">
        <ele>2510.6203613281</ele>
        <time>2012-06-23T12:57:02Z</time>
      </trkpt>
      <trkpt lat="42.67898" lon="1.41466">
        <ele>2509.1784667969</ele>
        <time>2012-06-23T12:57:09Z</time>
      </trkpt>
      <trkpt lat="42.67897" lon="1.41466">
        <ele>2506.2941894531</ele>
        <time>2012-06-23T12:57:28Z</time>
      </trkpt>
      <trkpt lat="42.67897" lon="1.41466">
        <ele>2505.3330078125</ele>
        <time>2012-06-23T12:57:34Z</time>
      </trkpt>
      <trkpt lat="42.67896" lon="1.41465">
        <ele>2500.5263671875</ele>
        <time>2012-06-23T12:57:49Z</time>
      </trkpt>
      <trkpt lat="42.67892" lon="1.41456">
        <ele>2487.5485839844</ele>
        <time>2012-06-23T12:57:58Z</time>
      </trkpt>
      <trkpt lat="42.67892" lon="1.41456">
        <ele>2483.7033691406</ele>
        <time>2012-06-23T12:58:08Z</time>
      </trkpt>
      <trkpt lat="42.67891" lon="1.41459">
        <ele>2484.6647949219</ele>
        <time>2012-06-23T12:58:19Z</time>
      </trkpt>
      <trkpt lat="42.67891" lon="1.41463">
        <ele>2484.1840820312</ele>
        <time>2012-06-23T12:58:32Z</time>
      </trkpt>
      <trkpt lat="42.67896" lon="1.41467">
        <ele>2489.4711914062</ele>
        <time>2012-06-23T12:58:43Z</time>
      </trkpt>
      <trkpt lat="42.67904" lon="1.4147">
        <ele>2494.7585449219</ele>
        <time>2012-06-23T12:58:55Z</time>
      </trkpt>
      <trkpt lat="42.67912" lon="1.41465">
        <ele>2499.0844726562</ele>
        <time>2012-06-23T12:59:12Z</time>
      </trkpt>
      <trkpt lat="42.67913" lon="1.41463">
        <ele>2495.7199707031</ele>
        <time>2012-06-23T12:59:29Z</time>
      </trkpt>
      <trkpt lat="42.67913" lon="1.41464">
        <ele>2492.35546875</ele>
        <time>2012-06-23T12:59:43Z</time>
      </trkpt>
      <trkpt lat="42.67916" lon="1.41465">
        <ele>2494.2778320312</ele>
        <time>2012-06-23T12:59:54Z</time>
      </trkpt>
      <trkpt lat="42.67918" lon="1.41465">
        <ele>2492.8359375</ele>
        <time>2012-06-23T12:59:59Z</time>
      </trkpt>
      <trkpt lat="42.67919" lon="1.41466">
        <ele>2491.8745117188</ele>
        <time>2012-06-23T13:00:04Z</time>
      </trkpt>
      <trkpt lat="42.67922" lon="1.41466">
        <ele>2491.3937988281</ele>
        <time>2012-06-23T13:00:11Z</time>
      </trkpt>
      <trkpt lat="42.67924" lon="1.41468">
        <ele>2488.5100097656</ele>
        <time>2012-06-23T13:00:26Z</time>
      </trkpt>
      <trkpt lat="42.67927" lon="1.41468">
        <ele>2487.0678710938</ele>
        <time>2012-06-23T13:00:33Z</time>
      </trkpt>
      <trkpt lat="42.67928" lon="1.4147">
        <ele>2486.1066894531</ele>
        <time>2012-06-23T13:00:39Z</time>
      </trkpt>
      <trkpt lat="42.67928" lon="1.41475">
        <ele>2484.6647949219</ele>
        <time>2012-06-23T13:00:53Z</time>
      </trkpt>
      <trkpt lat="42.67928" lon="1.41477">
        <ele>2482.7419433594</ele>
        <time>2012-06-23T13:01:02Z</time>
      </trkpt>
      <trkpt lat="42.67929" lon="1.41479">
        <ele>2481.3000488281</ele>
        <time>2012-06-23T13:01:09Z</time>
      </trkpt>
      <trkpt lat="42.6793" lon="1.41482">
        <ele>2479.3774414062</ele>
        <time>2012-06-23T13:01:14Z</time>
      </trkpt>
      <trkpt lat="42.6793" lon="1.41482">
        <ele>2478.4162597656</ele>
        <time>2012-06-23T13:01:19Z</time>
      </trkpt>
      <trkpt lat="42.6793" lon="1.41482">
        <ele>2477.935546875</ele>
        <time>2012-06-23T13:01:26Z</time>
      </trkpt>
      <trkpt lat="42.67931" lon="1.41483">
        <ele>2477.4548339844</ele>
        <time>2012-06-23T13:01:30Z</time>
      </trkpt>
      <trkpt lat="42.67933" lon="1.41486">
        <ele>2476.4936523438</ele>
        <time>2012-06-23T13:01:35Z</time>
      </trkpt>
      <trkpt lat="42.67934" lon="1.41489">
        <ele>2475.0512695312</ele>
        <time>2012-06-23T13:01:41Z</time>
      </trkpt>
      <trkpt lat="42.67937" lon="1.4149">
        <ele>2474.0900878906</ele>
        <time>2012-06-23T13:01:47Z</time>
      </trkpt>
      <trkpt lat="42.67939" lon="1.41491">
        <ele>2472.6481933594</ele>
        <time>2012-06-23T13:01:53Z</time>
      </trkpt>
      <trkpt lat="42.67941" lon="1.41493">
        <ele>2471.6867675781</ele>
        <time>2012-06-23T13:01:57Z</time>
      </trkpt>
      <trkpt lat="42.67942" lon="1.415">
        <ele>2469.2836914062</ele>
        <time>2012-06-23T13:02:04Z</time>
      </trkpt>
      <trkpt lat="42.67945" lon="1.41499">
        <ele>2468.8029785156</ele>
        <time>2012-06-23T13:02:07Z</time>
      </trkpt>
      <trkpt lat="42.67954" lon="1.41499">
        <ele>2466.8803710938</ele>
        <time>2012-06-23T13:02:15Z</time>
      </trkpt>
      <trkpt lat="42.67957" lon="1.41498">
        <ele>2462.0737304688</ele>
        <time>2012-06-23T13:02:22Z</time>
      </trkpt>
      <trkpt lat="42.6796" lon="1.415">
        <ele>2460.1511230469</ele>
        <time>2012-06-23T13:02:26Z</time>
      </trkpt>
      <trkpt lat="42.6796" lon="1.415">
        <ele>2457.7478027344</ele>
        <time>2012-06-23T13:02:33Z</time>
      </trkpt>
      <trkpt lat="42.67962" lon="1.41501">
        <ele>2455.8249511719</ele>
        <time>2012-06-23T13:02:39Z</time>
      </trkpt>
      <trkpt lat="42.67964" lon="1.41502">
        <ele>2454.8637695312</ele>
        <time>2012-06-23T13:02:47Z</time>
      </trkpt>
      <trkpt lat="42.67963" lon="1.41505">
        <ele>2455.3444824219</ele>
        <time>2012-06-23T13:02:55Z</time>
      </trkpt>
      <trkpt lat="42.67962" lon="1.41508">
        <ele>2454.3830566406</ele>
        <time>2012-06-23T13:03:03Z</time>
      </trkpt>
      <trkpt lat="42.67962" lon="1.41506">
        <ele>2453.9025878906</ele>
        <time>2012-06-23T13:03:14Z</time>
      </trkpt>
      <trkpt lat="42.67962" lon="1.41508">
        <ele>2452.9411621094</ele>
        <time>2012-06-23T13:03:20Z</time>
      </trkpt>
      <trkpt lat="42.67962" lon="1.4151">
        <ele>2452.4604492188</ele>
        <time>2012-06-23T13:03:26Z</time>
      </trkpt>
      <trkpt lat="42.67961" lon="1.41513">
        <ele>2451.9797363281</ele>
        <time>2012-06-23T13:03:32Z</time>
      </trkpt>
      <trkpt lat="42.67962" lon="1.41517">
        <ele>2451.0185546875</ele>
        <time>2012-06-23T13:03:39Z</time>
      </trkpt>
      <trkpt lat="42.6796" lon="1.41521">
        <ele>2449.0959472656</ele>
        <time>2012-06-23T13:03:47Z</time>
      </trkpt>
      <trkpt lat="42.67958" lon="1.41522">
        <ele>2447.6540527344</ele>
        <time>2012-06-23T13:03:54Z</time>
      </trkpt>
      <trkpt lat="42.6796" lon="1.41525">
        <ele>2446.2121582031</ele>
        <time>2012-06-23T13:04:00Z</time>
      </trkpt>
      <trkpt lat="42.67959" lon="1.41528">
        <ele>2446.2121582031</ele>
        <time>2012-06-23T13:04:05Z</time>
      </trkpt>
      <trkpt lat="42.67953" lon="1.41532">
        <ele>2445.7314453125</ele>
        <time>2012-06-23T13:04:11Z</time>
      </trkpt>
      <trkpt lat="42.67949" lon="1.41536">
        <ele>2445.2507324219</ele>
        <time>2012-06-23T13:04:16Z</time>
      </trkpt>
      <trkpt lat="42.67943" lon="1.41538">
        <ele>2445.2507324219</ele>
        <time>2012-06-23T13:04:23Z</time>
      </trkpt>
      <trkpt lat="42.67937" lon="1.41543">
        <ele>2444.2893066406</ele>
        <time>2012-06-23T13:04:30Z</time>
      </trkpt>
      <trkpt lat="42.67934" lon="1.41547">
        <ele>2443.3278808594</ele>
        <time>2012-06-23T13:04:36Z</time>
      </trkpt>
      <trkpt lat="42.67934" lon="1.41543">
        <ele>2442.8471679688</ele>
        <time>2012-06-23T13:04:40Z</time>
      </trkpt>
      <trkpt lat="42.67933" lon="1.41541">
        <ele>2443.3278808594</ele>
        <time>2012-06-23T13:04:45Z</time>
      </trkpt>
      <trkpt lat="42.67931" lon="1.41539">
        <ele>2444.7700195312</ele>
        <time>2012-06-23T13:04:50Z</time>
      </trkpt>
      <trkpt lat="42.67929" lon="1.4154">
        <ele>2445.7314453125</ele>
        <time>2012-06-23T13:04:55Z</time>
      </trkpt>
      <trkpt lat="42.67924" lon="1.41541">
        <ele>2447.6540527344</ele>
        <time>2012-06-23T13:05:02Z</time>
      </trkpt>
      <trkpt lat="42.67923" lon="1.41538">
        <ele>2448.615234375</ele>
        <time>2012-06-23T13:05:09Z</time>
      </trkpt>
      <trkpt lat="42.67922" lon="1.41539">
        <ele>2449.0959472656</ele>
        <time>2012-06-23T13:05:17Z</time>
      </trkpt>
      <trkpt lat="42.67921" lon="1.4154">
        <ele>2450.0573730469</ele>
        <time>2012-06-23T13:05:24Z</time>
      </trkpt>
      <trkpt lat="42.67918" lon="1.41543">
        <ele>2451.9797363281</ele>
        <time>2012-06-23T13:05:30Z</time>
      </trkpt>
      <trkpt lat="42.67917" lon="1.41544">
        <ele>2452.9411621094</ele>
        <time>2012-06-23T13:05:36Z</time>
      </trkpt>
      <trkpt lat="42.67915" lon="1.41545">
        <ele>2454.3830566406</ele>
        <time>2012-06-23T13:05:41Z</time>
      </trkpt>
      <trkpt lat="42.67912" lon="1.41548">
        <ele>2455.3444824219</ele>
        <time>2012-06-23T13:05:47Z</time>
      </trkpt>
      <trkpt lat="42.67909" lon="1.41549">
        <ele>2455.8249511719</ele>
        <time>2012-06-23T13:05:53Z</time>
      </trkpt>
      <trkpt lat="42.67906" lon="1.41553">
        <ele>2454.8637695312</ele>
        <time>2012-06-23T13:06:00Z</time>
      </trkpt>
      <trkpt lat="42.67904" lon="1.41556">
        <ele>2453.9025878906</ele>
        <time>2012-06-23T13:06:05Z</time>
      </trkpt>
      <trkpt lat="42.679" lon="1.41558">
        <ele>2452.4604492188</ele>
        <time>2012-06-23T13:06:11Z</time>
      </trkpt>
      <trkpt lat="42.67897" lon="1.4156">
        <ele>2451.0185546875</ele>
        <time>2012-06-23T13:06:16Z</time>
      </trkpt>
      <trkpt lat="42.67894" lon="1.41561">
        <ele>2449.0959472656</ele>
        <time>2012-06-23T13:06:21Z</time>
      </trkpt>
      <trkpt lat="42.6789" lon="1.41562">
        <ele>2447.1733398438</ele>
        <time>2012-06-23T13:06:26Z</time>
      </trkpt>
      <trkpt lat="42.67886" lon="1.41563">
        <ele>2446.2121582031</ele>
        <time>2012-06-23T13:06:32Z</time>
      </trkpt>
      <trkpt lat="42.67883" lon="1.41564">
        <ele>2444.2893066406</ele>
        <time>2012-06-23T13:06:38Z</time>
      </trkpt>
      <trkpt lat="42.67881" lon="1.41566">
        <ele>2443.3278808594</ele>
        <time>2012-06-23T13:06:43Z</time>
      </trkpt>
      <trkpt lat="42.67876" lon="1.41566">
        <ele>2441.4052734375</ele>
        <time>2012-06-23T13:06:50Z</time>
      </trkpt>
      <trkpt lat="42.67874" lon="1.41566">
        <ele>2440.4438476562</ele>
        <time>2012-06-23T13:06:57Z</time>
      </trkpt>
      <trkpt lat="42.67873" lon="1.41567">
        <ele>2439.9633789062</ele>
        <time>2012-06-23T13:07:03Z</time>
      </trkpt>
      <trkpt lat="42.67873" lon="1.41567">
        <ele>2439.9633789062</ele>
        <time>2012-06-23T13:07:08Z</time>
      </trkpt>
      <trkpt lat="42.67871" lon="1.41569">
        <ele>2438.521484375</ele>
        <time>2012-06-23T13:07:20Z</time>
      </trkpt>
      <trkpt lat="42.6787" lon="1.41569">
        <ele>2437.5600585938</ele>
        <time>2012-06-23T13:07:29Z</time>
      </trkpt>
      <trkpt lat="42.6787" lon="1.4157">
        <ele>2436.1181640625</ele>
        <time>2012-06-23T13:07:37Z</time>
      </trkpt>
      <trkpt lat="42.67867" lon="1.41573">
        <ele>2434.1955566406</ele>
        <time>2012-06-23T13:07:43Z</time>
      </trkpt>
      <trkpt lat="42.67867" lon="1.41577">
        <ele>2433.71484375</ele>
        <time>2012-06-23T13:07:49Z</time>
      </trkpt>
      <trkpt lat="42.67866" lon="1.41583">
        <ele>2432.2729492188</ele>
        <time>2012-06-23T13:07:55Z</time>
      </trkpt>
      <trkpt lat="42.67864" lon="1.41588">
        <ele>2431.7922363281</ele>
        <time>2012-06-23T13:08:00Z</time>
      </trkpt>
      <trkpt lat="42.67862" lon="1.41593">
        <ele>2429.8696289062</ele>
        <time>2012-06-23T13:08:05Z</time>
      </trkpt>
      <trkpt lat="42.67859" lon="1.41596">
        <ele>2428.427734375</ele>
        <time>2012-06-23T13:08:10Z</time>
      </trkpt>
      <trkpt lat="42.67858" lon="1.41599">
        <ele>2427.4660644531</ele>
        <time>2012-06-23T13:08:15Z</time>
      </trkpt>
      <trkpt lat="42.67856" lon="1.41604">
        <ele>2425.0627441406</ele>
        <time>2012-06-23T13:08:22Z</time>
      </trkpt>
      <trkpt lat="42.67862" lon="1.41607">
        <ele>2422.6596679688</ele>
        <time>2012-06-23T13:08:33Z</time>
      </trkpt>
      <trkpt lat="42.67862" lon="1.41609">
        <ele>2420.2563476562</ele>
        <time>2012-06-23T13:08:45Z</time>
      </trkpt>
      <trkpt lat="42.67863" lon="1.4161">
        <ele>2416.8918457031</ele>
        <time>2012-06-23T13:08:58Z</time>
      </trkpt>
      <trkpt lat="42.67864" lon="1.41614">
        <ele>2415.9304199219</ele>
        <time>2012-06-23T13:09:04Z</time>
      </trkpt>
      <trkpt lat="42.67863" lon="1.41617">
        <ele>2413.5270996094</ele>
        <time>2012-06-23T13:09:11Z</time>
      </trkpt>
      <trkpt lat="42.67863" lon="1.4162">
        <ele>2411.6044921875</ele>
        <time>2012-06-23T13:09:17Z</time>
      </trkpt>
      <trkpt lat="42.67865" lon="1.41622">
        <ele>2409.681640625</ele>
        <time>2012-06-23T13:09:23Z</time>
      </trkpt>
      <trkpt lat="42.67864" lon="1.41625">
        <ele>2407.2785644531</ele>
        <time>2012-06-23T13:09:27Z</time>
      </trkpt>
      <trkpt lat="42.67862" lon="1.41627">
        <ele>2405.8364257812</ele>
        <time>2012-06-23T13:09:32Z</time>
      </trkpt>
      <trkpt lat="42.67859" lon="1.41629">
        <ele>2403.4333496094</ele>
        <time>2012-06-23T13:09:38Z</time>
      </trkpt>
      <trkpt lat="42.67856" lon="1.41632">
        <ele>2402.4719238281</ele>
        <time>2012-06-23T13:09:43Z</time>
      </trkpt>
      <trkpt lat="42.67855" lon="1.41635">
        <ele>2401.9912109375</ele>
        <time>2012-06-23T13:09:47Z</time>
      </trkpt>
      <trkpt lat="42.67858" lon="1.41642">
        <ele>2401.5107421875</ele>
        <time>2012-06-23T13:09:55Z</time>
      </trkpt>
      <trkpt lat="42.67857" lon="1.41647">
        <ele>2400.5493164062</ele>
        <time>2012-06-23T13:09:59Z</time>
      </trkpt>
      <trkpt lat="42.67855" lon="1.41653">
        <ele>2399.5881347656</ele>
        <time>2012-06-23T13:10:05Z</time>
      </trkpt>
      <trkpt lat="42.67854" lon="1.41656">
        <ele>2398.6267089844</ele>
        <time>2012-06-23T13:10:09Z</time>
      </trkpt>
      <trkpt lat="42.67854" lon="1.41659">
        <ele>2399.107421875</ele>
        <time>2012-06-23T13:10:13Z</time>
      </trkpt>
      <trkpt lat="42.67854" lon="1.41664">
        <ele>2399.107421875</ele>
        <time>2012-06-23T13:10:18Z</time>
      </trkpt>
      <trkpt lat="42.67852" lon="1.41667">
        <ele>2398.6267089844</ele>
        <time>2012-06-23T13:10:24Z</time>
      </trkpt>
      <trkpt lat="42.67859" lon="1.41671">
        <ele>2407.7592773438</ele>
        <time>2012-06-23T13:10:40Z</time>
      </trkpt>
      <trkpt lat="42.67863" lon="1.41674">
        <ele>2408.2397460938</ele>
        <time>2012-06-23T13:10:55Z</time>
      </trkpt>
      <trkpt lat="42.67865" lon="1.41675">
        <ele>2407.7592773438</ele>
        <time>2012-06-23T13:10:58Z</time>
      </trkpt>
      <trkpt lat="42.67855" lon="1.41668">
        <ele>2393.3393554688</ele>
        <time>2012-06-23T13:11:02Z</time>
      </trkpt>
      <trkpt lat="42.67857" lon="1.41666">
        <ele>2393.3393554688</ele>
        <time>2012-06-23T13:11:05Z</time>
      </trkpt>
      <trkpt lat="42.67859" lon="1.41667">
        <ele>2393.8200683594</ele>
        <time>2012-06-23T13:11:07Z</time>
      </trkpt>
      <trkpt lat="42.67863" lon="1.41668">
        <ele>2394.78125</ele>
        <time>2012-06-23T13:11:14Z</time>
      </trkpt>
      <trkpt lat="42.67867" lon="1.41668">
        <ele>2395.2619628906</ele>
        <time>2012-06-23T13:11:21Z</time>
      </trkpt>
      <trkpt lat="42.67868" lon="1.41672">
        <ele>2396.2236328125</ele>
        <time>2012-06-23T13:11:25Z</time>
      </trkpt>
      <trkpt lat="42.67867" lon="1.41674">
        <ele>2395.2619628906</ele>
        <time>2012-06-23T13:11:30Z</time>
      </trkpt>
      <trkpt lat="42.67868" lon="1.41678">
        <ele>2394.78125</ele>
        <time>2012-06-23T13:11:35Z</time>
      </trkpt>
      <trkpt lat="42.67871" lon="1.41681">
        <ele>2395.7426757812</ele>
        <time>2012-06-23T13:11:41Z</time>
      </trkpt>
      <trkpt lat="42.67873" lon="1.41682">
        <ele>2395.7426757812</ele>
        <time>2012-06-23T13:11:47Z</time>
      </trkpt>
      <trkpt lat="42.67876" lon="1.4168">
        <ele>2392.8586425781</ele>
        <time>2012-06-23T13:11:58Z</time>
      </trkpt>
      <trkpt lat="42.67875" lon="1.41683">
        <ele>2390.4553222656</ele>
        <time>2012-06-23T13:12:03Z</time>
      </trkpt>
      <trkpt lat="42.67875" lon="1.41685">
        <ele>2387.5715332031</ele>
        <time>2012-06-23T13:12:08Z</time>
      </trkpt>
      <trkpt lat="42.67874" lon="1.41689">
        <ele>2386.1296386719</ele>
        <time>2012-06-23T13:12:11Z</time>
      </trkpt>
      <trkpt lat="42.6787" lon="1.41699">
        <ele>2384.6877441406</ele>
        <time>2012-06-23T13:12:18Z</time>
      </trkpt>
      <trkpt lat="42.6787" lon="1.41703">
        <ele>2381.8037109375</ele>
        <time>2012-06-23T13:12:23Z</time>
      </trkpt>
      <trkpt lat="42.67876" lon="1.41705">
        <ele>2377.9582519531</ele>
        <time>2012-06-23T13:12:30Z</time>
      </trkpt>
      <trkpt lat="42.67878" lon="1.41708">
        <ele>2377.4775390625</ele>
        <time>2012-06-23T13:12:35Z</time>
      </trkpt>
      <trkpt lat="42.67881" lon="1.41715">
        <ele>2377.4775390625</ele>
        <time>2012-06-23T13:12:41Z</time>
      </trkpt>
      <trkpt lat="42.67881" lon="1.41717">
        <ele>2373.6323242188</ele>
        <time>2012-06-23T13:12:46Z</time>
      </trkpt>
      <trkpt lat="42.67885" lon="1.41717">
        <ele>2369.306640625</ele>
        <time>2012-06-23T13:12:53Z</time>
      </trkpt>
      <trkpt lat="42.67885" lon="1.41721">
        <ele>2367.8645019531</ele>
        <time>2012-06-23T13:12:58Z</time>
      </trkpt>
      <trkpt lat="42.67884" lon="1.41726">
        <ele>2366.4226074219</ele>
        <time>2012-06-23T13:13:04Z</time>
      </trkpt>
      <trkpt lat="42.67883" lon="1.41729">
        <ele>2364.5</ele>
        <time>2012-06-23T13:13:10Z</time>
      </trkpt>
      <trkpt lat="42.67883" lon="1.41732">
        <ele>2363.0578613281</ele>
        <time>2012-06-23T13:13:15Z</time>
      </trkpt>
      <trkpt lat="42.67886" lon="1.41735">
        <ele>2361.6159667969</ele>
        <time>2012-06-23T13:13:20Z</time>
      </trkpt>
      <trkpt lat="42.67888" lon="1.41738">
        <ele>2359.6931152344</ele>
        <time>2012-06-23T13:13:26Z</time>
      </trkpt>
      <trkpt lat="42.67889" lon="1.41743">
        <ele>2358.7319335938</ele>
        <time>2012-06-23T13:13:31Z</time>
      </trkpt>
      <trkpt lat="42.6789" lon="1.41744">
        <ele>2357.7707519531</ele>
        <time>2012-06-23T13:13:36Z</time>
      </trkpt>
      <trkpt lat="42.67893" lon="1.41742">
        <ele>2356.3286132812</ele>
        <time>2012-06-23T13:13:42Z</time>
      </trkpt>
      <trkpt lat="42.67895" lon="1.41739">
        <ele>2354.4060058594</ele>
        <time>2012-06-23T13:13:48Z</time>
      </trkpt>
      <trkpt lat="42.67897" lon="1.41737">
        <ele>2352.4833984375</ele>
        <time>2012-06-23T13:13:53Z</time>
      </trkpt>
      <trkpt lat="42.679" lon="1.41736">
        <ele>2351.5222167969</ele>
        <time>2012-06-23T13:13:58Z</time>
      </trkpt>
      <trkpt lat="42.67903" lon="1.41735">
        <ele>2349.599609375</ele>
        <time>2012-06-23T13:14:05Z</time>
      </trkpt>
      <trkpt lat="42.67907" lon="1.41735">
        <ele>2349.599609375</ele>
        <time>2012-06-23T13:14:11Z</time>
      </trkpt>
      <trkpt lat="42.67907" lon="1.41736">
        <ele>2348.6381835938</ele>
        <time>2012-06-23T13:14:15Z</time>
      </trkpt>
      <trkpt lat="42.67908" lon="1.41738">
        <ele>2348.1574707031</ele>
        <time>2012-06-23T13:14:21Z</time>
      </trkpt>
      <trkpt lat="42.67909" lon="1.4174">
        <ele>2347.1960449219</ele>
        <time>2012-06-23T13:14:28Z</time>
      </trkpt>
      <trkpt lat="42.67911" lon="1.41743">
        <ele>2345.7541503906</ele>
        <time>2012-06-23T13:14:32Z</time>
      </trkpt>
      <trkpt lat="42.67911" lon="1.41747">
        <ele>2345.7541503906</ele>
        <time>2012-06-23T13:14:37Z</time>
      </trkpt>
      <trkpt lat="42.67917" lon="1.41752">
        <ele>2343.8315429688</ele>
        <time>2012-06-23T13:15:25Z</time>
      </trkpt>
      <trkpt lat="42.67916" lon="1.41752">
        <ele>2339.0249023438</ele>
        <time>2012-06-23T13:15:37Z</time>
      </trkpt>
      <trkpt lat="42.67916" lon="1.41753">
        <ele>2339.986328125</ele>
        <time>2012-06-23T13:15:48Z</time>
      </trkpt>
      <trkpt lat="42.67916" lon="1.41756">
        <ele>2339.0249023438</ele>
        <time>2012-06-23T13:16:02Z</time>
      </trkpt>
      <trkpt lat="42.67916" lon="1.41759">
        <ele>2338.5444335938</ele>
        <time>2012-06-23T13:16:06Z</time>
      </trkpt>
      <trkpt lat="42.67916" lon="1.41761">
        <ele>2338.0637207031</ele>
        <time>2012-06-23T13:16:10Z</time>
      </trkpt>
      <trkpt lat="42.67918" lon="1.41763">
        <ele>2336.6215820312</ele>
        <time>2012-06-23T13:16:22Z</time>
      </trkpt>
      <trkpt lat="42.67924" lon="1.41764">
        <ele>2341.4282226562</ele>
        <time>2012-06-23T13:16:32Z</time>
      </trkpt>
      <trkpt lat="42.67918" lon="1.41756">
        <ele>2330.8537597656</ele>
        <time>2012-06-23T13:16:42Z</time>
      </trkpt>
      <trkpt lat="42.67919" lon="1.41755">
        <ele>2329.4116210938</ele>
        <time>2012-06-23T13:16:48Z</time>
      </trkpt>
      <trkpt lat="42.67925" lon="1.41758">
        <ele>2328.4504394531</ele>
        <time>2012-06-23T13:16:58Z</time>
      </trkpt>
      <trkpt lat="42.67925" lon="1.41761">
        <ele>2325.56640625</ele>
        <time>2012-06-23T13:17:03Z</time>
      </trkpt>
      <trkpt lat="42.67925" lon="1.41765">
        <ele>2324.6052246094</ele>
        <time>2012-06-23T13:17:08Z</time>
      </trkpt>
      <trkpt lat="42.67923" lon="1.4177">
        <ele>2321.2404785156</ele>
        <time>2012-06-23T13:17:16Z</time>
      </trkpt>
      <trkpt lat="42.67925" lon="1.41771">
        <ele>2319.7985839844</ele>
        <time>2012-06-23T13:17:20Z</time>
      </trkpt>
      <trkpt lat="42.67925" lon="1.41774">
        <ele>2317.3952636719</ele>
        <time>2012-06-23T13:17:24Z</time>
      </trkpt>
      <trkpt lat="42.67927" lon="1.41773">
        <ele>2316.4340820312</ele>
        <time>2012-06-23T13:17:28Z</time>
      </trkpt>
      <trkpt lat="42.67929" lon="1.41773">
        <ele>2315.47265625</ele>
        <time>2012-06-23T13:17:33Z</time>
      </trkpt>
      <trkpt lat="42.67931" lon="1.4177">
        <ele>2313.5498046875</ele>
        <time>2012-06-23T13:17:39Z</time>
      </trkpt>
      <trkpt lat="42.67935" lon="1.41768">
        <ele>2313.5498046875</ele>
        <time>2012-06-23T13:17:50Z</time>
      </trkpt>
      <trkpt lat="42.67937" lon="1.41764">
        <ele>2310.1853027344</ele>
        <time>2012-06-23T13:17:59Z</time>
      </trkpt>
      <trkpt lat="42.67938" lon="1.41766">
        <ele>2309.2241210938</ele>
        <time>2012-06-23T13:18:03Z</time>
      </trkpt>
      <trkpt lat="42.6794" lon="1.41766">
        <ele>2307.7822265625</ele>
        <time>2012-06-23T13:18:08Z</time>
      </trkpt>
      <trkpt lat="42.67941" lon="1.41767">
        <ele>2306.3400878906</ele>
        <time>2012-06-23T13:18:18Z</time>
      </trkpt>
      <trkpt lat="42.67943" lon="1.4177">
        <ele>2304.8981933594</ele>
        <time>2012-06-23T13:18:21Z</time>
      </trkpt>
      <trkpt lat="42.67945" lon="1.41766">
        <ele>2303.4562988281</ele>
        <time>2012-06-23T13:18:27Z</time>
      </trkpt>
      <trkpt lat="42.67949" lon="1.41765">
        <ele>2302.9755859375</ele>
        <time>2012-06-23T13:18:35Z</time>
      </trkpt>
      <trkpt lat="42.67948" lon="1.41764">
        <ele>2302.0141601562</ele>
        <time>2012-06-23T13:18:42Z</time>
      </trkpt>
      <trkpt lat="42.6795" lon="1.41763">
        <ele>2301.5336914062</ele>
        <time>2012-06-23T13:18:46Z</time>
      </trkpt>
      <trkpt lat="42.67952" lon="1.41761">
        <ele>2301.0529785156</ele>
        <time>2012-06-23T13:18:48Z</time>
      </trkpt>
      <trkpt lat="42.67955" lon="1.4176">
        <ele>2301.0529785156</ele>
        <time>2012-06-23T13:18:51Z</time>
      </trkpt>
      <trkpt lat="42.67955" lon="1.41764">
        <ele>2299.1301269531</ele>
        <time>2012-06-23T13:18:56Z</time>
      </trkpt>
      <trkpt lat="42.67953" lon="1.41767">
        <ele>2298.1687011719</ele>
        <time>2012-06-23T13:19:00Z</time>
      </trkpt>
      <trkpt lat="42.67955" lon="1.41769">
        <ele>2295.2849121094</ele>
        <time>2012-06-23T13:19:16Z</time>
      </trkpt>
      <trkpt lat="42.67958" lon="1.41771">
        <ele>2298.6494140625</ele>
        <time>2012-06-23T13:19:25Z</time>
      </trkpt>
      <trkpt lat="42.67953" lon="1.41773">
        <ele>2288.0751953125</ele>
        <time>2012-06-23T13:19:44Z</time>
      </trkpt>
      <trkpt lat="42.67955" lon="1.41774">
        <ele>2289.5170898438</ele>
        <time>2012-06-23T13:20:00Z</time>
      </trkpt>
      <trkpt lat="42.67957" lon="1.41774">
        <ele>2290.4782714844</ele>
        <time>2012-06-23T13:20:04Z</time>
      </trkpt>
      <trkpt lat="42.67958" lon="1.41775">
        <ele>2289.9978027344</ele>
        <time>2012-06-23T13:20:07Z</time>
      </trkpt>
      <trkpt lat="42.6796" lon="1.41775">
        <ele>2289.5170898438</ele>
        <time>2012-06-23T13:20:16Z</time>
      </trkpt>
      <trkpt lat="42.67962" lon="1.41777">
        <ele>2289.9978027344</ele>
        <time>2012-06-23T13:20:21Z</time>
      </trkpt>
      <trkpt lat="42.67959" lon="1.4178">
        <ele>2288.5559082031</ele>
        <time>2012-06-23T13:20:27Z</time>
      </trkpt>
      <trkpt lat="42.67959" lon="1.41784">
        <ele>2286.1525878906</ele>
        <time>2012-06-23T13:20:31Z</time>
      </trkpt>
      <trkpt lat="42.67957" lon="1.41784">
        <ele>2282.7875976562</ele>
        <time>2012-06-23T13:20:35Z</time>
      </trkpt>
      <trkpt lat="42.67961" lon="1.41782">
        <ele>2280.865234375</ele>
        <time>2012-06-23T13:20:41Z</time>
      </trkpt>
      <trkpt lat="42.67963" lon="1.41782">
        <ele>2278.9423828125</ele>
        <time>2012-06-23T13:20:46Z</time>
      </trkpt>
      <trkpt lat="42.67963" lon="1.41782">
        <ele>2276.05859375</ele>
        <time>2012-06-23T13:20:51Z</time>
      </trkpt>
      <trkpt lat="42.67963" lon="1.41781">
        <ele>2275.0971679688</ele>
        <time>2012-06-23T13:20:52Z</time>
      </trkpt>
      <trkpt lat="42.67967" lon="1.41781">
        <ele>2273.6552734375</ele>
        <time>2012-06-23T13:20:57Z</time>
      </trkpt>
      <trkpt lat="42.67969" lon="1.41779">
        <ele>2272.2133789062</ele>
        <time>2012-06-23T13:21:02Z</time>
      </trkpt>
      <trkpt lat="42.67971" lon="1.41782">
        <ele>2270.2907714844</ele>
        <time>2012-06-23T13:21:07Z</time>
      </trkpt>
      <trkpt lat="42.67973" lon="1.41782">
        <ele>2270.2907714844</ele>
        <time>2012-06-23T13:21:09Z</time>
      </trkpt>
      <trkpt lat="42.67981" lon="1.41778">
        <ele>2268.8488769531</ele>
        <time>2012-06-23T13:21:16Z</time>
      </trkpt>
      <trkpt lat="42.67987" lon="1.4178">
        <ele>2267.4064941406</ele>
        <time>2012-06-23T13:21:22Z</time>
      </trkpt>
      <trkpt lat="42.6799" lon="1.41782">
        <ele>2265.4841308594</ele>
        <time>2012-06-23T13:21:27Z</time>
      </trkpt>
      <trkpt lat="42.67992" lon="1.41781">
        <ele>2264.5227050781</ele>
        <time>2012-06-23T13:21:32Z</time>
      </trkpt>
      <trkpt lat="42.67995" lon="1.41778">
        <ele>2263.5612792969</ele>
        <time>2012-06-23T13:21:39Z</time>
      </trkpt>
      <trkpt lat="42.67998" lon="1.4178">
        <ele>2262.6000976562</ele>
        <time>2012-06-23T13:21:45Z</time>
      </trkpt>
      <trkpt lat="42.67999" lon="1.4178">
        <ele>2261.6389160156</ele>
        <time>2012-06-23T13:21:51Z</time>
      </trkpt>
      <trkpt lat="42.68003" lon="1.41778">
        <ele>2261.6389160156</ele>
        <time>2012-06-23T13:22:00Z</time>
      </trkpt>
      <trkpt lat="42.68007" lon="1.41774">
        <ele>2259.2355957031</ele>
        <time>2012-06-23T13:22:07Z</time>
      </trkpt>
      <trkpt lat="42.68008" lon="1.41774">
        <ele>2258.2741699219</ele>
        <time>2012-06-23T13:22:11Z</time>
      </trkpt>
      <trkpt lat="42.68009" lon="1.41774">
        <ele>2258.2741699219</ele>
        <time>2012-06-23T13:22:12Z</time>
      </trkpt>
      <trkpt lat="42.68012" lon="1.41775">
        <ele>2256.8322753906</ele>
        <time>2012-06-23T13:22:17Z</time>
      </trkpt>
      <trkpt lat="42.68016" lon="1.41775">
        <ele>2254.9096679688</ele>
        <time>2012-06-23T13:22:24Z</time>
      </trkpt>
      <trkpt lat="42.68021" lon="1.41773">
        <ele>2253.9484863281</ele>
        <time>2012-06-23T13:22:31Z</time>
      </trkpt>
      <trkpt lat="42.68027" lon="1.41772">
        <ele>2254.4289550781</ele>
        <time>2012-06-23T13:22:37Z</time>
      </trkpt>
      <trkpt lat="42.68032" lon="1.4177">
        <ele>2253.9484863281</ele>
        <time>2012-06-23T13:22:48Z</time>
      </trkpt>
      <trkpt lat="42.68034" lon="1.4177">
        <ele>2252.5063476562</ele>
        <time>2012-06-23T13:22:52Z</time>
      </trkpt>
      <trkpt lat="42.68036" lon="1.41767">
        <ele>2251.544921875</ele>
        <time>2012-06-23T13:22:56Z</time>
      </trkpt>
      <trkpt lat="42.68037" lon="1.41766">
        <ele>2249.6223144531</ele>
        <time>2012-06-23T13:23:02Z</time>
      </trkpt>
      <trkpt lat="42.68039" lon="1.41762">
        <ele>2248.1801757812</ele>
        <time>2012-06-23T13:23:09Z</time>
      </trkpt>
      <trkpt lat="42.68036" lon="1.41757">
        <ele>2246.73828125</ele>
        <time>2012-06-23T13:23:40Z</time>
      </trkpt>
      <trkpt lat="42.68039" lon="1.41758">
        <ele>2249.1416015625</ele>
        <time>2012-06-23T13:23:45Z</time>
      </trkpt>
      <trkpt lat="42.68036" lon="1.41757">
        <ele>2249.6223144531</ele>
        <time>2012-06-23T13:23:51Z</time>
      </trkpt>
      <trkpt lat="42.68041" lon="1.4176">
        <ele>2249.1416015625</ele>
        <time>2012-06-23T13:23:59Z</time>
      </trkpt>
      <trkpt lat="42.68058" lon="1.41764">
        <ele>2249.1416015625</ele>
        <time>2012-06-23T13:24:47Z</time>
      </trkpt>
      <trkpt lat="42.68021" lon="1.41745">
        <ele>2263.0808105469</ele>
        <time>2012-06-23T13:24:51Z</time>
      </trkpt>
      <trkpt lat="42.68026" lon="1.41748">
        <ele>2263.0808105469</ele>
        <time>2012-06-23T13:24:57Z</time>
      </trkpt>
      <trkpt lat="42.68024" lon="1.41747">
        <ele>2264.5227050781</ele>
        <time>2012-06-23T13:25:02Z</time>
      </trkpt>
      <trkpt lat="42.68024" lon="1.4175">
        <ele>2268.8488769531</ele>
        <time>2012-06-23T13:25:12Z</time>
      </trkpt>
      <trkpt lat="42.68029" lon="1.41756">
        <ele>2269.3295898438</ele>
        <time>2012-06-23T13:25:18Z</time>
      </trkpt>
      <trkpt lat="42.68032" lon="1.41761">
        <ele>2267.4064941406</ele>
        <time>2012-06-23T13:25:28Z</time>
      </trkpt>
      <trkpt lat="42.68026" lon="1.41764">
        <ele>2264.0419921875</ele>
        <time>2012-06-23T13:25:49Z</time>
      </trkpt>
      <trkpt lat="42.68021" lon="1.41764">
        <ele>2264.5227050781</ele>
        <time>2012-06-23T13:25:54Z</time>
      </trkpt>
      <trkpt lat="42.68017" lon="1.41768">
        <ele>2267.8872070312</ele>
        <time>2012-06-23T13:26:04Z</time>
      </trkpt>
      <trkpt lat="42.68019" lon="1.41781">
        <ele>2281.345703125</ele>
        <time>2012-06-23T13:26:10Z</time>
      </trkpt>
      <trkpt lat="42.68024" lon="1.41788">
        <ele>2283.7490234375</ele>
        <time>2012-06-23T13:26:15Z</time>
      </trkpt>
      <trkpt lat="42.68028" lon="1.41787">
        <ele>2280.3845214844</ele>
        <time>2012-06-23T13:26:25Z</time>
      </trkpt>
      <trkpt lat="42.68019" lon="1.41781">
        <ele>2282.7875976562</ele>
        <time>2012-06-23T13:26:30Z</time>
      </trkpt>
      <trkpt lat="42.68023" lon="1.41783">
        <ele>2281.345703125</ele>
        <time>2012-06-23T13:26:34Z</time>
      </trkpt>
      <trkpt lat="42.68029" lon="1.41787">
        <ele>2279.4230957031</ele>
        <time>2012-06-23T13:26:41Z</time>
      </trkpt>
      <trkpt lat="42.68036" lon="1.41791">
        <ele>2276.5393066406</ele>
        <time>2012-06-23T13:26:50Z</time>
      </trkpt>
      <trkpt lat="42.68045" lon="1.41796">
        <ele>2266.9260253906</ele>
        <time>2012-06-23T13:26:56Z</time>
      </trkpt>
      <trkpt lat="42.6805" lon="1.41797">
        <ele>2256.8322753906</ele>
        <time>2012-06-23T13:27:01Z</time>
      </trkpt>
      <trkpt lat="42.68047" lon="1.41805">
        <ele>2268.8488769531</ele>
        <time>2012-06-23T13:27:18Z</time>
      </trkpt>
      <trkpt lat="42.68052" lon="1.41807">
        <ele>2257.7937011719</ele>
        <time>2012-06-23T13:27:33Z</time>
      </trkpt>
      <trkpt lat="42.68053" lon="1.4181">
        <ele>2254.4289550781</ele>
        <time>2012-06-23T13:27:45Z</time>
      </trkpt>
      <trkpt lat="42.68053" lon="1.41811">
        <ele>2254.9096679688</ele>
        <time>2012-06-23T13:27:54Z</time>
      </trkpt>
      <trkpt lat="42.68051" lon="1.41812">
        <ele>2255.3903808594</ele>
        <time>2012-06-23T13:27:58Z</time>
      </trkpt>
      <trkpt lat="42.68052" lon="1.41815">
        <ele>2256.3515625</ele>
        <time>2012-06-23T13:28:03Z</time>
      </trkpt>
      <trkpt lat="42.68053" lon="1.41819">
        <ele>2257.3129882812</ele>
        <time>2012-06-23T13:28:09Z</time>
      </trkpt>
      <trkpt lat="42.68053" lon="1.41824">
        <ele>2256.8322753906</ele>
        <time>2012-06-23T13:28:15Z</time>
      </trkpt>
      <trkpt lat="42.68052" lon="1.41828">
        <ele>2256.8322753906</ele>
        <time>2012-06-23T13:28:20Z</time>
      </trkpt>
      <trkpt lat="42.68053" lon="1.4183">
        <ele>2257.3129882812</ele>
        <time>2012-06-23T13:28:25Z</time>
      </trkpt>
      <trkpt lat="42.68054" lon="1.41833">
        <ele>2257.3129882812</ele>
        <time>2012-06-23T13:28:31Z</time>
      </trkpt>
      <trkpt lat="42.68055" lon="1.41836">
        <ele>2257.7937011719</ele>
        <time>2012-06-23T13:28:38Z</time>
      </trkpt>
      <trkpt lat="42.68053" lon="1.41839">
        <ele>2258.2741699219</ele>
        <time>2012-06-23T13:28:44Z</time>
      </trkpt>
      <trkpt lat="42.68066" lon="1.41843">
        <ele>2244.8156738281</ele>
        <time>2012-06-23T13:28:51Z</time>
      </trkpt>
      <trkpt lat="42.68085" lon="1.41846">
        <ele>2217.41796875</ele>
        <time>2012-06-23T13:28:57Z</time>
      </trkpt>
      <trkpt lat="42.68093" lon="1.41846">
        <ele>2208.7663574219</ele>
        <time>2012-06-23T13:29:02Z</time>
      </trkpt>
      <trkpt lat="42.68096" lon="1.41847">
        <ele>2204.4404296875</ele>
        <time>2012-06-23T13:29:10Z</time>
      </trkpt>
      <trkpt lat="42.68098" lon="1.41847">
        <ele>2202.0368652344</ele>
        <time>2012-06-23T13:29:16Z</time>
      </trkpt>
      <trkpt lat="42.68099" lon="1.41848">
        <ele>2199.6337890625</ele>
        <time>2012-06-23T13:29:23Z</time>
      </trkpt>
      <trkpt lat="42.68101" lon="1.41849">
        <ele>2198.1916503906</ele>
        <time>2012-06-23T13:29:29Z</time>
      </trkpt>
      <trkpt lat="42.68103" lon="1.41849">
        <ele>2200.1145019531</ele>
        <time>2012-06-23T13:29:39Z</time>
      </trkpt>
      <trkpt lat="42.68102" lon="1.41849">
        <ele>2200.1145019531</ele>
        <time>2012-06-23T13:29:53Z</time>
      </trkpt>
      <trkpt lat="42.68102" lon="1.41849">
        <ele>2199.1530761719</ele>
        <time>2012-06-23T13:30:14Z</time>
      </trkpt>
      <trkpt lat="42.68102" lon="1.41846">
        <ele>2200.1145019531</ele>
        <time>2012-06-23T13:30:27Z</time>
      </trkpt>
      <trkpt lat="42.68105" lon="1.41847">
        <ele>2199.6337890625</ele>
        <time>2012-06-23T13:30:33Z</time>
      </trkpt>
      <trkpt lat="42.6811" lon="1.41851">
        <ele>2199.1530761719</ele>
        <time>2012-06-23T13:30:38Z</time>
      </trkpt>
      <trkpt lat="42.68121" lon="1.41856">
        <ele>2196.2692871094</ele>
        <time>2012-06-23T13:30:45Z</time>
      </trkpt>
      <trkpt lat="42.68123" lon="1.41857">
        <ele>2193.8659667969</ele>
        <time>2012-06-23T13:30:49Z</time>
      </trkpt>
      <trkpt lat="42.68125" lon="1.41856">
        <ele>2192.9045410156</ele>
        <time>2012-06-23T13:30:54Z</time>
      </trkpt>
      <trkpt lat="42.68124" lon="1.41855">
        <ele>2192.9045410156</ele>
        <time>2012-06-23T13:30:55Z</time>
      </trkpt>
      <trkpt lat="42.68122" lon="1.41854">
        <ele>2192.9045410156</ele>
        <time>2012-06-23T13:31:00Z</time>
      </trkpt>
      <trkpt lat="42.68122" lon="1.41854">
        <ele>2192.4240722656</ele>
        <time>2012-06-23T13:31:02Z</time>
      </trkpt>
      <trkpt lat="42.68126" lon="1.41857">
        <ele>2191.943359375</ele>
        <time>2012-06-23T13:31:04Z</time>
      </trkpt>
      <trkpt lat="42.68121" lon="1.4185">
        <ele>2192.4240722656</ele>
        <time>2012-06-23T13:31:11Z</time>
      </trkpt>
      <trkpt lat="42.6812" lon="1.41849">
        <ele>2191.943359375</ele>
        <time>2012-06-23T13:31:15Z</time>
      </trkpt>
      <trkpt lat="42.68117" lon="1.41846">
        <ele>2191.4626464844</ele>
        <time>2012-06-23T13:31:19Z</time>
      </trkpt>
      <trkpt lat="42.68113" lon="1.41839">
        <ele>2192.4240722656</ele>
        <time>2012-06-23T13:31:25Z</time>
      </trkpt>
      <trkpt lat="42.68126" lon="1.41847">
        <ele>2194.3464355469</ele>
        <time>2012-06-23T13:31:31Z</time>
      </trkpt>
      <trkpt lat="42.68135" lon="1.41851">
        <ele>2194.8271484375</ele>
        <time>2012-06-23T13:31:36Z</time>
      </trkpt>
      <trkpt lat="42.68145" lon="1.41856">
        <ele>2195.7885742188</ele>
        <time>2012-06-23T13:31:42Z</time>
      </trkpt>
      <trkpt lat="42.68141" lon="1.41848">
        <ele>2192.9045410156</ele>
        <time>2012-06-23T13:31:47Z</time>
      </trkpt>
      <trkpt lat="42.68141" lon="1.41848">
        <ele>2192.9045410156</ele>
        <time>2012-06-23T13:31:48Z</time>
      </trkpt>
      <trkpt lat="42.6814" lon="1.41845">
        <ele>2196.2692871094</ele>
        <time>2012-06-23T13:31:54Z</time>
      </trkpt>
      <trkpt lat="42.68144" lon="1.41845">
        <ele>2195.3078613281</ele>
        <time>2012-06-23T13:32:01Z</time>
      </trkpt>
      <trkpt lat="42.68128" lon="1.41824">
        <ele>2199.1530761719</ele>
        <time>2012-06-23T13:32:17Z</time>
      </trkpt>
      <trkpt lat="42.68126" lon="1.41822">
        <ele>2199.6337890625</ele>
        <time>2012-06-23T13:32:21Z</time>
      </trkpt>
      <trkpt lat="42.68127" lon="1.41817">
        <ele>2201.0756835938</ele>
        <time>2012-06-23T13:32:29Z</time>
      </trkpt>
      <trkpt lat="42.68129" lon="1.41814">
        <ele>2199.6337890625</ele>
        <time>2012-06-23T13:32:34Z</time>
      </trkpt>
      <trkpt lat="42.68134" lon="1.41817">
        <ele>2199.1530761719</ele>
        <time>2012-06-23T13:32:39Z</time>
      </trkpt>
      <trkpt lat="42.68137" lon="1.41818">
        <ele>2199.1530761719</ele>
        <time>2012-06-23T13:32:43Z</time>
      </trkpt>
      <trkpt lat="42.68141" lon="1.41821">
        <ele>2198.6723632812</ele>
        <time>2012-06-23T13:32:45Z</time>
      </trkpt>
      <trkpt lat="42.6815" lon="1.41827">
        <ele>2197.7111816406</ele>
        <time>2012-06-23T13:32:47Z</time>
      </trkpt>
      <trkpt lat="42.6817" lon="1.41842">
        <ele>2195.7885742188</ele>
        <time>2012-06-23T13:32:52Z</time>
      </trkpt>
      <trkpt lat="42.68173" lon="1.41843">
        <ele>2195.3078613281</ele>
        <time>2012-06-23T13:32:53Z</time>
      </trkpt>
      <trkpt lat="42.68182" lon="1.41848">
        <ele>2197.7111816406</ele>
        <time>2012-06-23T13:32:58Z</time>
      </trkpt>
      <trkpt lat="42.68185" lon="1.41848">
        <ele>2197.7111816406</ele>
        <time>2012-06-23T13:33:03Z</time>
      </trkpt>
      <trkpt lat="42.68188" lon="1.41848">
        <ele>2196.2692871094</ele>
        <time>2012-06-23T13:33:07Z</time>
      </trkpt>
      <trkpt lat="42.68191" lon="1.41851">
        <ele>2195.3078613281</ele>
        <time>2012-06-23T13:33:09Z</time>
      </trkpt>
      <trkpt lat="42.68196" lon="1.41851">
        <ele>2187.1364746094</ele>
        <time>2012-06-23T13:33:15Z</time>
      </trkpt>
      <trkpt lat="42.682" lon="1.41853">
        <ele>2184.2526855469</ele>
        <time>2012-06-23T13:33:21Z</time>
      </trkpt>
      <trkpt lat="42.68204" lon="1.41857">
        <ele>2181.3686523438</ele>
        <time>2012-06-23T13:33:27Z</time>
      </trkpt>
      <trkpt lat="42.68211" lon="1.41861">
        <ele>2178.4848632812</ele>
        <time>2012-06-23T13:33:32Z</time>
      </trkpt>
      <trkpt lat="42.68211" lon="1.41861">
        <ele>2177.04296875</ele>
        <time>2012-06-23T13:33:37Z</time>
      </trkpt>
      <trkpt lat="42.6822" lon="1.41865">
        <ele>2176.5622558594</ele>
        <time>2012-06-23T13:33:48Z</time>
      </trkpt>
      <trkpt lat="42.68216" lon="1.4186">
        <ele>2172.7170410156</ele>
        <time>2012-06-23T13:33:52Z</time>
      </trkpt>
      <trkpt lat="42.68224" lon="1.41865">
        <ele>2171.2746582031</ele>
        <time>2012-06-23T13:33:57Z</time>
      </trkpt>
      <trkpt lat="42.68209" lon="1.41851">
        <ele>2169.8327636719</ele>
        <time>2012-06-23T13:34:29Z</time>
      </trkpt>
      <trkpt lat="42.68176" lon="1.41815">
        <ele>2165.5070800781</ele>
        <time>2012-06-23T13:34:41Z</time>
      </trkpt>
      <trkpt lat="42.68149" lon="1.41791">
        <ele>2165.0263671875</ele>
        <time>2012-06-23T13:34:46Z</time>
      </trkpt>
      <trkpt lat="42.68171" lon="1.41806">
        <ele>2165.9875488281</ele>
        <time>2012-06-23T13:34:59Z</time>
      </trkpt>
      <trkpt lat="42.68174" lon="1.41808">
        <ele>2165.9875488281</ele>
        <time>2012-06-23T13:35:01Z</time>
      </trkpt>
      <trkpt lat="42.68254" lon="1.41863">
        <ele>2133.302734375</ele>
        <time>2012-06-23T13:35:05Z</time>
      </trkpt>
      <trkpt lat="42.68259" lon="1.41863">
        <ele>2132.3415527344</ele>
        <time>2012-06-23T13:35:08Z</time>
      </trkpt>
      <trkpt lat="42.68266" lon="1.41865">
        <ele>2128.4963378906</ele>
        <time>2012-06-23T13:35:14Z</time>
      </trkpt>
      <trkpt lat="42.68312" lon="1.41894">
        <ele>2108.30859375</ele>
        <time>2012-06-23T13:37:31Z</time>
      </trkpt>
      <trkpt lat="42.68311" lon="1.41892">
        <ele>2108.30859375</ele>
        <time>2012-06-23T13:37:34Z</time>
      </trkpt>
      <trkpt lat="42.68317" lon="1.41893">
        <ele>2099.6567382812</ele>
        <time>2012-06-23T13:37:39Z</time>
      </trkpt>
      <trkpt lat="42.68323" lon="1.41913">
        <ele>2096.7727050781</ele>
        <time>2012-06-23T13:38:29Z</time>
      </trkpt>
      <trkpt lat="42.68316" lon="1.41928">
        <ele>2091.4853515625</ele>
        <time>2012-06-23T13:38:49Z</time>
      </trkpt>
      <trkpt lat="42.68313" lon="1.41927">
        <ele>2090.5239257812</ele>
        <time>2012-06-23T13:38:56Z</time>
      </trkpt>
      <trkpt lat="42.68316" lon="1.41928">
        <ele>2090.0434570312</ele>
        <time>2012-06-23T13:39:00Z</time>
      </trkpt>
      <trkpt lat="42.68322" lon="1.41933">
        <ele>2086.6787109375</ele>
        <time>2012-06-23T13:39:12Z</time>
      </trkpt>
      <trkpt lat="42.68328" lon="1.41937">
        <ele>2085.7175292969</ele>
        <time>2012-06-23T13:39:18Z</time>
      </trkpt>
      <trkpt lat="42.68334" lon="1.41942">
        <ele>2084.7563476562</ele>
        <time>2012-06-23T13:39:24Z</time>
      </trkpt>
      <trkpt lat="42.68311" lon="1.41956">
        <ele>2074.6623535156</ele>
        <time>2012-06-23T13:39:53Z</time>
      </trkpt>
      <trkpt lat="42.68317" lon="1.41966">
        <ele>2073.2204589844</ele>
        <time>2012-06-23T13:39:57Z</time>
      </trkpt>
      <trkpt lat="42.68308" lon="1.41968">
        <ele>2072.2590332031</ele>
        <time>2012-06-23T13:40:04Z</time>
      </trkpt>
      <trkpt lat="42.68317" lon="1.4197">
        <ele>2060.2426757812</ele>
        <time>2012-06-23T13:40:09Z</time>
      </trkpt>
      <trkpt lat="42.68317" lon="1.4197">
        <ele>2060.2426757812</ele>
        <time>2012-06-23T13:40:10Z</time>
      </trkpt>
      <trkpt lat="42.68324" lon="1.41971">
        <ele>2060.2426757812</ele>
        <time>2012-06-23T13:40:16Z</time>
      </trkpt>
      <trkpt lat="42.68327" lon="1.41973">
        <ele>2061.6848144531</ele>
        <time>2012-06-23T13:40:21Z</time>
      </trkpt>
      <trkpt lat="42.68331" lon="1.41974">
        <ele>2058.8005371094</ele>
        <time>2012-06-23T13:40:24Z</time>
      </trkpt>
      <trkpt lat="42.68341" lon="1.41975">
        <ele>2052.0712890625</ele>
        <time>2012-06-23T13:40:31Z</time>
      </trkpt>
      <trkpt lat="42.68347" lon="1.41977">
        <ele>2049.6682128906</ele>
        <time>2012-06-23T13:40:37Z</time>
      </trkpt>
      <trkpt lat="42.68348" lon="1.41978">
        <ele>2049.1875</ele>
        <time>2012-06-23T13:40:39Z</time>
      </trkpt>
      <trkpt lat="42.6835" lon="1.41983">
        <ele>2049.1875</ele>
        <time>2012-06-23T13:40:44Z</time>
      </trkpt>
      <trkpt lat="42.68356" lon="1.41987">
        <ele>2048.2260742188</ele>
        <time>2012-06-23T13:40:51Z</time>
      </trkpt>
      <trkpt lat="42.68362" lon="1.41991">
        <ele>2047.7456054688</ele>
        <time>2012-06-23T13:40:58Z</time>
      </trkpt>
      <trkpt lat="42.68369" lon="1.41993">
        <ele>2044.8615722656</ele>
        <time>2012-06-23T13:41:06Z</time>
      </trkpt>
      <trkpt lat="42.68373" lon="1.41994">
        <ele>2042.4582519531</ele>
        <time>2012-06-23T13:41:11Z</time>
      </trkpt>
      <trkpt lat="42.68376" lon="1.41998">
        <ele>2039.0935058594</ele>
        <time>2012-06-23T13:41:16Z</time>
      </trkpt>
      <trkpt lat="42.68377" lon="1.42002">
        <ele>2036.6901855469</ele>
        <time>2012-06-23T13:41:20Z</time>
      </trkpt>
      <trkpt lat="42.68379" lon="1.42005">
        <ele>2034.7678222656</ele>
        <time>2012-06-23T13:41:24Z</time>
      </trkpt>
      <trkpt lat="42.68381" lon="1.42008">
        <ele>2033.3256835938</ele>
        <time>2012-06-23T13:41:28Z</time>
      </trkpt>
      <trkpt lat="42.68384" lon="1.42011">
        <ele>2031.4030761719</ele>
        <time>2012-06-23T13:41:32Z</time>
      </trkpt>
      <trkpt lat="42.68385" lon="1.42013">
        <ele>2029.9611816406</ele>
        <time>2012-06-23T13:41:35Z</time>
      </trkpt>
      <trkpt lat="42.68388" lon="1.42017">
        <ele>2028.0385742188</ele>
        <time>2012-06-23T13:41:40Z</time>
      </trkpt>
      <trkpt lat="42.6839" lon="1.42019">
        <ele>2026.5964355469</ele>
        <time>2012-06-23T13:41:45Z</time>
      </trkpt>
      <trkpt lat="42.68391" lon="1.42019">
        <ele>2025.6350097656</ele>
        <time>2012-06-23T13:41:50Z</time>
      </trkpt>
      <trkpt lat="42.68393" lon="1.42021">
        <ele>2025.6350097656</ele>
        <time>2012-06-23T13:41:55Z</time>
      </trkpt>
      <trkpt lat="42.68397" lon="1.42022">
        <ele>2024.673828125</ele>
        <time>2012-06-23T13:42:00Z</time>
      </trkpt>
      <trkpt lat="42.68402" lon="1.42024">
        <ele>2022.7512207031</ele>
        <time>2012-06-23T13:42:07Z</time>
      </trkpt>
      <trkpt lat="42.68407" lon="1.42025">
        <ele>2019.38671875</ele>
        <time>2012-06-23T13:42:13Z</time>
      </trkpt>
      <trkpt lat="42.68411" lon="1.42025">
        <ele>2019.8671875</ele>
        <time>2012-06-23T13:42:18Z</time>
      </trkpt>
      <trkpt lat="42.68415" lon="1.42025">
        <ele>2019.38671875</ele>
        <time>2012-06-23T13:42:22Z</time>
      </trkpt>
      <trkpt lat="42.68415" lon="1.42029">
        <ele>2017.9445800781</ele>
        <time>2012-06-23T13:42:25Z</time>
      </trkpt>
      <trkpt lat="42.68415" lon="1.42032">
        <ele>2014.580078125</ele>
        <time>2012-06-23T13:42:33Z</time>
      </trkpt>
      <trkpt lat="42.68418" lon="1.42037">
        <ele>2011.6960449219</ele>
        <time>2012-06-23T13:42:39Z</time>
      </trkpt>
      <trkpt lat="42.6842" lon="1.42039">
        <ele>2009.7731933594</ele>
        <time>2012-06-23T13:42:44Z</time>
      </trkpt>
      <trkpt lat="42.68423" lon="1.42043">
        <ele>2007.3701171875</ele>
        <time>2012-06-23T13:42:50Z</time>
      </trkpt>
      <trkpt lat="42.68422" lon="1.42049">
        <ele>2005.9279785156</ele>
        <time>2012-06-23T13:42:55Z</time>
      </trkpt>
      <trkpt lat="42.68423" lon="1.42053">
        <ele>2004.0056152344</ele>
        <time>2012-06-23T13:43:00Z</time>
      </trkpt>
      <trkpt lat="42.68424" lon="1.42056">
        <ele>2003.5249023438</ele>
        <time>2012-06-23T13:43:03Z</time>
      </trkpt>
      <trkpt lat="42.68424" lon="1.42054">
        <ele>2009.7731933594</ele>
        <time>2012-06-23T13:43:48Z</time>
      </trkpt>
      <trkpt lat="42.68423" lon="1.42055">
        <ele>2011.6960449219</ele>
        <time>2012-06-23T13:44:07Z</time>
      </trkpt>
      <trkpt lat="42.68427" lon="1.4206">
        <ele>2008.8120117188</ele>
        <time>2012-06-23T13:44:17Z</time>
      </trkpt>
      <trkpt lat="42.68426" lon="1.42066">
        <ele>2005.9279785156</ele>
        <time>2012-06-23T13:44:25Z</time>
      </trkpt>
      <trkpt lat="42.68425" lon="1.4207">
        <ele>2004.4860839844</ele>
        <time>2012-06-23T13:44:29Z</time>
      </trkpt>
      <trkpt lat="42.68425" lon="1.42077">
        <ele>2001.6022949219</ele>
        <time>2012-06-23T13:44:35Z</time>
      </trkpt>
      <trkpt lat="42.68427" lon="1.4208">
        <ele>2000.6408691406</ele>
        <time>2012-06-23T13:44:38Z</time>
      </trkpt>
      <trkpt lat="42.68426" lon="1.42085">
        <ele>1999.1989746094</ele>
        <time>2012-06-23T13:44:43Z</time>
      </trkpt>
      <trkpt lat="42.68427" lon="1.42091">
        <ele>1998.2375488281</ele>
        <time>2012-06-23T13:44:47Z</time>
      </trkpt>
      <trkpt lat="42.68427" lon="1.42098">
        <ele>1994.8728027344</ele>
        <time>2012-06-23T13:44:54Z</time>
      </trkpt>
      <trkpt lat="42.68428" lon="1.42101">
        <ele>1993.9116210938</ele>
        <time>2012-06-23T13:44:57Z</time>
      </trkpt>
      <trkpt lat="42.68431" lon="1.42107">
        <ele>1990.546875</ele>
        <time>2012-06-23T13:45:04Z</time>
      </trkpt>
      <trkpt lat="42.68435" lon="1.42111">
        <ele>1987.6630859375</ele>
        <time>2012-06-23T13:45:08Z</time>
      </trkpt>
      <trkpt lat="42.68438" lon="1.42117">
        <ele>1982.8564453125</ele>
        <time>2012-06-23T13:45:15Z</time>
      </trkpt>
      <trkpt lat="42.68441" lon="1.4212">
        <ele>1981.8952636719</ele>
        <time>2012-06-23T13:45:18Z</time>
      </trkpt>
      <trkpt lat="42.68443" lon="1.42126">
        <ele>1981.8952636719</ele>
        <time>2012-06-23T13:45:23Z</time>
      </trkpt>
      <trkpt lat="42.68443" lon="1.42135">
        <ele>1980.9340820312</ele>
        <time>2012-06-23T13:45:29Z</time>
      </trkpt>
      <trkpt lat="42.68444" lon="1.42141">
        <ele>1979.4916992188</ele>
        <time>2012-06-23T13:45:33Z</time>
      </trkpt>
      <trkpt lat="42.68444" lon="1.42145">
        <ele>1979.0109863281</ele>
        <time>2012-06-23T13:45:37Z</time>
      </trkpt>
      <trkpt lat="42.68445" lon="1.42156">
        <ele>1975.1657714844</ele>
        <time>2012-06-23T13:45:45Z</time>
      </trkpt>
      <trkpt lat="42.68445" lon="1.4216">
        <ele>1973.7238769531</ele>
        <time>2012-06-23T13:45:48Z</time>
      </trkpt>
      <trkpt lat="42.68445" lon="1.42164">
        <ele>1972.2819824219</ele>
        <time>2012-06-23T13:45:51Z</time>
      </trkpt>
      <trkpt lat="42.68446" lon="1.42169">
        <ele>1971.8012695312</ele>
        <time>2012-06-23T13:45:54Z</time>
      </trkpt>
      <trkpt lat="42.68444" lon="1.42179">
        <ele>1970.359375</ele>
        <time>2012-06-23T13:46:02Z</time>
      </trkpt>
      <trkpt lat="42.68445" lon="1.4218">
        <ele>1971.8012695312</ele>
        <time>2012-06-23T13:46:13Z</time>
      </trkpt>
      <trkpt lat="42.68445" lon="1.42181">
        <ele>1972.2819824219</ele>
        <time>2012-06-23T13:46:19Z</time>
      </trkpt>
      <trkpt lat="42.68445" lon="1.42182">
        <ele>1972.7626953125</ele>
        <time>2012-06-23T13:46:27Z</time>
      </trkpt>
      <trkpt lat="42.68448" lon="1.42186">
        <ele>1974.2045898438</ele>
        <time>2012-06-23T13:46:32Z</time>
      </trkpt>
      <trkpt lat="42.68452" lon="1.42184">
        <ele>1974.2045898438</ele>
        <time>2012-06-23T13:46:37Z</time>
      </trkpt>
      <trkpt lat="42.68453" lon="1.42183">
        <ele>1974.2045898438</ele>
        <time>2012-06-23T13:46:38Z</time>
      </trkpt>
      <trkpt lat="42.6846" lon="1.4218">
        <ele>1974.2045898438</ele>
        <time>2012-06-23T13:46:42Z</time>
      </trkpt>
      <trkpt lat="42.68464" lon="1.4218">
        <ele>1975.1657714844</ele>
        <time>2012-06-23T13:46:47Z</time>
      </trkpt>
      <trkpt lat="42.68457" lon="1.42181">
        <ele>1986.2211914062</ele>
        <time>2012-06-23T13:47:00Z</time>
      </trkpt>
      <trkpt lat="42.68459" lon="1.42187">
        <ele>1987.1823730469</ele>
        <time>2012-06-23T13:47:06Z</time>
      </trkpt>
      <trkpt lat="42.68458" lon="1.42189">
        <ele>1988.6245117188</ele>
        <time>2012-06-23T13:47:08Z</time>
      </trkpt>
      <trkpt lat="42.68463" lon="1.42194">
        <ele>1972.7626953125</ele>
        <time>2012-06-23T13:54:07Z</time>
      </trkpt>
      <trkpt lat="42.68463" lon="1.42194">
        <ele>1973.2434082031</ele>
        <time>2012-06-23T13:54:08Z</time>
      </trkpt>
      <trkpt lat="42.68466" lon="1.42194">
        <ele>1973.2434082031</ele>
        <time>2012-06-23T13:54:13Z</time>
      </trkpt>
      <trkpt lat="42.68473" lon="1.42194">
        <ele>1979.0109863281</ele>
        <time>2012-06-23T13:54:19Z</time>
      </trkpt>
      <trkpt lat="42.68481" lon="1.42194">
        <ele>1980.9340820312</ele>
        <time>2012-06-23T13:54:26Z</time>
      </trkpt>
      <trkpt lat="42.68488" lon="1.42196">
        <ele>1979.9724121094</ele>
        <time>2012-06-23T13:54:31Z</time>
      </trkpt>
      <trkpt lat="42.68501" lon="1.42194">
        <ele>1979.4916992188</ele>
        <time>2012-06-23T13:54:39Z</time>
      </trkpt>
      <trkpt lat="42.68509" lon="1.42194">
        <ele>1979.4916992188</ele>
        <time>2012-06-23T13:54:45Z</time>
      </trkpt>
      <trkpt lat="42.68515" lon="1.42192">
        <ele>1977.5690917969</ele>
        <time>2012-06-23T13:54:50Z</time>
      </trkpt>
      <trkpt lat="42.68522" lon="1.42191">
        <ele>1977.5690917969</ele>
        <time>2012-06-23T13:54:55Z</time>
      </trkpt>
      <trkpt lat="42.68524" lon="1.42192">
        <ele>1978.5305175781</ele>
        <time>2012-06-23T13:54:57Z</time>
      </trkpt>
      <trkpt lat="42.68529" lon="1.42195">
        <ele>1977.0886230469</ele>
        <time>2012-06-23T13:55:01Z</time>
      </trkpt>
      <trkpt lat="42.6854" lon="1.42206">
        <ele>1971.8012695312</ele>
        <time>2012-06-23T13:55:07Z</time>
      </trkpt>
      <trkpt lat="42.68552" lon="1.42206">
        <ele>1967.9560546875</ele>
        <time>2012-06-23T13:55:13Z</time>
      </trkpt>
      <trkpt lat="42.68563" lon="1.42204">
        <ele>1963.6298828125</ele>
        <time>2012-06-23T13:55:18Z</time>
      </trkpt>
      <trkpt lat="42.6857" lon="1.42205">
        <ele>1961.2268066406</ele>
        <time>2012-06-23T13:55:24Z</time>
      </trkpt>
      <trkpt lat="42.6858" lon="1.42206">
        <ele>1957.8623046875</ele>
        <time>2012-06-23T13:55:32Z</time>
      </trkpt>
      <trkpt lat="42.68591" lon="1.42208">
        <ele>1957.8623046875</ele>
        <time>2012-06-23T13:55:40Z</time>
      </trkpt>
      <trkpt lat="42.686" lon="1.42209">
        <ele>1957.3815917969</ele>
        <time>2012-06-23T13:55:46Z</time>
      </trkpt>
      <trkpt lat="42.68608" lon="1.42207">
        <ele>1956.9008789062</ele>
        <time>2012-06-23T13:55:52Z</time>
      </trkpt>
      <trkpt lat="42.68616" lon="1.42209">
        <ele>1956.4201660156</ele>
        <time>2012-06-23T13:55:59Z</time>
      </trkpt>
      <trkpt lat="42.68623" lon="1.42212">
        <ele>1954.9782714844</ele>
        <time>2012-06-23T13:56:05Z</time>
      </trkpt>
      <trkpt lat="42.68631" lon="1.42212">
        <ele>1952.5749511719</ele>
        <time>2012-06-23T13:56:11Z</time>
      </trkpt>
      <trkpt lat="42.68638" lon="1.4221">
        <ele>1950.65234375</ele>
        <time>2012-06-23T13:56:16Z</time>
      </trkpt>
      <trkpt lat="42.68645" lon="1.42207">
        <ele>1950.65234375</ele>
        <time>2012-06-23T13:56:22Z</time>
      </trkpt>
      <trkpt lat="42.68651" lon="1.42207">
        <ele>1947.7683105469</ele>
        <time>2012-06-23T13:56:27Z</time>
      </trkpt>
      <trkpt lat="42.68656" lon="1.42208">
        <ele>1944.4035644531</ele>
        <time>2012-06-23T13:56:33Z</time>
      </trkpt>
      <trkpt lat="42.68661" lon="1.42206">
        <ele>1942.4812011719</ele>
        <time>2012-06-23T13:56:38Z</time>
      </trkpt>
      <trkpt lat="42.68663" lon="1.42204">
        <ele>1941.0390625</ele>
        <time>2012-06-23T13:56:41Z</time>
      </trkpt>
      <trkpt lat="42.68671" lon="1.42202">
        <ele>1937.1938476562</ele>
        <time>2012-06-23T13:56:48Z</time>
      </trkpt>
      <trkpt lat="42.68678" lon="1.42201">
        <ele>1933.3486328125</ele>
        <time>2012-06-23T13:56:55Z</time>
      </trkpt>
      <trkpt lat="42.6868" lon="1.42202">
        <ele>1931.42578125</ele>
        <time>2012-06-23T13:57:00Z</time>
      </trkpt>
      <trkpt lat="42.68685" lon="1.42201">
        <ele>1928.5419921875</ele>
        <time>2012-06-23T13:57:06Z</time>
      </trkpt>
      <trkpt lat="42.68692" lon="1.42201">
        <ele>1927.5805664062</ele>
        <time>2012-06-23T13:57:12Z</time>
      </trkpt>
      <trkpt lat="42.68698" lon="1.42199">
        <ele>1925.1772460938</ele>
        <time>2012-06-23T13:57:18Z</time>
      </trkpt>
      <trkpt lat="42.68701" lon="1.42198">
        <ele>1923.2548828125</ele>
        <time>2012-06-23T13:57:23Z</time>
      </trkpt>
      <trkpt lat="42.68706" lon="1.42199">
        <ele>1922.7741699219</ele>
        <time>2012-06-23T13:57:27Z</time>
      </trkpt>
      <trkpt lat="42.68711" lon="1.42202">
        <ele>1923.7353515625</ele>
        <time>2012-06-23T13:57:33Z</time>
      </trkpt>
      <trkpt lat="42.68712" lon="1.42202">
        <ele>1923.2548828125</ele>
        <time>2012-06-23T13:57:35Z</time>
      </trkpt>
      <trkpt lat="42.68718" lon="1.42202">
        <ele>1921.8127441406</ele>
        <time>2012-06-23T13:57:41Z</time>
      </trkpt>
      <trkpt lat="42.68722" lon="1.42202">
        <ele>1921.33203125</ele>
        <time>2012-06-23T13:57:44Z</time>
      </trkpt>
      <trkpt lat="42.68723" lon="1.42201">
        <ele>1921.33203125</ele>
        <time>2012-06-23T13:57:46Z</time>
      </trkpt>
      <trkpt lat="42.68727" lon="1.422">
        <ele>1919.8901367188</ele>
        <time>2012-06-23T13:57:51Z</time>
      </trkpt>
      <trkpt lat="42.68732" lon="1.42198">
        <ele>1918.4482421875</ele>
        <time>2012-06-23T13:57:57Z</time>
      </trkpt>
      <trkpt lat="42.68739" lon="1.42203">
        <ele>1918.4482421875</ele>
        <time>2012-06-23T13:58:03Z</time>
      </trkpt>
      <trkpt lat="42.68745" lon="1.42205">
        <ele>1919.4096679688</ele>
        <time>2012-06-23T13:58:09Z</time>
      </trkpt>
      <trkpt lat="42.68749" lon="1.42205">
        <ele>1919.8901367188</ele>
        <time>2012-06-23T13:58:14Z</time>
      </trkpt>
      <trkpt lat="42.68753" lon="1.42204">
        <ele>1919.8901367188</ele>
        <time>2012-06-23T13:58:18Z</time>
      </trkpt>
      <trkpt lat="42.68754" lon="1.42205">
        <ele>1919.4096679688</ele>
        <time>2012-06-23T13:58:19Z</time>
      </trkpt>
      <trkpt lat="42.68761" lon="1.42209">
        <ele>1919.4096679688</ele>
        <time>2012-06-23T13:58:26Z</time>
      </trkpt>
      <trkpt lat="42.68764" lon="1.4221">
        <ele>1918.9289550781</ele>
        <time>2012-06-23T13:58:30Z</time>
      </trkpt>
      <trkpt lat="42.6877" lon="1.42209">
        <ele>1917.4868164062</ele>
        <time>2012-06-23T13:58:36Z</time>
      </trkpt>
      <trkpt lat="42.68771" lon="1.42208">
        <ele>1917.4868164062</ele>
        <time>2012-06-23T13:58:37Z</time>
      </trkpt>
      <trkpt lat="42.68773" lon="1.42204">
        <ele>1916.044921875</ele>
        <time>2012-06-23T13:58:42Z</time>
      </trkpt>
      <trkpt lat="42.68775" lon="1.422">
        <ele>1914.6027832031</ele>
        <time>2012-06-23T13:58:46Z</time>
      </trkpt>
      <trkpt lat="42.68779" lon="1.42198">
        <ele>1915.5642089844</ele>
        <time>2012-06-23T13:58:51Z</time>
      </trkpt>
      <trkpt lat="42.68784" lon="1.422">
        <ele>1914.6027832031</ele>
        <time>2012-06-23T13:58:56Z</time>
      </trkpt>
      <trkpt lat="42.68786" lon="1.42201">
        <ele>1914.1220703125</ele>
        <time>2012-06-23T13:59:00Z</time>
      </trkpt>
      <trkpt lat="42.68792" lon="1.42204">
        <ele>1912.1994628906</ele>
        <time>2012-06-23T13:59:06Z</time>
      </trkpt>
      <trkpt lat="42.68794" lon="1.42204">
        <ele>1912.1994628906</ele>
        <time>2012-06-23T13:59:10Z</time>
      </trkpt>
      <trkpt lat="42.68798" lon="1.42205">
        <ele>1909.7961425781</ele>
        <time>2012-06-23T13:59:14Z</time>
      </trkpt>
      <trkpt lat="42.68801" lon="1.42208">
        <ele>1908.8349609375</ele>
        <time>2012-06-23T13:59:18Z</time>
      </trkpt>
      <trkpt lat="42.68805" lon="1.42208">
        <ele>1905.4704589844</ele>
        <time>2012-06-23T13:59:24Z</time>
      </trkpt>
      <trkpt lat="42.68807" lon="1.42207">
        <ele>1905.9509277344</ele>
        <time>2012-06-23T13:59:27Z</time>
      </trkpt>
      <trkpt lat="42.6881" lon="1.42209">
        <ele>1906.431640625</ele>
        <time>2012-06-23T13:59:30Z</time>
      </trkpt>
      <trkpt lat="42.68816" lon="1.42211">
        <ele>1905.4704589844</ele>
        <time>2012-06-23T13:59:36Z</time>
      </trkpt>
      <trkpt lat="42.6882" lon="1.42215">
        <ele>1904.5090332031</ele>
        <time>2012-06-23T13:59:41Z</time>
      </trkpt>
      <trkpt lat="42.68825" lon="1.42217">
        <ele>1911.23828125</ele>
        <time>2012-06-23T13:59:50Z</time>
      </trkpt>
      <trkpt lat="42.6883" lon="1.42222">
        <ele>1910.7575683594</ele>
        <time>2012-06-23T13:59:55Z</time>
      </trkpt>
      <trkpt lat="42.68835" lon="1.42224">
        <ele>1908.8349609375</ele>
        <time>2012-06-23T14:00:01Z</time>
      </trkpt>
      <trkpt lat="42.68836" lon="1.42224">
        <ele>1908.3542480469</ele>
        <time>2012-06-23T14:00:02Z</time>
      </trkpt>
      <trkpt lat="42.68838" lon="1.42225">
        <ele>1907.3930664062</ele>
        <time>2012-06-23T14:00:04Z</time>
      </trkpt>
      <trkpt lat="42.68842" lon="1.42229">
        <ele>1904.5090332031</ele>
        <time>2012-06-23T14:00:08Z</time>
      </trkpt>
      <trkpt lat="42.68847" lon="1.4223">
        <ele>1903.0671386719</ele>
        <time>2012-06-23T14:00:13Z</time>
      </trkpt>
      <trkpt lat="42.68851" lon="1.4223">
        <ele>1902.5864257812</ele>
        <time>2012-06-23T14:00:18Z</time>
      </trkpt>
      <trkpt lat="42.68857" lon="1.42235">
        <ele>1899.2216796875</ele>
        <time>2012-06-23T14:00:26Z</time>
      </trkpt>
      <trkpt lat="42.68862" lon="1.42239">
        <ele>1895.3764648438</ele>
        <time>2012-06-23T14:00:31Z</time>
      </trkpt>
      <trkpt lat="42.68865" lon="1.4224">
        <ele>1896.337890625</ele>
        <time>2012-06-23T14:00:35Z</time>
      </trkpt>
      <trkpt lat="42.6887" lon="1.42242">
        <ele>1894.4150390625</ele>
        <time>2012-06-23T14:00:40Z</time>
      </trkpt>
      <trkpt lat="42.68874" lon="1.42242">
        <ele>1891.53125</ele>
        <time>2012-06-23T14:00:45Z</time>
      </trkpt>
      <trkpt lat="42.68879" lon="1.42241">
        <ele>1890.5698242188</ele>
        <time>2012-06-23T14:00:50Z</time>
      </trkpt>
      <trkpt lat="42.6888" lon="1.42242">
        <ele>1889.6086425781</ele>
        <time>2012-06-23T14:00:51Z</time>
      </trkpt>
      <trkpt lat="42.68889" lon="1.42246">
        <ele>1889.1279296875</ele>
        <time>2012-06-23T14:00:59Z</time>
      </trkpt>
      <trkpt lat="42.68893" lon="1.42247">
        <ele>1888.6474609375</ele>
        <time>2012-06-23T14:01:02Z</time>
      </trkpt>
      <trkpt lat="42.68895" lon="1.42247">
        <ele>1888.1667480469</ele>
        <time>2012-06-23T14:01:06Z</time>
      </trkpt>
      <trkpt lat="42.68901" lon="1.4225">
        <ele>1886.724609375</ele>
        <time>2012-06-23T14:01:11Z</time>
      </trkpt>
      <trkpt lat="42.68904" lon="1.42251">
        <ele>1885.2827148438</ele>
        <time>2012-06-23T14:01:15Z</time>
      </trkpt>
      <trkpt lat="42.68907" lon="1.42251">
        <ele>1882.8791503906</ele>
        <time>2012-06-23T14:01:19Z</time>
      </trkpt>
      <trkpt lat="42.6891" lon="1.42249">
        <ele>1881.4372558594</ele>
        <time>2012-06-23T14:01:23Z</time>
      </trkpt>
      <trkpt lat="42.68914" lon="1.42252">
        <ele>1880.9567871094</ele>
        <time>2012-06-23T14:01:28Z</time>
      </trkpt>
      <trkpt lat="42.68916" lon="1.42256">
        <ele>1878.5534667969</ele>
        <time>2012-06-23T14:01:32Z</time>
      </trkpt>
      <trkpt lat="42.68919" lon="1.42259">
        <ele>1877.5920410156</ele>
        <time>2012-06-23T14:01:36Z</time>
      </trkpt>
      <trkpt lat="42.68924" lon="1.42261">
        <ele>1878.0727539062</ele>
        <time>2012-06-23T14:01:42Z</time>
      </trkpt>
      <trkpt lat="42.6893" lon="1.42263">
        <ele>1882.3986816406</ele>
        <time>2012-06-23T14:01:49Z</time>
      </trkpt>
      <trkpt lat="42.68937" lon="1.42265">
        <ele>1883.8405761719</ele>
        <time>2012-06-23T14:01:56Z</time>
      </trkpt>
      <trkpt lat="42.68943" lon="1.42267">
        <ele>1885.2827148438</ele>
        <time>2012-06-23T14:02:02Z</time>
      </trkpt>
      <trkpt lat="42.68951" lon="1.42271">
        <ele>1886.244140625</ele>
        <time>2012-06-23T14:02:08Z</time>
      </trkpt>
      <trkpt lat="42.68958" lon="1.42274">
        <ele>1891.0505371094</ele>
        <time>2012-06-23T14:02:16Z</time>
      </trkpt>
      <trkpt lat="42.68966" lon="1.42279">
        <ele>1887.2053222656</ele>
        <time>2012-06-23T14:02:22Z</time>
      </trkpt>
      <trkpt lat="42.68971" lon="1.42283">
        <ele>1884.3215332031</ele>
        <time>2012-06-23T14:02:27Z</time>
      </trkpt>
      <trkpt lat="42.68974" lon="1.42286">
        <ele>1883.3598632812</ele>
        <time>2012-06-23T14:02:30Z</time>
      </trkpt>
      <trkpt lat="42.68975" lon="1.42289">
        <ele>1881.91796875</ele>
        <time>2012-06-23T14:02:33Z</time>
      </trkpt>
      <trkpt lat="42.68982" lon="1.42293">
        <ele>1879.5146484375</ele>
        <time>2012-06-23T14:02:39Z</time>
      </trkpt>
      <trkpt lat="42.6899" lon="1.42297">
        <ele>1880.9567871094</ele>
        <time>2012-06-23T14:02:46Z</time>
      </trkpt>
      <trkpt lat="42.68991" lon="1.42298">
        <ele>1879.0339355469</ele>
        <time>2012-06-23T14:02:50Z</time>
      </trkpt>
      <trkpt lat="42.68997" lon="1.42296">
        <ele>1881.91796875</ele>
        <time>2012-06-23T14:03:02Z</time>
      </trkpt>
      <trkpt lat="42.69004" lon="1.42297">
        <ele>1878.0727539062</ele>
        <time>2012-06-23T14:03:08Z</time>
      </trkpt>
      <trkpt lat="42.69009" lon="1.42295">
        <ele>1879.5146484375</ele>
        <time>2012-06-23T14:03:14Z</time>
      </trkpt>
      <trkpt lat="42.69017" lon="1.42293">
        <ele>1880.4760742188</ele>
        <time>2012-06-23T14:03:21Z</time>
      </trkpt>
      <trkpt lat="42.69021" lon="1.42295">
        <ele>1882.3986816406</ele>
        <time>2012-06-23T14:03:26Z</time>
      </trkpt>
      <trkpt lat="42.69029" lon="1.42298">
        <ele>1883.8405761719</ele>
        <time>2012-06-23T14:03:33Z</time>
      </trkpt>
      <trkpt lat="42.69032" lon="1.42296">
        <ele>1882.8791503906</ele>
        <time>2012-06-23T14:03:36Z</time>
      </trkpt>
      <trkpt lat="42.69039" lon="1.42298">
        <ele>1879.9953613281</ele>
        <time>2012-06-23T14:03:42Z</time>
      </trkpt>
      <trkpt lat="42.69044" lon="1.423">
        <ele>1878.0727539062</ele>
        <time>2012-06-23T14:03:46Z</time>
      </trkpt>
      <trkpt lat="42.69049" lon="1.42308">
        <ele>1879.0339355469</ele>
        <time>2012-06-23T14:03:53Z</time>
      </trkpt>
      <trkpt lat="42.69053" lon="1.42311">
        <ele>1878.0727539062</ele>
        <time>2012-06-23T14:03:59Z</time>
      </trkpt>
      <trkpt lat="42.69055" lon="1.42311">
        <ele>1878.0727539062</ele>
        <time>2012-06-23T14:04:03Z</time>
      </trkpt>
      <trkpt lat="42.69059" lon="1.42312">
        <ele>1876.630859375</ele>
        <time>2012-06-23T14:04:08Z</time>
      </trkpt>
      <trkpt lat="42.69064" lon="1.42316">
        <ele>1874.7082519531</ele>
        <time>2012-06-23T14:04:12Z</time>
      </trkpt>
      <trkpt lat="42.69066" lon="1.42318">
        <ele>1875.1887207031</ele>
        <time>2012-06-23T14:04:15Z</time>
      </trkpt>
      <trkpt lat="42.69067" lon="1.4232">
        <ele>1874.7082519531</ele>
        <time>2012-06-23T14:04:16Z</time>
      </trkpt>
      <trkpt lat="42.69069" lon="1.42326">
        <ele>1872.3049316406</ele>
        <time>2012-06-23T14:04:20Z</time>
      </trkpt>
      <trkpt lat="42.69074" lon="1.42331">
        <ele>1867.9787597656</ele>
        <time>2012-06-23T14:04:26Z</time>
      </trkpt>
      <trkpt lat="42.69077" lon="1.42332">
        <ele>1865.0949707031</ele>
        <time>2012-06-23T14:04:30Z</time>
      </trkpt>
      <trkpt lat="42.6908" lon="1.4233">
        <ele>1861.73046875</ele>
        <time>2012-06-23T14:04:33Z</time>
      </trkpt>
      <trkpt lat="42.69084" lon="1.42332">
        <ele>1860.7690429688</ele>
        <time>2012-06-23T14:04:36Z</time>
      </trkpt>
      <trkpt lat="42.69094" lon="1.42331">
        <ele>1859.3271484375</ele>
        <time>2012-06-23T14:04:42Z</time>
      </trkpt>
      <trkpt lat="42.69101" lon="1.42333">
        <ele>1858.3657226562</ele>
        <time>2012-06-23T14:04:48Z</time>
      </trkpt>
      <trkpt lat="42.6911" lon="1.42338">
        <ele>1860.7690429688</ele>
        <time>2012-06-23T14:04:55Z</time>
      </trkpt>
      <trkpt lat="42.69116" lon="1.42346">
        <ele>1859.8076171875</ele>
        <time>2012-06-23T14:05:02Z</time>
      </trkpt>
      <trkpt lat="42.69118" lon="1.42348">
        <ele>1858.3657226562</ele>
        <time>2012-06-23T14:05:07Z</time>
      </trkpt>
      <trkpt lat="42.69121" lon="1.42351">
        <ele>1858.3657226562</ele>
        <time>2012-06-23T14:05:12Z</time>
      </trkpt>
      <trkpt lat="42.69124" lon="1.42351">
        <ele>1856.4431152344</ele>
        <time>2012-06-23T14:05:16Z</time>
      </trkpt>
      <trkpt lat="42.69131" lon="1.42352">
        <ele>1853.5593261719</ele>
        <time>2012-06-23T14:05:23Z</time>
      </trkpt>
      <trkpt lat="42.69138" lon="1.42352">
        <ele>1851.6364746094</ele>
        <time>2012-06-23T14:05:30Z</time>
      </trkpt>
      <trkpt lat="42.6914" lon="1.4235">
        <ele>1852.1171875</ele>
        <time>2012-06-23T14:05:34Z</time>
      </trkpt>
      <trkpt lat="42.69145" lon="1.4235">
        <ele>1853.0786132812</ele>
        <time>2012-06-23T14:05:40Z</time>
      </trkpt>
      <trkpt lat="42.69148" lon="1.42348">
        <ele>1852.1171875</ele>
        <time>2012-06-23T14:05:43Z</time>
      </trkpt>
      <trkpt lat="42.69152" lon="1.42349">
        <ele>1851.1557617188</ele>
        <time>2012-06-23T14:05:47Z</time>
      </trkpt>
      <trkpt lat="42.69156" lon="1.42348">
        <ele>1851.1557617188</ele>
        <time>2012-06-23T14:05:52Z</time>
      </trkpt>
      <trkpt lat="42.69159" lon="1.42347">
        <ele>1847.7912597656</ele>
        <time>2012-06-23T14:05:56Z</time>
      </trkpt>
      <trkpt lat="42.69163" lon="1.42343">
        <ele>1844.4265136719</ele>
        <time>2012-06-23T14:06:00Z</time>
      </trkpt>
      <trkpt lat="42.69169" lon="1.4234">
        <ele>1842.5041503906</ele>
        <time>2012-06-23T14:06:06Z</time>
      </trkpt>
      <trkpt lat="42.69173" lon="1.42337">
        <ele>1840.1008300781</ele>
        <time>2012-06-23T14:06:11Z</time>
      </trkpt>
      <trkpt lat="42.69176" lon="1.42334">
        <ele>1839.6201171875</ele>
        <time>2012-06-23T14:06:15Z</time>
      </trkpt>
      <trkpt lat="42.6918" lon="1.4233">
        <ele>1834.3327636719</ele>
        <time>2012-06-23T14:06:20Z</time>
      </trkpt>
      <trkpt lat="42.69182" lon="1.42328">
        <ele>1832.890625</ele>
        <time>2012-06-23T14:06:26Z</time>
      </trkpt>
      <trkpt lat="42.69185" lon="1.42328">
        <ele>1830.9682617188</ele>
        <time>2012-06-23T14:06:29Z</time>
      </trkpt>
      <trkpt lat="42.6919" lon="1.42322">
        <ele>1830.9682617188</ele>
        <time>2012-06-23T14:06:35Z</time>
      </trkpt>
      <trkpt lat="42.69192" lon="1.42321">
        <ele>1830.4875488281</ele>
        <time>2012-06-23T14:06:37Z</time>
      </trkpt>
      <trkpt lat="42.69202" lon="1.42321">
        <ele>1829.0454101562</ele>
        <time>2012-06-23T14:06:45Z</time>
      </trkpt>
      <trkpt lat="42.69208" lon="1.42323">
        <ele>1827.603515625</ele>
        <time>2012-06-23T14:06:49Z</time>
      </trkpt>
      <trkpt lat="42.69215" lon="1.42327">
        <ele>1827.123046875</ele>
        <time>2012-06-23T14:06:55Z</time>
      </trkpt>
      <trkpt lat="42.69217" lon="1.42329">
        <ele>1825.2001953125</ele>
        <time>2012-06-23T14:06:58Z</time>
      </trkpt>
      <trkpt lat="42.69218" lon="1.42329">
        <ele>1824.2390136719</ele>
        <time>2012-06-23T14:06:59Z</time>
      </trkpt>
      <trkpt lat="42.69222" lon="1.42328">
        <ele>1823.7583007812</ele>
        <time>2012-06-23T14:07:04Z</time>
      </trkpt>
      <trkpt lat="42.6923" lon="1.42327">
        <ele>1821.8356933594</ele>
        <time>2012-06-23T14:07:11Z</time>
      </trkpt>
      <trkpt lat="42.69232" lon="1.42329">
        <ele>1821.8356933594</ele>
        <time>2012-06-23T14:07:15Z</time>
      </trkpt>
      <trkpt lat="42.69235" lon="1.42328">
        <ele>1821.3549804688</ele>
        <time>2012-06-23T14:07:18Z</time>
      </trkpt>
      <trkpt lat="42.69244" lon="1.42331">
        <ele>1817.0290527344</ele>
        <time>2012-06-23T14:07:24Z</time>
      </trkpt>
      <trkpt lat="42.6925" lon="1.42333">
        <ele>1816.5483398438</ele>
        <time>2012-06-23T14:07:30Z</time>
      </trkpt>
      <trkpt lat="42.69255" lon="1.42333">
        <ele>1817.5095214844</ele>
        <time>2012-06-23T14:07:36Z</time>
      </trkpt>
      <trkpt lat="42.69258" lon="1.42334">
        <ele>1816.5483398438</ele>
        <time>2012-06-23T14:07:40Z</time>
      </trkpt>
      <trkpt lat="42.69263" lon="1.42334">
        <ele>1817.0290527344</ele>
        <time>2012-06-23T14:07:45Z</time>
      </trkpt>
      <trkpt lat="42.69268" lon="1.42334">
        <ele>1814.1450195312</ele>
        <time>2012-06-23T14:07:50Z</time>
      </trkpt>
      <trkpt lat="42.69271" lon="1.42334">
        <ele>1813.1838378906</ele>
        <time>2012-06-23T14:07:54Z</time>
      </trkpt>
      <trkpt lat="42.69273" lon="1.42334">
        <ele>1811.7419433594</ele>
        <time>2012-06-23T14:07:56Z</time>
      </trkpt>
      <trkpt lat="42.69277" lon="1.42334">
        <ele>1810.7805175781</ele>
        <time>2012-06-23T14:08:00Z</time>
      </trkpt>
      <trkpt lat="42.69282" lon="1.42338">
        <ele>1810.7805175781</ele>
        <time>2012-06-23T14:08:05Z</time>
      </trkpt>
      <trkpt lat="42.69283" lon="1.42339">
        <ele>1810.7805175781</ele>
        <time>2012-06-23T14:08:06Z</time>
      </trkpt>
      <trkpt lat="42.69292" lon="1.42341">
        <ele>1811.2612304688</ele>
        <time>2012-06-23T14:08:14Z</time>
      </trkpt>
      <trkpt lat="42.69295" lon="1.42341">
        <ele>1811.2612304688</ele>
        <time>2012-06-23T14:08:17Z</time>
      </trkpt>
      <trkpt lat="42.69297" lon="1.42339">
        <ele>1809.8190917969</ele>
        <time>2012-06-23T14:08:19Z</time>
      </trkpt>
      <trkpt lat="42.693" lon="1.42338">
        <ele>1805.0126953125</ele>
        <time>2012-06-23T14:08:23Z</time>
      </trkpt>
      <trkpt lat="42.69302" lon="1.42337">
        <ele>1805.4934082031</ele>
        <time>2012-06-23T14:08:25Z</time>
      </trkpt>
      <trkpt lat="42.69307" lon="1.42335">
        <ele>1807.416015625</ele>
        <time>2012-06-23T14:08:32Z</time>
      </trkpt>
      <trkpt lat="42.69312" lon="1.42337">
        <ele>1807.416015625</ele>
        <time>2012-06-23T14:08:37Z</time>
      </trkpt>
      <trkpt lat="42.6932" lon="1.42336">
        <ele>1806.9353027344</ele>
        <time>2012-06-23T14:08:44Z</time>
      </trkpt>
      <trkpt lat="42.69321" lon="1.42336">
        <ele>1806.4545898438</ele>
        <time>2012-06-23T14:08:46Z</time>
      </trkpt>
      <trkpt lat="42.69329" lon="1.42336">
        <ele>1803.5705566406</ele>
        <time>2012-06-23T14:08:53Z</time>
      </trkpt>
      <trkpt lat="42.69336" lon="1.42336">
        <ele>1803.08984375</ele>
        <time>2012-06-23T14:08:59Z</time>
      </trkpt>
      <trkpt lat="42.69336" lon="1.42337">
        <ele>1802.6091308594</ele>
        <time>2012-06-23T14:09:00Z</time>
      </trkpt>
      <trkpt lat="42.69347" lon="1.42344">
        <ele>1799.2446289062</ele>
        <time>2012-06-23T14:09:10Z</time>
      </trkpt>
      <trkpt lat="42.6935" lon="1.42343">
        <ele>1799.7253417969</ele>
        <time>2012-06-23T14:09:13Z</time>
      </trkpt>
      <trkpt lat="42.69358" lon="1.42341">
        <ele>1797.802734375</ele>
        <time>2012-06-23T14:09:20Z</time>
      </trkpt>
      <trkpt lat="42.69365" lon="1.42341">
        <ele>1797.802734375</ele>
        <time>2012-06-23T14:09:27Z</time>
      </trkpt>
      <trkpt lat="42.69368" lon="1.4234">
        <ele>1793.4768066406</ele>
        <time>2012-06-23T14:09:32Z</time>
      </trkpt>
      <trkpt lat="42.69375" lon="1.4234">
        <ele>1794.4379882812</ele>
        <time>2012-06-23T14:09:39Z</time>
      </trkpt>
      <trkpt lat="42.69378" lon="1.42339">
        <ele>1792.515625</ele>
        <time>2012-06-23T14:09:43Z</time>
      </trkpt>
      <trkpt lat="42.69384" lon="1.42338">
        <ele>1791.5541992188</ele>
        <time>2012-06-23T14:09:48Z</time>
      </trkpt>
      <trkpt lat="42.69388" lon="1.42339">
        <ele>1792.0349121094</ele>
        <time>2012-06-23T14:09:52Z</time>
      </trkpt>
      <trkpt lat="42.69392" lon="1.42341">
        <ele>1791.0734863281</ele>
        <time>2012-06-23T14:09:56Z</time>
      </trkpt>
      <trkpt lat="42.69395" lon="1.42342">
        <ele>1789.1508789062</ele>
        <time>2012-06-23T14:09:59Z</time>
      </trkpt>
      <trkpt lat="42.69402" lon="1.42345">
        <ele>1788.1896972656</ele>
        <time>2012-06-23T14:10:05Z</time>
      </trkpt>
      <trkpt lat="42.69405" lon="1.42345">
        <ele>1787.2280273438</ele>
        <time>2012-06-23T14:10:08Z</time>
      </trkpt>
      <trkpt lat="42.69407" lon="1.42344">
        <ele>1787.7087402344</ele>
        <time>2012-06-23T14:10:10Z</time>
      </trkpt>
      <trkpt lat="42.69411" lon="1.42346">
        <ele>1784.3442382812</ele>
        <time>2012-06-23T14:10:13Z</time>
      </trkpt>
      <trkpt lat="42.69415" lon="1.42346">
        <ele>1783.3828125</ele>
        <time>2012-06-23T14:10:17Z</time>
      </trkpt>
      <trkpt lat="42.69418" lon="1.42346">
        <ele>1781.4602050781</ele>
        <time>2012-06-23T14:10:19Z</time>
      </trkpt>
      <trkpt lat="42.69424" lon="1.42347">
        <ele>1779.5375976562</ele>
        <time>2012-06-23T14:10:23Z</time>
      </trkpt>
      <trkpt lat="42.69428" lon="1.4235">
        <ele>1779.0568847656</ele>
        <time>2012-06-23T14:10:26Z</time>
      </trkpt>
      <trkpt lat="42.69436" lon="1.4235">
        <ele>1775.2116699219</ele>
        <time>2012-06-23T14:10:32Z</time>
      </trkpt>
      <trkpt lat="42.69441" lon="1.42351">
        <ele>1774.7312011719</ele>
        <time>2012-06-23T14:10:38Z</time>
      </trkpt>
      <trkpt lat="42.69444" lon="1.42352">
        <ele>1775.2116699219</ele>
        <time>2012-06-23T14:10:42Z</time>
      </trkpt>
      <trkpt lat="42.69447" lon="1.42355">
        <ele>1775.6923828125</ele>
        <time>2012-06-23T14:10:47Z</time>
      </trkpt>
      <trkpt lat="42.69452" lon="1.42356">
        <ele>1774.2504882812</ele>
        <time>2012-06-23T14:10:51Z</time>
      </trkpt>
      <trkpt lat="42.69456" lon="1.42356">
        <ele>1776.1730957031</ele>
        <time>2012-06-23T14:10:55Z</time>
      </trkpt>
      <trkpt lat="42.69463" lon="1.42356">
        <ele>1775.2116699219</ele>
        <time>2012-06-23T14:11:02Z</time>
      </trkpt>
      <trkpt lat="42.69468" lon="1.4236">
        <ele>1774.2504882812</ele>
        <time>2012-06-23T14:11:08Z</time>
      </trkpt>
      <trkpt lat="42.69474" lon="1.4236">
        <ele>1772.80859375</ele>
        <time>2012-06-23T14:11:13Z</time>
      </trkpt>
      <trkpt lat="42.69477" lon="1.42359">
        <ele>1770.8857421875</ele>
        <time>2012-06-23T14:11:19Z</time>
      </trkpt>
      <trkpt lat="42.69482" lon="1.42359">
        <ele>1769.9243164062</ele>
        <time>2012-06-23T14:11:23Z</time>
      </trkpt>
      <trkpt lat="42.6949" lon="1.4236">
        <ele>1768.482421875</ele>
        <time>2012-06-23T14:11:30Z</time>
      </trkpt>
      <trkpt lat="42.69492" lon="1.42359">
        <ele>1769.9243164062</ele>
        <time>2012-06-23T14:11:34Z</time>
      </trkpt>
      <trkpt lat="42.69495" lon="1.4236">
        <ele>1770.8857421875</ele>
        <time>2012-06-23T14:11:38Z</time>
      </trkpt>
      <trkpt lat="42.69495" lon="1.42364">
        <ele>1774.7312011719</ele>
        <time>2012-06-23T14:11:46Z</time>
      </trkpt>
      <trkpt lat="42.69499" lon="1.42364">
        <ele>1775.6923828125</ele>
        <time>2012-06-23T14:12:00Z</time>
      </trkpt>
      <trkpt lat="42.69502" lon="1.42364">
        <ele>1775.2116699219</ele>
        <time>2012-06-23T14:12:05Z</time>
      </trkpt>
      <trkpt lat="42.69499" lon="1.42363">
        <ele>1776.6538085938</ele>
        <time>2012-06-23T14:12:12Z</time>
      </trkpt>
      <trkpt lat="42.69497" lon="1.42359">
        <ele>1776.1730957031</ele>
        <time>2012-06-23T14:12:20Z</time>
      </trkpt>
      <trkpt lat="42.69494" lon="1.42352">
        <ele>1773.2893066406</ele>
        <time>2012-06-23T14:12:26Z</time>
      </trkpt>
      <trkpt lat="42.69495" lon="1.42345">
        <ele>1768.9631347656</ele>
        <time>2012-06-23T14:12:33Z</time>
      </trkpt>
      <trkpt lat="42.69492" lon="1.42336">
        <ele>1765.5986328125</ele>
        <time>2012-06-23T14:12:40Z</time>
      </trkpt>
      <trkpt lat="42.6949" lon="1.42333">
        <ele>1764.1564941406</ele>
        <time>2012-06-23T14:12:43Z</time>
      </trkpt>
      <trkpt lat="42.69493" lon="1.42323">
        <ele>1760.7919921875</ele>
        <time>2012-06-23T14:12:51Z</time>
      </trkpt>
      <trkpt lat="42.69494" lon="1.42317">
        <ele>1757.4274902344</ele>
        <time>2012-06-23T14:12:57Z</time>
      </trkpt>
      <trkpt lat="42.69496" lon="1.42313">
        <ele>1756.4660644531</ele>
        <time>2012-06-23T14:13:01Z</time>
      </trkpt>
      <trkpt lat="42.69499" lon="1.42307">
        <ele>1753.58203125</ele>
        <time>2012-06-23T14:13:07Z</time>
      </trkpt>
      <trkpt lat="42.69499" lon="1.42305">
        <ele>1751.6594238281</ele>
        <time>2012-06-23T14:13:14Z</time>
      </trkpt>
      <trkpt lat="42.695" lon="1.42301">
        <ele>1752.1398925781</ele>
        <time>2012-06-23T14:13:18Z</time>
      </trkpt>
      <trkpt lat="42.695" lon="1.42298">
        <ele>1754.5432128906</ele>
        <time>2012-06-23T14:13:24Z</time>
      </trkpt>
      <trkpt lat="42.69501" lon="1.423">
        <ele>1759.8305664062</ele>
        <time>2012-06-23T14:13:32Z</time>
      </trkpt>
      <trkpt lat="42.69511" lon="1.42301">
        <ele>1759.3500976562</ele>
        <time>2012-06-23T14:13:40Z</time>
      </trkpt>
      <trkpt lat="42.69518" lon="1.42305">
        <ele>1757.908203125</ele>
        <time>2012-06-23T14:13:46Z</time>
      </trkpt>
      <trkpt lat="42.69524" lon="1.42308">
        <ele>1755.9851074219</ele>
        <time>2012-06-23T14:13:53Z</time>
      </trkpt>
      <trkpt lat="42.69529" lon="1.42313">
        <ele>1755.5046386719</ele>
        <time>2012-06-23T14:13:59Z</time>
      </trkpt>
      <trkpt lat="42.69532" lon="1.42316">
        <ele>1754.0627441406</ele>
        <time>2012-06-23T14:14:03Z</time>
      </trkpt>
      <trkpt lat="42.69538" lon="1.42317">
        <ele>1752.1398925781</ele>
        <time>2012-06-23T14:14:09Z</time>
      </trkpt>
      <trkpt lat="42.69547" lon="1.42316">
        <ele>1749.7368164062</ele>
        <time>2012-06-23T14:14:16Z</time>
      </trkpt>
      <trkpt lat="42.69551" lon="1.42316">
        <ele>1751.1787109375</ele>
        <time>2012-06-23T14:14:20Z</time>
      </trkpt>
      <trkpt lat="42.69555" lon="1.42316">
        <ele>1750.2175292969</ele>
        <time>2012-06-23T14:14:24Z</time>
      </trkpt>
      <trkpt lat="42.69564" lon="1.42309">
        <ele>1747.8142089844</ele>
        <time>2012-06-23T14:14:34Z</time>
      </trkpt>
      <trkpt lat="42.69567" lon="1.42305">
        <ele>1745.4108886719</ele>
        <time>2012-06-23T14:14:40Z</time>
      </trkpt>
      <trkpt lat="42.69569" lon="1.42305">
        <ele>1743.9689941406</ele>
        <time>2012-06-23T14:14:45Z</time>
      </trkpt>
      <trkpt lat="42.69571" lon="1.42308">
        <ele>1743.48828125</ele>
        <time>2012-06-23T14:14:48Z</time>
      </trkpt>
      <trkpt lat="42.69577" lon="1.42315">
        <ele>1742.5270996094</ele>
        <time>2012-06-23T14:14:55Z</time>
      </trkpt>
      <trkpt lat="42.69582" lon="1.42318">
        <ele>1741.5656738281</ele>
        <time>2012-06-23T14:15:01Z</time>
      </trkpt>
      <trkpt lat="42.69587" lon="1.42317">
        <ele>1741.0849609375</ele>
        <time>2012-06-23T14:15:06Z</time>
      </trkpt>
      <trkpt lat="42.69592" lon="1.42312">
        <ele>1738.681640625</ele>
        <time>2012-06-23T14:15:13Z</time>
      </trkpt>
      <trkpt lat="42.69595" lon="1.42313">
        <ele>1737.7202148438</ele>
        <time>2012-06-23T14:15:18Z</time>
      </trkpt>
      <trkpt lat="42.69597" lon="1.42312">
        <ele>1736.7587890625</ele>
        <time>2012-06-23T14:15:22Z</time>
      </trkpt>
      <trkpt lat="42.69601" lon="1.42309">
        <ele>1735.7976074219</ele>
        <time>2012-06-23T14:15:28Z</time>
      </trkpt>
      <trkpt lat="42.69606" lon="1.42301">
        <ele>1732.4331054688</ele>
        <time>2012-06-23T14:15:35Z</time>
      </trkpt>
      <trkpt lat="42.69611" lon="1.42298">
        <ele>1730.5104980469</ele>
        <time>2012-06-23T14:15:41Z</time>
      </trkpt>
      <trkpt lat="42.69614" lon="1.42292">
        <ele>1728.587890625</ele>
        <time>2012-06-23T14:15:46Z</time>
      </trkpt>
      <trkpt lat="42.69615" lon="1.4229">
        <ele>1727.1459960938</ele>
        <time>2012-06-23T14:15:48Z</time>
      </trkpt>
      <trkpt lat="42.69619" lon="1.42285">
        <ele>1725.2231445312</ele>
        <time>2012-06-23T14:15:54Z</time>
      </trkpt>
      <trkpt lat="42.69624" lon="1.42281">
        <ele>1723.7810058594</ele>
        <time>2012-06-23T14:16:01Z</time>
      </trkpt>
      <trkpt lat="42.69625" lon="1.42281">
        <ele>1724.2619628906</ele>
        <time>2012-06-23T14:16:04Z</time>
      </trkpt>
      <trkpt lat="42.69629" lon="1.42277">
        <ele>1723.3005371094</ele>
        <time>2012-06-23T14:16:09Z</time>
      </trkpt>
      <trkpt lat="42.69633" lon="1.42275">
        <ele>1721.8583984375</ele>
        <time>2012-06-23T14:16:14Z</time>
      </trkpt>
      <trkpt lat="42.69638" lon="1.42275">
        <ele>1719.9357910156</ele>
        <time>2012-06-23T14:16:20Z</time>
      </trkpt>
      <trkpt lat="42.69643" lon="1.42274">
        <ele>1719.9357910156</ele>
        <time>2012-06-23T14:16:24Z</time>
      </trkpt>
      <trkpt lat="42.69646" lon="1.42274">
        <ele>1718.974609375</ele>
        <time>2012-06-23T14:16:27Z</time>
      </trkpt>
      <trkpt lat="42.69655" lon="1.42276">
        <ele>1718.0131835938</ele>
        <time>2012-06-23T14:16:36Z</time>
      </trkpt>
      <trkpt lat="42.69658" lon="1.42275">
        <ele>1717.0520019531</ele>
        <time>2012-06-23T14:16:39Z</time>
      </trkpt>
      <trkpt lat="42.69667" lon="1.42276">
        <ele>1716.5712890625</ele>
        <time>2012-06-23T14:16:47Z</time>
      </trkpt>
      <trkpt lat="42.69669" lon="1.42276">
        <ele>1716.0905761719</ele>
        <time>2012-06-23T14:16:49Z</time>
      </trkpt>
      <trkpt lat="42.69674" lon="1.42272">
        <ele>1714.6486816406</ele>
        <time>2012-06-23T14:16:56Z</time>
      </trkpt>
      <trkpt lat="42.69679" lon="1.4227">
        <ele>1712.7260742188</ele>
        <time>2012-06-23T14:17:02Z</time>
      </trkpt>
      <trkpt lat="42.69683" lon="1.42268">
        <ele>1712.2453613281</ele>
        <time>2012-06-23T14:17:07Z</time>
      </trkpt>
      <trkpt lat="42.69688" lon="1.42271">
        <ele>1711.2841796875</ele>
        <time>2012-06-23T14:17:12Z</time>
      </trkpt>
      <trkpt lat="42.69689" lon="1.42272">
        <ele>1710.8034667969</ele>
        <time>2012-06-23T14:17:13Z</time>
      </trkpt>
      <trkpt lat="42.69693" lon="1.42272">
        <ele>1710.3227539062</ele>
        <time>2012-06-23T14:17:16Z</time>
      </trkpt>
      <trkpt lat="42.69698" lon="1.42267">
        <ele>1708.4001464844</ele>
        <time>2012-06-23T14:17:23Z</time>
      </trkpt>
      <trkpt lat="42.69699" lon="1.42267">
        <ele>1707.9194335938</ele>
        <time>2012-06-23T14:17:24Z</time>
      </trkpt>
      <trkpt lat="42.69703" lon="1.42266">
        <ele>1706.9580078125</ele>
        <time>2012-06-23T14:17:32Z</time>
      </trkpt>
      <trkpt lat="42.69704" lon="1.42264">
        <ele>1706.9580078125</ele>
        <time>2012-06-23T14:17:37Z</time>
      </trkpt>
      <trkpt lat="42.69704" lon="1.42268">
        <ele>1706.4772949219</ele>
        <time>2012-06-23T14:17:41Z</time>
      </trkpt>
      <trkpt lat="42.69708" lon="1.42277">
        <ele>1705.5161132812</ele>
        <time>2012-06-23T14:17:48Z</time>
      </trkpt>
      <trkpt lat="42.69708" lon="1.42278">
        <ele>1705.5161132812</ele>
        <time>2012-06-23T14:17:49Z</time>
      </trkpt>
      <trkpt lat="42.69714" lon="1.42282">
        <ele>1703.5935058594</ele>
        <time>2012-06-23T14:17:58Z</time>
      </trkpt>
      <trkpt lat="42.69713" lon="1.42285">
        <ele>1703.5935058594</ele>
        <time>2012-06-23T14:18:06Z</time>
      </trkpt>
      <trkpt lat="42.69711" lon="1.4229">
        <ele>1703.1127929688</ele>
        <time>2012-06-23T14:18:13Z</time>
      </trkpt>
      <trkpt lat="42.69709" lon="1.42294">
        <ele>1702.6320800781</ele>
        <time>2012-06-23T14:18:18Z</time>
      </trkpt>
      <trkpt lat="42.69706" lon="1.42301">
        <ele>1702.1513671875</ele>
        <time>2012-06-23T14:18:25Z</time>
      </trkpt>
      <trkpt lat="42.69702" lon="1.42305">
        <ele>1700.7094726562</ele>
        <time>2012-06-23T14:18:31Z</time>
      </trkpt>
      <trkpt lat="42.69698" lon="1.4231">
        <ele>1699.7482910156</ele>
        <time>2012-06-23T14:18:36Z</time>
      </trkpt>
      <trkpt lat="42.69697" lon="1.42313">
        <ele>1699.267578125</ele>
        <time>2012-06-23T14:18:38Z</time>
      </trkpt>
      <trkpt lat="42.69694" lon="1.42318">
        <ele>1697.8256835938</ele>
        <time>2012-06-23T14:18:44Z</time>
      </trkpt>
      <trkpt lat="42.69692" lon="1.42323">
        <ele>1697.3449707031</ele>
        <time>2012-06-23T14:18:50Z</time>
      </trkpt>
      <trkpt lat="42.69692" lon="1.4233">
        <ele>1696.8642578125</ele>
        <time>2012-06-23T14:18:56Z</time>
      </trkpt>
      <trkpt lat="42.69693" lon="1.42339">
        <ele>1696.3837890625</ele>
        <time>2012-06-23T14:19:03Z</time>
      </trkpt>
      <trkpt lat="42.69693" lon="1.42347">
        <ele>1697.8256835938</ele>
        <time>2012-06-23T14:19:09Z</time>
      </trkpt>
      <trkpt lat="42.69696" lon="1.42355">
        <ele>1697.3449707031</ele>
        <time>2012-06-23T14:19:16Z</time>
      </trkpt>
      <trkpt lat="42.69695" lon="1.42358">
        <ele>1696.3837890625</ele>
        <time>2012-06-23T14:19:19Z</time>
      </trkpt>
      <trkpt lat="42.69698" lon="1.42359">
        <ele>1696.3837890625</ele>
        <time>2012-06-23T14:19:21Z</time>
      </trkpt>
      <trkpt lat="42.697" lon="1.42365">
        <ele>1695.4223632812</ele>
        <time>2012-06-23T14:19:25Z</time>
      </trkpt>
      <trkpt lat="42.69703" lon="1.42374">
        <ele>1696.3837890625</ele>
        <time>2012-06-23T14:19:31Z</time>
      </trkpt>
      <trkpt lat="42.69706" lon="1.42383">
        <ele>1695.9030761719</ele>
        <time>2012-06-23T14:19:38Z</time>
      </trkpt>
      <trkpt lat="42.6971" lon="1.42387">
        <ele>1695.4223632812</ele>
        <time>2012-06-23T14:19:44Z</time>
      </trkpt>
      <trkpt lat="42.69711" lon="1.42392">
        <ele>1694.4609375</ele>
        <time>2012-06-23T14:19:49Z</time>
      </trkpt>
      <trkpt lat="42.69713" lon="1.42394">
        <ele>1692.5385742188</ele>
        <time>2012-06-23T14:19:53Z</time>
      </trkpt>
      <trkpt lat="42.69719" lon="1.42393">
        <ele>1691.5769042969</ele>
        <time>2012-06-23T14:20:00Z</time>
      </trkpt>
      <trkpt lat="42.69724" lon="1.42393">
        <ele>1693.4997558594</ele>
        <time>2012-06-23T14:20:05Z</time>
      </trkpt>
      <trkpt lat="42.69727" lon="1.42397">
        <ele>1695.4223632812</ele>
        <time>2012-06-23T14:20:09Z</time>
      </trkpt>
      <trkpt lat="42.6973" lon="1.42404">
        <ele>1694.9416503906</ele>
        <time>2012-06-23T14:20:15Z</time>
      </trkpt>
      <trkpt lat="42.69732" lon="1.42408">
        <ele>1694.9416503906</ele>
        <time>2012-06-23T14:20:20Z</time>
      </trkpt>
      <trkpt lat="42.69735" lon="1.42406">
        <ele>1694.4609375</ele>
        <time>2012-06-23T14:20:24Z</time>
      </trkpt>
      <trkpt lat="42.69737" lon="1.42407">
        <ele>1693.0190429688</ele>
        <time>2012-06-23T14:20:29Z</time>
      </trkpt>
      <trkpt lat="42.69747" lon="1.42405">
        <ele>1688.2124023438</ele>
        <time>2012-06-23T14:20:57Z</time>
      </trkpt>
      <trkpt lat="42.69751" lon="1.42407">
        <ele>1689.654296875</ele>
        <time>2012-06-23T14:21:02Z</time>
      </trkpt>
      <trkpt lat="42.69753" lon="1.42407">
        <ele>1691.5769042969</ele>
        <time>2012-06-23T14:21:06Z</time>
      </trkpt>
      <trkpt lat="42.69757" lon="1.42407">
        <ele>1693.98046875</ele>
        <time>2012-06-23T14:21:11Z</time>
      </trkpt>
      <trkpt lat="42.69762" lon="1.42407">
        <ele>1695.4223632812</ele>
        <time>2012-06-23T14:21:17Z</time>
      </trkpt>
      <trkpt lat="42.69765" lon="1.42405">
        <ele>1695.4223632812</ele>
        <time>2012-06-23T14:21:22Z</time>
      </trkpt>
      <trkpt lat="42.69767" lon="1.42403">
        <ele>1693.0190429688</ele>
        <time>2012-06-23T14:21:27Z</time>
      </trkpt>
      <trkpt lat="42.6977" lon="1.42402">
        <ele>1691.0961914062</ele>
        <time>2012-06-23T14:21:31Z</time>
      </trkpt>
      <trkpt lat="42.69773" lon="1.42403">
        <ele>1689.654296875</ele>
        <time>2012-06-23T14:21:35Z</time>
      </trkpt>
      <trkpt lat="42.69776" lon="1.42401">
        <ele>1686.2897949219</ele>
        <time>2012-06-23T14:21:40Z</time>
      </trkpt>
      <trkpt lat="42.69781" lon="1.42399">
        <ele>1678.5993652344</ele>
        <time>2012-06-23T14:21:45Z</time>
      </trkpt>
      <trkpt lat="42.69784" lon="1.42398">
        <ele>1675.234375</ele>
        <time>2012-06-23T14:21:47Z</time>
      </trkpt>
      <trkpt lat="42.69789" lon="1.424">
        <ele>1671.3891601562</ele>
        <time>2012-06-23T14:21:51Z</time>
      </trkpt>
      <trkpt lat="42.69797" lon="1.42401">
        <ele>1666.5827636719</ele>
        <time>2012-06-23T14:21:57Z</time>
      </trkpt>
      <trkpt lat="42.69802" lon="1.42401">
        <ele>1663.6987304688</ele>
        <time>2012-06-23T14:22:02Z</time>
      </trkpt>
      <trkpt lat="42.69809" lon="1.42402">
        <ele>1660.3342285156</ele>
        <time>2012-06-23T14:22:08Z</time>
      </trkpt>
      <trkpt lat="42.69816" lon="1.42402">
        <ele>1656.4887695312</ele>
        <time>2012-06-23T14:22:15Z</time>
      </trkpt>
      <trkpt lat="42.69817" lon="1.42402">
        <ele>1656.0080566406</ele>
        <time>2012-06-23T14:22:16Z</time>
      </trkpt>
      <trkpt lat="42.69821" lon="1.42401">
        <ele>1654.5661621094</ele>
        <time>2012-06-23T14:22:19Z</time>
      </trkpt>
      <trkpt lat="42.69825" lon="1.42401">
        <ele>1652.6435546875</ele>
        <time>2012-06-23T14:22:24Z</time>
      </trkpt>
      <trkpt lat="42.69829" lon="1.424">
        <ele>1651.6823730469</ele>
        <time>2012-06-23T14:22:28Z</time>
      </trkpt>
      <trkpt lat="42.69836" lon="1.42402">
        <ele>1648.3176269531</ele>
        <time>2012-06-23T14:22:35Z</time>
      </trkpt>
      <trkpt lat="42.69839" lon="1.42403">
        <ele>1647.8371582031</ele>
        <time>2012-06-23T14:22:37Z</time>
      </trkpt>
      <trkpt lat="42.69845" lon="1.42405">
        <ele>1645.9145507812</ele>
        <time>2012-06-23T14:22:43Z</time>
      </trkpt>
      <trkpt lat="42.69846" lon="1.42406">
        <ele>1645.9145507812</ele>
        <time>2012-06-23T14:22:44Z</time>
      </trkpt>
      <trkpt lat="42.69849" lon="1.42408">
        <ele>1644.4724121094</ele>
        <time>2012-06-23T14:22:49Z</time>
      </trkpt>
      <trkpt lat="42.69853" lon="1.42409">
        <ele>1643.0302734375</ele>
        <time>2012-06-23T14:22:53Z</time>
      </trkpt>
      <trkpt lat="42.69857" lon="1.42411">
        <ele>1643.9916992188</ele>
        <time>2012-06-23T14:22:58Z</time>
      </trkpt>
      <trkpt lat="42.6986" lon="1.42413">
        <ele>1642.0690917969</ele>
        <time>2012-06-23T14:23:01Z</time>
      </trkpt>
      <trkpt lat="42.69865" lon="1.42415">
        <ele>1640.626953125</ele>
        <time>2012-06-23T14:23:05Z</time>
      </trkpt>
      <trkpt lat="42.69871" lon="1.42416">
        <ele>1639.6657714844</ele>
        <time>2012-06-23T14:23:11Z</time>
      </trkpt>
      <trkpt lat="42.69873" lon="1.42417">
        <ele>1642.0690917969</ele>
        <time>2012-06-23T14:23:15Z</time>
      </trkpt>
      <trkpt lat="42.69878" lon="1.42415">
        <ele>1643.5109863281</ele>
        <time>2012-06-23T14:23:20Z</time>
      </trkpt>
      <trkpt lat="42.69883" lon="1.42417">
        <ele>1644.4724121094</ele>
        <time>2012-06-23T14:23:25Z</time>
      </trkpt>
      <trkpt lat="42.69888" lon="1.42415">
        <ele>1630.5334472656</ele>
        <time>2012-06-23T14:23:40Z</time>
      </trkpt>
      <trkpt lat="42.69891" lon="1.42414">
        <ele>1628.6108398438</ele>
        <time>2012-06-23T14:23:44Z</time>
      </trkpt>
      <trkpt lat="42.69896" lon="1.42413">
        <ele>1629.5720214844</ele>
        <time>2012-06-23T14:23:50Z</time>
      </trkpt>
      <trkpt lat="42.699" lon="1.42415">
        <ele>1626.6879882812</ele>
        <time>2012-06-23T14:23:53Z</time>
      </trkpt>
      <trkpt lat="42.69905" lon="1.42417">
        <ele>1625.7265625</ele>
        <time>2012-06-23T14:24:00Z</time>
      </trkpt>
      <trkpt lat="42.69909" lon="1.42417">
        <ele>1623.3234863281</ele>
        <time>2012-06-23T14:24:05Z</time>
      </trkpt>
      <trkpt lat="42.69913" lon="1.42417">
        <ele>1623.8039550781</ele>
        <time>2012-06-23T14:24:09Z</time>
      </trkpt>
      <trkpt lat="42.69918" lon="1.42419">
        <ele>1624.7653808594</ele>
        <time>2012-06-23T14:24:16Z</time>
      </trkpt>
      <trkpt lat="42.6992" lon="1.42419">
        <ele>1626.6879882812</ele>
        <time>2012-06-23T14:24:20Z</time>
      </trkpt>
      <trkpt lat="42.69926" lon="1.4242">
        <ele>1629.5720214844</ele>
        <time>2012-06-23T14:24:26Z</time>
      </trkpt>
      <trkpt lat="42.69931" lon="1.42419">
        <ele>1624.2846679688</ele>
        <time>2012-06-23T14:24:33Z</time>
      </trkpt>
      <trkpt lat="42.69933" lon="1.42416">
        <ele>1624.7653808594</ele>
        <time>2012-06-23T14:24:40Z</time>
      </trkpt>
      <trkpt lat="42.69937" lon="1.42413">
        <ele>1625.7265625</ele>
        <time>2012-06-23T14:24:45Z</time>
      </trkpt>
      <trkpt lat="42.69943" lon="1.4241">
        <ele>1619.9587402344</ele>
        <time>2012-06-23T14:24:52Z</time>
      </trkpt>
      <trkpt lat="42.6995" lon="1.42409">
        <ele>1614.1909179688</ele>
        <time>2012-06-23T14:24:59Z</time>
      </trkpt>
      <trkpt lat="42.69956" lon="1.4241">
        <ele>1615.6330566406</ele>
        <time>2012-06-23T14:25:05Z</time>
      </trkpt>
      <trkpt lat="42.69959" lon="1.42407">
        <ele>1613.2297363281</ele>
        <time>2012-06-23T14:25:11Z</time>
      </trkpt>
      <trkpt lat="42.69964" lon="1.42406">
        <ele>1611.3068847656</ele>
        <time>2012-06-23T14:25:17Z</time>
      </trkpt>
      <trkpt lat="42.69968" lon="1.42408">
        <ele>1611.7875976562</ele>
        <time>2012-06-23T14:25:23Z</time>
      </trkpt>
      <trkpt lat="42.69972" lon="1.42411">
        <ele>1610.3454589844</ele>
        <time>2012-06-23T14:25:30Z</time>
      </trkpt>
      <trkpt lat="42.69976" lon="1.4241">
        <ele>1609.8647460938</ele>
        <time>2012-06-23T14:25:36Z</time>
      </trkpt>
      <trkpt lat="42.69978" lon="1.42414">
        <ele>1608.9035644531</ele>
        <time>2012-06-23T14:25:40Z</time>
      </trkpt>
      <trkpt lat="42.69981" lon="1.42418">
        <ele>1606.5002441406</ele>
        <time>2012-06-23T14:25:44Z</time>
      </trkpt>
      <trkpt lat="42.69986" lon="1.42423">
        <ele>1605.0583496094</ele>
        <time>2012-06-23T14:25:50Z</time>
      </trkpt>
      <trkpt lat="42.69992" lon="1.42427">
        <ele>1605.0583496094</ele>
        <time>2012-06-23T14:25:57Z</time>
      </trkpt>
      <trkpt lat="42.69995" lon="1.4243">
        <ele>1607.4616699219</ele>
        <time>2012-06-23T14:26:02Z</time>
      </trkpt>
      <trkpt lat="42.69999" lon="1.4243">
        <ele>1606.01953125</ele>
        <time>2012-06-23T14:26:07Z</time>
      </trkpt>
      <trkpt lat="42.70001" lon="1.42435">
        <ele>1605.5390625</ele>
        <time>2012-06-23T14:26:11Z</time>
      </trkpt>
      <trkpt lat="42.70004" lon="1.42437">
        <ele>1605.0583496094</ele>
        <time>2012-06-23T14:26:16Z</time>
      </trkpt>
      <trkpt lat="42.70012" lon="1.42439">
        <ele>1604.5776367188</ele>
        <time>2012-06-23T14:26:23Z</time>
      </trkpt>
      <trkpt lat="42.70017" lon="1.42442">
        <ele>1603.6164550781</ele>
        <time>2012-06-23T14:26:29Z</time>
      </trkpt>
      <trkpt lat="42.7002" lon="1.42443">
        <ele>1603.1357421875</ele>
        <time>2012-06-23T14:26:32Z</time>
      </trkpt>
      <trkpt lat="42.70024" lon="1.42448">
        <ele>1601.2131347656</ele>
        <time>2012-06-23T14:26:38Z</time>
      </trkpt>
      <trkpt lat="42.70026" lon="1.42451">
        <ele>1598.8098144531</ele>
        <time>2012-06-23T14:26:44Z</time>
      </trkpt>
      <trkpt lat="42.70031" lon="1.42453">
        <ele>1596.4067382812</ele>
        <time>2012-06-23T14:26:51Z</time>
      </trkpt>
      <trkpt lat="42.70036" lon="1.42445">
        <ele>1595.92578125</ele>
        <time>2012-06-23T14:26:59Z</time>
      </trkpt>
      <trkpt lat="42.70037" lon="1.42439">
        <ele>1595.4450683594</ele>
        <time>2012-06-23T14:27:06Z</time>
      </trkpt>
      <trkpt lat="42.70039" lon="1.42438">
        <ele>1594.4836425781</ele>
        <time>2012-06-23T14:27:11Z</time>
      </trkpt>
      <trkpt lat="42.70042" lon="1.42438">
        <ele>1592.5612792969</ele>
        <time>2012-06-23T14:27:16Z</time>
      </trkpt>
      <trkpt lat="42.70049" lon="1.42439">
        <ele>1590.6384277344</ele>
        <time>2012-06-23T14:27:22Z</time>
      </trkpt>
      <trkpt lat="42.70054" lon="1.4244">
        <ele>1587.7546386719</ele>
        <time>2012-06-23T14:27:28Z</time>
      </trkpt>
      <trkpt lat="42.70061" lon="1.42443">
        <ele>1584.8708496094</ele>
        <time>2012-06-23T14:27:36Z</time>
      </trkpt>
      <trkpt lat="42.70066" lon="1.42447">
        <ele>1582.4675292969</ele>
        <time>2012-06-23T14:27:42Z</time>
      </trkpt>
      <trkpt lat="42.70069" lon="1.4245">
        <ele>1582.4675292969</ele>
        <time>2012-06-23T14:27:46Z</time>
      </trkpt>
      <trkpt lat="42.70072" lon="1.42451">
        <ele>1581.9868164062</ele>
        <time>2012-06-23T14:27:50Z</time>
      </trkpt>
      <trkpt lat="42.70074" lon="1.42452">
        <ele>1580.544921875</ele>
        <time>2012-06-23T14:27:54Z</time>
      </trkpt>
      <trkpt lat="42.70079" lon="1.42451">
        <ele>1579.5832519531</ele>
        <time>2012-06-23T14:27:59Z</time>
      </trkpt>
      <trkpt lat="42.70085" lon="1.4245">
        <ele>1577.6606445312</ele>
        <time>2012-06-23T14:28:05Z</time>
      </trkpt>
      <trkpt lat="42.70089" lon="1.42449">
        <ele>1577.1801757812</ele>
        <time>2012-06-23T14:28:09Z</time>
      </trkpt>
      <trkpt lat="42.70094" lon="1.42446">
        <ele>1575.2573242188</ele>
        <time>2012-06-23T14:28:14Z</time>
      </trkpt>
      <trkpt lat="42.70101" lon="1.42442">
        <ele>1572.8542480469</ele>
        <time>2012-06-23T14:28:20Z</time>
      </trkpt>
      <trkpt lat="42.70105" lon="1.42441">
        <ele>1571.412109375</ele>
        <time>2012-06-23T14:28:24Z</time>
      </trkpt>
      <trkpt lat="42.70109" lon="1.4244">
        <ele>1569.9702148438</ele>
        <time>2012-06-23T14:28:28Z</time>
      </trkpt>
      <trkpt lat="42.70113" lon="1.4244">
        <ele>1568.5283203125</ele>
        <time>2012-06-23T14:28:35Z</time>
      </trkpt>
      <trkpt lat="42.70117" lon="1.42438">
        <ele>1567.0864257812</ele>
        <time>2012-06-23T14:28:39Z</time>
      </trkpt>
      <trkpt lat="42.70121" lon="1.42437">
        <ele>1565.1638183594</ele>
        <time>2012-06-23T14:28:44Z</time>
      </trkpt>
      <trkpt lat="42.70124" lon="1.42434">
        <ele>1564.2023925781</ele>
        <time>2012-06-23T14:28:48Z</time>
      </trkpt>
      <trkpt lat="42.70128" lon="1.42434">
        <ele>1562.7602539062</ele>
        <time>2012-06-23T14:28:52Z</time>
      </trkpt>
      <trkpt lat="42.70134" lon="1.42435">
        <ele>1562.2795410156</ele>
        <time>2012-06-23T14:28:58Z</time>
      </trkpt>
      <trkpt lat="42.70137" lon="1.42436">
        <ele>1561.318359375</ele>
        <time>2012-06-23T14:29:03Z</time>
      </trkpt>
      <trkpt lat="42.70137" lon="1.42437">
        <ele>1560.8376464844</ele>
        <time>2012-06-23T14:29:09Z</time>
      </trkpt>
      <trkpt lat="42.70137" lon="1.42437">
        <ele>1560.8376464844</ele>
        <time>2012-06-23T14:29:15Z</time>
      </trkpt>
      <trkpt lat="42.70137" lon="1.42435">
        <ele>1562.2795410156</ele>
        <time>2012-06-23T14:29:25Z</time>
      </trkpt>
      <trkpt lat="42.70141" lon="1.42433">
        <ele>1562.2795410156</ele>
        <time>2012-06-23T14:29:30Z</time>
      </trkpt>
      <trkpt lat="42.70148" lon="1.42431">
        <ele>1560.3569335938</ele>
        <time>2012-06-23T14:29:37Z</time>
      </trkpt>
      <trkpt lat="42.70152" lon="1.42428">
        <ele>1557.9538574219</ele>
        <time>2012-06-23T14:29:42Z</time>
      </trkpt>
      <trkpt lat="42.70157" lon="1.42426">
        <ele>1556.51171875</ele>
        <time>2012-06-23T14:29:47Z</time>
      </trkpt>
      <trkpt lat="42.70164" lon="1.42426">
        <ele>1554.5891113281</ele>
        <time>2012-06-23T14:29:53Z</time>
      </trkpt>
      <trkpt lat="42.70166" lon="1.42428">
        <ele>1553.6279296875</ele>
        <time>2012-06-23T14:29:55Z</time>
      </trkpt>
      <trkpt lat="42.70169" lon="1.42429">
        <ele>1552.6665039062</ele>
        <time>2012-06-23T14:29:59Z</time>
      </trkpt>
      <trkpt lat="42.70175" lon="1.42433">
        <ele>1550.7438964844</ele>
        <time>2012-06-23T14:30:05Z</time>
      </trkpt>
      <trkpt lat="42.70176" lon="1.42433">
        <ele>1550.7438964844</ele>
        <time>2012-06-23T14:30:06Z</time>
      </trkpt>
      <trkpt lat="42.70178" lon="1.42434">
        <ele>1550.2634277344</ele>
        <time>2012-06-23T14:30:09Z</time>
      </trkpt>
      <trkpt lat="42.70183" lon="1.42433">
        <ele>1548.3405761719</ele>
        <time>2012-06-23T14:30:15Z</time>
      </trkpt>
      <trkpt lat="42.70188" lon="1.42431">
        <ele>1547.3791503906</ele>
        <time>2012-06-23T14:30:20Z</time>
      </trkpt>
      <trkpt lat="42.70193" lon="1.42431">
        <ele>1545.9372558594</ele>
        <time>2012-06-23T14:30:25Z</time>
      </trkpt>
      <trkpt lat="42.70197" lon="1.42429">
        <ele>1546.41796875</ele>
        <time>2012-06-23T14:30:29Z</time>
      </trkpt>
      <trkpt lat="42.70201" lon="1.42427">
        <ele>1544.9758300781</ele>
        <time>2012-06-23T14:30:33Z</time>
      </trkpt>
      <trkpt lat="42.70202" lon="1.42426">
        <ele>1544.0146484375</ele>
        <time>2012-06-23T14:30:35Z</time>
      </trkpt>
      <trkpt lat="42.70208" lon="1.42423">
        <ele>1540.6499023438</ele>
        <time>2012-06-23T14:30:42Z</time>
      </trkpt>
      <trkpt lat="42.70212" lon="1.4242">
        <ele>1538.2468261719</ele>
        <time>2012-06-23T14:30:49Z</time>
      </trkpt>
      <trkpt lat="42.70213" lon="1.42419">
        <ele>1537.7661132812</ele>
        <time>2012-06-23T14:30:56Z</time>
      </trkpt>
      <trkpt lat="42.70212" lon="1.42414">
        <ele>1536.32421875</ele>
        <time>2012-06-23T14:31:02Z</time>
      </trkpt>
      <trkpt lat="42.70213" lon="1.42414">
        <ele>1536.32421875</ele>
        <time>2012-06-23T14:31:11Z</time>
      </trkpt>
      <trkpt lat="42.7021" lon="1.42411">
        <ele>1533.9208984375</ele>
        <time>2012-06-23T14:31:17Z</time>
      </trkpt>
      <trkpt lat="42.70207" lon="1.42408">
        <ele>1533.4401855469</ele>
        <time>2012-06-23T14:31:22Z</time>
      </trkpt>
      <trkpt lat="42.70206" lon="1.42408">
        <ele>1533.4401855469</ele>
        <time>2012-06-23T14:31:27Z</time>
      </trkpt>
      <trkpt lat="42.70206" lon="1.42407">
        <ele>1531.5173339844</ele>
        <time>2012-06-23T14:31:41Z</time>
      </trkpt>
      <trkpt lat="42.70208" lon="1.42413">
        <ele>1531.0368652344</ele>
        <time>2012-06-23T14:31:47Z</time>
      </trkpt>
      <trkpt lat="42.70211" lon="1.42414">
        <ele>1531.998046875</ele>
        <time>2012-06-23T14:31:52Z</time>
      </trkpt>
      <trkpt lat="42.70216" lon="1.42418">
        <ele>1532.4790039062</ele>
        <time>2012-06-23T14:31:59Z</time>
      </trkpt>
      <trkpt lat="42.70218" lon="1.42423">
        <ele>1531.0368652344</ele>
        <time>2012-06-23T14:32:05Z</time>
      </trkpt>
      <trkpt lat="42.70222" lon="1.42428">
        <ele>1530.0754394531</ele>
        <time>2012-06-23T14:32:11Z</time>
      </trkpt>
      <trkpt lat="42.70227" lon="1.42432">
        <ele>1529.5947265625</ele>
        <time>2012-06-23T14:32:17Z</time>
      </trkpt>
      <trkpt lat="42.70235" lon="1.42439">
        <ele>1528.6335449219</ele>
        <time>2012-06-23T14:32:26Z</time>
      </trkpt>
      <trkpt lat="42.70239" lon="1.42441">
        <ele>1528.6335449219</ele>
        <time>2012-06-23T14:32:32Z</time>
      </trkpt>
      <trkpt lat="42.70239" lon="1.42436">
        <ele>1528.6335449219</ele>
        <time>2012-06-23T14:32:38Z</time>
      </trkpt>
      <trkpt lat="42.7024" lon="1.42435">
        <ele>1527.6721191406</ele>
        <time>2012-06-23T14:32:43Z</time>
      </trkpt>
      <trkpt lat="42.70245" lon="1.4243">
        <ele>1525.2687988281</ele>
        <time>2012-06-23T14:32:51Z</time>
      </trkpt>
      <trkpt lat="42.70251" lon="1.42429">
        <ele>1523.3464355469</ele>
        <time>2012-06-23T14:32:57Z</time>
      </trkpt>
      <trkpt lat="42.70257" lon="1.42428">
        <ele>1521.904296875</ele>
        <time>2012-06-23T14:33:04Z</time>
      </trkpt>
      <trkpt lat="42.70261" lon="1.42425">
        <ele>1520.9431152344</ele>
        <time>2012-06-23T14:33:10Z</time>
      </trkpt>
      <trkpt lat="42.70267" lon="1.42426">
        <ele>1520.9431152344</ele>
        <time>2012-06-23T14:33:16Z</time>
      </trkpt>
      <trkpt lat="42.70273" lon="1.42427">
        <ele>1520.4624023438</ele>
        <time>2012-06-23T14:33:23Z</time>
      </trkpt>
      <trkpt lat="42.70277" lon="1.42425">
        <ele>1519.0205078125</ele>
        <time>2012-06-23T14:33:29Z</time>
      </trkpt>
      <trkpt lat="42.70277" lon="1.42424">
        <ele>1518.5397949219</ele>
        <time>2012-06-23T14:33:32Z</time>
      </trkpt>
      <trkpt lat="42.70275" lon="1.42419">
        <ele>1517.5783691406</ele>
        <time>2012-06-23T14:33:36Z</time>
      </trkpt>
      <trkpt lat="42.7027" lon="1.42419">
        <ele>1514.6943359375</ele>
        <time>2012-06-23T14:33:40Z</time>
      </trkpt>
      <trkpt lat="42.70268" lon="1.42416">
        <ele>1513.7329101562</ele>
        <time>2012-06-23T14:33:44Z</time>
      </trkpt>
      <trkpt lat="42.70264" lon="1.42407">
        <ele>1506.5231933594</ele>
        <time>2012-06-23T14:33:51Z</time>
      </trkpt>
      <trkpt lat="42.70263" lon="1.42405">
        <ele>1505.0812988281</ele>
        <time>2012-06-23T14:33:53Z</time>
      </trkpt>
      <trkpt lat="42.70262" lon="1.42402">
        <ele>1503.6394042969</ele>
        <time>2012-06-23T14:33:55Z</time>
      </trkpt>
      <trkpt lat="42.70257" lon="1.42399">
        <ele>1502.197265625</ele>
        <time>2012-06-23T14:33:59Z</time>
      </trkpt>
      <trkpt lat="42.70253" lon="1.42392">
        <ele>1502.197265625</ele>
        <time>2012-06-23T14:34:04Z</time>
      </trkpt>
      <trkpt lat="42.7025" lon="1.42386">
        <ele>1502.197265625</ele>
        <time>2012-06-23T14:34:08Z</time>
      </trkpt>
      <trkpt lat="42.70245" lon="1.4238">
        <ele>1501.716796875</ele>
        <time>2012-06-23T14:34:12Z</time>
      </trkpt>
      <trkpt lat="42.70241" lon="1.42371">
        <ele>1502.6779785156</ele>
        <time>2012-06-23T14:34:18Z</time>
      </trkpt>
      <trkpt lat="42.70238" lon="1.42362">
        <ele>1501.716796875</ele>
        <time>2012-06-23T14:34:23Z</time>
      </trkpt>
      <trkpt lat="42.70237" lon="1.42358">
        <ele>1501.2360839844</ele>
        <time>2012-06-23T14:34:25Z</time>
      </trkpt>
      <trkpt lat="42.70234" lon="1.42353">
        <ele>1500.7553710938</ele>
        <time>2012-06-23T14:34:29Z</time>
      </trkpt>
      <trkpt lat="42.70234" lon="1.42351">
        <ele>1500.2749023438</ele>
        <time>2012-06-23T14:34:31Z</time>
      </trkpt>
      <trkpt lat="42.70229" lon="1.42348">
        <ele>1499.3132324219</ele>
        <time>2012-06-23T14:34:36Z</time>
      </trkpt>
      <trkpt lat="42.70221" lon="1.42345">
        <ele>1497.390625</ele>
        <time>2012-06-23T14:34:42Z</time>
      </trkpt>
      <trkpt lat="42.70219" lon="1.42341">
        <ele>1497.390625</ele>
        <time>2012-06-23T14:34:47Z</time>
      </trkpt>
      <trkpt lat="42.70219" lon="1.42339">
        <ele>1496.9099121094</ele>
        <time>2012-06-23T14:34:49Z</time>
      </trkpt>
      <trkpt lat="42.70221" lon="1.42329">
        <ele>1498.3518066406</ele>
        <time>2012-06-23T14:34:56Z</time>
      </trkpt>
      <trkpt lat="42.70225" lon="1.42323">
        <ele>1500.7553710938</ele>
        <time>2012-06-23T14:35:01Z</time>
      </trkpt>
      <trkpt lat="42.70227" lon="1.42326">
        <ele>1507.00390625</ele>
        <time>2012-06-23T14:35:06Z</time>
      </trkpt>
      <trkpt lat="42.70234" lon="1.42327">
        <ele>1508.9265136719</ele>
        <time>2012-06-23T14:35:10Z</time>
      </trkpt>
      <trkpt lat="42.70235" lon="1.42327">
        <ele>1509.4072265625</ele>
        <time>2012-06-23T14:35:11Z</time>
      </trkpt>
      <trkpt lat="42.7024" lon="1.42327">
        <ele>1509.4072265625</ele>
        <time>2012-06-23T14:35:17Z</time>
      </trkpt>
      <trkpt lat="42.70244" lon="1.42324">
        <ele>1511.810546875</ele>
        <time>2012-06-23T14:35:23Z</time>
      </trkpt>
      <trkpt lat="42.70248" lon="1.42316">
        <ele>1507.9653320312</ele>
        <time>2012-06-23T14:35:29Z</time>
      </trkpt>
      <trkpt lat="42.70251" lon="1.42309">
        <ele>1503.6394042969</ele>
        <time>2012-06-23T14:35:35Z</time>
      </trkpt>
      <trkpt lat="42.70254" lon="1.42304">
        <ele>1500.7553710938</ele>
        <time>2012-06-23T14:35:38Z</time>
      </trkpt>
      <trkpt lat="42.70258" lon="1.42299">
        <ele>1497.390625</ele>
        <time>2012-06-23T14:35:42Z</time>
      </trkpt>
      <trkpt lat="42.70267" lon="1.42288">
        <ele>1493.5454101562</ele>
        <time>2012-06-23T14:35:50Z</time>
      </trkpt>
      <trkpt lat="42.70275" lon="1.42284">
        <ele>1494.0261230469</ele>
        <time>2012-06-23T14:35:57Z</time>
      </trkpt>
      <trkpt lat="42.70278" lon="1.42283">
        <ele>1496.4294433594</ele>
        <time>2012-06-23T14:36:01Z</time>
      </trkpt>
      <trkpt lat="42.70285" lon="1.42283">
        <ele>1499.3132324219</ele>
        <time>2012-06-23T14:36:08Z</time>
      </trkpt>
      <trkpt lat="42.70294" lon="1.4228">
        <ele>1506.5231933594</ele>
        <time>2012-06-23T14:36:20Z</time>
      </trkpt>
      <trkpt lat="42.70296" lon="1.42279">
        <ele>1505.5620117188</ele>
        <time>2012-06-23T14:36:23Z</time>
      </trkpt>
      <trkpt lat="42.70302" lon="1.42274">
        <ele>1505.5620117188</ele>
        <time>2012-06-23T14:36:28Z</time>
      </trkpt>
      <trkpt lat="42.70308" lon="1.42268">
        <ele>1503.1586914062</ele>
        <time>2012-06-23T14:36:35Z</time>
      </trkpt>
      <trkpt lat="42.70311" lon="1.42264">
        <ele>1500.7553710938</ele>
        <time>2012-06-23T14:36:38Z</time>
      </trkpt>
      <trkpt lat="42.70318" lon="1.42255">
        <ele>1497.390625</ele>
        <time>2012-06-23T14:36:45Z</time>
      </trkpt>
      <trkpt lat="42.70321" lon="1.42253">
        <ele>1497.8713378906</ele>
        <time>2012-06-23T14:36:49Z</time>
      </trkpt>
      <trkpt lat="42.70323" lon="1.42252">
        <ele>1494.9873046875</ele>
        <time>2012-06-23T14:36:52Z</time>
      </trkpt>
      <trkpt lat="42.70329" lon="1.42249">
        <ele>1497.8713378906</ele>
        <time>2012-06-23T14:36:57Z</time>
      </trkpt>
      <trkpt lat="42.7033" lon="1.42248">
        <ele>1498.3518066406</ele>
        <time>2012-06-23T14:36:58Z</time>
      </trkpt>
      <trkpt lat="42.70336" lon="1.42246">
        <ele>1498.8325195312</ele>
        <time>2012-06-23T14:37:03Z</time>
      </trkpt>
      <trkpt lat="42.70343" lon="1.42242">
        <ele>1500.2749023438</ele>
        <time>2012-06-23T14:37:09Z</time>
      </trkpt>
      <trkpt lat="42.70347" lon="1.42239">
        <ele>1501.716796875</ele>
        <time>2012-06-23T14:37:13Z</time>
      </trkpt>
      <trkpt lat="42.70351" lon="1.42235">
        <ele>1502.197265625</ele>
        <time>2012-06-23T14:37:17Z</time>
      </trkpt>
      <trkpt lat="42.70353" lon="1.42235">
        <ele>1503.6394042969</ele>
        <time>2012-06-23T14:37:19Z</time>
      </trkpt>
      <trkpt lat="42.70359" lon="1.4223">
        <ele>1504.6005859375</ele>
        <time>2012-06-23T14:37:24Z</time>
      </trkpt>
      <trkpt lat="42.70361" lon="1.42226">
        <ele>1507.00390625</ele>
        <time>2012-06-23T14:37:26Z</time>
      </trkpt>
      <trkpt lat="42.70367" lon="1.42222">
        <ele>1508.4458007812</ele>
        <time>2012-06-23T14:37:31Z</time>
      </trkpt>
      <trkpt lat="42.70374" lon="1.42217">
        <ele>1505.5620117188</ele>
        <time>2012-06-23T14:37:37Z</time>
      </trkpt>
      <trkpt lat="42.70382" lon="1.42212">
        <ele>1503.1586914062</ele>
        <time>2012-06-23T14:37:44Z</time>
      </trkpt>
      <trkpt lat="42.70386" lon="1.42211">
        <ele>1503.6394042969</ele>
        <time>2012-06-23T14:37:48Z</time>
      </trkpt>
      <trkpt lat="42.70387" lon="1.4221">
        <ele>1505.0812988281</ele>
        <time>2012-06-23T14:37:49Z</time>
      </trkpt>
      <trkpt lat="42.70399" lon="1.42205">
        <ele>1504.1201171875</ele>
        <time>2012-06-23T14:37:58Z</time>
      </trkpt>
      <trkpt lat="42.70404" lon="1.42199">
        <ele>1502.6779785156</ele>
        <time>2012-06-23T14:38:03Z</time>
      </trkpt>
      <trkpt lat="42.70409" lon="1.42195">
        <ele>1503.6394042969</ele>
        <time>2012-06-23T14:38:08Z</time>
      </trkpt>
      <trkpt lat="42.70417" lon="1.42187">
        <ele>1504.1201171875</ele>
        <time>2012-06-23T14:38:16Z</time>
      </trkpt>
      <trkpt lat="42.7042" lon="1.42183">
        <ele>1503.6394042969</ele>
        <time>2012-06-23T14:38:19Z</time>
      </trkpt>
      <trkpt lat="42.70425" lon="1.42176">
        <ele>1499.3132324219</ele>
        <time>2012-06-23T14:38:25Z</time>
      </trkpt>
      <trkpt lat="42.70432" lon="1.42171">
        <ele>1497.8713378906</ele>
        <time>2012-06-23T14:38:31Z</time>
      </trkpt>
      <trkpt lat="42.70435" lon="1.42169">
        <ele>1497.8713378906</ele>
        <time>2012-06-23T14:38:33Z</time>
      </trkpt>
      <trkpt lat="42.70443" lon="1.42161">
        <ele>1494.0261230469</ele>
        <time>2012-06-23T14:38:42Z</time>
      </trkpt>
      <trkpt lat="42.70444" lon="1.42158">
        <ele>1494.0261230469</ele>
        <time>2012-06-23T14:38:46Z</time>
      </trkpt>
      <trkpt lat="42.70452" lon="1.42147">
        <ele>1494.9873046875</ele>
        <time>2012-06-23T14:38:54Z</time>
      </trkpt>
      <trkpt lat="42.70458" lon="1.42135">
        <ele>1497.390625</ele>
        <time>2012-06-23T14:39:02Z</time>
      </trkpt>
      <trkpt lat="42.70459" lon="1.42133">
        <ele>1497.8713378906</ele>
        <time>2012-06-23T14:39:04Z</time>
      </trkpt>
      <trkpt lat="42.70462" lon="1.42126">
        <ele>1495.9487304688</ele>
        <time>2012-06-23T14:39:08Z</time>
      </trkpt>
      <trkpt lat="42.70465" lon="1.4212">
        <ele>1495.9487304688</ele>
        <time>2012-06-23T14:39:12Z</time>
      </trkpt>
      <trkpt lat="42.70469" lon="1.42112">
        <ele>1495.4680175781</ele>
        <time>2012-06-23T14:39:19Z</time>
      </trkpt>
      <trkpt lat="42.70472" lon="1.42099">
        <ele>1494.5065917969</ele>
        <time>2012-06-23T14:39:26Z</time>
      </trkpt>
      <trkpt lat="42.70475" lon="1.4209">
        <ele>1493.0646972656</ele>
        <time>2012-06-23T14:39:33Z</time>
      </trkpt>
      <trkpt lat="42.70477" lon="1.42081">
        <ele>1491.6228027344</ele>
        <time>2012-06-23T14:39:39Z</time>
      </trkpt>
      <trkpt lat="42.7048" lon="1.42072">
        <ele>1490.1809082031</ele>
        <time>2012-06-23T14:39:45Z</time>
      </trkpt>
      <trkpt lat="42.70481" lon="1.42066">
        <ele>1491.1420898438</ele>
        <time>2012-06-23T14:39:49Z</time>
      </trkpt>
      <trkpt lat="42.70484" lon="1.42059">
        <ele>1493.0646972656</ele>
        <time>2012-06-23T14:39:54Z</time>
      </trkpt>
      <trkpt lat="42.70486" lon="1.42051">
        <ele>1492.5842285156</ele>
        <time>2012-06-23T14:39:59Z</time>
      </trkpt>
      <trkpt lat="42.70485" lon="1.42043">
        <ele>1495.4680175781</ele>
        <time>2012-06-23T14:40:03Z</time>
      </trkpt>
      <trkpt lat="42.70487" lon="1.42037">
        <ele>1497.8713378906</ele>
        <time>2012-06-23T14:40:09Z</time>
      </trkpt>
      <trkpt lat="42.70488" lon="1.42034">
        <ele>1497.8713378906</ele>
        <time>2012-06-23T14:40:11Z</time>
      </trkpt>
      <trkpt lat="42.70491" lon="1.42028">
        <ele>1498.3518066406</ele>
        <time>2012-06-23T14:40:15Z</time>
      </trkpt>
      <trkpt lat="42.70493" lon="1.4202">
        <ele>1498.3518066406</ele>
        <time>2012-06-23T14:40:19Z</time>
      </trkpt>
      <trkpt lat="42.70495" lon="1.42012">
        <ele>1496.4294433594</ele>
        <time>2012-06-23T14:40:24Z</time>
      </trkpt>
      <trkpt lat="42.70496" lon="1.42007">
        <ele>1495.9487304688</ele>
        <time>2012-06-23T14:40:27Z</time>
      </trkpt>
      <trkpt lat="42.705" lon="1.41999">
        <ele>1497.8713378906</ele>
        <time>2012-06-23T14:40:31Z</time>
      </trkpt>
      <trkpt lat="42.70498" lon="1.41988">
        <ele>1497.8713378906</ele>
        <time>2012-06-23T14:40:37Z</time>
      </trkpt>
      <trkpt lat="42.70498" lon="1.41984">
        <ele>1498.3518066406</ele>
        <time>2012-06-23T14:40:40Z</time>
      </trkpt>
      <trkpt lat="42.70502" lon="1.41974">
        <ele>1499.3132324219</ele>
        <time>2012-06-23T14:40:46Z</time>
      </trkpt>
      <trkpt lat="42.70503" lon="1.41971">
        <ele>1500.2749023438</ele>
        <time>2012-06-23T14:40:48Z</time>
      </trkpt>
      <trkpt lat="42.70504" lon="1.41963">
        <ele>1500.7553710938</ele>
        <time>2012-06-23T14:40:53Z</time>
      </trkpt>
      <trkpt lat="42.70503" lon="1.41955">
        <ele>1499.7939453125</ele>
        <time>2012-06-23T14:40:57Z</time>
      </trkpt>
      <trkpt lat="42.70505" lon="1.41954">
        <ele>1500.7553710938</ele>
        <time>2012-06-23T14:40:59Z</time>
      </trkpt>
      <trkpt lat="42.70508" lon="1.4195">
        <ele>1501.716796875</ele>
        <time>2012-06-23T14:41:03Z</time>
      </trkpt>
      <trkpt lat="42.7051" lon="1.41943">
        <ele>1501.2360839844</ele>
        <time>2012-06-23T14:41:07Z</time>
      </trkpt>
      <trkpt lat="42.7051" lon="1.41935">
        <ele>1497.390625</ele>
        <time>2012-06-23T14:41:13Z</time>
      </trkpt>
      <trkpt lat="42.7051" lon="1.41929">
        <ele>1494.5065917969</ele>
        <time>2012-06-23T14:41:18Z</time>
      </trkpt>
      <trkpt lat="42.70509" lon="1.41927">
        <ele>1492.103515625</ele>
        <time>2012-06-23T14:41:20Z</time>
      </trkpt>
      <trkpt lat="42.70511" lon="1.41916">
        <ele>1491.1420898438</ele>
        <time>2012-06-23T14:41:26Z</time>
      </trkpt>
      <trkpt lat="42.70511" lon="1.41911">
        <ele>1490.6613769531</ele>
        <time>2012-06-23T14:41:29Z</time>
      </trkpt>
      <trkpt lat="42.70512" lon="1.41904">
        <ele>1491.1420898438</ele>
        <time>2012-06-23T14:41:33Z</time>
      </trkpt>
      <trkpt lat="42.7051" lon="1.41893">
        <ele>1491.6228027344</ele>
        <time>2012-06-23T14:41:40Z</time>
      </trkpt>
      <trkpt lat="42.70507" lon="1.41885">
        <ele>1491.6228027344</ele>
        <time>2012-06-23T14:41:45Z</time>
      </trkpt>
      <trkpt lat="42.70506" lon="1.4188">
        <ele>1491.1420898438</ele>
        <time>2012-06-23T14:41:48Z</time>
      </trkpt>
      <trkpt lat="42.70503" lon="1.4187">
        <ele>1489.2194824219</ele>
        <time>2012-06-23T14:41:55Z</time>
      </trkpt>
      <trkpt lat="42.70501" lon="1.41867">
        <ele>1488.7390136719</ele>
        <time>2012-06-23T14:41:57Z</time>
      </trkpt>
      <trkpt lat="42.70499" lon="1.41856">
        <ele>1487.296875</ele>
        <time>2012-06-23T14:42:04Z</time>
      </trkpt>
      <trkpt lat="42.70498" lon="1.4185">
        <ele>1487.296875</ele>
        <time>2012-06-23T14:42:08Z</time>
      </trkpt>
      <trkpt lat="42.70496" lon="1.41842">
        <ele>1488.7390136719</ele>
        <time>2012-06-23T14:42:15Z</time>
      </trkpt>
      <trkpt lat="42.70497" lon="1.41836">
        <ele>1489.2194824219</ele>
        <time>2012-06-23T14:42:20Z</time>
      </trkpt>
      <trkpt lat="42.70499" lon="1.41828">
        <ele>1488.7390136719</ele>
        <time>2012-06-23T14:42:25Z</time>
      </trkpt>
      <trkpt lat="42.70504" lon="1.4182">
        <ele>1488.7390136719</ele>
        <time>2012-06-23T14:42:32Z</time>
      </trkpt>
      <trkpt lat="42.70506" lon="1.41812">
        <ele>1489.7001953125</ele>
        <time>2012-06-23T14:42:38Z</time>
      </trkpt>
      <trkpt lat="42.70507" lon="1.41801">
        <ele>1491.6228027344</ele>
        <time>2012-06-23T14:42:44Z</time>
      </trkpt>
      <trkpt lat="42.70509" lon="1.41799">
        <ele>1491.6228027344</ele>
        <time>2012-06-23T14:42:46Z</time>
      </trkpt>
      <trkpt lat="42.70509" lon="1.41789">
        <ele>1492.103515625</ele>
        <time>2012-06-23T14:42:52Z</time>
      </trkpt>
      <trkpt lat="42.70509" lon="1.41777">
        <ele>1492.5842285156</ele>
        <time>2012-06-23T14:42:59Z</time>
      </trkpt>
      <trkpt lat="42.70511" lon="1.41772">
        <ele>1493.0646972656</ele>
        <time>2012-06-23T14:43:03Z</time>
      </trkpt>
      <trkpt lat="42.7051" lon="1.41767">
        <ele>1492.103515625</ele>
        <time>2012-06-23T14:43:06Z</time>
      </trkpt>
      <trkpt lat="42.70507" lon="1.41762">
        <ele>1490.1809082031</ele>
        <time>2012-06-23T14:43:11Z</time>
      </trkpt>
      <trkpt lat="42.70506" lon="1.41755">
        <ele>1490.6613769531</ele>
        <time>2012-06-23T14:43:17Z</time>
      </trkpt>
      <trkpt lat="42.70507" lon="1.41753">
        <ele>1490.1809082031</ele>
        <time>2012-06-23T14:43:18Z</time>
      </trkpt>
      <trkpt lat="42.70515" lon="1.41742">
        <ele>1494.5065917969</ele>
        <time>2012-06-23T14:43:25Z</time>
      </trkpt>
      <trkpt lat="42.70515" lon="1.41734">
        <ele>1494.0261230469</ele>
        <time>2012-06-23T14:43:30Z</time>
      </trkpt>
      <trkpt lat="42.70517" lon="1.41729">
        <ele>1494.0261230469</ele>
        <time>2012-06-23T14:43:33Z</time>
      </trkpt>
      <trkpt lat="42.70518" lon="1.41718">
        <ele>1494.5065917969</ele>
        <time>2012-06-23T14:43:39Z</time>
      </trkpt>
      <trkpt lat="42.70519" lon="1.41708">
        <ele>1494.9873046875</ele>
        <time>2012-06-23T14:43:45Z</time>
      </trkpt>
      <trkpt lat="42.7052" lon="1.41701">
        <ele>1495.9487304688</ele>
        <time>2012-06-23T14:43:49Z</time>
      </trkpt>
      <trkpt lat="42.70517" lon="1.41692">
        <ele>1494.9873046875</ele>
        <time>2012-06-23T14:43:54Z</time>
      </trkpt>
      <trkpt lat="42.70516" lon="1.41681">
        <ele>1494.0261230469</ele>
        <time>2012-06-23T14:44:01Z</time>
      </trkpt>
      <trkpt lat="42.70516" lon="1.41672">
        <ele>1495.9487304688</ele>
        <time>2012-06-23T14:44:06Z</time>
      </trkpt>
      <trkpt lat="42.70517" lon="1.41668">
        <ele>1495.9487304688</ele>
        <time>2012-06-23T14:44:09Z</time>
      </trkpt>
      <trkpt lat="42.70519" lon="1.41658">
        <ele>1496.9099121094</ele>
        <time>2012-06-23T14:44:15Z</time>
      </trkpt>
      <trkpt lat="42.70519" lon="1.4165">
        <ele>1496.4294433594</ele>
        <time>2012-06-23T14:44:21Z</time>
      </trkpt>
      <trkpt lat="42.7052" lon="1.41643">
        <ele>1494.5065917969</ele>
        <time>2012-06-23T14:44:26Z</time>
      </trkpt>
      <trkpt lat="42.70521" lon="1.41638">
        <ele>1493.5454101562</ele>
        <time>2012-06-23T14:44:29Z</time>
      </trkpt>
      <trkpt lat="42.70519" lon="1.41632">
        <ele>1492.103515625</ele>
        <time>2012-06-23T14:44:34Z</time>
      </trkpt>
      <trkpt lat="42.70517" lon="1.41621">
        <ele>1491.6228027344</ele>
        <time>2012-06-23T14:44:41Z</time>
      </trkpt>
      <trkpt lat="42.70517" lon="1.41619">
        <ele>1491.6228027344</ele>
        <time>2012-06-23T14:44:42Z</time>
      </trkpt>
      <trkpt lat="42.70517" lon="1.41614">
        <ele>1491.6228027344</ele>
        <time>2012-06-23T14:44:46Z</time>
      </trkpt>
      <trkpt lat="42.70514" lon="1.41602">
        <ele>1492.103515625</ele>
        <time>2012-06-23T14:44:55Z</time>
      </trkpt>
      <trkpt lat="42.7051" lon="1.41596">
        <ele>1493.0646972656</ele>
        <time>2012-06-23T14:45:00Z</time>
      </trkpt>
      <trkpt lat="42.70512" lon="1.41589">
        <ele>1494.5065917969</ele>
        <time>2012-06-23T14:45:04Z</time>
      </trkpt>
      <trkpt lat="42.7052" lon="1.41578">
        <ele>1497.8713378906</ele>
        <time>2012-06-23T14:45:10Z</time>
      </trkpt>
      <trkpt lat="42.70522" lon="1.41567">
        <ele>1497.390625</ele>
        <time>2012-06-23T14:45:17Z</time>
      </trkpt>
      <trkpt lat="42.70522" lon="1.41565">
        <ele>1496.9099121094</ele>
        <time>2012-06-23T14:45:19Z</time>
      </trkpt>
      <trkpt lat="42.70521" lon="1.41556">
        <ele>1494.0261230469</ele>
        <time>2012-06-23T14:45:24Z</time>
      </trkpt>
      <trkpt lat="42.7052" lon="1.41548">
        <ele>1492.103515625</ele>
        <time>2012-06-23T14:45:30Z</time>
      </trkpt>
      <trkpt lat="42.7052" lon="1.41547">
        <ele>1491.6228027344</ele>
        <time>2012-06-23T14:45:31Z</time>
      </trkpt>
      <trkpt lat="42.7052" lon="1.41543">
        <ele>1491.6228027344</ele>
        <time>2012-06-23T14:45:33Z</time>
      </trkpt>
      <trkpt lat="42.7052" lon="1.41537">
        <ele>1491.6228027344</ele>
        <time>2012-06-23T14:45:37Z</time>
      </trkpt>
      <trkpt lat="42.70519" lon="1.41532">
        <ele>1490.6613769531</ele>
        <time>2012-06-23T14:45:41Z</time>
      </trkpt>
      <trkpt lat="42.70517" lon="1.41522">
        <ele>1490.6613769531</ele>
        <time>2012-06-23T14:45:47Z</time>
      </trkpt>
      <trkpt lat="42.70517" lon="1.41519">
        <ele>1490.6613769531</ele>
        <time>2012-06-23T14:45:49Z</time>
      </trkpt>
      <trkpt lat="42.70517" lon="1.41511">
        <ele>1492.5842285156</ele>
        <time>2012-06-23T14:45:53Z</time>
      </trkpt>
      <trkpt lat="42.70516" lon="1.41508">
        <ele>1494.0261230469</ele>
        <time>2012-06-23T14:45:55Z</time>
      </trkpt>
      <trkpt lat="42.70516" lon="1.415">
        <ele>1494.9873046875</ele>
        <time>2012-06-23T14:46:00Z</time>
      </trkpt>
      <trkpt lat="42.70516" lon="1.41491">
        <ele>1494.9873046875</ele>
        <time>2012-06-23T14:46:06Z</time>
      </trkpt>
      <trkpt lat="42.70516" lon="1.41487">
        <ele>1495.4680175781</ele>
        <time>2012-06-23T14:46:09Z</time>
      </trkpt>
      <trkpt lat="42.70516" lon="1.41478">
        <ele>1495.9487304688</ele>
        <time>2012-06-23T14:46:15Z</time>
      </trkpt>
      <trkpt lat="42.70516" lon="1.41476">
        <ele>1495.9487304688</ele>
        <time>2012-06-23T14:46:16Z</time>
      </trkpt>
      <trkpt lat="42.70515" lon="1.41474">
        <ele>1495.4680175781</ele>
        <time>2012-06-23T14:46:18Z</time>
      </trkpt>
      <trkpt lat="42.70517" lon="1.41463">
        <ele>1495.9487304688</ele>
        <time>2012-06-23T14:46:25Z</time>
      </trkpt>
      <trkpt lat="42.70517" lon="1.41458">
        <ele>1496.4294433594</ele>
        <time>2012-06-23T14:46:28Z</time>
      </trkpt>
      <trkpt lat="42.70518" lon="1.41455">
        <ele>1495.9487304688</ele>
        <time>2012-06-23T14:46:31Z</time>
      </trkpt>
      <trkpt lat="42.7052" lon="1.41449">
        <ele>1494.9873046875</ele>
        <time>2012-06-23T14:46:36Z</time>
      </trkpt>
      <trkpt lat="42.70523" lon="1.41439">
        <ele>1493.5454101562</ele>
        <time>2012-06-23T14:46:43Z</time>
      </trkpt>
      <trkpt lat="42.70525" lon="1.41431">
        <ele>1492.103515625</ele>
        <time>2012-06-23T14:46:48Z</time>
      </trkpt>
      <trkpt lat="42.70528" lon="1.41422">
        <ele>1491.6228027344</ele>
        <time>2012-06-23T14:46:54Z</time>
      </trkpt>
      <trkpt lat="42.70529" lon="1.41419">
        <ele>1492.103515625</ele>
        <time>2012-06-23T14:46:56Z</time>
      </trkpt>
      <trkpt lat="42.7053" lon="1.4141">
        <ele>1492.5842285156</ele>
        <time>2012-06-23T14:47:01Z</time>
      </trkpt>
      <trkpt lat="42.70532" lon="1.41401">
        <ele>1494.0261230469</ele>
        <time>2012-06-23T14:47:06Z</time>
      </trkpt>
      <trkpt lat="42.70531" lon="1.41393">
        <ele>1493.0646972656</ele>
        <time>2012-06-23T14:47:13Z</time>
      </trkpt>
      <trkpt lat="42.7053" lon="1.41381">
        <ele>1490.6613769531</ele>
        <time>2012-06-23T14:47:20Z</time>
      </trkpt>
      <trkpt lat="42.7053" lon="1.41377">
        <ele>1489.7001953125</ele>
        <time>2012-06-23T14:47:22Z</time>
      </trkpt>
      <trkpt lat="42.70531" lon="1.41365">
        <ele>1488.2583007812</ele>
        <time>2012-06-23T14:47:28Z</time>
      </trkpt>
      <trkpt lat="42.70531" lon="1.41361">
        <ele>1488.2583007812</ele>
        <time>2012-06-23T14:47:30Z</time>
      </trkpt>
      <trkpt lat="42.70533" lon="1.41351">
        <ele>1487.296875</ele>
        <time>2012-06-23T14:47:37Z</time>
      </trkpt>
      <trkpt lat="42.70535" lon="1.41347">
        <ele>1488.2583007812</ele>
        <time>2012-06-23T14:47:40Z</time>
      </trkpt>
      <trkpt lat="42.70535" lon="1.41343">
        <ele>1488.7390136719</ele>
        <time>2012-06-23T14:47:43Z</time>
      </trkpt>
      <trkpt lat="42.70537" lon="1.41334">
        <ele>1487.296875</ele>
        <time>2012-06-23T14:47:49Z</time>
      </trkpt>
      <trkpt lat="42.70539" lon="1.41325">
        <ele>1486.8161621094</ele>
        <time>2012-06-23T14:47:54Z</time>
      </trkpt>
      <trkpt lat="42.70543" lon="1.41315">
        <ele>1489.2194824219</ele>
        <time>2012-06-23T14:48:01Z</time>
      </trkpt>
      <trkpt lat="42.70546" lon="1.41308">
        <ele>1491.1420898438</ele>
        <time>2012-06-23T14:48:05Z</time>
      </trkpt>
      <trkpt lat="42.70547" lon="1.41304">
        <ele>1491.1420898438</ele>
        <time>2012-06-23T14:48:07Z</time>
      </trkpt>
      <trkpt lat="42.70551" lon="1.4129">
        <ele>1491.1420898438</ele>
        <time>2012-06-23T14:48:15Z</time>
      </trkpt>
      <trkpt lat="42.70552" lon="1.41283">
        <ele>1490.6613769531</ele>
        <time>2012-06-23T14:48:20Z</time>
      </trkpt>
      <trkpt lat="42.70553" lon="1.4128">
        <ele>1490.6613769531</ele>
        <time>2012-06-23T14:48:21Z</time>
      </trkpt>
      <trkpt lat="42.70553" lon="1.41271">
        <ele>1489.7001953125</ele>
        <time>2012-06-23T14:48:27Z</time>
      </trkpt>
      <trkpt lat="42.70553" lon="1.41269">
        <ele>1489.2194824219</ele>
        <time>2012-06-23T14:48:28Z</time>
      </trkpt>
      <trkpt lat="42.70553" lon="1.41261">
        <ele>1487.296875</ele>
        <time>2012-06-23T14:48:34Z</time>
      </trkpt>
      <trkpt lat="42.70552" lon="1.41259">
        <ele>1486.3356933594</ele>
        <time>2012-06-23T14:48:36Z</time>
      </trkpt>
      <trkpt lat="42.70553" lon="1.41255">
        <ele>1487.296875</ele>
        <time>2012-06-23T14:48:38Z</time>
      </trkpt>
      <trkpt lat="42.70552" lon="1.41249">
        <ele>1488.2583007812</ele>
        <time>2012-06-23T14:48:42Z</time>
      </trkpt>
      <trkpt lat="42.70554" lon="1.41245">
        <ele>1487.296875</ele>
        <time>2012-06-23T14:48:44Z</time>
      </trkpt>
      <trkpt lat="42.70555" lon="1.41241">
        <ele>1486.3356933594</ele>
        <time>2012-06-23T14:48:46Z</time>
      </trkpt>
      <trkpt lat="42.70559" lon="1.41231">
        <ele>1487.7775878906</ele>
        <time>2012-06-23T14:48:52Z</time>
      </trkpt>
      <trkpt lat="42.70559" lon="1.41229">
        <ele>1486.3356933594</ele>
        <time>2012-06-23T14:48:54Z</time>
      </trkpt>
      <trkpt lat="42.7056" lon="1.41221">
        <ele>1484.8937988281</ele>
        <time>2012-06-23T14:48:59Z</time>
      </trkpt>
      <trkpt lat="42.70561" lon="1.41218">
        <ele>1484.8937988281</ele>
        <time>2012-06-23T14:49:01Z</time>
      </trkpt>
      <trkpt lat="42.70567" lon="1.41207">
        <ele>1482.0095214844</ele>
        <time>2012-06-23T14:49:08Z</time>
      </trkpt>
      <trkpt lat="42.70568" lon="1.41205">
        <ele>1482.490234375</ele>
        <time>2012-06-23T14:49:09Z</time>
      </trkpt>
      <trkpt lat="42.70573" lon="1.41193">
        <ele>1480.5676269531</ele>
        <time>2012-06-23T14:49:16Z</time>
      </trkpt>
      <trkpt lat="42.70574" lon="1.41189">
        <ele>1480.0869140625</ele>
        <time>2012-06-23T14:49:19Z</time>
      </trkpt>
      <trkpt lat="42.70576" lon="1.41185">
        <ele>1480.5676269531</ele>
        <time>2012-06-23T14:49:22Z</time>
      </trkpt>
      <trkpt lat="42.70581" lon="1.41176">
        <ele>1480.5676269531</ele>
        <time>2012-06-23T14:49:28Z</time>
      </trkpt>
      <trkpt lat="42.70581" lon="1.41174">
        <ele>1480.0869140625</ele>
        <time>2012-06-23T14:49:29Z</time>
      </trkpt>
      <trkpt lat="42.70584" lon="1.41166">
        <ele>1479.6062011719</ele>
        <time>2012-06-23T14:49:34Z</time>
      </trkpt>
      <trkpt lat="42.70588" lon="1.41159">
        <ele>1481.5288085938</ele>
        <time>2012-06-23T14:49:38Z</time>
      </trkpt>
      <trkpt lat="42.70589" lon="1.41154">
        <ele>1481.5288085938</ele>
        <time>2012-06-23T14:49:41Z</time>
      </trkpt>
      <trkpt lat="42.70591" lon="1.41144">
        <ele>1482.970703125</ele>
        <time>2012-06-23T14:49:47Z</time>
      </trkpt>
      <trkpt lat="42.70593" lon="1.41131">
        <ele>1482.490234375</ele>
        <time>2012-06-23T14:49:54Z</time>
      </trkpt>
      <trkpt lat="42.70594" lon="1.41118">
        <ele>1482.490234375</ele>
        <time>2012-06-23T14:50:00Z</time>
      </trkpt>
      <trkpt lat="42.70595" lon="1.41108">
        <ele>1480.5676269531</ele>
        <time>2012-06-23T14:50:06Z</time>
      </trkpt>
      <trkpt lat="42.70596" lon="1.41105">
        <ele>1479.6062011719</ele>
        <time>2012-06-23T14:50:09Z</time>
      </trkpt>
      <trkpt lat="42.70597" lon="1.41098">
        <ele>1479.6062011719</ele>
        <time>2012-06-23T14:50:13Z</time>
      </trkpt>
      <trkpt lat="42.70599" lon="1.41092">
        <ele>1479.1254882812</ele>
        <time>2012-06-23T14:50:17Z</time>
      </trkpt>
      <trkpt lat="42.70599" lon="1.41085">
        <ele>1479.1254882812</ele>
        <time>2012-06-23T14:50:21Z</time>
      </trkpt>
      <trkpt lat="42.70599" lon="1.41082">
        <ele>1479.1254882812</ele>
        <time>2012-06-23T14:50:23Z</time>
      </trkpt>
      <trkpt lat="42.70598" lon="1.41073">
        <ele>1478.6450195312</ele>
        <time>2012-06-23T14:50:29Z</time>
      </trkpt>
      <trkpt lat="42.70599" lon="1.41072">
        <ele>1478.1643066406</ele>
        <time>2012-06-23T14:50:30Z</time>
      </trkpt>
      <trkpt lat="42.70601" lon="1.41059">
        <ele>1474.7998046875</ele>
        <time>2012-06-23T14:50:36Z</time>
      </trkpt>
      <trkpt lat="42.70603" lon="1.4105">
        <ele>1474.7998046875</ele>
        <time>2012-06-23T14:50:41Z</time>
      </trkpt>
      <trkpt lat="42.70604" lon="1.41049">
        <ele>1475.2802734375</ele>
        <time>2012-06-23T14:50:42Z</time>
      </trkpt>
      <trkpt lat="42.70607" lon="1.41039">
        <ele>1475.2802734375</ele>
        <time>2012-06-23T14:50:47Z</time>
      </trkpt>
      <trkpt lat="42.70607" lon="1.41036">
        <ele>1475.2802734375</ele>
        <time>2012-06-23T14:50:49Z</time>
      </trkpt>
      <trkpt lat="42.70608" lon="1.41028">
        <ele>1474.7998046875</ele>
        <time>2012-06-23T14:50:55Z</time>
      </trkpt>
      <trkpt lat="42.70609" lon="1.41025">
        <ele>1476.7224121094</ele>
        <time>2012-06-23T14:50:57Z</time>
      </trkpt>
      <trkpt lat="42.70612" lon="1.41014">
        <ele>1476.2416992188</ele>
        <time>2012-06-23T14:51:03Z</time>
      </trkpt>
      <trkpt lat="42.70613" lon="1.41013">
        <ele>1476.2416992188</ele>
        <time>2012-06-23T14:51:04Z</time>
      </trkpt>
      <trkpt lat="42.70614" lon="1.41002">
        <ele>1478.1643066406</ele>
        <time>2012-06-23T14:51:09Z</time>
      </trkpt>
      <trkpt lat="42.70617" lon="1.40995">
        <ele>1480.0869140625</ele>
        <time>2012-06-23T14:51:13Z</time>
      </trkpt>
      <trkpt lat="42.7062" lon="1.40987">
        <ele>1480.5676269531</ele>
        <time>2012-06-23T14:51:18Z</time>
      </trkpt>
      <trkpt lat="42.70622" lon="1.40973">
        <ele>1479.6062011719</ele>
        <time>2012-06-23T14:51:27Z</time>
      </trkpt>
      <trkpt lat="42.70623" lon="1.40969">
        <ele>1479.1254882812</ele>
        <time>2012-06-23T14:51:29Z</time>
      </trkpt>
      <trkpt lat="42.70623" lon="1.40963">
        <ele>1478.6450195312</ele>
        <time>2012-06-23T14:51:32Z</time>
      </trkpt>
      <trkpt lat="42.70625" lon="1.40955">
        <ele>1477.203125</ele>
        <time>2012-06-23T14:51:39Z</time>
      </trkpt>
      <trkpt lat="42.70627" lon="1.40946">
        <ele>1476.7224121094</ele>
        <time>2012-06-23T14:51:45Z</time>
      </trkpt>
      <trkpt lat="42.70628" lon="1.40944">
        <ele>1476.2416992188</ele>
        <time>2012-06-23T14:51:46Z</time>
      </trkpt>
      <trkpt lat="42.70632" lon="1.40931">
        <ele>1472.8771972656</ele>
        <time>2012-06-23T14:51:53Z</time>
      </trkpt>
      <trkpt lat="42.70634" lon="1.40928">
        <ele>1473.3579101562</ele>
        <time>2012-06-23T14:51:55Z</time>
      </trkpt>
      <trkpt lat="42.70636" lon="1.40922">
        <ele>1472.8771972656</ele>
        <time>2012-06-23T14:51:59Z</time>
      </trkpt>
      <trkpt lat="42.70639" lon="1.40915">
        <ele>1473.3579101562</ele>
        <time>2012-06-23T14:52:04Z</time>
      </trkpt>
      <trkpt lat="42.70642" lon="1.40906">
        <ele>1473.3579101562</ele>
        <time>2012-06-23T14:52:09Z</time>
      </trkpt>
      <trkpt lat="42.70642" lon="1.40903">
        <ele>1474.3190917969</ele>
        <time>2012-06-23T14:52:11Z</time>
      </trkpt>
      <trkpt lat="42.70645" lon="1.40896">
        <ele>1475.2802734375</ele>
        <time>2012-06-23T14:52:17Z</time>
      </trkpt>
      <trkpt lat="42.70646" lon="1.40893">
        <ele>1475.2802734375</ele>
        <time>2012-06-23T14:52:19Z</time>
      </trkpt>
      <trkpt lat="42.70649" lon="1.40895">
        <ele>1474.7998046875</ele>
        <time>2012-06-23T14:52:24Z</time>
      </trkpt>
      <trkpt lat="42.70652" lon="1.409">
        <ele>1475.7609863281</ele>
        <time>2012-06-23T14:52:29Z</time>
      </trkpt>
      <trkpt lat="42.70652" lon="1.40906">
        <ele>1476.7224121094</ele>
        <time>2012-06-23T14:52:34Z</time>
      </trkpt>
      <trkpt lat="42.70653" lon="1.40911">
        <ele>1476.7224121094</ele>
        <time>2012-06-23T14:52:38Z</time>
      </trkpt>
      <trkpt lat="42.70654" lon="1.40914">
        <ele>1476.2416992188</ele>
        <time>2012-06-23T14:52:40Z</time>
      </trkpt>
      <trkpt lat="42.70652" lon="1.4093">
        <ele>1479.6062011719</ele>
        <time>2012-06-23T14:52:47Z</time>
      </trkpt>
      <trkpt lat="42.7065" lon="1.40942">
        <ele>1481.5288085938</ele>
        <time>2012-06-23T14:52:52Z</time>
      </trkpt>
      <trkpt lat="42.70649" lon="1.40954">
        <ele>1484.8937988281</ele>
        <time>2012-06-23T14:52:58Z</time>
      </trkpt>
      <trkpt lat="42.70652" lon="1.40963">
        <ele>1481.5288085938</ele>
        <time>2012-06-23T14:53:04Z</time>
      </trkpt>
      <trkpt lat="42.70653" lon="1.40966">
        <ele>1481.5288085938</ele>
        <time>2012-06-23T14:53:07Z</time>
      </trkpt>
      <trkpt lat="42.70654" lon="1.40977">
        <ele>1479.6062011719</ele>
        <time>2012-06-23T14:53:13Z</time>
      </trkpt>
      <trkpt lat="42.70654" lon="1.40979">
        <ele>1477.68359375</ele>
        <time>2012-06-23T14:53:15Z</time>
      </trkpt>
      <trkpt lat="42.70655" lon="1.40989">
        <ele>1477.68359375</ele>
        <time>2012-06-23T14:53:20Z</time>
      </trkpt>
      <trkpt lat="42.70656" lon="1.40991">
        <ele>1476.7224121094</ele>
        <time>2012-06-23T14:53:22Z</time>
      </trkpt>
      <trkpt lat="42.70657" lon="1.40995">
        <ele>1476.2416992188</ele>
        <time>2012-06-23T14:53:24Z</time>
      </trkpt>
      <trkpt lat="42.70659" lon="1.41007">
        <ele>1474.3190917969</ele>
        <time>2012-06-23T14:53:30Z</time>
      </trkpt>
      <trkpt lat="42.70661" lon="1.41015">
        <ele>1473.3579101562</ele>
        <time>2012-06-23T14:53:35Z</time>
      </trkpt>
      <trkpt lat="42.70662" lon="1.41018">
        <ele>1472.8771972656</ele>
        <time>2012-06-23T14:53:37Z</time>
      </trkpt>
      <trkpt lat="42.70662" lon="1.41024">
        <ele>1471.4350585938</ele>
        <time>2012-06-23T14:53:40Z</time>
      </trkpt>
      <trkpt lat="42.70661" lon="1.41035">
        <ele>1470.4738769531</ele>
        <time>2012-06-23T14:53:46Z</time>
      </trkpt>
      <trkpt lat="42.7066" lon="1.41041">
        <ele>1468.0705566406</ele>
        <time>2012-06-23T14:53:49Z</time>
      </trkpt>
      <trkpt lat="42.70661" lon="1.41042">
        <ele>1462.783203125</ele>
        <time>2012-06-23T14:53:55Z</time>
      </trkpt>
      <trkpt lat="42.70662" lon="1.41038">
        <ele>1457.9768066406</ele>
        <time>2012-06-23T14:53:59Z</time>
      </trkpt>
      <trkpt lat="42.70662" lon="1.41032">
        <ele>1454.1315917969</ele>
        <time>2012-06-23T14:54:04Z</time>
      </trkpt>
      <trkpt lat="42.70664" lon="1.41025">
        <ele>1451.7280273438</ele>
        <time>2012-06-23T14:54:08Z</time>
      </trkpt>
      <trkpt lat="42.70667" lon="1.4102">
        <ele>1449.3247070312</ele>
        <time>2012-06-23T14:54:14Z</time>
      </trkpt>
      <trkpt lat="42.7067" lon="1.41027">
        <ele>1447.4020996094</ele>
        <time>2012-06-23T14:54:20Z</time>
      </trkpt>
      <trkpt lat="42.70675" lon="1.41034">
        <ele>1446.4409179688</ele>
        <time>2012-06-23T14:54:26Z</time>
      </trkpt>
      <trkpt lat="42.70683" lon="1.41046">
        <ele>1446.4409179688</ele>
        <time>2012-06-23T14:54:33Z</time>
      </trkpt>
      <trkpt lat="42.70686" lon="1.41054">
        <ele>1445.4794921875</ele>
        <time>2012-06-23T14:54:38Z</time>
      </trkpt>
      <trkpt lat="42.70691" lon="1.41062">
        <ele>1442.1149902344</ele>
        <time>2012-06-23T14:54:43Z</time>
      </trkpt>
      <trkpt lat="42.70692" lon="1.41072">
        <ele>1441.1535644531</ele>
        <time>2012-06-23T14:54:48Z</time>
      </trkpt>
      <trkpt lat="42.70692" lon="1.41078">
        <ele>1440.6728515625</ele>
        <time>2012-06-23T14:54:51Z</time>
      </trkpt>
      <trkpt lat="42.70692" lon="1.41089">
        <ele>1437.7890625</ele>
        <time>2012-06-23T14:54:58Z</time>
      </trkpt>
      <trkpt lat="42.70694" lon="1.41096">
        <ele>1436.3471679688</ele>
        <time>2012-06-23T14:55:02Z</time>
      </trkpt>
      <trkpt lat="42.70696" lon="1.41106">
        <ele>1437.7890625</ele>
        <time>2012-06-23T14:55:08Z</time>
      </trkpt>
      <trkpt lat="42.70696" lon="1.41107">
        <ele>1437.3083496094</ele>
        <time>2012-06-23T14:55:09Z</time>
      </trkpt>
      <trkpt lat="42.70699" lon="1.41114">
        <ele>1435.3854980469</ele>
        <time>2012-06-23T14:55:13Z</time>
      </trkpt>
      <trkpt lat="42.70697" lon="1.41118">
        <ele>1433.462890625</ele>
        <time>2012-06-23T14:55:15Z</time>
      </trkpt>
      <trkpt lat="42.70697" lon="1.41122">
        <ele>1432.0209960938</ele>
        <time>2012-06-23T14:55:18Z</time>
      </trkpt>
      <trkpt lat="42.70699" lon="1.41132">
        <ele>1429.1369628906</ele>
        <time>2012-06-23T14:55:24Z</time>
      </trkpt>
      <trkpt lat="42.70701" lon="1.41138">
        <ele>1428.6564941406</ele>
        <time>2012-06-23T14:55:28Z</time>
      </trkpt>
      <trkpt lat="42.70701" lon="1.41145">
        <ele>1426.2531738281</ele>
        <time>2012-06-23T14:55:34Z</time>
      </trkpt>
      <trkpt lat="42.70702" lon="1.41146">
        <ele>1426.7338867188</ele>
        <time>2012-06-23T14:55:35Z</time>
      </trkpt>
      <trkpt lat="42.70701" lon="1.41156">
        <ele>1426.7338867188</ele>
        <time>2012-06-23T14:55:41Z</time>
      </trkpt>
      <trkpt lat="42.70701" lon="1.41159">
        <ele>1425.2917480469</ele>
        <time>2012-06-23T14:55:43Z</time>
      </trkpt>
      <trkpt lat="42.70697" lon="1.41171">
        <ele>1423.8498535156</ele>
        <time>2012-06-23T14:55:51Z</time>
      </trkpt>
      <trkpt lat="42.70696" lon="1.41173">
        <ele>1422.888671875</ele>
        <time>2012-06-23T14:55:53Z</time>
      </trkpt>
      <trkpt lat="42.70697" lon="1.41184">
        <ele>1422.4079589844</ele>
        <time>2012-06-23T14:56:01Z</time>
      </trkpt>
      <trkpt lat="42.70697" lon="1.41185">
        <ele>1422.888671875</ele>
        <time>2012-06-23T14:56:02Z</time>
      </trkpt>
      <trkpt lat="42.70697" lon="1.41193">
        <ele>1423.8498535156</ele>
        <time>2012-06-23T14:56:09Z</time>
      </trkpt>
      <trkpt lat="42.70696" lon="1.41199">
        <ele>1423.3693847656</ele>
        <time>2012-06-23T14:56:15Z</time>
      </trkpt>
      <trkpt lat="42.70695" lon="1.41205">
        <ele>1419.5239257812</ele>
        <time>2012-06-23T14:56:20Z</time>
      </trkpt>
      <trkpt lat="42.70696" lon="1.41211">
        <ele>1420.0046386719</ele>
        <time>2012-06-23T14:56:25Z</time>
      </trkpt>
      <trkpt lat="42.70693" lon="1.4122">
        <ele>1418.5625</ele>
        <time>2012-06-23T14:56:31Z</time>
      </trkpt>
      <trkpt lat="42.70692" lon="1.41222">
        <ele>1418.5625</ele>
        <time>2012-06-23T14:56:33Z</time>
      </trkpt>
      <trkpt lat="42.70692" lon="1.41227">
        <ele>1418.0817871094</ele>
        <time>2012-06-23T14:56:36Z</time>
      </trkpt>
      <trkpt lat="42.70693" lon="1.41235">
        <ele>1419.0432128906</ele>
        <time>2012-06-23T14:56:41Z</time>
      </trkpt>
      <trkpt lat="42.70691" lon="1.41243">
        <ele>1417.6010742188</ele>
        <time>2012-06-23T14:56:46Z</time>
      </trkpt>
      <trkpt lat="42.70691" lon="1.41245">
        <ele>1418.0817871094</ele>
        <time>2012-06-23T14:56:47Z</time>
      </trkpt>
      <trkpt lat="42.70691" lon="1.41259">
        <ele>1418.0817871094</ele>
        <time>2012-06-23T14:56:54Z</time>
      </trkpt>
      <trkpt lat="42.70691" lon="1.4126">
        <ele>1418.5625</ele>
        <time>2012-06-23T14:56:55Z</time>
      </trkpt>
      <trkpt lat="42.7069" lon="1.41273">
        <ele>1418.5625</ele>
        <time>2012-06-23T14:57:02Z</time>
      </trkpt>
      <trkpt lat="42.70685" lon="1.41281">
        <ele>1416.6398925781</ele>
        <time>2012-06-23T14:57:06Z</time>
      </trkpt>
      <trkpt lat="42.70686" lon="1.41291">
        <ele>1416.6398925781</ele>
        <time>2012-06-23T14:57:12Z</time>
      </trkpt>
      <trkpt lat="42.70686" lon="1.41299">
        <ele>1418.0817871094</ele>
        <time>2012-06-23T14:57:16Z</time>
      </trkpt>
      <trkpt lat="42.70686" lon="1.41302">
        <ele>1419.0432128906</ele>
        <time>2012-06-23T14:57:19Z</time>
      </trkpt>
      <trkpt lat="42.70688" lon="1.41314">
        <ele>1414.7172851562</ele>
        <time>2012-06-23T14:57:25Z</time>
      </trkpt>
      <trkpt lat="42.70687" lon="1.41326">
        <ele>1411.3527832031</ele>
        <time>2012-06-23T14:57:31Z</time>
      </trkpt>
      <trkpt lat="42.70686" lon="1.41338">
        <ele>1408.46875</ele>
        <time>2012-06-23T14:57:38Z</time>
      </trkpt>
      <trkpt lat="42.70685" lon="1.41355">
        <ele>1407.0268554688</ele>
        <time>2012-06-23T14:57:43Z</time>
      </trkpt>
      <trkpt lat="42.70686" lon="1.4136">
        <ele>1405.5849609375</ele>
        <time>2012-06-23T14:57:45Z</time>
      </trkpt>
      <trkpt lat="42.7068" lon="1.41367">
        <ele>1403.1813964844</ele>
        <time>2012-06-23T14:57:49Z</time>
      </trkpt>
      <trkpt lat="42.70679" lon="1.41379">
        <ele>1400.2976074219</ele>
        <time>2012-06-23T14:57:55Z</time>
      </trkpt>
      <trkpt lat="42.70683" lon="1.41391">
        <ele>1399.3361816406</ele>
        <time>2012-06-23T14:58:00Z</time>
      </trkpt>
      <trkpt lat="42.70681" lon="1.41399">
        <ele>1399.3361816406</ele>
        <time>2012-06-23T14:58:04Z</time>
      </trkpt>
      <trkpt lat="42.70678" lon="1.41409">
        <ele>1400.2976074219</ele>
        <time>2012-06-23T14:58:10Z</time>
      </trkpt>
      <trkpt lat="42.70678" lon="1.4142">
        <ele>1398.3747558594</ele>
        <time>2012-06-23T14:58:17Z</time>
      </trkpt>
      <trkpt lat="42.70676" lon="1.4143">
        <ele>1398.3747558594</ele>
        <time>2012-06-23T14:58:23Z</time>
      </trkpt>
      <trkpt lat="42.70675" lon="1.41439">
        <ele>1399.3361816406</ele>
        <time>2012-06-23T14:58:29Z</time>
      </trkpt>
      <trkpt lat="42.70676" lon="1.4145">
        <ele>1398.3747558594</ele>
        <time>2012-06-23T14:58:34Z</time>
      </trkpt>
      <trkpt lat="42.70676" lon="1.41456">
        <ele>1397.4135742188</ele>
        <time>2012-06-23T14:58:37Z</time>
      </trkpt>
      <trkpt lat="42.70677" lon="1.41466">
        <ele>1398.85546875</ele>
        <time>2012-06-23T14:58:43Z</time>
      </trkpt>
      <trkpt lat="42.70677" lon="1.41477">
        <ele>1398.3747558594</ele>
        <time>2012-06-23T14:58:49Z</time>
      </trkpt>
      <trkpt lat="42.70676" lon="1.41479">
        <ele>1398.3747558594</ele>
        <time>2012-06-23T14:58:51Z</time>
      </trkpt>
      <trkpt lat="42.7068" lon="1.41485">
        <ele>1397.8942871094</ele>
        <time>2012-06-23T14:58:55Z</time>
      </trkpt>
      <trkpt lat="42.70681" lon="1.41488">
        <ele>1397.8942871094</ele>
        <time>2012-06-23T14:58:57Z</time>
      </trkpt>
      <trkpt lat="42.70679" lon="1.41497">
        <ele>1395.9716796875</ele>
        <time>2012-06-23T14:59:02Z</time>
      </trkpt>
      <trkpt lat="42.70676" lon="1.41504">
        <ele>1395.0102539062</ele>
        <time>2012-06-23T14:59:07Z</time>
      </trkpt>
      <trkpt lat="42.70675" lon="1.41506">
        <ele>1395.0102539062</ele>
        <time>2012-06-23T14:59:08Z</time>
      </trkpt>
      <trkpt lat="42.70675" lon="1.41514">
        <ele>1394.5295410156</ele>
        <time>2012-06-23T14:59:14Z</time>
      </trkpt>
      <trkpt lat="42.70667" lon="1.4152">
        <ele>1396.9328613281</ele>
        <time>2012-06-23T14:59:21Z</time>
      </trkpt>
      <trkpt lat="42.70663" lon="1.4152">
        <ele>1397.4135742188</ele>
        <time>2012-06-23T14:59:25Z</time>
      </trkpt>
      <trkpt lat="42.7066" lon="1.41523">
        <ele>1398.85546875</ele>
        <time>2012-06-23T14:59:31Z</time>
      </trkpt>
      <trkpt lat="42.7066" lon="1.41528">
        <ele>1399.8168945312</ele>
        <time>2012-06-23T14:59:36Z</time>
      </trkpt>
      <trkpt lat="42.70662" lon="1.41532">
        <ele>1398.3747558594</ele>
        <time>2012-06-23T14:59:39Z</time>
      </trkpt>
      <trkpt lat="42.70664" lon="1.41536">
        <ele>1398.85546875</ele>
        <time>2012-06-23T14:59:42Z</time>
      </trkpt>
      <trkpt lat="42.7066" lon="1.41541">
        <ele>1398.3747558594</ele>
        <time>2012-06-23T14:59:45Z</time>
      </trkpt>
      <trkpt lat="42.70658" lon="1.41542">
        <ele>1394.0490722656</ele>
        <time>2012-06-23T14:59:50Z</time>
      </trkpt>
      <trkpt lat="42.7066" lon="1.41545">
        <ele>1393.0876464844</ele>
        <time>2012-06-23T14:59:52Z</time>
      </trkpt>
      <trkpt lat="42.70661" lon="1.41551">
        <ele>1390.2038574219</ele>
        <time>2012-06-23T14:59:57Z</time>
      </trkpt>
      <trkpt lat="42.7066" lon="1.41554">
        <ele>1385.3969726562</ele>
        <time>2012-06-23T15:00:06Z</time>
      </trkpt>
      <trkpt lat="42.70658" lon="1.41558">
        <ele>1382.0324707031</ele>
        <time>2012-06-23T15:00:12Z</time>
      </trkpt>
      <trkpt lat="42.70661" lon="1.41563">
        <ele>1379.1484375</ele>
        <time>2012-06-23T15:00:17Z</time>
      </trkpt>
      <trkpt lat="42.70663" lon="1.41573">
        <ele>1375.7839355469</ele>
        <time>2012-06-23T15:00:22Z</time>
      </trkpt>
      <trkpt lat="42.70665" lon="1.41578">
        <ele>1373.380859375</ele>
        <time>2012-06-23T15:00:26Z</time>
      </trkpt>
      <trkpt lat="42.70669" lon="1.4158">
        <ele>1370.9772949219</ele>
        <time>2012-06-23T15:00:31Z</time>
      </trkpt>
      <trkpt lat="42.70674" lon="1.41586">
        <ele>1368.5739746094</ele>
        <time>2012-06-23T15:00:37Z</time>
      </trkpt>
      <trkpt lat="42.70676" lon="1.41591">
        <ele>1366.1706542969</ele>
        <time>2012-06-23T15:00:40Z</time>
      </trkpt>
      <trkpt lat="42.70676" lon="1.41595">
        <ele>1365.2094726562</ele>
        <time>2012-06-23T15:00:42Z</time>
      </trkpt>
      <trkpt lat="42.70679" lon="1.41609">
        <ele>1362.3254394531</ele>
        <time>2012-06-23T15:00:48Z</time>
      </trkpt>
      <trkpt lat="42.70681" lon="1.41611">
        <ele>1362.3254394531</ele>
        <time>2012-06-23T15:00:50Z</time>
      </trkpt>
      <trkpt lat="42.70682" lon="1.4162">
        <ele>1360.8835449219</ele>
        <time>2012-06-23T15:00:55Z</time>
      </trkpt>
      <trkpt lat="42.70683" lon="1.4163">
        <ele>1359.4416503906</ele>
        <time>2012-06-23T15:01:00Z</time>
      </trkpt>
      <trkpt lat="42.70687" lon="1.41647">
        <ele>1359.4416503906</ele>
        <time>2012-06-23T15:01:07Z</time>
      </trkpt>
      <trkpt lat="42.70688" lon="1.41655">
        <ele>1357.5190429688</ele>
        <time>2012-06-23T15:01:12Z</time>
      </trkpt>
      <trkpt lat="42.70688" lon="1.41657">
        <ele>1357.5190429688</ele>
        <time>2012-06-23T15:01:13Z</time>
      </trkpt>
      <trkpt lat="42.70688" lon="1.41661">
        <ele>1357.9997558594</ele>
        <time>2012-06-23T15:01:15Z</time>
      </trkpt>
      <trkpt lat="42.70689" lon="1.41668">
        <ele>1356.5576171875</ele>
        <time>2012-06-23T15:01:20Z</time>
      </trkpt>
      <trkpt lat="42.70691" lon="1.41678">
        <ele>1357.9997558594</ele>
        <time>2012-06-23T15:01:24Z</time>
      </trkpt>
      <trkpt lat="42.70692" lon="1.41681">
        <ele>1357.0383300781</ele>
        <time>2012-06-23T15:01:26Z</time>
      </trkpt>
      <trkpt lat="42.70693" lon="1.41692">
        <ele>1357.0383300781</ele>
        <time>2012-06-23T15:01:31Z</time>
      </trkpt>
      <trkpt lat="42.70693" lon="1.41706">
        <ele>1356.5576171875</ele>
        <time>2012-06-23T15:01:37Z</time>
      </trkpt>
      <trkpt lat="42.70694" lon="1.41708">
        <ele>1354.634765625</ele>
        <time>2012-06-23T15:01:39Z</time>
      </trkpt>
      <trkpt lat="42.70698" lon="1.41715">
        <ele>1352.2314453125</ele>
        <time>2012-06-23T15:01:44Z</time>
      </trkpt>
      <trkpt lat="42.70702" lon="1.41715">
        <ele>1347.9057617188</ele>
        <time>2012-06-23T15:01:48Z</time>
      </trkpt>
      <trkpt lat="42.70707" lon="1.41708">
        <ele>1341.6572265625</ele>
        <time>2012-06-23T15:01:53Z</time>
      </trkpt>
      <trkpt lat="42.70709" lon="1.41706">
        <ele>1338.7731933594</ele>
        <time>2012-06-23T15:01:56Z</time>
      </trkpt>
      <trkpt lat="42.70715" lon="1.41697">
        <ele>1332.0439453125</ele>
        <time>2012-06-23T15:02:02Z</time>
      </trkpt>
      <trkpt lat="42.70717" lon="1.41688">
        <ele>1329.1599121094</ele>
        <time>2012-06-23T15:02:05Z</time>
      </trkpt>
      <trkpt lat="42.7072" lon="1.4168">
        <ele>1326.2761230469</ele>
        <time>2012-06-23T15:02:10Z</time>
      </trkpt>
      <trkpt lat="42.70726" lon="1.41674">
        <ele>1324.353515625</ele>
        <time>2012-06-23T15:02:15Z</time>
      </trkpt>
      <trkpt lat="42.7073" lon="1.41669">
        <ele>1322.4306640625</ele>
        <time>2012-06-23T15:02:19Z</time>
      </trkpt>
      <trkpt lat="42.70733" lon="1.41666">
        <ele>1322.4306640625</ele>
        <time>2012-06-23T15:02:23Z</time>
      </trkpt>
      <trkpt lat="42.7074" lon="1.41657">
        <ele>1320.9887695312</ele>
        <time>2012-06-23T15:02:29Z</time>
      </trkpt>
      <trkpt lat="42.70742" lon="1.41654">
        <ele>1321.9499511719</ele>
        <time>2012-06-23T15:02:31Z</time>
      </trkpt>
      <trkpt lat="42.70746" lon="1.41647">
        <ele>1320.9887695312</ele>
        <time>2012-06-23T15:02:36Z</time>
      </trkpt>
      <trkpt lat="42.70746" lon="1.41643">
        <ele>1320.02734375</ele>
        <time>2012-06-23T15:02:38Z</time>
      </trkpt>
      <trkpt lat="42.7075" lon="1.41639">
        <ele>1317.6240234375</ele>
        <time>2012-06-23T15:02:44Z</time>
      </trkpt>
      <trkpt lat="42.70753" lon="1.41638">
        <ele>1315.2209472656</ele>
        <time>2012-06-23T15:02:48Z</time>
      </trkpt>
      <trkpt lat="42.70759" lon="1.41633">
        <ele>1310.4143066406</ele>
        <time>2012-06-23T15:02:53Z</time>
      </trkpt>
      <trkpt lat="42.70765" lon="1.41629">
        <ele>1308.9724121094</ele>
        <time>2012-06-23T15:02:57Z</time>
      </trkpt>
      <trkpt lat="42.70768" lon="1.41624">
        <ele>1306.5688476562</ele>
        <time>2012-06-23T15:03:01Z</time>
      </trkpt>
      <trkpt lat="42.70773" lon="1.41622">
        <ele>1304.6462402344</ele>
        <time>2012-06-23T15:03:05Z</time>
      </trkpt>
      <trkpt lat="42.70775" lon="1.41615">
        <ele>1303.6850585938</ele>
        <time>2012-06-23T15:03:11Z</time>
      </trkpt>
      <trkpt lat="42.70781" lon="1.4161">
        <ele>1301.7624511719</ele>
        <time>2012-06-23T15:03:17Z</time>
      </trkpt>
      <trkpt lat="42.70784" lon="1.41609">
        <ele>1300.3205566406</ele>
        <time>2012-06-23T15:03:20Z</time>
      </trkpt>
      <trkpt lat="42.70787" lon="1.41609">
        <ele>1298.3977050781</ele>
        <time>2012-06-23T15:03:24Z</time>
      </trkpt>
      <trkpt lat="42.70788" lon="1.41611">
        <ele>1296.9558105469</ele>
        <time>2012-06-23T15:03:26Z</time>
      </trkpt>
      <trkpt lat="42.70793" lon="1.41604">
        <ele>1294.0720214844</ele>
        <time>2012-06-23T15:03:33Z</time>
      </trkpt>
      <trkpt lat="42.70797" lon="1.41606">
        <ele>1292.1494140625</ele>
        <time>2012-06-23T15:03:39Z</time>
      </trkpt>
      <trkpt lat="42.70797" lon="1.41602">
        <ele>1289.2651367188</ele>
        <time>2012-06-23T15:03:45Z</time>
      </trkpt>
      <trkpt lat="42.708" lon="1.416">
        <ele>1288.3039550781</ele>
        <time>2012-06-23T15:03:49Z</time>
      </trkpt>
      <trkpt lat="42.70803" lon="1.41597">
        <ele>1286.8618164062</ele>
        <time>2012-06-23T15:03:53Z</time>
      </trkpt>
      <trkpt lat="42.70804" lon="1.41596">
        <ele>1286.3813476562</ele>
        <time>2012-06-23T15:03:54Z</time>
      </trkpt>
      <trkpt lat="42.70808" lon="1.41592">
        <ele>1283.9780273438</ele>
        <time>2012-06-23T15:03:58Z</time>
      </trkpt>
      <trkpt lat="42.70809" lon="1.41586">
        <ele>1283.9780273438</ele>
        <time>2012-06-23T15:04:02Z</time>
      </trkpt>
      <trkpt lat="42.70811" lon="1.41582">
        <ele>1282.5361328125</ele>
        <time>2012-06-23T15:04:06Z</time>
      </trkpt>
      <trkpt lat="42.70812" lon="1.41582">
        <ele>1281.5747070312</ele>
        <time>2012-06-23T15:04:07Z</time>
      </trkpt>
      <trkpt lat="42.70814" lon="1.41585">
        <ele>1280.1328125</ele>
        <time>2012-06-23T15:04:10Z</time>
      </trkpt>
      <trkpt lat="42.70815" lon="1.41583">
        <ele>1278.6909179688</ele>
        <time>2012-06-23T15:04:12Z</time>
      </trkpt>
      <trkpt lat="42.70817" lon="1.41579">
        <ele>1276.7683105469</ele>
        <time>2012-06-23T15:04:16Z</time>
      </trkpt>
      <trkpt lat="42.70819" lon="1.41576">
        <ele>1274.3647460938</ele>
        <time>2012-06-23T15:04:21Z</time>
      </trkpt>
      <trkpt lat="42.70819" lon="1.41571">
        <ele>1272.4421386719</ele>
        <time>2012-06-23T15:04:25Z</time>
      </trkpt>
      <trkpt lat="42.70823" lon="1.4157">
        <ele>1270.51953125</ele>
        <time>2012-06-23T15:04:29Z</time>
      </trkpt>
      <trkpt lat="42.70825" lon="1.41568">
        <ele>1271.4807128906</ele>
        <time>2012-06-23T15:04:32Z</time>
      </trkpt>
      <trkpt lat="42.70825" lon="1.41562">
        <ele>1271.4807128906</ele>
        <time>2012-06-23T15:04:35Z</time>
      </trkpt>
      <trkpt lat="42.70828" lon="1.41557">
        <ele>1271.4807128906</ele>
        <time>2012-06-23T15:04:39Z</time>
      </trkpt>
      <trkpt lat="42.70829" lon="1.41556">
        <ele>1271.9614257812</ele>
        <time>2012-06-23T15:04:41Z</time>
      </trkpt>
      <trkpt lat="42.70832" lon="1.41549">
        <ele>1273.8840332031</ele>
        <time>2012-06-23T15:04:46Z</time>
      </trkpt>
      <trkpt lat="42.70831" lon="1.4154">
        <ele>1270.51953125</ele>
        <time>2012-06-23T15:04:52Z</time>
      </trkpt>
      <trkpt lat="42.70834" lon="1.41532">
        <ele>1269.5583496094</ele>
        <time>2012-06-23T15:04:57Z</time>
      </trkpt>
      <trkpt lat="42.70839" lon="1.41533">
        <ele>1266.1936035156</ele>
        <time>2012-06-23T15:05:02Z</time>
      </trkpt>
      <trkpt lat="42.7084" lon="1.41534">
        <ele>1265.7131347656</ele>
        <time>2012-06-23T15:05:03Z</time>
      </trkpt>
      <trkpt lat="42.70842" lon="1.41535">
        <ele>1264.2709960938</ele>
        <time>2012-06-23T15:05:06Z</time>
      </trkpt>
      <trkpt lat="42.70848" lon="1.41537">
        <ele>1260.42578125</ele>
        <time>2012-06-23T15:05:11Z</time>
      </trkpt>
      <trkpt lat="42.70852" lon="1.41537">
        <ele>1260.42578125</ele>
        <time>2012-06-23T15:05:14Z</time>
      </trkpt>
      <trkpt lat="42.70854" lon="1.41538">
        <ele>1259.4643554688</ele>
        <time>2012-06-23T15:05:16Z</time>
      </trkpt>
      <trkpt lat="42.7086" lon="1.41533">
        <ele>1260.42578125</ele>
        <time>2012-06-23T15:05:21Z</time>
      </trkpt>
      <trkpt lat="42.70863" lon="1.41532">
        <ele>1259.4643554688</ele>
        <time>2012-06-23T15:05:23Z</time>
      </trkpt>
      <trkpt lat="42.70868" lon="1.41527">
        <ele>1258.0224609375</ele>
        <time>2012-06-23T15:05:29Z</time>
      </trkpt>
      <trkpt lat="42.70868" lon="1.41528">
        <ele>1257.5417480469</ele>
        <time>2012-06-23T15:05:30Z</time>
      </trkpt>
      <trkpt lat="42.70871" lon="1.41529">
        <ele>1256.5803222656</ele>
        <time>2012-06-23T15:05:32Z</time>
      </trkpt>
      <trkpt lat="42.70876" lon="1.4153">
        <ele>1254.6577148438</ele>
        <time>2012-06-23T15:05:37Z</time>
      </trkpt>
      <trkpt lat="42.70878" lon="1.41532">
        <ele>1252.7351074219</ele>
        <time>2012-06-23T15:05:39Z</time>
      </trkpt>
      <trkpt lat="42.7088" lon="1.41533">
        <ele>1250.8125</ele>
        <time>2012-06-23T15:05:41Z</time>
      </trkpt>
      <trkpt lat="42.70889" lon="1.41534">
        <ele>1247.9287109375</ele>
        <time>2012-06-23T15:05:47Z</time>
      </trkpt>
      <trkpt lat="42.70892" lon="1.41537">
        <ele>1246.4868164062</ele>
        <time>2012-06-23T15:05:50Z</time>
      </trkpt>
      <trkpt lat="42.70893" lon="1.41545">
        <ele>1244.0834960938</ele>
        <time>2012-06-23T15:05:55Z</time>
      </trkpt>
      <trkpt lat="42.70892" lon="1.41549">
        <ele>1242.6413574219</ele>
        <time>2012-06-23T15:05:58Z</time>
      </trkpt>
      <trkpt lat="42.70892" lon="1.4155">
        <ele>1241.6799316406</ele>
        <time>2012-06-23T15:05:59Z</time>
      </trkpt>
      <trkpt lat="42.70892" lon="1.41554">
        <ele>1240.7185058594</ele>
        <time>2012-06-23T15:06:01Z</time>
      </trkpt>
      <trkpt lat="42.70889" lon="1.41563">
        <ele>1237.8347167969</ele>
        <time>2012-06-23T15:06:07Z</time>
      </trkpt>
      <trkpt lat="42.70889" lon="1.41564">
        <ele>1236.8732910156</ele>
        <time>2012-06-23T15:06:08Z</time>
      </trkpt>
      <trkpt lat="42.70883" lon="1.41578">
        <ele>1233.5087890625</ele>
        <time>2012-06-23T15:06:13Z</time>
      </trkpt>
      <trkpt lat="42.70884" lon="1.41587">
        <ele>1231.1057128906</ele>
        <time>2012-06-23T15:06:17Z</time>
      </trkpt>
      <trkpt lat="42.70884" lon="1.41589">
        <ele>1230.625</ele>
        <time>2012-06-23T15:06:19Z</time>
      </trkpt>
      <trkpt lat="42.70886" lon="1.41601">
        <ele>1228.2216796875</ele>
        <time>2012-06-23T15:06:26Z</time>
      </trkpt>
      <trkpt lat="42.70887" lon="1.41604">
        <ele>1228.7023925781</ele>
        <time>2012-06-23T15:06:28Z</time>
      </trkpt>
      <trkpt lat="42.70888" lon="1.41608">
        <ele>1229.6635742188</ele>
        <time>2012-06-23T15:06:30Z</time>
      </trkpt>
      <trkpt lat="42.70889" lon="1.41619">
        <ele>1227.2602539062</ele>
        <time>2012-06-23T15:06:34Z</time>
      </trkpt>
      <trkpt lat="42.70892" lon="1.41632">
        <ele>1225.8181152344</ele>
        <time>2012-06-23T15:06:40Z</time>
      </trkpt>
      <trkpt lat="42.70894" lon="1.41641">
        <ele>1225.3374023438</ele>
        <time>2012-06-23T15:06:44Z</time>
      </trkpt>
      <trkpt lat="42.70895" lon="1.4165">
        <ele>1223.8955078125</ele>
        <time>2012-06-23T15:06:47Z</time>
      </trkpt>
      <trkpt lat="42.70899" lon="1.41664">
        <ele>1220.5310058594</ele>
        <time>2012-06-23T15:06:52Z</time>
      </trkpt>
      <trkpt lat="42.709" lon="1.41671">
        <ele>1221.4921875</ele>
        <time>2012-06-23T15:06:56Z</time>
      </trkpt>
      <trkpt lat="42.70899" lon="1.41675">
        <ele>1221.4921875</ele>
        <time>2012-06-23T15:06:58Z</time>
      </trkpt>
      <trkpt lat="42.70901" lon="1.41687">
        <ele>1221.01171875</ele>
        <time>2012-06-23T15:07:04Z</time>
      </trkpt>
      <trkpt lat="42.70903" lon="1.417">
        <ele>1219.5698242188</ele>
        <time>2012-06-23T15:07:09Z</time>
      </trkpt>
      <trkpt lat="42.70903" lon="1.41711">
        <ele>1218.6083984375</ele>
        <time>2012-06-23T15:07:14Z</time>
      </trkpt>
      <trkpt lat="42.70903" lon="1.41716">
        <ele>1217.6469726562</ele>
        <time>2012-06-23T15:07:16Z</time>
      </trkpt>
      <trkpt lat="42.70908" lon="1.4173">
        <ele>1216.6857910156</ele>
        <time>2012-06-23T15:07:23Z</time>
      </trkpt>
      <trkpt lat="42.70913" lon="1.41737">
        <ele>1217.6469726562</ele>
        <time>2012-06-23T15:07:28Z</time>
      </trkpt>
      <trkpt lat="42.70914" lon="1.41739">
        <ele>1217.1665039062</ele>
        <time>2012-06-23T15:07:29Z</time>
      </trkpt>
      <trkpt lat="42.70918" lon="1.41753">
        <ele>1216.205078125</ele>
        <time>2012-06-23T15:07:38Z</time>
      </trkpt>
      <trkpt lat="42.70918" lon="1.41762">
        <ele>1216.6857910156</ele>
        <time>2012-06-23T15:07:44Z</time>
      </trkpt>
      <trkpt lat="42.70919" lon="1.41766">
        <ele>1216.205078125</ele>
        <time>2012-06-23T15:07:47Z</time>
      </trkpt>
      <trkpt lat="42.70924" lon="1.41772">
        <ele>1213.8017578125</ele>
        <time>2012-06-23T15:07:52Z</time>
      </trkpt>
      <trkpt lat="42.70924" lon="1.41773">
        <ele>1212.8405761719</ele>
        <time>2012-06-23T15:07:53Z</time>
      </trkpt>
      <trkpt lat="42.70927" lon="1.41778">
        <ele>1211.3984375</ele>
        <time>2012-06-23T15:07:57Z</time>
      </trkpt>
      <trkpt lat="42.70928" lon="1.41785">
        <ele>1208.9951171875</ele>
        <time>2012-06-23T15:08:02Z</time>
      </trkpt>
      <trkpt lat="42.70927" lon="1.41796">
        <ele>1209.4758300781</ele>
        <time>2012-06-23T15:08:07Z</time>
      </trkpt>
      <trkpt lat="42.70926" lon="1.41801">
        <ele>1211.3984375</ele>
        <time>2012-06-23T15:08:09Z</time>
      </trkpt>
      <trkpt lat="42.70924" lon="1.4181">
        <ele>1215.2438964844</ele>
        <time>2012-06-23T15:08:13Z</time>
      </trkpt>
      <trkpt lat="42.70927" lon="1.41826">
        <ele>1220.5310058594</ele>
        <time>2012-06-23T15:08:20Z</time>
      </trkpt>
      <trkpt lat="42.7093" lon="1.41833">
        <ele>1221.01171875</ele>
        <time>2012-06-23T15:08:24Z</time>
      </trkpt>
      <trkpt lat="42.70931" lon="1.41845">
        <ele>1216.205078125</ele>
        <time>2012-06-23T15:08:32Z</time>
      </trkpt>
      <trkpt lat="42.70933" lon="1.41854">
        <ele>1217.1665039062</ele>
        <time>2012-06-23T15:08:38Z</time>
      </trkpt>
      <trkpt lat="42.70933" lon="1.41856">
        <ele>1217.1665039062</ele>
        <time>2012-06-23T15:08:39Z</time>
      </trkpt>
      <trkpt lat="42.70931" lon="1.41872">
        <ele>1213.8017578125</ele>
        <time>2012-06-23T15:08:45Z</time>
      </trkpt>
      <trkpt lat="42.70934" lon="1.4188">
        <ele>1213.8017578125</ele>
        <time>2012-06-23T15:08:50Z</time>
      </trkpt>
      <trkpt lat="42.70935" lon="1.4189">
        <ele>1213.8017578125</ele>
        <time>2012-06-23T15:08:56Z</time>
      </trkpt>
      <trkpt lat="42.70938" lon="1.41895">
        <ele>1212.8405761719</ele>
        <time>2012-06-23T15:09:02Z</time>
      </trkpt>
      <trkpt lat="42.70942" lon="1.41906">
        <ele>1213.3212890625</ele>
        <time>2012-06-23T15:09:13Z</time>
      </trkpt>
      <trkpt lat="42.70943" lon="1.41909">
        <ele>1213.8017578125</ele>
        <time>2012-06-23T15:09:16Z</time>
      </trkpt>
      <trkpt lat="42.70938" lon="1.4192">
        <ele>1226.298828125</ele>
        <time>2012-06-23T15:09:22Z</time>
      </trkpt>
      <trkpt lat="42.70936" lon="1.41934">
        <ele>1236.8732910156</ele>
        <time>2012-06-23T15:09:29Z</time>
      </trkpt>
      <trkpt lat="42.70934" lon="1.41937">
        <ele>1239.2766113281</ele>
        <time>2012-06-23T15:09:31Z</time>
      </trkpt>
      <trkpt lat="42.7093" lon="1.41947">
        <ele>1240.7185058594</ele>
        <time>2012-06-23T15:09:36Z</time>
      </trkpt>
      <trkpt lat="42.70929" lon="1.41953">
        <ele>1244.0834960938</ele>
        <time>2012-06-23T15:09:38Z</time>
      </trkpt>
      <trkpt lat="42.70924" lon="1.41966">
        <ele>1247.9287109375</ele>
        <time>2012-06-23T15:09:43Z</time>
      </trkpt>
      <trkpt lat="42.70925" lon="1.41972">
        <ele>1241.19921875</ele>
        <time>2012-06-23T15:09:47Z</time>
      </trkpt>
      <trkpt lat="42.70919" lon="1.4199">
        <ele>1237.3540039062</ele>
        <time>2012-06-23T15:09:52Z</time>
      </trkpt>
      <trkpt lat="42.70919" lon="1.41992">
        <ele>1235.4313964844</ele>
        <time>2012-06-23T15:09:53Z</time>
      </trkpt>
      <trkpt lat="42.70919" lon="1.42007">
        <ele>1227.7407226562</ele>
        <time>2012-06-23T15:09:58Z</time>
      </trkpt>
      <trkpt lat="42.70918" lon="1.42026">
        <ele>1220.5310058594</ele>
        <time>2012-06-23T15:10:04Z</time>
      </trkpt>
      <trkpt lat="42.70919" lon="1.42039">
        <ele>1212.8405761719</ele>
        <time>2012-06-23T15:10:09Z</time>
      </trkpt>
      <trkpt lat="42.70919" lon="1.42045">
        <ele>1209.9562988281</ele>
        <time>2012-06-23T15:10:11Z</time>
      </trkpt>
      <trkpt lat="42.70922" lon="1.42059">
        <ele>1206.591796875</ele>
        <time>2012-06-23T15:10:16Z</time>
      </trkpt>
      <trkpt lat="42.70931" lon="1.42075">
        <ele>1203.7080078125</ele>
        <time>2012-06-23T15:10:22Z</time>
      </trkpt>
      <trkpt lat="42.70933" lon="1.42082">
        <ele>1197.9401855469</ele>
        <time>2012-06-23T15:10:28Z</time>
      </trkpt>
      <trkpt lat="42.70934" lon="1.42089">
        <ele>1195.5366210938</ele>
        <time>2012-06-23T15:10:33Z</time>
      </trkpt>
      <trkpt lat="42.70937" lon="1.42098">
        <ele>1190.7299804688</ele>
        <time>2012-06-23T15:10:38Z</time>
      </trkpt>
      <trkpt lat="42.70938" lon="1.42101">
        <ele>1189.2880859375</ele>
        <time>2012-06-23T15:10:40Z</time>
      </trkpt>
      <trkpt lat="42.70942" lon="1.42114">
        <ele>1184.9624023438</ele>
        <time>2012-06-23T15:10:46Z</time>
      </trkpt>
      <trkpt lat="42.70944" lon="1.42126">
        <ele>1182.5590820312</ele>
        <time>2012-06-23T15:10:51Z</time>
      </trkpt>
      <trkpt lat="42.70946" lon="1.4213">
        <ele>1182.0783691406</ele>
        <time>2012-06-23T15:10:53Z</time>
      </trkpt>
      <trkpt lat="42.7095" lon="1.42152">
        <ele>1182.5590820312</ele>
        <time>2012-06-23T15:11:00Z</time>
      </trkpt>
      <trkpt lat="42.70951" lon="1.42164">
        <ele>1179.6748046875</ele>
        <time>2012-06-23T15:11:04Z</time>
      </trkpt>
      <trkpt lat="42.70953" lon="1.42177">
        <ele>1184.4816894531</ele>
        <time>2012-06-23T15:11:07Z</time>
      </trkpt>
      <trkpt lat="42.70953" lon="1.42206">
        <ele>1194.5751953125</ele>
        <time>2012-06-23T15:11:13Z</time>
      </trkpt>
      <trkpt lat="42.70951" lon="1.42216">
        <ele>1192.6528320312</ele>
        <time>2012-06-23T15:11:17Z</time>
      </trkpt>
      <trkpt lat="42.70951" lon="1.42225">
        <ele>1192.6528320312</ele>
        <time>2012-06-23T15:11:21Z</time>
      </trkpt>
      <trkpt lat="42.70951" lon="1.4223">
        <ele>1191.69140625</ele>
        <time>2012-06-23T15:11:24Z</time>
      </trkpt>
      <trkpt lat="42.70953" lon="1.4224">
        <ele>1189.7687988281</ele>
        <time>2012-06-23T15:11:30Z</time>
      </trkpt>
      <trkpt lat="42.70956" lon="1.4225">
        <ele>1188.3269042969</ele>
        <time>2012-06-23T15:11:37Z</time>
      </trkpt>
      <trkpt lat="42.70957" lon="1.42256">
        <ele>1187.3654785156</ele>
        <time>2012-06-23T15:11:41Z</time>
      </trkpt>
      <trkpt lat="42.70959" lon="1.42267">
        <ele>1188.3269042969</ele>
        <time>2012-06-23T15:11:48Z</time>
      </trkpt>
      <trkpt lat="42.70959" lon="1.42275">
        <ele>1186.884765625</ele>
        <time>2012-06-23T15:11:53Z</time>
      </trkpt>
      <trkpt lat="42.7096" lon="1.42284">
        <ele>1185.9235839844</ele>
        <time>2012-06-23T15:11:58Z</time>
      </trkpt>
      <trkpt lat="42.70961" lon="1.42299">
        <ele>1186.404296875</ele>
        <time>2012-06-23T15:12:06Z</time>
      </trkpt>
      <trkpt lat="42.70962" lon="1.42308">
        <ele>1186.884765625</ele>
        <time>2012-06-23T15:12:11Z</time>
      </trkpt>
      <trkpt lat="42.70965" lon="1.42321">
        <ele>1184.0009765625</ele>
        <time>2012-06-23T15:12:19Z</time>
      </trkpt>
      <trkpt lat="42.70966" lon="1.42323">
        <ele>1184.0009765625</ele>
        <time>2012-06-23T15:12:20Z</time>
      </trkpt>
      <trkpt lat="42.70968" lon="1.42338">
        <ele>1186.404296875</ele>
        <time>2012-06-23T15:12:28Z</time>
      </trkpt>
      <trkpt lat="42.70969" lon="1.4234">
        <ele>1185.9235839844</ele>
        <time>2012-06-23T15:12:30Z</time>
      </trkpt>
      <trkpt lat="42.7097" lon="1.42348">
        <ele>1188.8076171875</ele>
        <time>2012-06-23T15:12:34Z</time>
      </trkpt>
      <trkpt lat="42.70977" lon="1.42354">
        <ele>1184.0009765625</ele>
        <time>2012-06-23T15:12:40Z</time>
      </trkpt>
      <trkpt lat="42.70985" lon="1.42362">
        <ele>1184.0009765625</ele>
        <time>2012-06-23T15:12:45Z</time>
      </trkpt>
      <trkpt lat="42.70987" lon="1.42365">
        <ele>1184.4816894531</ele>
        <time>2012-06-23T15:12:47Z</time>
      </trkpt>
      <trkpt lat="42.70987" lon="1.42374">
        <ele>1187.3654785156</ele>
        <time>2012-06-23T15:12:51Z</time>
      </trkpt>
      <trkpt lat="42.70987" lon="1.42385">
        <ele>1186.884765625</ele>
        <time>2012-06-23T15:12:57Z</time>
      </trkpt>
      <trkpt lat="42.70985" lon="1.4239">
        <ele>1187.8461914062</ele>
        <time>2012-06-23T15:12:59Z</time>
      </trkpt>
      <trkpt lat="42.70986" lon="1.42403">
        <ele>1191.2106933594</ele>
        <time>2012-06-23T15:13:06Z</time>
      </trkpt>
      <trkpt lat="42.70986" lon="1.42411">
        <ele>1192.6528320312</ele>
        <time>2012-06-23T15:13:10Z</time>
      </trkpt>
      <trkpt lat="42.70987" lon="1.42415">
        <ele>1193.1333007812</ele>
        <time>2012-06-23T15:13:13Z</time>
      </trkpt>
      <trkpt lat="42.70988" lon="1.42422">
        <ele>1194.5751953125</ele>
        <time>2012-06-23T15:13:17Z</time>
      </trkpt>
      <trkpt lat="42.70988" lon="1.42435">
        <ele>1197.4594726562</ele>
        <time>2012-06-23T15:13:24Z</time>
      </trkpt>
      <trkpt lat="42.70994" lon="1.42434">
        <ele>1195.5366210938</ele>
        <time>2012-06-23T15:13:31Z</time>
      </trkpt>
      <trkpt lat="42.71001" lon="1.42433">
        <ele>1193.1333007812</ele>
        <time>2012-06-23T15:13:52Z</time>
      </trkpt>
      <trkpt lat="42.71002" lon="1.42438">
        <ele>1194.5751953125</ele>
        <time>2012-06-23T15:13:55Z</time>
      </trkpt>
      <trkpt lat="42.71003" lon="1.42444">
        <ele>1191.2106933594</ele>
        <time>2012-06-23T15:13:59Z</time>
      </trkpt>
      <trkpt lat="42.71006" lon="1.42455">
        <ele>1188.8076171875</ele>
        <time>2012-06-23T15:14:05Z</time>
      </trkpt>
      <trkpt lat="42.71007" lon="1.42461">
        <ele>1185.9235839844</ele>
        <time>2012-06-23T15:14:09Z</time>
      </trkpt>
      <trkpt lat="42.7101" lon="1.42468">
        <ele>1181.59765625</ele>
        <time>2012-06-23T15:14:14Z</time>
      </trkpt>
      <trkpt lat="42.71012" lon="1.42474">
        <ele>1179.6748046875</ele>
        <time>2012-06-23T15:14:19Z</time>
      </trkpt>
      <trkpt lat="42.71019" lon="1.4249">
        <ele>1182.5590820312</ele>
        <time>2012-06-23T15:14:28Z</time>
      </trkpt>
      <trkpt lat="42.71024" lon="1.425">
        <ele>1184.9624023438</ele>
        <time>2012-06-23T15:14:34Z</time>
      </trkpt>
      <trkpt lat="42.7103" lon="1.4251">
        <ele>1184.4816894531</ele>
        <time>2012-06-23T15:14:41Z</time>
      </trkpt>
      <trkpt lat="42.71034" lon="1.42521">
        <ele>1185.4428710938</ele>
        <time>2012-06-23T15:14:48Z</time>
      </trkpt>
      <trkpt lat="42.71037" lon="1.42528">
        <ele>1186.884765625</ele>
        <time>2012-06-23T15:14:53Z</time>
      </trkpt>
      <trkpt lat="42.71035" lon="1.42537">
        <ele>1190.2495117188</ele>
        <time>2012-06-23T15:14:56Z</time>
      </trkpt>
      <trkpt lat="42.71026" lon="1.42542">
        <ele>1192.1721191406</ele>
        <time>2012-06-23T15:15:01Z</time>
      </trkpt>
      <trkpt lat="42.71026" lon="1.42546">
        <ele>1191.2106933594</ele>
        <time>2012-06-23T15:15:05Z</time>
      </trkpt>
      <trkpt lat="42.71029" lon="1.42547">
        <ele>1188.3269042969</ele>
        <time>2012-06-23T15:15:08Z</time>
      </trkpt>
      <trkpt lat="42.71035" lon="1.42554">
        <ele>1183.5202636719</ele>
        <time>2012-06-23T15:15:13Z</time>
      </trkpt>
      <trkpt lat="42.71037" lon="1.42557">
        <ele>1183.5202636719</ele>
        <time>2012-06-23T15:15:15Z</time>
      </trkpt>
      <trkpt lat="42.71027" lon="1.42559">
        <ele>1181.59765625</ele>
        <time>2012-06-23T15:15:20Z</time>
      </trkpt>
      <trkpt lat="42.71017" lon="1.42562">
        <ele>1178.7136230469</ele>
        <time>2012-06-23T15:15:27Z</time>
      </trkpt>
      <trkpt lat="42.71017" lon="1.42561">
        <ele>1177.7521972656</ele>
        <time>2012-06-23T15:15:28Z</time>
      </trkpt>
      <trkpt lat="42.71014" lon="1.42567">
        <ele>1174.8684082031</ele>
        <time>2012-06-23T15:15:34Z</time>
      </trkpt>
    </trkseg>
  </trk>
</gpx>